<?xml version="1.0" encoding="UTF-8" standalone="no" ?>
<gpx xmlns="http://www.topografix.com/GPX/1/1" xmlns:xsi="http://www.w3.org/2001/XMLSchema-instance" xsi:schemaLocation="http://www.topografix.com/GPX/1/1 http://www.topografix.com/GPX/1/1/gpx.xsd" version="1.1" creator="VisuGPX - https://www.visugpx.com">
  <metadata>
    <name>BOUCLE MONTS DU FOREZ - NORD</name>
  </metadata>
  <trk>
    <name><![CDATA[11389904-MONTS DU FOREZ - NORD]]></name>
    <trkseg>
      <trkpt lat="45.88512" lon="4.4879">
        <ele>419</ele>
        <time>2020-05-30T19:34:18Z</time>
      </trkpt>
      <trkpt lat="45.88524" lon="4.48819">
        <ele>420</ele>
        <time>2020-05-30T19:34:22Z</time>
      </trkpt>
      <trkpt lat="45.88542" lon="4.48855">
        <ele>421</ele>
        <time>2020-05-30T19:34:28Z</time>
      </trkpt>
      <trkpt lat="45.88545" lon="4.48879">
        <ele>420</ele>
        <time>2020-05-30T19:34:31Z</time>
      </trkpt>
      <trkpt lat="45.88547" lon="4.48935">
        <ele>420</ele>
        <time>2020-05-30T19:34:38Z</time>
      </trkpt>
      <trkpt lat="45.88569" lon="4.48936">
        <ele>422</ele>
        <time>2020-05-30T19:34:42Z</time>
      </trkpt>
      <trkpt lat="45.88576" lon="4.48928">
        <ele>422</ele>
        <time>2020-05-30T19:34:43Z</time>
      </trkpt>
      <trkpt lat="45.88587" lon="4.48904">
        <ele>424</ele>
        <time>2020-05-30T19:34:47Z</time>
      </trkpt>
      <trkpt lat="45.88602" lon="4.48898">
        <ele>425</ele>
        <time>2020-05-30T19:34:49Z</time>
      </trkpt>
      <trkpt lat="45.88616" lon="4.489">
        <ele>426</ele>
        <time>2020-05-30T19:34:52Z</time>
      </trkpt>
      <trkpt lat="45.88654" lon="4.48924">
        <ele>428</ele>
        <time>2020-05-30T19:34:59Z</time>
      </trkpt>
      <trkpt lat="45.8867" lon="4.48927">
        <ele>429</ele>
        <time>2020-05-30T19:35:02Z</time>
      </trkpt>
      <trkpt lat="45.88717" lon="4.48925">
        <ele>435</ele>
        <time>2020-05-30T19:35:11Z</time>
      </trkpt>
      <trkpt lat="45.88737" lon="4.48929">
        <ele>437</ele>
        <time>2020-05-30T19:35:14Z</time>
      </trkpt>
      <trkpt lat="45.88753" lon="4.48942">
        <ele>438</ele>
        <time>2020-05-30T19:35:17Z</time>
      </trkpt>
      <trkpt lat="45.88767" lon="4.48968">
        <ele>439</ele>
        <time>2020-05-30T19:35:22Z</time>
      </trkpt>
      <trkpt lat="45.88796" lon="4.4903">
        <ele>442</ele>
        <time>2020-05-30T19:35:31Z</time>
      </trkpt>
      <trkpt lat="45.88803" lon="4.49035">
        <ele>444</ele>
        <time>2020-05-30T19:35:32Z</time>
      </trkpt>
      <trkpt lat="45.88812" lon="4.49031">
        <ele>446</ele>
        <time>2020-05-30T19:35:34Z</time>
      </trkpt>
      <trkpt lat="45.88825" lon="4.49018">
        <ele>450</ele>
        <time>2020-05-30T19:35:37Z</time>
      </trkpt>
      <trkpt lat="45.88871" lon="4.49047">
        <ele>457</ele>
        <time>2020-05-30T19:35:46Z</time>
      </trkpt>
      <trkpt lat="45.88957" lon="4.49111">
        <ele>468</ele>
        <time>2020-05-30T19:36:03Z</time>
      </trkpt>
      <trkpt lat="45.89001" lon="4.49139">
        <ele>472</ele>
        <time>2020-05-30T19:36:11Z</time>
      </trkpt>
      <trkpt lat="45.89036" lon="4.49153">
        <ele>471</ele>
        <time>2020-05-30T19:36:18Z</time>
      </trkpt>
      <trkpt lat="45.8905" lon="4.49153">
        <ele>471</ele>
        <time>2020-05-30T19:36:20Z</time>
      </trkpt>
      <trkpt lat="45.89068" lon="4.49149">
        <ele>472</ele>
        <time>2020-05-30T19:36:24Z</time>
      </trkpt>
      <trkpt lat="45.89113" lon="4.49126">
        <ele>471</ele>
        <time>2020-05-30T19:36:32Z</time>
      </trkpt>
      <trkpt lat="45.89126" lon="4.49129">
        <ele>470</ele>
        <time>2020-05-30T19:36:34Z</time>
      </trkpt>
      <trkpt lat="45.89133" lon="4.49121">
        <ele>470</ele>
        <time>2020-05-30T19:36:36Z</time>
      </trkpt>
      <trkpt lat="45.8914" lon="4.49115">
        <ele>470</ele>
        <time>2020-05-30T19:36:37Z</time>
      </trkpt>
      <trkpt lat="45.89166" lon="4.49099">
        <ele>469</ele>
        <time>2020-05-30T19:36:43Z</time>
      </trkpt>
      <trkpt lat="45.8918" lon="4.49095">
        <ele>469</ele>
        <time>2020-05-30T19:36:45Z</time>
      </trkpt>
      <trkpt lat="45.89194" lon="4.49093">
        <ele>469</ele>
        <time>2020-05-30T19:36:48Z</time>
      </trkpt>
      <trkpt lat="45.89218" lon="4.49095">
        <ele>468</ele>
        <time>2020-05-30T19:36:52Z</time>
      </trkpt>
      <trkpt lat="45.89226" lon="4.49099">
        <ele>468</ele>
        <time>2020-05-30T19:36:53Z</time>
      </trkpt>
      <trkpt lat="45.89239" lon="4.49105">
        <ele>467</ele>
        <time>2020-05-30T19:36:56Z</time>
      </trkpt>
      <trkpt lat="45.89258" lon="4.49119">
        <ele>466</ele>
        <time>2020-05-30T19:37:00Z</time>
      </trkpt>
      <trkpt lat="45.89274" lon="4.49137">
        <ele>466</ele>
        <time>2020-05-30T19:37:03Z</time>
      </trkpt>
      <trkpt lat="45.89284" lon="4.49152">
        <ele>466</ele>
        <time>2020-05-30T19:37:06Z</time>
      </trkpt>
      <trkpt lat="45.89289" lon="4.4916">
        <ele>466</ele>
        <time>2020-05-30T19:37:07Z</time>
      </trkpt>
      <trkpt lat="45.89313" lon="4.492">
        <ele>465</ele>
        <time>2020-05-30T19:37:14Z</time>
      </trkpt>
      <trkpt lat="45.8932" lon="4.49209">
        <ele>465</ele>
        <time>2020-05-30T19:37:15Z</time>
      </trkpt>
      <trkpt lat="45.89328" lon="4.49218">
        <ele>465</ele>
        <time>2020-05-30T19:37:17Z</time>
      </trkpt>
      <trkpt lat="45.89339" lon="4.49226">
        <ele>465</ele>
        <time>2020-05-30T19:37:19Z</time>
      </trkpt>
      <trkpt lat="45.89352" lon="4.4923">
        <ele>464</ele>
        <time>2020-05-30T19:37:22Z</time>
      </trkpt>
      <trkpt lat="45.89369" lon="4.4923">
        <ele>463</ele>
        <time>2020-05-30T19:37:25Z</time>
      </trkpt>
      <trkpt lat="45.89385" lon="4.49227">
        <ele>462</ele>
        <time>2020-05-30T19:37:28Z</time>
      </trkpt>
      <trkpt lat="45.894" lon="4.4922">
        <ele>461</ele>
        <time>2020-05-30T19:37:30Z</time>
      </trkpt>
      <trkpt lat="45.89441" lon="4.49195">
        <ele>462</ele>
        <time>2020-05-30T19:37:38Z</time>
      </trkpt>
      <trkpt lat="45.89465" lon="4.49184">
        <ele>463</ele>
        <time>2020-05-30T19:37:43Z</time>
      </trkpt>
      <trkpt lat="45.89543" lon="4.49161">
        <ele>464</ele>
        <time>2020-05-30T19:37:57Z</time>
      </trkpt>
      <trkpt lat="45.8962" lon="4.49143">
        <ele>463</ele>
        <time>2020-05-30T19:38:11Z</time>
      </trkpt>
      <trkpt lat="45.89647" lon="4.4914">
        <ele>462</ele>
        <time>2020-05-30T19:38:16Z</time>
      </trkpt>
      <trkpt lat="45.89662" lon="4.49133">
        <ele>462</ele>
        <time>2020-05-30T19:38:18Z</time>
      </trkpt>
      <trkpt lat="45.89672" lon="4.49129">
        <ele>461</ele>
        <time>2020-05-30T19:38:20Z</time>
      </trkpt>
      <trkpt lat="45.89698" lon="4.49093">
        <ele>460</ele>
        <time>2020-05-30T19:38:27Z</time>
      </trkpt>
      <trkpt lat="45.89736" lon="4.49033">
        <ele>461</ele>
        <time>2020-05-30T19:38:37Z</time>
      </trkpt>
      <trkpt lat="45.89782" lon="4.4899">
        <ele>459</ele>
        <time>2020-05-30T19:38:47Z</time>
      </trkpt>
      <trkpt lat="45.89807" lon="4.48982">
        <ele>455</ele>
        <time>2020-05-30T19:38:51Z</time>
      </trkpt>
      <trkpt lat="45.89815" lon="4.48981">
        <ele>454</ele>
        <time>2020-05-30T19:38:53Z</time>
      </trkpt>
      <trkpt lat="45.89836" lon="4.48981">
        <ele>450</ele>
        <time>2020-05-30T19:38:56Z</time>
      </trkpt>
      <trkpt lat="45.89863" lon="4.4897">
        <ele>446</ele>
        <time>2020-05-30T19:39:01Z</time>
      </trkpt>
      <trkpt lat="45.89888" lon="4.48934">
        <ele>445</ele>
        <time>2020-05-30T19:39:08Z</time>
      </trkpt>
      <trkpt lat="45.89908" lon="4.48846">
        <ele>445</ele>
        <time>2020-05-30T19:39:19Z</time>
      </trkpt>
      <trkpt lat="45.89928" lon="4.48732">
        <ele>444</ele>
        <time>2020-05-30T19:39:34Z</time>
      </trkpt>
      <trkpt lat="45.89928" lon="4.48653">
        <ele>442</ele>
        <time>2020-05-30T19:39:43Z</time>
      </trkpt>
      <trkpt lat="45.89923" lon="4.48614">
        <ele>442</ele>
        <time>2020-05-30T19:39:48Z</time>
      </trkpt>
      <trkpt lat="45.89924" lon="4.48598">
        <ele>442</ele>
        <time>2020-05-30T19:39:50Z</time>
      </trkpt>
      <trkpt lat="45.89929" lon="4.48579">
        <ele>442</ele>
        <time>2020-05-30T19:39:53Z</time>
      </trkpt>
      <trkpt lat="45.89938" lon="4.48562">
        <ele>441</ele>
        <time>2020-05-30T19:39:55Z</time>
      </trkpt>
      <trkpt lat="45.89947" lon="4.4855">
        <ele>441</ele>
        <time>2020-05-30T19:39:58Z</time>
      </trkpt>
      <trkpt lat="45.89959" lon="4.4854">
        <ele>440</ele>
        <time>2020-05-30T19:40:00Z</time>
      </trkpt>
      <trkpt lat="45.8997" lon="4.48534">
        <ele>440</ele>
        <time>2020-05-30T19:40:02Z</time>
      </trkpt>
      <trkpt lat="45.89982" lon="4.48532">
        <ele>439</ele>
        <time>2020-05-30T19:40:04Z</time>
      </trkpt>
      <trkpt lat="45.89991" lon="4.48534">
        <ele>438</ele>
        <time>2020-05-30T19:40:06Z</time>
      </trkpt>
      <trkpt lat="45.90003" lon="4.48539">
        <ele>438</ele>
        <time>2020-05-30T19:40:08Z</time>
      </trkpt>
      <trkpt lat="45.90022" lon="4.48565">
        <ele>438</ele>
        <time>2020-05-30T19:40:13Z</time>
      </trkpt>
      <trkpt lat="45.90089" lon="4.48702">
        <ele>433</ele>
        <time>2020-05-30T19:40:34Z</time>
      </trkpt>
      <trkpt lat="45.90125" lon="4.48776">
        <ele>433</ele>
        <time>2020-05-30T19:40:45Z</time>
      </trkpt>
      <trkpt lat="45.90183" lon="4.48892">
        <ele>435</ele>
        <time>2020-05-30T19:41:02Z</time>
      </trkpt>
      <trkpt lat="45.9028" lon="4.49086">
        <ele>439</ele>
        <time>2020-05-30T19:41:32Z</time>
      </trkpt>
      <trkpt lat="45.90289" lon="4.49114">
        <ele>439</ele>
        <time>2020-05-30T19:41:36Z</time>
      </trkpt>
      <trkpt lat="45.90292" lon="4.49126">
        <ele>438</ele>
        <time>2020-05-30T19:41:37Z</time>
      </trkpt>
      <trkpt lat="45.90293" lon="4.49133">
        <ele>438</ele>
        <time>2020-05-30T19:41:38Z</time>
      </trkpt>
      <trkpt lat="45.90294" lon="4.49142">
        <ele>438</ele>
        <time>2020-05-30T19:41:39Z</time>
      </trkpt>
      <trkpt lat="45.90295" lon="4.49147">
        <ele>438</ele>
        <time>2020-05-30T19:41:40Z</time>
      </trkpt>
      <trkpt lat="45.90303" lon="4.49192">
        <ele>437</ele>
        <time>2020-05-30T19:41:46Z</time>
      </trkpt>
      <trkpt lat="45.90304" lon="4.49194">
        <ele>437</ele>
        <time>2020-05-30T19:41:46Z</time>
      </trkpt>
      <trkpt lat="45.90311" lon="4.49221">
        <ele>436</ele>
        <time>2020-05-30T19:41:50Z</time>
      </trkpt>
      <trkpt lat="45.90317" lon="4.49238">
        <ele>436</ele>
        <time>2020-05-30T19:41:52Z</time>
      </trkpt>
      <trkpt lat="45.90323" lon="4.49251">
        <ele>435</ele>
        <time>2020-05-30T19:41:54Z</time>
      </trkpt>
      <trkpt lat="45.90339" lon="4.49267">
        <ele>434</ele>
        <time>2020-05-30T19:41:57Z</time>
      </trkpt>
      <trkpt lat="45.90355" lon="4.49268">
        <ele>432</ele>
        <time>2020-05-30T19:42:00Z</time>
      </trkpt>
      <trkpt lat="45.90388" lon="4.4927">
        <ele>429</ele>
        <time>2020-05-30T19:42:06Z</time>
      </trkpt>
      <trkpt lat="45.90407" lon="4.49321">
        <ele>424</ele>
        <time>2020-05-30T19:42:13Z</time>
      </trkpt>
      <trkpt lat="45.90428" lon="4.49381">
        <ele>421</ele>
        <time>2020-05-30T19:42:22Z</time>
      </trkpt>
      <trkpt lat="45.90433" lon="4.4941">
        <ele>420</ele>
        <time>2020-05-30T19:42:25Z</time>
      </trkpt>
      <trkpt lat="45.90432" lon="4.4944">
        <ele>418</ele>
        <time>2020-05-30T19:42:29Z</time>
      </trkpt>
      <trkpt lat="45.90412" lon="4.49565">
        <ele>412</ele>
        <time>2020-05-30T19:42:45Z</time>
      </trkpt>
      <trkpt lat="45.90409" lon="4.49595">
        <ele>410</ele>
        <time>2020-05-30T19:42:49Z</time>
      </trkpt>
      <trkpt lat="45.90414" lon="4.49675">
        <ele>408</ele>
        <time>2020-05-30T19:42:59Z</time>
      </trkpt>
      <trkpt lat="45.90414" lon="4.49712">
        <ele>406</ele>
        <time>2020-05-30T19:43:03Z</time>
      </trkpt>
      <trkpt lat="45.90411" lon="4.49725">
        <ele>405</ele>
        <time>2020-05-30T19:43:05Z</time>
      </trkpt>
      <trkpt lat="45.90406" lon="4.49741">
        <ele>404</ele>
        <time>2020-05-30T19:43:07Z</time>
      </trkpt>
      <trkpt lat="45.90398" lon="4.49797">
        <ele>401</ele>
        <time>2020-05-30T19:43:14Z</time>
      </trkpt>
      <trkpt lat="45.90379" lon="4.49971">
        <ele>392</ele>
        <time>2020-05-30T19:43:36Z</time>
      </trkpt>
      <trkpt lat="45.90379" lon="4.50004">
        <ele>390</ele>
        <time>2020-05-30T19:43:40Z</time>
      </trkpt>
      <trkpt lat="45.9038" lon="4.5003">
        <ele>390</ele>
        <time>2020-05-30T19:43:43Z</time>
      </trkpt>
      <trkpt lat="45.90391" lon="4.50068">
        <ele>388</ele>
        <time>2020-05-30T19:43:48Z</time>
      </trkpt>
      <trkpt lat="45.9041" lon="4.50097">
        <ele>386</ele>
        <time>2020-05-30T19:43:53Z</time>
      </trkpt>
      <trkpt lat="45.90432" lon="4.50121">
        <ele>385</ele>
        <time>2020-05-30T19:43:58Z</time>
      </trkpt>
      <trkpt lat="45.90462" lon="4.50127">
        <ele>384</ele>
        <time>2020-05-30T19:44:04Z</time>
      </trkpt>
      <trkpt lat="45.90505" lon="4.50105">
        <ele>383</ele>
        <time>2020-05-30T19:44:12Z</time>
      </trkpt>
      <trkpt lat="45.90709" lon="4.49957">
        <ele>369</ele>
        <time>2020-05-30T19:44:52Z</time>
      </trkpt>
      <trkpt lat="45.90713" lon="4.49954">
        <ele>369</ele>
        <time>2020-05-30T19:44:53Z</time>
      </trkpt>
      <trkpt lat="45.90773" lon="4.49915">
        <ele>363</ele>
        <time>2020-05-30T19:45:05Z</time>
      </trkpt>
      <trkpt lat="45.90796" lon="4.49915">
        <ele>361</ele>
        <time>2020-05-30T19:45:09Z</time>
      </trkpt>
      <trkpt lat="45.90815" lon="4.49931">
        <ele>359</ele>
        <time>2020-05-30T19:45:13Z</time>
      </trkpt>
      <trkpt lat="45.90833" lon="4.49982">
        <ele>358</ele>
        <time>2020-05-30T19:45:20Z</time>
      </trkpt>
      <trkpt lat="45.90847" lon="4.50085">
        <ele>361</ele>
        <time>2020-05-30T19:45:33Z</time>
      </trkpt>
      <trkpt lat="45.90862" lon="4.50172">
        <ele>358</ele>
        <time>2020-05-30T19:45:44Z</time>
      </trkpt>
      <trkpt lat="45.90871" lon="4.50328">
        <ele>344</ele>
        <time>2020-05-30T19:46:03Z</time>
      </trkpt>
      <trkpt lat="45.90883" lon="4.50378">
        <ele>340</ele>
        <time>2020-05-30T19:46:10Z</time>
      </trkpt>
      <trkpt lat="45.90888" lon="4.5042">
        <ele>337</ele>
        <time>2020-05-30T19:46:15Z</time>
      </trkpt>
      <trkpt lat="45.90888" lon="4.50457">
        <ele>334</ele>
        <time>2020-05-30T19:46:20Z</time>
      </trkpt>
      <trkpt lat="45.90884" lon="4.50484">
        <ele>332</ele>
        <time>2020-05-30T19:46:23Z</time>
      </trkpt>
      <trkpt lat="45.9088" lon="4.5055">
        <ele>330</ele>
        <time>2020-05-30T19:46:31Z</time>
      </trkpt>
      <trkpt lat="45.90887" lon="4.50596">
        <ele>327</ele>
        <time>2020-05-30T19:46:37Z</time>
      </trkpt>
      <trkpt lat="45.9088" lon="4.50648">
        <ele>327</ele>
        <time>2020-05-30T19:46:44Z</time>
      </trkpt>
      <trkpt lat="45.90879" lon="4.50731">
        <ele>324</ele>
        <time>2020-05-30T19:46:54Z</time>
      </trkpt>
      <trkpt lat="45.9088" lon="4.5081">
        <ele>322</ele>
        <time>2020-05-30T19:47:04Z</time>
      </trkpt>
      <trkpt lat="45.90876" lon="4.50901">
        <ele>322</ele>
        <time>2020-05-30T19:47:15Z</time>
      </trkpt>
      <trkpt lat="45.90878" lon="4.50943">
        <ele>321</ele>
        <time>2020-05-30T19:47:20Z</time>
      </trkpt>
      <trkpt lat="45.90893" lon="4.50962">
        <ele>316</ele>
        <time>2020-05-30T19:47:24Z</time>
      </trkpt>
      <trkpt lat="45.90914" lon="4.5097">
        <ele>310</ele>
        <time>2020-05-30T19:47:28Z</time>
      </trkpt>
      <trkpt lat="45.9092" lon="4.50973">
        <ele>309</ele>
        <time>2020-05-30T19:47:29Z</time>
      </trkpt>
      <trkpt lat="45.90927" lon="4.50975">
        <ele>309</ele>
        <time>2020-05-30T19:47:30Z</time>
      </trkpt>
      <trkpt lat="45.9095" lon="4.50984">
        <ele>310</ele>
        <time>2020-05-30T19:47:35Z</time>
      </trkpt>
      <trkpt lat="45.90972" lon="4.5099">
        <ele>310</ele>
        <time>2020-05-30T19:47:38Z</time>
      </trkpt>
      <trkpt lat="45.90976" lon="4.50935">
        <ele>312</ele>
        <time>2020-05-30T19:47:45Z</time>
      </trkpt>
      <trkpt lat="45.90981" lon="4.50902">
        <ele>313</ele>
        <time>2020-05-30T19:47:50Z</time>
      </trkpt>
      <trkpt lat="45.90989" lon="4.5087">
        <ele>312</ele>
        <time>2020-05-30T19:47:54Z</time>
      </trkpt>
      <trkpt lat="45.91002" lon="4.50834">
        <ele>312</ele>
        <time>2020-05-30T19:47:59Z</time>
      </trkpt>
      <trkpt lat="45.9101" lon="4.50806">
        <ele>313</ele>
        <time>2020-05-30T19:48:02Z</time>
      </trkpt>
      <trkpt lat="45.91014" lon="4.50785">
        <ele>314</ele>
        <time>2020-05-30T19:48:05Z</time>
      </trkpt>
      <trkpt lat="45.91016" lon="4.50763">
        <ele>314</ele>
        <time>2020-05-30T19:48:08Z</time>
      </trkpt>
      <trkpt lat="45.91015" lon="4.5074">
        <ele>314</ele>
        <time>2020-05-30T19:48:11Z</time>
      </trkpt>
      <trkpt lat="45.91012" lon="4.50715">
        <ele>314</ele>
        <time>2020-05-30T19:48:14Z</time>
      </trkpt>
      <trkpt lat="45.90991" lon="4.50609">
        <ele>315</ele>
        <time>2020-05-30T19:48:28Z</time>
      </trkpt>
      <trkpt lat="45.9099" lon="4.50574">
        <ele>316</ele>
        <time>2020-05-30T19:48:32Z</time>
      </trkpt>
      <trkpt lat="45.90992" lon="4.50526">
        <ele>315</ele>
        <time>2020-05-30T19:48:38Z</time>
      </trkpt>
      <trkpt lat="45.90995" lon="4.5049">
        <ele>315</ele>
        <time>2020-05-30T19:48:42Z</time>
      </trkpt>
      <trkpt lat="45.91002" lon="4.50455">
        <ele>315</ele>
        <time>2020-05-30T19:48:47Z</time>
      </trkpt>
      <trkpt lat="45.91013" lon="4.50422">
        <ele>317</ele>
        <time>2020-05-30T19:48:51Z</time>
      </trkpt>
      <trkpt lat="45.9103" lon="4.50385">
        <ele>320</ele>
        <time>2020-05-30T19:48:57Z</time>
      </trkpt>
      <trkpt lat="45.91052" lon="4.50348">
        <ele>323</ele>
        <time>2020-05-30T19:49:03Z</time>
      </trkpt>
      <trkpt lat="45.91074" lon="4.50304">
        <ele>325</ele>
        <time>2020-05-30T19:49:10Z</time>
      </trkpt>
      <trkpt lat="45.91085" lon="4.50266">
        <ele>324</ele>
        <time>2020-05-30T19:49:15Z</time>
      </trkpt>
      <trkpt lat="45.91136" lon="4.50057">
        <ele>326</ele>
        <time>2020-05-30T19:49:42Z</time>
      </trkpt>
      <trkpt lat="45.91148" lon="4.50025">
        <ele>326</ele>
        <time>2020-05-30T19:49:47Z</time>
      </trkpt>
      <trkpt lat="45.91161" lon="4.49998">
        <ele>325</ele>
        <time>2020-05-30T19:49:51Z</time>
      </trkpt>
      <trkpt lat="45.91189" lon="4.49957">
        <ele>324</ele>
        <time>2020-05-30T19:49:58Z</time>
      </trkpt>
      <trkpt lat="45.91227" lon="4.49911">
        <ele>326</ele>
        <time>2020-05-30T19:50:07Z</time>
      </trkpt>
      <trkpt lat="45.91252" lon="4.49863">
        <ele>327</ele>
        <time>2020-05-30T19:50:14Z</time>
      </trkpt>
      <trkpt lat="45.9127" lon="4.49816">
        <ele>329</ele>
        <time>2020-05-30T19:50:21Z</time>
      </trkpt>
      <trkpt lat="45.91296" lon="4.49705">
        <ele>330</ele>
        <time>2020-05-30T19:50:35Z</time>
      </trkpt>
      <trkpt lat="45.91322" lon="4.49644">
        <ele>329</ele>
        <time>2020-05-30T19:50:44Z</time>
      </trkpt>
      <trkpt lat="45.9136" lon="4.4959">
        <ele>331</ele>
        <time>2020-05-30T19:50:54Z</time>
      </trkpt>
      <trkpt lat="45.91453" lon="4.49492">
        <ele>341</ele>
        <time>2020-05-30T19:51:14Z</time>
      </trkpt>
      <trkpt lat="45.91483" lon="4.49444">
        <ele>343</ele>
        <time>2020-05-30T19:51:22Z</time>
      </trkpt>
      <trkpt lat="45.91536" lon="4.49291">
        <ele>336</ele>
        <time>2020-05-30T19:51:43Z</time>
      </trkpt>
      <trkpt lat="45.91603" lon="4.49155">
        <ele>333</ele>
        <time>2020-05-30T19:52:04Z</time>
      </trkpt>
      <trkpt lat="45.91629" lon="4.49115">
        <ele>335</ele>
        <time>2020-05-30T19:52:11Z</time>
      </trkpt>
      <trkpt lat="45.91662" lon="4.49076">
        <ele>336</ele>
        <time>2020-05-30T19:52:18Z</time>
      </trkpt>
      <trkpt lat="45.91724" lon="4.49019">
        <ele>334</ele>
        <time>2020-05-30T19:52:31Z</time>
      </trkpt>
      <trkpt lat="45.91742" lon="4.48998">
        <ele>331</ele>
        <time>2020-05-30T19:52:35Z</time>
      </trkpt>
      <trkpt lat="45.91758" lon="4.48975">
        <ele>329</ele>
        <time>2020-05-30T19:52:39Z</time>
      </trkpt>
      <trkpt lat="45.91777" lon="4.48941">
        <ele>329</ele>
        <time>2020-05-30T19:52:45Z</time>
      </trkpt>
      <trkpt lat="45.91791" lon="4.48909">
        <ele>329</ele>
        <time>2020-05-30T19:52:50Z</time>
      </trkpt>
      <trkpt lat="45.91804" lon="4.48871">
        <ele>333</ele>
        <time>2020-05-30T19:52:55Z</time>
      </trkpt>
      <trkpt lat="45.91841" lon="4.48728">
        <ele>335</ele>
        <time>2020-05-30T19:53:14Z</time>
      </trkpt>
      <trkpt lat="45.91853" lon="4.48688">
        <ele>336</ele>
        <time>2020-05-30T19:53:19Z</time>
      </trkpt>
      <trkpt lat="45.91866" lon="4.48654">
        <ele>338</ele>
        <time>2020-05-30T19:53:24Z</time>
      </trkpt>
      <trkpt lat="45.91886" lon="4.48617">
        <ele>340</ele>
        <time>2020-05-30T19:53:30Z</time>
      </trkpt>
      <trkpt lat="45.9193" lon="4.48548">
        <ele>342</ele>
        <time>2020-05-30T19:53:41Z</time>
      </trkpt>
      <trkpt lat="45.91951" lon="4.48512">
        <ele>343</ele>
        <time>2020-05-30T19:53:47Z</time>
      </trkpt>
      <trkpt lat="45.92236" lon="4.47978">
        <ele>348</ele>
        <time>2020-05-30T19:55:10Z</time>
      </trkpt>
      <trkpt lat="45.92254" lon="4.47937">
        <ele>346</ele>
        <time>2020-05-30T19:55:16Z</time>
      </trkpt>
      <trkpt lat="45.92267" lon="4.47896">
        <ele>347</ele>
        <time>2020-05-30T19:55:22Z</time>
      </trkpt>
      <trkpt lat="45.92274" lon="4.47868">
        <ele>348</ele>
        <time>2020-05-30T19:55:26Z</time>
      </trkpt>
      <trkpt lat="45.92279" lon="4.47839">
        <ele>349</ele>
        <time>2020-05-30T19:55:29Z</time>
      </trkpt>
      <trkpt lat="45.92281" lon="4.47811">
        <ele>349</ele>
        <time>2020-05-30T19:55:33Z</time>
      </trkpt>
      <trkpt lat="45.92282" lon="4.47762">
        <ele>350</ele>
        <time>2020-05-30T19:55:39Z</time>
      </trkpt>
      <trkpt lat="45.9228" lon="4.47729">
        <ele>351</ele>
        <time>2020-05-30T19:55:43Z</time>
      </trkpt>
      <trkpt lat="45.92274" lon="4.47693">
        <ele>350</ele>
        <time>2020-05-30T19:55:48Z</time>
      </trkpt>
      <trkpt lat="45.92266" lon="4.47658">
        <ele>350</ele>
        <time>2020-05-30T19:55:52Z</time>
      </trkpt>
      <trkpt lat="45.92255" lon="4.47626">
        <ele>349</ele>
        <time>2020-05-30T19:55:57Z</time>
      </trkpt>
      <trkpt lat="45.9223" lon="4.47564">
        <ele>353</ele>
        <time>2020-05-30T19:56:05Z</time>
      </trkpt>
      <trkpt lat="45.92206" lon="4.475">
        <ele>355</ele>
        <time>2020-05-30T19:56:14Z</time>
      </trkpt>
      <trkpt lat="45.92192" lon="4.47453">
        <ele>354</ele>
        <time>2020-05-30T19:56:21Z</time>
      </trkpt>
      <trkpt lat="45.9218" lon="4.4741">
        <ele>352</ele>
        <time>2020-05-30T19:56:26Z</time>
      </trkpt>
      <trkpt lat="45.92173" lon="4.47364">
        <ele>351</ele>
        <time>2020-05-30T19:56:32Z</time>
      </trkpt>
      <trkpt lat="45.92167" lon="4.47312">
        <ele>351</ele>
        <time>2020-05-30T19:56:39Z</time>
      </trkpt>
      <trkpt lat="45.92166" lon="4.47241">
        <ele>353</ele>
        <time>2020-05-30T19:56:48Z</time>
      </trkpt>
      <trkpt lat="45.92168" lon="4.47203">
        <ele>354</ele>
        <time>2020-05-30T19:56:52Z</time>
      </trkpt>
      <trkpt lat="45.92177" lon="4.47137">
        <ele>357</ele>
        <time>2020-05-30T19:57:01Z</time>
      </trkpt>
      <trkpt lat="45.92236" lon="4.46746">
        <ele>367</ele>
        <time>2020-05-30T19:57:50Z</time>
      </trkpt>
      <trkpt lat="45.92248" lon="4.46616">
        <ele>362</ele>
        <time>2020-05-30T19:58:06Z</time>
      </trkpt>
      <trkpt lat="45.92255" lon="4.46581">
        <ele>363</ele>
        <time>2020-05-30T19:58:11Z</time>
      </trkpt>
      <trkpt lat="45.92264" lon="4.46551">
        <ele>365</ele>
        <time>2020-05-30T19:58:15Z</time>
      </trkpt>
      <trkpt lat="45.92297" lon="4.46478">
        <ele>371</ele>
        <time>2020-05-30T19:58:26Z</time>
      </trkpt>
      <trkpt lat="45.92306" lon="4.46445">
        <ele>370</ele>
        <time>2020-05-30T19:58:30Z</time>
      </trkpt>
      <trkpt lat="45.92314" lon="4.46408">
        <ele>369</ele>
        <time>2020-05-30T19:58:35Z</time>
      </trkpt>
      <trkpt lat="45.92319" lon="4.46362">
        <ele>368</ele>
        <time>2020-05-30T19:58:41Z</time>
      </trkpt>
      <trkpt lat="45.92322" lon="4.46325">
        <ele>368</ele>
        <time>2020-05-30T19:58:45Z</time>
      </trkpt>
      <trkpt lat="45.92321" lon="4.46294">
        <ele>367</ele>
        <time>2020-05-30T19:58:49Z</time>
      </trkpt>
      <trkpt lat="45.92305" lon="4.46146">
        <ele>367</ele>
        <time>2020-05-30T19:59:08Z</time>
      </trkpt>
      <trkpt lat="45.92303" lon="4.45993">
        <ele>370</ele>
        <time>2020-05-30T19:59:27Z</time>
      </trkpt>
      <trkpt lat="45.92304" lon="4.45898">
        <ele>372</ele>
        <time>2020-05-30T19:59:38Z</time>
      </trkpt>
      <trkpt lat="45.92309" lon="4.45747">
        <ele>378</ele>
        <time>2020-05-30T19:59:57Z</time>
      </trkpt>
      <trkpt lat="45.92315" lon="4.45462">
        <ele>386</ele>
        <time>2020-05-30T20:00:32Z</time>
      </trkpt>
      <trkpt lat="45.92315" lon="4.45424">
        <ele>388</ele>
        <time>2020-05-30T20:00:37Z</time>
      </trkpt>
      <trkpt lat="45.92343" lon="4.45262">
        <ele>389</ele>
        <time>2020-05-30T20:00:58Z</time>
      </trkpt>
      <trkpt lat="45.92367" lon="4.45159">
        <ele>392</ele>
        <time>2020-05-30T20:01:11Z</time>
      </trkpt>
      <trkpt lat="45.9239" lon="4.45091">
        <ele>390</ele>
        <time>2020-05-30T20:01:21Z</time>
      </trkpt>
      <trkpt lat="45.92418" lon="4.45028">
        <ele>384</ele>
        <time>2020-05-30T20:01:30Z</time>
      </trkpt>
      <trkpt lat="45.92441" lon="4.44984">
        <ele>386</ele>
        <time>2020-05-30T20:01:37Z</time>
      </trkpt>
      <trkpt lat="45.92446" lon="4.44976">
        <ele>387</ele>
        <time>2020-05-30T20:01:38Z</time>
      </trkpt>
      <trkpt lat="45.92454" lon="4.4496">
        <ele>387</ele>
        <time>2020-05-30T20:01:40Z</time>
      </trkpt>
      <trkpt lat="45.92459" lon="4.44952">
        <ele>387</ele>
        <time>2020-05-30T20:01:42Z</time>
      </trkpt>
      <trkpt lat="45.92554" lon="4.44778">
        <ele>389</ele>
        <time>2020-05-30T20:02:09Z</time>
      </trkpt>
      <trkpt lat="45.92572" lon="4.44746">
        <ele>391</ele>
        <time>2020-05-30T20:02:14Z</time>
      </trkpt>
      <trkpt lat="45.92587" lon="4.44712">
        <ele>391</ele>
        <time>2020-05-30T20:02:19Z</time>
      </trkpt>
      <trkpt lat="45.92656" lon="4.44534">
        <ele>397</ele>
        <time>2020-05-30T20:02:44Z</time>
      </trkpt>
      <trkpt lat="45.92684" lon="4.44489">
        <ele>398</ele>
        <time>2020-05-30T20:02:52Z</time>
      </trkpt>
      <trkpt lat="45.927" lon="4.4447">
        <ele>402</ele>
        <time>2020-05-30T20:02:56Z</time>
      </trkpt>
      <trkpt lat="45.9272" lon="4.44453">
        <ele>404</ele>
        <time>2020-05-30T20:03:00Z</time>
      </trkpt>
      <trkpt lat="45.92744" lon="4.44439">
        <ele>403</ele>
        <time>2020-05-30T20:03:04Z</time>
      </trkpt>
      <trkpt lat="45.92766" lon="4.44429">
        <ele>403</ele>
        <time>2020-05-30T20:03:08Z</time>
      </trkpt>
      <trkpt lat="45.92829" lon="4.44409">
        <ele>406</ele>
        <time>2020-05-30T20:03:20Z</time>
      </trkpt>
      <trkpt lat="45.92855" lon="4.44395">
        <ele>409</ele>
        <time>2020-05-30T20:03:25Z</time>
      </trkpt>
      <trkpt lat="45.92884" lon="4.44377">
        <ele>410</ele>
        <time>2020-05-30T20:03:30Z</time>
      </trkpt>
      <trkpt lat="45.92917" lon="4.44356">
        <ele>408</ele>
        <time>2020-05-30T20:03:37Z</time>
      </trkpt>
      <trkpt lat="45.92944" lon="4.44342">
        <ele>407</ele>
        <time>2020-05-30T20:03:42Z</time>
      </trkpt>
      <trkpt lat="45.92992" lon="4.44316">
        <ele>409</ele>
        <time>2020-05-30T20:03:51Z</time>
      </trkpt>
      <trkpt lat="45.93043" lon="4.44291">
        <ele>411</ele>
        <time>2020-05-30T20:04:01Z</time>
      </trkpt>
      <trkpt lat="45.93067" lon="4.44277">
        <ele>409</ele>
        <time>2020-05-30T20:04:05Z</time>
      </trkpt>
      <trkpt lat="45.93091" lon="4.44259">
        <ele>407</ele>
        <time>2020-05-30T20:04:10Z</time>
      </trkpt>
      <trkpt lat="45.93199" lon="4.44178">
        <ele>409</ele>
        <time>2020-05-30T20:04:32Z</time>
      </trkpt>
      <trkpt lat="45.93679" lon="4.43797">
        <ele>422</ele>
        <time>2020-05-30T20:06:09Z</time>
      </trkpt>
      <trkpt lat="45.9377" lon="4.43738">
        <ele>426</ele>
        <time>2020-05-30T20:06:27Z</time>
      </trkpt>
      <trkpt lat="45.93801" lon="4.43717">
        <ele>427</ele>
        <time>2020-05-30T20:06:33Z</time>
      </trkpt>
      <trkpt lat="45.93821" lon="4.43702">
        <ele>427</ele>
        <time>2020-05-30T20:06:37Z</time>
      </trkpt>
      <trkpt lat="45.93883" lon="4.43647">
        <ele>427</ele>
        <time>2020-05-30T20:06:50Z</time>
      </trkpt>
      <trkpt lat="45.93902" lon="4.43633">
        <ele>427</ele>
        <time>2020-05-30T20:06:54Z</time>
      </trkpt>
      <trkpt lat="45.93984" lon="4.43584">
        <ele>425</ele>
        <time>2020-05-30T20:07:10Z</time>
      </trkpt>
      <trkpt lat="45.94083" lon="4.43528">
        <ele>433</ele>
        <time>2020-05-30T20:07:29Z</time>
      </trkpt>
      <trkpt lat="45.94191" lon="4.43486">
        <ele>437</ele>
        <time>2020-05-30T20:07:49Z</time>
      </trkpt>
      <trkpt lat="45.94301" lon="4.43443">
        <ele>443</ele>
        <time>2020-05-30T20:08:09Z</time>
      </trkpt>
      <trkpt lat="45.94328" lon="4.43433">
        <ele>443</ele>
        <time>2020-05-30T20:08:14Z</time>
      </trkpt>
      <trkpt lat="45.94346" lon="4.43421">
        <ele>443</ele>
        <time>2020-05-30T20:08:17Z</time>
      </trkpt>
      <trkpt lat="45.94351" lon="4.43418">
        <ele>443</ele>
        <time>2020-05-30T20:08:18Z</time>
      </trkpt>
      <trkpt lat="45.94357" lon="4.43413">
        <ele>443</ele>
        <time>2020-05-30T20:08:20Z</time>
      </trkpt>
      <trkpt lat="45.94381" lon="4.4339">
        <ele>444</ele>
        <time>2020-05-30T20:08:25Z</time>
      </trkpt>
      <trkpt lat="45.94404" lon="4.43356">
        <ele>445</ele>
        <time>2020-05-30T20:08:31Z</time>
      </trkpt>
      <trkpt lat="45.94479" lon="4.43198">
        <ele>453</ele>
        <time>2020-05-30T20:08:54Z</time>
      </trkpt>
      <trkpt lat="45.94487" lon="4.43182">
        <ele>453</ele>
        <time>2020-05-30T20:08:57Z</time>
      </trkpt>
      <trkpt lat="45.94495" lon="4.43168">
        <ele>453</ele>
        <time>2020-05-30T20:08:59Z</time>
      </trkpt>
      <trkpt lat="45.94503" lon="4.43153">
        <ele>453</ele>
        <time>2020-05-30T20:09:01Z</time>
      </trkpt>
      <trkpt lat="45.94508" lon="4.43142">
        <ele>454</ele>
        <time>2020-05-30T20:09:03Z</time>
      </trkpt>
      <trkpt lat="45.94581" lon="4.43036">
        <ele>458</ele>
        <time>2020-05-30T20:09:21Z</time>
      </trkpt>
      <trkpt lat="45.94601" lon="4.43011">
        <ele>460</ele>
        <time>2020-05-30T20:09:26Z</time>
      </trkpt>
      <trkpt lat="45.94603" lon="4.43008">
        <ele>460</ele>
        <time>2020-05-30T20:09:27Z</time>
      </trkpt>
      <trkpt lat="45.94619" lon="4.42986">
        <ele>461</ele>
        <time>2020-05-30T20:09:31Z</time>
      </trkpt>
      <trkpt lat="45.94636" lon="4.42968">
        <ele>461</ele>
        <time>2020-05-30T20:09:34Z</time>
      </trkpt>
      <trkpt lat="45.94649" lon="4.4296">
        <ele>462</ele>
        <time>2020-05-30T20:09:37Z</time>
      </trkpt>
      <trkpt lat="45.9466" lon="4.42957">
        <ele>463</ele>
        <time>2020-05-30T20:09:39Z</time>
      </trkpt>
      <trkpt lat="45.94667" lon="4.42956">
        <ele>464</ele>
        <time>2020-05-30T20:09:40Z</time>
      </trkpt>
      <trkpt lat="45.94705" lon="4.42948">
        <ele>465</ele>
        <time>2020-05-30T20:09:47Z</time>
      </trkpt>
      <trkpt lat="45.94709" lon="4.42946">
        <ele>465</ele>
        <time>2020-05-30T20:09:48Z</time>
      </trkpt>
      <trkpt lat="45.94715" lon="4.42942">
        <ele>465</ele>
        <time>2020-05-30T20:09:49Z</time>
      </trkpt>
      <trkpt lat="45.94723" lon="4.42933">
        <ele>465</ele>
        <time>2020-05-30T20:09:51Z</time>
      </trkpt>
      <trkpt lat="45.94731" lon="4.42916">
        <ele>464</ele>
        <time>2020-05-30T20:09:53Z</time>
      </trkpt>
      <trkpt lat="45.94734" lon="4.42905">
        <ele>464</ele>
        <time>2020-05-30T20:09:55Z</time>
      </trkpt>
      <trkpt lat="45.94744" lon="4.42871">
        <ele>463</ele>
        <time>2020-05-30T20:09:59Z</time>
      </trkpt>
      <trkpt lat="45.94745" lon="4.42868">
        <ele>463</ele>
        <time>2020-05-30T20:10:00Z</time>
      </trkpt>
      <trkpt lat="45.94754" lon="4.4285">
        <ele>464</ele>
        <time>2020-05-30T20:10:02Z</time>
      </trkpt>
      <trkpt lat="45.94767" lon="4.42828">
        <ele>466</ele>
        <time>2020-05-30T20:10:06Z</time>
      </trkpt>
      <trkpt lat="45.94781" lon="4.42813">
        <ele>467</ele>
        <time>2020-05-30T20:10:09Z</time>
      </trkpt>
      <trkpt lat="45.94786" lon="4.42806">
        <ele>467</ele>
        <time>2020-05-30T20:10:10Z</time>
      </trkpt>
      <trkpt lat="45.94815" lon="4.42776">
        <ele>468</ele>
        <time>2020-05-30T20:10:17Z</time>
      </trkpt>
      <trkpt lat="45.94821" lon="4.42769">
        <ele>467</ele>
        <time>2020-05-30T20:10:18Z</time>
      </trkpt>
      <trkpt lat="45.9483" lon="4.42759">
        <ele>467</ele>
        <time>2020-05-30T20:10:20Z</time>
      </trkpt>
      <trkpt lat="45.94843" lon="4.42742">
        <ele>467</ele>
        <time>2020-05-30T20:10:23Z</time>
      </trkpt>
      <trkpt lat="45.94862" lon="4.42708">
        <ele>469</ele>
        <time>2020-05-30T20:10:29Z</time>
      </trkpt>
      <trkpt lat="45.94896" lon="4.42652">
        <ele>468</ele>
        <time>2020-05-30T20:10:38Z</time>
      </trkpt>
      <trkpt lat="45.94945" lon="4.42592">
        <ele>470</ele>
        <time>2020-05-30T20:10:49Z</time>
      </trkpt>
      <trkpt lat="45.94955" lon="4.42577">
        <ele>471</ele>
        <time>2020-05-30T20:10:52Z</time>
      </trkpt>
      <trkpt lat="45.94963" lon="4.42562">
        <ele>472</ele>
        <time>2020-05-30T20:10:54Z</time>
      </trkpt>
      <trkpt lat="45.94986" lon="4.42485">
        <ele>472</ele>
        <time>2020-05-30T20:11:04Z</time>
      </trkpt>
      <trkpt lat="45.95015" lon="4.42423">
        <ele>473</ele>
        <time>2020-05-30T20:11:14Z</time>
      </trkpt>
      <trkpt lat="45.9505" lon="4.42374">
        <ele>475</ele>
        <time>2020-05-30T20:11:22Z</time>
      </trkpt>
      <trkpt lat="45.95105" lon="4.4233">
        <ele>474</ele>
        <time>2020-05-30T20:11:34Z</time>
      </trkpt>
      <trkpt lat="45.95135" lon="4.42309">
        <ele>475</ele>
        <time>2020-05-30T20:11:40Z</time>
      </trkpt>
      <trkpt lat="45.95199" lon="4.42288">
        <ele>481</ele>
        <time>2020-05-30T20:11:51Z</time>
      </trkpt>
      <trkpt lat="45.9521" lon="4.42282">
        <ele>481</ele>
        <time>2020-05-30T20:11:53Z</time>
      </trkpt>
      <trkpt lat="45.95222" lon="4.42275">
        <ele>481</ele>
        <time>2020-05-30T20:11:56Z</time>
      </trkpt>
      <trkpt lat="45.95272" lon="4.42227">
        <ele>483</ele>
        <time>2020-05-30T20:12:06Z</time>
      </trkpt>
      <trkpt lat="45.953" lon="4.42207">
        <ele>486</ele>
        <time>2020-05-30T20:12:12Z</time>
      </trkpt>
      <trkpt lat="45.95305" lon="4.42205">
        <ele>487</ele>
        <time>2020-05-30T20:12:13Z</time>
      </trkpt>
      <trkpt lat="45.95328" lon="4.42196">
        <ele>489</ele>
        <time>2020-05-30T20:12:17Z</time>
      </trkpt>
      <trkpt lat="45.95342" lon="4.42191">
        <ele>490</ele>
        <time>2020-05-30T20:12:20Z</time>
      </trkpt>
      <trkpt lat="45.95375" lon="4.42186">
        <ele>492</ele>
        <time>2020-05-30T20:12:26Z</time>
      </trkpt>
      <trkpt lat="45.95454" lon="4.42186">
        <ele>500</ele>
        <time>2020-05-30T20:12:40Z</time>
      </trkpt>
      <trkpt lat="45.95493" lon="4.42179">
        <ele>502</ele>
        <time>2020-05-30T20:12:47Z</time>
      </trkpt>
      <trkpt lat="45.95514" lon="4.42172">
        <ele>502</ele>
        <time>2020-05-30T20:12:50Z</time>
      </trkpt>
      <trkpt lat="45.95533" lon="4.42164">
        <ele>503</ele>
        <time>2020-05-30T20:12:54Z</time>
      </trkpt>
      <trkpt lat="45.9556" lon="4.42147">
        <ele>504</ele>
        <time>2020-05-30T20:12:59Z</time>
      </trkpt>
      <trkpt lat="45.95574" lon="4.42134">
        <ele>503</ele>
        <time>2020-05-30T20:13:02Z</time>
      </trkpt>
      <trkpt lat="45.95604" lon="4.42099">
        <ele>501</ele>
        <time>2020-05-30T20:13:09Z</time>
      </trkpt>
      <trkpt lat="45.9565" lon="4.42043">
        <ele>500</ele>
        <time>2020-05-30T20:13:20Z</time>
      </trkpt>
      <trkpt lat="45.95685" lon="4.42003">
        <ele>499</ele>
        <time>2020-05-30T20:13:28Z</time>
      </trkpt>
      <trkpt lat="45.95695" lon="4.41989">
        <ele>501</ele>
        <time>2020-05-30T20:13:30Z</time>
      </trkpt>
      <trkpt lat="45.95702" lon="4.41975">
        <ele>503</ele>
        <time>2020-05-30T20:13:32Z</time>
      </trkpt>
      <trkpt lat="45.95751" lon="4.41835">
        <ele>508</ele>
        <time>2020-05-30T20:13:52Z</time>
      </trkpt>
      <trkpt lat="45.95762" lon="4.41809">
        <ele>510</ele>
        <time>2020-05-30T20:13:55Z</time>
      </trkpt>
      <trkpt lat="45.95789" lon="4.41761">
        <ele>515</ele>
        <time>2020-05-30T20:14:03Z</time>
      </trkpt>
      <trkpt lat="45.95813" lon="4.41707">
        <ele>516</ele>
        <time>2020-05-30T20:14:11Z</time>
      </trkpt>
      <trkpt lat="45.95822" lon="4.41691">
        <ele>514</ele>
        <time>2020-05-30T20:14:14Z</time>
      </trkpt>
      <trkpt lat="45.95837" lon="4.41671">
        <ele>512</ele>
        <time>2020-05-30T20:14:17Z</time>
      </trkpt>
      <trkpt lat="45.95891" lon="4.4162">
        <ele>517</ele>
        <time>2020-05-30T20:14:29Z</time>
      </trkpt>
      <trkpt lat="45.95967" lon="4.41565">
        <ele>520</ele>
        <time>2020-05-30T20:14:44Z</time>
      </trkpt>
      <trkpt lat="45.95984" lon="4.41557">
        <ele>522</ele>
        <time>2020-05-30T20:14:47Z</time>
      </trkpt>
      <trkpt lat="45.96003" lon="4.41552">
        <ele>524</ele>
        <time>2020-05-30T20:14:50Z</time>
      </trkpt>
      <trkpt lat="45.96025" lon="4.4155">
        <ele>524</ele>
        <time>2020-05-30T20:14:54Z</time>
      </trkpt>
      <trkpt lat="45.96049" lon="4.41556">
        <ele>526</ele>
        <time>2020-05-30T20:14:59Z</time>
      </trkpt>
      <trkpt lat="45.96127" lon="4.41596">
        <ele>532</ele>
        <time>2020-05-30T20:15:13Z</time>
      </trkpt>
      <trkpt lat="45.96198" lon="4.41663">
        <ele>541</ele>
        <time>2020-05-30T20:15:29Z</time>
      </trkpt>
      <trkpt lat="45.96412" lon="4.41798">
        <ele>545</ele>
        <time>2020-05-30T20:16:10Z</time>
      </trkpt>
      <trkpt lat="45.96486" lon="4.41858">
        <ele>549</ele>
        <time>2020-05-30T20:16:25Z</time>
      </trkpt>
      <trkpt lat="45.96666" lon="4.41975">
        <ele>555</ele>
        <time>2020-05-30T20:17:00Z</time>
      </trkpt>
      <trkpt lat="45.96809" lon="4.421">
        <ele>567</ele>
        <time>2020-05-30T20:17:30Z</time>
      </trkpt>
      <trkpt lat="45.96863" lon="4.42151">
        <ele>575</ele>
        <time>2020-05-30T20:17:42Z</time>
      </trkpt>
      <trkpt lat="45.96892" lon="4.42174">
        <ele>577</ele>
        <time>2020-05-30T20:17:48Z</time>
      </trkpt>
      <trkpt lat="45.97018" lon="4.42233">
        <ele>584</ele>
        <time>2020-05-30T20:18:11Z</time>
      </trkpt>
      <trkpt lat="45.97034" lon="4.42234">
        <ele>584</ele>
        <time>2020-05-30T20:18:14Z</time>
      </trkpt>
      <trkpt lat="45.97049" lon="4.42227">
        <ele>584</ele>
        <time>2020-05-30T20:18:17Z</time>
      </trkpt>
      <trkpt lat="45.97059" lon="4.42214">
        <ele>585</ele>
        <time>2020-05-30T20:18:19Z</time>
      </trkpt>
      <trkpt lat="45.97067" lon="4.42197">
        <ele>587</ele>
        <time>2020-05-30T20:18:22Z</time>
      </trkpt>
      <trkpt lat="45.9707" lon="4.42183">
        <ele>588</ele>
        <time>2020-05-30T20:18:24Z</time>
      </trkpt>
      <trkpt lat="45.97072" lon="4.42165">
        <ele>590</ele>
        <time>2020-05-30T20:18:26Z</time>
      </trkpt>
      <trkpt lat="45.97067" lon="4.42144">
        <ele>591</ele>
        <time>2020-05-30T20:18:29Z</time>
      </trkpt>
      <trkpt lat="45.97061" lon="4.42124">
        <ele>592</ele>
        <time>2020-05-30T20:18:31Z</time>
      </trkpt>
      <trkpt lat="45.97045" lon="4.4209">
        <ele>591</ele>
        <time>2020-05-30T20:18:36Z</time>
      </trkpt>
      <trkpt lat="45.97022" lon="4.42056">
        <ele>588</ele>
        <time>2020-05-30T20:18:42Z</time>
      </trkpt>
      <trkpt lat="45.96992" lon="4.42036">
        <ele>587</ele>
        <time>2020-05-30T20:18:48Z</time>
      </trkpt>
      <trkpt lat="45.96936" lon="4.42015">
        <ele>586</ele>
        <time>2020-05-30T20:18:58Z</time>
      </trkpt>
      <trkpt lat="45.96913" lon="4.41996">
        <ele>588</ele>
        <time>2020-05-30T20:19:03Z</time>
      </trkpt>
      <trkpt lat="45.96852" lon="4.41912">
        <ele>598</ele>
        <time>2020-05-30T20:19:18Z</time>
      </trkpt>
      <trkpt lat="45.96808" lon="4.41861">
        <ele>601</ele>
        <time>2020-05-30T20:19:28Z</time>
      </trkpt>
      <trkpt lat="45.96789" lon="4.41843">
        <ele>599</ele>
        <time>2020-05-30T20:19:32Z</time>
      </trkpt>
      <trkpt lat="45.96774" lon="4.41828">
        <ele>597</ele>
        <time>2020-05-30T20:19:35Z</time>
      </trkpt>
      <trkpt lat="45.9673" lon="4.41767">
        <ele>604</ele>
        <time>2020-05-30T20:19:46Z</time>
      </trkpt>
      <trkpt lat="45.96671" lon="4.41674">
        <ele>607</ele>
        <time>2020-05-30T20:20:02Z</time>
      </trkpt>
      <trkpt lat="45.9665" lon="4.4165">
        <ele>609</ele>
        <time>2020-05-30T20:20:07Z</time>
      </trkpt>
      <trkpt lat="45.96556" lon="4.41607">
        <ele>603</ele>
        <time>2020-05-30T20:20:24Z</time>
      </trkpt>
      <trkpt lat="45.96515" lon="4.41572">
        <ele>606</ele>
        <time>2020-05-30T20:20:33Z</time>
      </trkpt>
      <trkpt lat="45.96414" lon="4.41412">
        <ele>615</ele>
        <time>2020-05-30T20:20:59Z</time>
      </trkpt>
      <trkpt lat="45.96403" lon="4.41375">
        <ele>617</ele>
        <time>2020-05-30T20:21:04Z</time>
      </trkpt>
      <trkpt lat="45.96404" lon="4.41331">
        <ele>622</ele>
        <time>2020-05-30T20:21:10Z</time>
      </trkpt>
      <trkpt lat="45.96439" lon="4.4122">
        <ele>634</ele>
        <time>2020-05-30T20:21:25Z</time>
      </trkpt>
      <trkpt lat="45.96463" lon="4.41176">
        <ele>635</ele>
        <time>2020-05-30T20:21:32Z</time>
      </trkpt>
      <trkpt lat="45.965" lon="4.4114">
        <ele>634</ele>
        <time>2020-05-30T20:21:40Z</time>
      </trkpt>
      <trkpt lat="45.96551" lon="4.41097">
        <ele>632</ele>
        <time>2020-05-30T20:21:50Z</time>
      </trkpt>
      <trkpt lat="45.96627" lon="4.41068">
        <ele>634</ele>
        <time>2020-05-30T20:22:04Z</time>
      </trkpt>
      <trkpt lat="45.96702" lon="4.41065">
        <ele>644</ele>
        <time>2020-05-30T20:22:18Z</time>
      </trkpt>
      <trkpt lat="45.9687" lon="4.41014">
        <ele>660</ele>
        <time>2020-05-30T20:22:48Z</time>
      </trkpt>
      <trkpt lat="45.96909" lon="4.40982">
        <ele>659</ele>
        <time>2020-05-30T20:22:56Z</time>
      </trkpt>
      <trkpt lat="45.96967" lon="4.40906">
        <ele>653</ele>
        <time>2020-05-30T20:23:10Z</time>
      </trkpt>
      <trkpt lat="45.97005" lon="4.40892">
        <ele>661</ele>
        <time>2020-05-30T20:23:17Z</time>
      </trkpt>
      <trkpt lat="45.97088" lon="4.4092">
        <ele>674</ele>
        <time>2020-05-30T20:23:32Z</time>
      </trkpt>
      <trkpt lat="45.97115" lon="4.40917">
        <ele>678</ele>
        <time>2020-05-30T20:23:37Z</time>
      </trkpt>
      <trkpt lat="45.97141" lon="4.4089">
        <ele>679</ele>
        <time>2020-05-30T20:23:43Z</time>
      </trkpt>
      <trkpt lat="45.97147" lon="4.40849">
        <ele>676</ele>
        <time>2020-05-30T20:23:48Z</time>
      </trkpt>
      <trkpt lat="45.97139" lon="4.40822">
        <ele>674</ele>
        <time>2020-05-30T20:23:52Z</time>
      </trkpt>
      <trkpt lat="45.97111" lon="4.40775">
        <ele>674</ele>
        <time>2020-05-30T20:23:59Z</time>
      </trkpt>
      <trkpt lat="45.97099" lon="4.40739">
        <ele>675</ele>
        <time>2020-05-30T20:24:04Z</time>
      </trkpt>
      <trkpt lat="45.97093" lon="4.40602">
        <ele>685</ele>
        <time>2020-05-30T20:24:21Z</time>
      </trkpt>
      <trkpt lat="45.97097" lon="4.40553">
        <ele>687</ele>
        <time>2020-05-30T20:24:27Z</time>
      </trkpt>
      <trkpt lat="45.97125" lon="4.4042">
        <ele>686</ele>
        <time>2020-05-30T20:24:44Z</time>
      </trkpt>
      <trkpt lat="45.97134" lon="4.4038">
        <ele>685</ele>
        <time>2020-05-30T20:24:50Z</time>
      </trkpt>
      <trkpt lat="45.97144" lon="4.40348">
        <ele>683</ele>
        <time>2020-05-30T20:24:54Z</time>
      </trkpt>
      <trkpt lat="45.97155" lon="4.40324">
        <ele>683</ele>
        <time>2020-05-30T20:24:58Z</time>
      </trkpt>
      <trkpt lat="45.97167" lon="4.40304">
        <ele>683</ele>
        <time>2020-05-30T20:25:01Z</time>
      </trkpt>
      <trkpt lat="45.97185" lon="4.40282">
        <ele>683</ele>
        <time>2020-05-30T20:25:05Z</time>
      </trkpt>
      <trkpt lat="45.97228" lon="4.40243">
        <ele>685</ele>
        <time>2020-05-30T20:25:14Z</time>
      </trkpt>
      <trkpt lat="45.97247" lon="4.4023">
        <ele>687</ele>
        <time>2020-05-30T20:25:18Z</time>
      </trkpt>
      <trkpt lat="45.97298" lon="4.40206">
        <ele>690</ele>
        <time>2020-05-30T20:25:27Z</time>
      </trkpt>
      <trkpt lat="45.97316" lon="4.40201">
        <ele>692</ele>
        <time>2020-05-30T20:25:31Z</time>
      </trkpt>
      <trkpt lat="45.97343" lon="4.40196">
        <ele>694</ele>
        <time>2020-05-30T20:25:35Z</time>
      </trkpt>
      <trkpt lat="45.97421" lon="4.40194">
        <ele>698</ele>
        <time>2020-05-30T20:25:49Z</time>
      </trkpt>
      <trkpt lat="45.97456" lon="4.40185">
        <ele>699</ele>
        <time>2020-05-30T20:25:56Z</time>
      </trkpt>
      <trkpt lat="45.97485" lon="4.40173">
        <ele>700</ele>
        <time>2020-05-30T20:26:01Z</time>
      </trkpt>
      <trkpt lat="45.97503" lon="4.40164">
        <ele>701</ele>
        <time>2020-05-30T20:26:04Z</time>
      </trkpt>
      <trkpt lat="45.97518" lon="4.40149">
        <ele>704</ele>
        <time>2020-05-30T20:26:08Z</time>
      </trkpt>
      <trkpt lat="45.97525" lon="4.40139">
        <ele>705</ele>
        <time>2020-05-30T20:26:09Z</time>
      </trkpt>
      <trkpt lat="45.97534" lon="4.40113">
        <ele>708</ele>
        <time>2020-05-30T20:26:13Z</time>
      </trkpt>
      <trkpt lat="45.97534" lon="4.40084">
        <ele>709</ele>
        <time>2020-05-30T20:26:17Z</time>
      </trkpt>
      <trkpt lat="45.97532" lon="4.40067">
        <ele>711</ele>
        <time>2020-05-30T20:26:19Z</time>
      </trkpt>
      <trkpt lat="45.97525" lon="4.40047">
        <ele>711</ele>
        <time>2020-05-30T20:26:22Z</time>
      </trkpt>
      <trkpt lat="45.97509" lon="4.40012">
        <ele>711</ele>
        <time>2020-05-30T20:26:27Z</time>
      </trkpt>
      <trkpt lat="45.97468" lon="4.39925">
        <ele>715</ele>
        <time>2020-05-30T20:26:40Z</time>
      </trkpt>
      <trkpt lat="45.97441" lon="4.39877">
        <ele>716</ele>
        <time>2020-05-30T20:26:47Z</time>
      </trkpt>
      <trkpt lat="45.97373" lon="4.39769">
        <ele>721</ele>
        <time>2020-05-30T20:27:05Z</time>
      </trkpt>
      <trkpt lat="45.97333" lon="4.39708">
        <ele>726</ele>
        <time>2020-05-30T20:27:16Z</time>
      </trkpt>
      <trkpt lat="45.9729" lon="4.39644">
        <ele>730</ele>
        <time>2020-05-30T20:27:27Z</time>
      </trkpt>
      <trkpt lat="45.97277" lon="4.3962">
        <ele>730</ele>
        <time>2020-05-30T20:27:30Z</time>
      </trkpt>
      <trkpt lat="45.97263" lon="4.39589">
        <ele>729</ele>
        <time>2020-05-30T20:27:35Z</time>
      </trkpt>
      <trkpt lat="45.97238" lon="4.39532">
        <ele>726</ele>
        <time>2020-05-30T20:27:43Z</time>
      </trkpt>
      <trkpt lat="45.97224" lon="4.39509">
        <ele>726</ele>
        <time>2020-05-30T20:27:47Z</time>
      </trkpt>
      <trkpt lat="45.97201" lon="4.39484">
        <ele>724</ele>
        <time>2020-05-30T20:27:52Z</time>
      </trkpt>
      <trkpt lat="45.97163" lon="4.3945">
        <ele>721</ele>
        <time>2020-05-30T20:28:00Z</time>
      </trkpt>
      <trkpt lat="45.97144" lon="4.3943">
        <ele>721</ele>
        <time>2020-05-30T20:28:04Z</time>
      </trkpt>
      <trkpt lat="45.97111" lon="4.39383">
        <ele>720</ele>
        <time>2020-05-30T20:28:13Z</time>
      </trkpt>
      <trkpt lat="45.97098" lon="4.39359">
        <ele>720</ele>
        <time>2020-05-30T20:28:16Z</time>
      </trkpt>
      <trkpt lat="45.97032" lon="4.39206">
        <ele>719</ele>
        <time>2020-05-30T20:28:39Z</time>
      </trkpt>
      <trkpt lat="45.97027" lon="4.3919">
        <ele>718</ele>
        <time>2020-05-30T20:28:41Z</time>
      </trkpt>
      <trkpt lat="45.97026" lon="4.39175">
        <ele>717</ele>
        <time>2020-05-30T20:28:43Z</time>
      </trkpt>
      <trkpt lat="45.97027" lon="4.3916">
        <ele>716</ele>
        <time>2020-05-30T20:28:45Z</time>
      </trkpt>
      <trkpt lat="45.97029" lon="4.39152">
        <ele>716</ele>
        <time>2020-05-30T20:28:46Z</time>
      </trkpt>
      <trkpt lat="45.97034" lon="4.39143">
        <ele>715</ele>
        <time>2020-05-30T20:28:47Z</time>
      </trkpt>
      <trkpt lat="45.97039" lon="4.39139">
        <ele>714</ele>
        <time>2020-05-30T20:28:48Z</time>
      </trkpt>
      <trkpt lat="45.97049" lon="4.39133">
        <ele>713</ele>
        <time>2020-05-30T20:28:50Z</time>
      </trkpt>
      <trkpt lat="45.97056" lon="4.39132">
        <ele>711</ele>
        <time>2020-05-30T20:28:51Z</time>
      </trkpt>
      <trkpt lat="45.97063" lon="4.39134">
        <ele>710</ele>
        <time>2020-05-30T20:28:53Z</time>
      </trkpt>
      <trkpt lat="45.97073" lon="4.3914">
        <ele>707</ele>
        <time>2020-05-30T20:28:55Z</time>
      </trkpt>
      <trkpt lat="45.97083" lon="4.39153">
        <ele>705</ele>
        <time>2020-05-30T20:28:57Z</time>
      </trkpt>
      <trkpt lat="45.97111" lon="4.39209">
        <ele>704</ele>
        <time>2020-05-30T20:29:05Z</time>
      </trkpt>
      <trkpt lat="45.97123" lon="4.39228">
        <ele>703</ele>
        <time>2020-05-30T20:29:09Z</time>
      </trkpt>
      <trkpt lat="45.9714" lon="4.39247">
        <ele>701</ele>
        <time>2020-05-30T20:29:12Z</time>
      </trkpt>
      <trkpt lat="45.97166" lon="4.39265">
        <ele>699</ele>
        <time>2020-05-30T20:29:18Z</time>
      </trkpt>
      <trkpt lat="45.97194" lon="4.39276">
        <ele>699</ele>
        <time>2020-05-30T20:29:23Z</time>
      </trkpt>
      <trkpt lat="45.97221" lon="4.39279">
        <ele>699</ele>
        <time>2020-05-30T20:29:28Z</time>
      </trkpt>
      <trkpt lat="45.97255" lon="4.39271">
        <ele>697</ele>
        <time>2020-05-30T20:29:34Z</time>
      </trkpt>
      <trkpt lat="45.97272" lon="4.39263">
        <ele>696</ele>
        <time>2020-05-30T20:29:37Z</time>
      </trkpt>
      <trkpt lat="45.9729" lon="4.39249">
        <ele>693</ele>
        <time>2020-05-30T20:29:41Z</time>
      </trkpt>
      <trkpt lat="45.97435" lon="4.39115">
        <ele>678</ele>
        <time>2020-05-30T20:30:11Z</time>
      </trkpt>
      <trkpt lat="45.9745" lon="4.39105">
        <ele>677</ele>
        <time>2020-05-30T20:30:14Z</time>
      </trkpt>
      <trkpt lat="45.97468" lon="4.39098">
        <ele>676</ele>
        <time>2020-05-30T20:30:17Z</time>
      </trkpt>
      <trkpt lat="45.97494" lon="4.39101">
        <ele>677</ele>
        <time>2020-05-30T20:30:22Z</time>
      </trkpt>
      <trkpt lat="45.97512" lon="4.39107">
        <ele>677</ele>
        <time>2020-05-30T20:30:25Z</time>
      </trkpt>
      <trkpt lat="45.97563" lon="4.3913">
        <ele>675</ele>
        <time>2020-05-30T20:30:35Z</time>
      </trkpt>
      <trkpt lat="45.97577" lon="4.3914">
        <ele>674</ele>
        <time>2020-05-30T20:30:38Z</time>
      </trkpt>
      <trkpt lat="45.97609" lon="4.39172">
        <ele>672</ele>
        <time>2020-05-30T20:30:45Z</time>
      </trkpt>
      <trkpt lat="45.97671" lon="4.39252">
        <ele>669</ele>
        <time>2020-05-30T20:30:59Z</time>
      </trkpt>
      <trkpt lat="45.97696" lon="4.39276">
        <ele>667</ele>
        <time>2020-05-30T20:31:05Z</time>
      </trkpt>
      <trkpt lat="45.97743" lon="4.39314">
        <ele>662</ele>
        <time>2020-05-30T20:31:14Z</time>
      </trkpt>
      <trkpt lat="45.97818" lon="4.39388">
        <ele>653</ele>
        <time>2020-05-30T20:31:31Z</time>
      </trkpt>
      <trkpt lat="45.97835" lon="4.39399">
        <ele>650</ele>
        <time>2020-05-30T20:31:34Z</time>
      </trkpt>
      <trkpt lat="45.97847" lon="4.39403">
        <ele>649</ele>
        <time>2020-05-30T20:31:36Z</time>
      </trkpt>
      <trkpt lat="45.97869" lon="4.39406">
        <ele>648</ele>
        <time>2020-05-30T20:31:40Z</time>
      </trkpt>
      <trkpt lat="45.97889" lon="4.39401">
        <ele>647</ele>
        <time>2020-05-30T20:31:44Z</time>
      </trkpt>
      <trkpt lat="45.97904" lon="4.39392">
        <ele>645</ele>
        <time>2020-05-30T20:31:46Z</time>
      </trkpt>
      <trkpt lat="45.97916" lon="4.39381">
        <ele>643</ele>
        <time>2020-05-30T20:31:49Z</time>
      </trkpt>
      <trkpt lat="45.97927" lon="4.39368">
        <ele>644</ele>
        <time>2020-05-30T20:31:52Z</time>
      </trkpt>
      <trkpt lat="45.97942" lon="4.39339">
        <ele>643</ele>
        <time>2020-05-30T20:31:56Z</time>
      </trkpt>
      <trkpt lat="45.9795" lon="4.39317">
        <ele>642</ele>
        <time>2020-05-30T20:31:59Z</time>
      </trkpt>
      <trkpt lat="45.9798" lon="4.39201">
        <ele>636</ele>
        <time>2020-05-30T20:32:14Z</time>
      </trkpt>
      <trkpt lat="45.97997" lon="4.39109">
        <ele>634</ele>
        <time>2020-05-30T20:32:26Z</time>
      </trkpt>
      <trkpt lat="45.97998" lon="4.3908">
        <ele>633</ele>
        <time>2020-05-30T20:32:30Z</time>
      </trkpt>
      <trkpt lat="45.97996" lon="4.39061">
        <ele>632</ele>
        <time>2020-05-30T20:32:32Z</time>
      </trkpt>
      <trkpt lat="45.97995" lon="4.39052">
        <ele>632</ele>
        <time>2020-05-30T20:32:33Z</time>
      </trkpt>
      <trkpt lat="45.97985" lon="4.39008">
        <ele>630</ele>
        <time>2020-05-30T20:32:39Z</time>
      </trkpt>
      <trkpt lat="45.97979" lon="4.38979">
        <ele>629</ele>
        <time>2020-05-30T20:32:43Z</time>
      </trkpt>
      <trkpt lat="45.97968" lon="4.38927">
        <ele>628</ele>
        <time>2020-05-30T20:32:49Z</time>
      </trkpt>
      <trkpt lat="45.97959" lon="4.38894">
        <ele>628</ele>
        <time>2020-05-30T20:32:54Z</time>
      </trkpt>
      <trkpt lat="45.97952" lon="4.38876">
        <ele>627</ele>
        <time>2020-05-30T20:32:56Z</time>
      </trkpt>
      <trkpt lat="45.97946" lon="4.38866">
        <ele>627</ele>
        <time>2020-05-30T20:32:58Z</time>
      </trkpt>
      <trkpt lat="45.97938" lon="4.38854">
        <ele>627</ele>
        <time>2020-05-30T20:33:00Z</time>
      </trkpt>
      <trkpt lat="45.97892" lon="4.38799">
        <ele>622</ele>
        <time>2020-05-30T20:33:11Z</time>
      </trkpt>
      <trkpt lat="45.97875" lon="4.38769">
        <ele>619</ele>
        <time>2020-05-30T20:33:15Z</time>
      </trkpt>
      <trkpt lat="45.97825" lon="4.38623">
        <ele>615</ele>
        <time>2020-05-30T20:33:36Z</time>
      </trkpt>
      <trkpt lat="45.97818" lon="4.38594">
        <ele>615</ele>
        <time>2020-05-30T20:33:39Z</time>
      </trkpt>
      <trkpt lat="45.97816" lon="4.38569">
        <ele>614</ele>
        <time>2020-05-30T20:33:43Z</time>
      </trkpt>
      <trkpt lat="45.97816" lon="4.38545">
        <ele>613</ele>
        <time>2020-05-30T20:33:45Z</time>
      </trkpt>
      <trkpt lat="45.97821" lon="4.38502">
        <ele>611</ele>
        <time>2020-05-30T20:33:51Z</time>
      </trkpt>
      <trkpt lat="45.97825" lon="4.38486">
        <ele>610</ele>
        <time>2020-05-30T20:33:53Z</time>
      </trkpt>
      <trkpt lat="45.97841" lon="4.3845">
        <ele>607</ele>
        <time>2020-05-30T20:33:58Z</time>
      </trkpt>
      <trkpt lat="45.97852" lon="4.38433">
        <ele>605</ele>
        <time>2020-05-30T20:34:01Z</time>
      </trkpt>
      <trkpt lat="45.97865" lon="4.38418">
        <ele>604</ele>
        <time>2020-05-30T20:34:04Z</time>
      </trkpt>
      <trkpt lat="45.97896" lon="4.38388">
        <ele>601</ele>
        <time>2020-05-30T20:34:11Z</time>
      </trkpt>
      <trkpt lat="45.97917" lon="4.38369">
        <ele>600</ele>
        <time>2020-05-30T20:34:15Z</time>
      </trkpt>
      <trkpt lat="45.97954" lon="4.38334">
        <ele>595</ele>
        <time>2020-05-30T20:34:23Z</time>
      </trkpt>
      <trkpt lat="45.9797" lon="4.38317">
        <ele>594</ele>
        <time>2020-05-30T20:34:27Z</time>
      </trkpt>
      <trkpt lat="45.97991" lon="4.3829">
        <ele>593</ele>
        <time>2020-05-30T20:34:32Z</time>
      </trkpt>
      <trkpt lat="45.98007" lon="4.38263">
        <ele>592</ele>
        <time>2020-05-30T20:34:36Z</time>
      </trkpt>
      <trkpt lat="45.98023" lon="4.38229">
        <ele>591</ele>
        <time>2020-05-30T20:34:41Z</time>
      </trkpt>
      <trkpt lat="45.98034" lon="4.38196">
        <ele>589</ele>
        <time>2020-05-30T20:34:46Z</time>
      </trkpt>
      <trkpt lat="45.98041" lon="4.3817">
        <ele>588</ele>
        <time>2020-05-30T20:34:49Z</time>
      </trkpt>
      <trkpt lat="45.98053" lon="4.38105">
        <ele>586</ele>
        <time>2020-05-30T20:34:57Z</time>
      </trkpt>
      <trkpt lat="45.98054" lon="4.38078">
        <ele>585</ele>
        <time>2020-05-30T20:35:01Z</time>
      </trkpt>
      <trkpt lat="45.98055" lon="4.38039">
        <ele>584</ele>
        <time>2020-05-30T20:35:06Z</time>
      </trkpt>
      <trkpt lat="45.98054" lon="4.38003">
        <ele>583</ele>
        <time>2020-05-30T20:35:10Z</time>
      </trkpt>
      <trkpt lat="45.98047" lon="4.37835">
        <ele>577</ele>
        <time>2020-05-30T20:35:31Z</time>
      </trkpt>
      <trkpt lat="45.9804" lon="4.37691">
        <ele>572</ele>
        <time>2020-05-30T20:35:49Z</time>
      </trkpt>
      <trkpt lat="45.9804" lon="4.37663">
        <ele>572</ele>
        <time>2020-05-30T20:35:52Z</time>
      </trkpt>
      <trkpt lat="45.98043" lon="4.37644">
        <ele>571</ele>
        <time>2020-05-30T20:35:54Z</time>
      </trkpt>
      <trkpt lat="45.98045" lon="4.3763">
        <ele>571</ele>
        <time>2020-05-30T20:35:56Z</time>
      </trkpt>
      <trkpt lat="45.98051" lon="4.37608">
        <ele>570</ele>
        <time>2020-05-30T20:35:59Z</time>
      </trkpt>
      <trkpt lat="45.98075" lon="4.37525">
        <ele>568</ele>
        <time>2020-05-30T20:36:10Z</time>
      </trkpt>
      <trkpt lat="45.98099" lon="4.3744">
        <ele>565</ele>
        <time>2020-05-30T20:36:22Z</time>
      </trkpt>
      <trkpt lat="45.98151" lon="4.3744">
        <ele>568</ele>
        <time>2020-05-30T20:36:31Z</time>
      </trkpt>
      <trkpt lat="45.98134" lon="4.37433">
        <ele>567</ele>
        <time>2020-05-30T20:36:34Z</time>
      </trkpt>
      <trkpt lat="45.98106" lon="4.37415">
        <ele>564</ele>
        <time>2020-05-30T20:36:39Z</time>
      </trkpt>
      <trkpt lat="45.98116" lon="4.37366">
        <ele>562</ele>
        <time>2020-05-30T20:36:46Z</time>
      </trkpt>
      <trkpt lat="45.98129" lon="4.37279">
        <ele>560</ele>
        <time>2020-05-30T20:36:57Z</time>
      </trkpt>
      <trkpt lat="45.98131" lon="4.37267">
        <ele>559</ele>
        <time>2020-05-30T20:36:58Z</time>
      </trkpt>
      <trkpt lat="45.98147" lon="4.37129">
        <ele>554</ele>
        <time>2020-05-30T20:37:16Z</time>
      </trkpt>
      <trkpt lat="45.98148" lon="4.37105">
        <ele>554</ele>
        <time>2020-05-30T20:37:19Z</time>
      </trkpt>
      <trkpt lat="45.9815" lon="4.37079">
        <ele>553</ele>
        <time>2020-05-30T20:37:22Z</time>
      </trkpt>
      <trkpt lat="45.98151" lon="4.37056">
        <ele>552</ele>
        <time>2020-05-30T20:37:25Z</time>
      </trkpt>
      <trkpt lat="45.9815" lon="4.37026">
        <ele>551</ele>
        <time>2020-05-30T20:37:28Z</time>
      </trkpt>
      <trkpt lat="45.9815" lon="4.3698">
        <ele>549</ele>
        <time>2020-05-30T20:37:34Z</time>
      </trkpt>
      <trkpt lat="45.98149" lon="4.36963">
        <ele>549</ele>
        <time>2020-05-30T20:37:36Z</time>
      </trkpt>
      <trkpt lat="45.98126" lon="4.36762">
        <ele>543</ele>
        <time>2020-05-30T20:38:01Z</time>
      </trkpt>
      <trkpt lat="45.98121" lon="4.36726">
        <ele>541</ele>
        <time>2020-05-30T20:38:06Z</time>
      </trkpt>
      <trkpt lat="45.98114" lon="4.36696">
        <ele>539</ele>
        <time>2020-05-30T20:38:10Z</time>
      </trkpt>
      <trkpt lat="45.98105" lon="4.3667">
        <ele>536</ele>
        <time>2020-05-30T20:38:13Z</time>
      </trkpt>
      <trkpt lat="45.98094" lon="4.36644">
        <ele>534</ele>
        <time>2020-05-30T20:38:17Z</time>
      </trkpt>
      <trkpt lat="45.98077" lon="4.36615">
        <ele>532</ele>
        <time>2020-05-30T20:38:22Z</time>
      </trkpt>
      <trkpt lat="45.98064" lon="4.36598">
        <ele>530</ele>
        <time>2020-05-30T20:38:25Z</time>
      </trkpt>
      <trkpt lat="45.98037" lon="4.3657">
        <ele>528</ele>
        <time>2020-05-30T20:38:31Z</time>
      </trkpt>
      <trkpt lat="45.9802" lon="4.36557">
        <ele>527</ele>
        <time>2020-05-30T20:38:34Z</time>
      </trkpt>
      <trkpt lat="45.97996" lon="4.36542">
        <ele>527</ele>
        <time>2020-05-30T20:38:39Z</time>
      </trkpt>
      <trkpt lat="45.97986" lon="4.36536">
        <ele>526</ele>
        <time>2020-05-30T20:38:41Z</time>
      </trkpt>
      <trkpt lat="45.97909" lon="4.3649">
        <ele>521</ele>
        <time>2020-05-30T20:38:56Z</time>
      </trkpt>
      <trkpt lat="45.97874" lon="4.36477">
        <ele>520</ele>
        <time>2020-05-30T20:39:02Z</time>
      </trkpt>
      <trkpt lat="45.97842" lon="4.36473">
        <ele>518</ele>
        <time>2020-05-30T20:39:08Z</time>
      </trkpt>
      <trkpt lat="45.97825" lon="4.36475">
        <ele>516</ele>
        <time>2020-05-30T20:39:11Z</time>
      </trkpt>
      <trkpt lat="45.97761" lon="4.36488">
        <ele>513</ele>
        <time>2020-05-30T20:39:22Z</time>
      </trkpt>
      <trkpt lat="45.97743" lon="4.36488">
        <ele>512</ele>
        <time>2020-05-30T20:39:26Z</time>
      </trkpt>
      <trkpt lat="45.97711" lon="4.36484">
        <ele>509</ele>
        <time>2020-05-30T20:39:31Z</time>
      </trkpt>
      <trkpt lat="45.97681" lon="4.36472">
        <ele>507</ele>
        <time>2020-05-30T20:39:37Z</time>
      </trkpt>
      <trkpt lat="45.9766" lon="4.36459">
        <ele>505</ele>
        <time>2020-05-30T20:39:41Z</time>
      </trkpt>
      <trkpt lat="45.9763" lon="4.36431">
        <ele>504</ele>
        <time>2020-05-30T20:39:47Z</time>
      </trkpt>
      <trkpt lat="45.97594" lon="4.36384">
        <ele>503</ele>
        <time>2020-05-30T20:39:56Z</time>
      </trkpt>
      <trkpt lat="45.97569" lon="4.3635">
        <ele>502</ele>
        <time>2020-05-30T20:40:02Z</time>
      </trkpt>
      <trkpt lat="45.9754" lon="4.36312">
        <ele>501</ele>
        <time>2020-05-30T20:40:09Z</time>
      </trkpt>
      <trkpt lat="45.97495" lon="4.36253">
        <ele>499</ele>
        <time>2020-05-30T20:40:20Z</time>
      </trkpt>
      <trkpt lat="45.97467" lon="4.36216">
        <ele>497</ele>
        <time>2020-05-30T20:40:27Z</time>
      </trkpt>
      <trkpt lat="45.97442" lon="4.36164">
        <ele>495</ele>
        <time>2020-05-30T20:40:35Z</time>
      </trkpt>
      <trkpt lat="45.9742" lon="4.3611">
        <ele>493</ele>
        <time>2020-05-30T20:40:42Z</time>
      </trkpt>
      <trkpt lat="45.97413" lon="4.36083">
        <ele>493</ele>
        <time>2020-05-30T20:40:46Z</time>
      </trkpt>
      <trkpt lat="45.97403" lon="4.36046">
        <ele>491</ele>
        <time>2020-05-30T20:40:51Z</time>
      </trkpt>
      <trkpt lat="45.97388" lon="4.35978">
        <ele>489</ele>
        <time>2020-05-30T20:41:00Z</time>
      </trkpt>
      <trkpt lat="45.97362" lon="4.35891">
        <ele>487</ele>
        <time>2020-05-30T20:41:11Z</time>
      </trkpt>
      <trkpt lat="45.9734" lon="4.35852">
        <ele>486</ele>
        <time>2020-05-30T20:41:17Z</time>
      </trkpt>
      <trkpt lat="45.97322" lon="4.35827">
        <ele>486</ele>
        <time>2020-05-30T20:41:22Z</time>
      </trkpt>
      <trkpt lat="45.97253" lon="4.35731">
        <ele>483</ele>
        <time>2020-05-30T20:41:39Z</time>
      </trkpt>
      <trkpt lat="45.97237" lon="4.3569">
        <ele>482</ele>
        <time>2020-05-30T20:41:45Z</time>
      </trkpt>
      <trkpt lat="45.97191" lon="4.35476">
        <ele>474</ele>
        <time>2020-05-30T20:42:13Z</time>
      </trkpt>
      <trkpt lat="45.97188" lon="4.35422">
        <ele>474</ele>
        <time>2020-05-30T20:42:19Z</time>
      </trkpt>
      <trkpt lat="45.97192" lon="4.353">
        <ele>471</ele>
        <time>2020-05-30T20:42:34Z</time>
      </trkpt>
      <trkpt lat="45.97203" lon="4.35082">
        <ele>464</ele>
        <time>2020-05-30T20:43:01Z</time>
      </trkpt>
      <trkpt lat="45.97206" lon="4.34978">
        <ele>461</ele>
        <time>2020-05-30T20:43:14Z</time>
      </trkpt>
      <trkpt lat="45.97217" lon="4.34933">
        <ele>461</ele>
        <time>2020-05-30T20:43:20Z</time>
      </trkpt>
      <trkpt lat="45.9723" lon="4.34895">
        <ele>461</ele>
        <time>2020-05-30T20:43:25Z</time>
      </trkpt>
      <trkpt lat="45.97251" lon="4.34822">
        <ele>459</ele>
        <time>2020-05-30T20:43:35Z</time>
      </trkpt>
      <trkpt lat="45.97267" lon="4.34749">
        <ele>457</ele>
        <time>2020-05-30T20:43:45Z</time>
      </trkpt>
      <trkpt lat="45.97343" lon="4.34418">
        <ele>447</ele>
        <time>2020-05-30T20:44:28Z</time>
      </trkpt>
      <trkpt lat="45.97384" lon="4.34256">
        <ele>446</ele>
        <time>2020-05-30T20:44:49Z</time>
      </trkpt>
      <trkpt lat="45.97389" lon="4.34237">
        <ele>445</ele>
        <time>2020-05-30T20:44:52Z</time>
      </trkpt>
      <trkpt lat="45.97404" lon="4.34194">
        <ele>444</ele>
        <time>2020-05-30T20:44:57Z</time>
      </trkpt>
      <trkpt lat="45.97432" lon="4.34095">
        <ele>443</ele>
        <time>2020-05-30T20:45:11Z</time>
      </trkpt>
      <trkpt lat="45.97451" lon="4.34065">
        <ele>444</ele>
        <time>2020-05-30T20:45:16Z</time>
      </trkpt>
      <trkpt lat="45.97474" lon="4.34046">
        <ele>444</ele>
        <time>2020-05-30T20:45:20Z</time>
      </trkpt>
      <trkpt lat="45.97516" lon="4.34031">
        <ele>443</ele>
        <time>2020-05-30T20:45:28Z</time>
      </trkpt>
      <trkpt lat="45.9754" lon="4.34015">
        <ele>441</ele>
        <time>2020-05-30T20:45:33Z</time>
      </trkpt>
      <trkpt lat="45.97551" lon="4.34006">
        <ele>440</ele>
        <time>2020-05-30T20:45:35Z</time>
      </trkpt>
      <trkpt lat="45.97584" lon="4.33962">
        <ele>438</ele>
        <time>2020-05-30T20:45:43Z</time>
      </trkpt>
      <trkpt lat="45.976" lon="4.3393">
        <ele>439</ele>
        <time>2020-05-30T20:45:48Z</time>
      </trkpt>
      <trkpt lat="45.97606" lon="4.33914">
        <ele>440</ele>
        <time>2020-05-30T20:45:50Z</time>
      </trkpt>
      <trkpt lat="45.9761" lon="4.33894">
        <ele>440</ele>
        <time>2020-05-30T20:45:53Z</time>
      </trkpt>
      <trkpt lat="45.97613" lon="4.33855">
        <ele>441</ele>
        <time>2020-05-30T20:45:58Z</time>
      </trkpt>
      <trkpt lat="45.97613" lon="4.33763">
        <ele>440</ele>
        <time>2020-05-30T20:46:09Z</time>
      </trkpt>
      <trkpt lat="45.97614" lon="4.33747">
        <ele>439</ele>
        <time>2020-05-30T20:46:11Z</time>
      </trkpt>
      <trkpt lat="45.97615" lon="4.33705">
        <ele>440</ele>
        <time>2020-05-30T20:46:16Z</time>
      </trkpt>
      <trkpt lat="45.97636" lon="4.3365">
        <ele>437</ele>
        <time>2020-05-30T20:46:24Z</time>
      </trkpt>
      <trkpt lat="45.97644" lon="4.33609">
        <ele>438</ele>
        <time>2020-05-30T20:46:29Z</time>
      </trkpt>
      <trkpt lat="45.97644" lon="4.33593">
        <ele>438</ele>
        <time>2020-05-30T20:46:31Z</time>
      </trkpt>
      <trkpt lat="45.97636" lon="4.33545">
        <ele>438</ele>
        <time>2020-05-30T20:46:37Z</time>
      </trkpt>
      <trkpt lat="45.97631" lon="4.33454">
        <ele>433</ele>
        <time>2020-05-30T20:46:49Z</time>
      </trkpt>
      <trkpt lat="45.97634" lon="4.33435">
        <ele>431</ele>
        <time>2020-05-30T20:46:51Z</time>
      </trkpt>
      <trkpt lat="45.97636" lon="4.33434">
        <ele>431</ele>
        <time>2020-05-30T20:46:51Z</time>
      </trkpt>
      <trkpt lat="45.97638" lon="4.33432">
        <ele>430</ele>
        <time>2020-05-30T20:46:52Z</time>
      </trkpt>
      <trkpt lat="45.9764" lon="4.33429">
        <ele>430</ele>
        <time>2020-05-30T20:46:52Z</time>
      </trkpt>
      <trkpt lat="45.97648" lon="4.33428">
        <ele>429</ele>
        <time>2020-05-30T20:46:54Z</time>
      </trkpt>
      <trkpt lat="45.97665" lon="4.33425">
        <ele>427</ele>
        <time>2020-05-30T20:46:57Z</time>
      </trkpt>
      <trkpt lat="45.97669" lon="4.3342">
        <ele>427</ele>
        <time>2020-05-30T20:46:58Z</time>
      </trkpt>
      <trkpt lat="45.97697" lon="4.33402">
        <ele>429</ele>
        <time>2020-05-30T20:47:03Z</time>
      </trkpt>
      <trkpt lat="45.9772" lon="4.33377">
        <ele>430</ele>
        <time>2020-05-30T20:47:08Z</time>
      </trkpt>
      <trkpt lat="45.97735" lon="4.33325">
        <ele>432</ele>
        <time>2020-05-30T20:47:15Z</time>
      </trkpt>
      <trkpt lat="45.97735" lon="4.33296">
        <ele>434</ele>
        <time>2020-05-30T20:47:19Z</time>
      </trkpt>
      <trkpt lat="45.9773" lon="4.33268">
        <ele>435</ele>
        <time>2020-05-30T20:47:22Z</time>
      </trkpt>
      <trkpt lat="45.97727" lon="4.33248">
        <ele>436</ele>
        <time>2020-05-30T20:47:25Z</time>
      </trkpt>
      <trkpt lat="45.97723" lon="4.33224">
        <ele>437</ele>
        <time>2020-05-30T20:47:28Z</time>
      </trkpt>
      <trkpt lat="45.97723" lon="4.33204">
        <ele>438</ele>
        <time>2020-05-30T20:47:31Z</time>
      </trkpt>
      <trkpt lat="45.97723" lon="4.3319">
        <ele>439</ele>
        <time>2020-05-30T20:47:32Z</time>
      </trkpt>
      <trkpt lat="45.97732" lon="4.3316">
        <ele>442</ele>
        <time>2020-05-30T20:47:36Z</time>
      </trkpt>
      <trkpt lat="45.97734" lon="4.33154">
        <ele>443</ele>
        <time>2020-05-30T20:47:37Z</time>
      </trkpt>
      <trkpt lat="45.97744" lon="4.33128">
        <ele>445</ele>
        <time>2020-05-30T20:47:41Z</time>
      </trkpt>
      <trkpt lat="45.9776" lon="4.3311">
        <ele>446</ele>
        <time>2020-05-30T20:47:44Z</time>
      </trkpt>
      <trkpt lat="45.97777" lon="4.33092">
        <ele>446</ele>
        <time>2020-05-30T20:47:48Z</time>
      </trkpt>
      <trkpt lat="45.97834" lon="4.33079">
        <ele>443</ele>
        <time>2020-05-30T20:47:58Z</time>
      </trkpt>
      <trkpt lat="45.97888" lon="4.33089">
        <ele>437</ele>
        <time>2020-05-30T20:48:08Z</time>
      </trkpt>
      <trkpt lat="45.97934" lon="4.33118">
        <ele>434</ele>
        <time>2020-05-30T20:48:17Z</time>
      </trkpt>
      <trkpt lat="45.97995" lon="4.33188">
        <ele>428</ele>
        <time>2020-05-30T20:48:31Z</time>
      </trkpt>
      <trkpt lat="45.98032" lon="4.33242">
        <ele>428</ele>
        <time>2020-05-30T20:48:40Z</time>
      </trkpt>
      <trkpt lat="45.98047" lon="4.33276">
        <ele>426</ele>
        <time>2020-05-30T20:48:45Z</time>
      </trkpt>
      <trkpt lat="45.98054" lon="4.33288">
        <ele>424</ele>
        <time>2020-05-30T20:48:47Z</time>
      </trkpt>
      <trkpt lat="45.98055" lon="4.3329">
        <ele>424</ele>
        <time>2020-05-30T20:48:48Z</time>
      </trkpt>
      <trkpt lat="45.981" lon="4.3338">
        <ele>417</ele>
        <time>2020-05-30T20:49:01Z</time>
      </trkpt>
      <trkpt lat="45.98111" lon="4.33396">
        <ele>417</ele>
        <time>2020-05-30T20:49:04Z</time>
      </trkpt>
      <trkpt lat="45.98133" lon="4.33414">
        <ele>416</ele>
        <time>2020-05-30T20:49:09Z</time>
      </trkpt>
      <trkpt lat="45.98141" lon="4.33415">
        <ele>416</ele>
        <time>2020-05-30T20:49:10Z</time>
      </trkpt>
      <trkpt lat="45.98154" lon="4.33413">
        <ele>415</ele>
        <time>2020-05-30T20:49:12Z</time>
      </trkpt>
      <trkpt lat="45.98167" lon="4.33407">
        <ele>414</ele>
        <time>2020-05-30T20:49:15Z</time>
      </trkpt>
      <trkpt lat="45.98176" lon="4.33399">
        <ele>413</ele>
        <time>2020-05-30T20:49:17Z</time>
      </trkpt>
      <trkpt lat="45.98192" lon="4.33378">
        <ele>412</ele>
        <time>2020-05-30T20:49:20Z</time>
      </trkpt>
      <trkpt lat="45.98195" lon="4.33363">
        <ele>411</ele>
        <time>2020-05-30T20:49:22Z</time>
      </trkpt>
      <trkpt lat="45.98198" lon="4.33348">
        <ele>411</ele>
        <time>2020-05-30T20:49:24Z</time>
      </trkpt>
      <trkpt lat="45.982" lon="4.33328">
        <ele>410</ele>
        <time>2020-05-30T20:49:27Z</time>
      </trkpt>
      <trkpt lat="45.98199" lon="4.33265">
        <ele>410</ele>
        <time>2020-05-30T20:49:35Z</time>
      </trkpt>
      <trkpt lat="45.98202" lon="4.33238">
        <ele>409</ele>
        <time>2020-05-30T20:49:38Z</time>
      </trkpt>
      <trkpt lat="45.98207" lon="4.33214">
        <ele>408</ele>
        <time>2020-05-30T20:49:41Z</time>
      </trkpt>
      <trkpt lat="45.98217" lon="4.33191">
        <ele>407</ele>
        <time>2020-05-30T20:49:44Z</time>
      </trkpt>
      <trkpt lat="45.98238" lon="4.33169">
        <ele>404</ele>
        <time>2020-05-30T20:49:49Z</time>
      </trkpt>
      <trkpt lat="45.9826" lon="4.3315">
        <ele>404</ele>
        <time>2020-05-30T20:49:54Z</time>
      </trkpt>
      <trkpt lat="45.98281" lon="4.33131">
        <ele>406</ele>
        <time>2020-05-30T20:49:58Z</time>
      </trkpt>
      <trkpt lat="45.98291" lon="4.3314">
        <ele>407</ele>
        <time>2020-05-30T20:50:00Z</time>
      </trkpt>
      <trkpt lat="45.98297" lon="4.33138">
        <ele>407</ele>
        <time>2020-05-30T20:50:01Z</time>
      </trkpt>
      <trkpt lat="45.98301" lon="4.33132">
        <ele>408</ele>
        <time>2020-05-30T20:50:02Z</time>
      </trkpt>
      <trkpt lat="45.98304" lon="4.33122">
        <ele>409</ele>
        <time>2020-05-30T20:50:04Z</time>
      </trkpt>
      <trkpt lat="45.98301" lon="4.33111">
        <ele>409</ele>
        <time>2020-05-30T20:50:05Z</time>
      </trkpt>
      <trkpt lat="45.98295" lon="4.33104">
        <ele>409</ele>
        <time>2020-05-30T20:50:06Z</time>
      </trkpt>
      <trkpt lat="45.98287" lon="4.33104">
        <ele>408</ele>
        <time>2020-05-30T20:50:08Z</time>
      </trkpt>
      <trkpt lat="45.98281" lon="4.33112">
        <ele>407</ele>
        <time>2020-05-30T20:50:09Z</time>
      </trkpt>
      <trkpt lat="45.98262" lon="4.33048">
        <ele>407</ele>
        <time>2020-05-30T20:50:18Z</time>
      </trkpt>
      <trkpt lat="45.98243" lon="4.32998">
        <ele>406</ele>
        <time>2020-05-30T20:50:25Z</time>
      </trkpt>
      <trkpt lat="45.98214" lon="4.32901">
        <ele>405</ele>
        <time>2020-05-30T20:50:38Z</time>
      </trkpt>
      <trkpt lat="45.98167" lon="4.3278">
        <ele>403</ele>
        <time>2020-05-30T20:50:55Z</time>
      </trkpt>
      <trkpt lat="45.98104" lon="4.32628">
        <ele>402</ele>
        <time>2020-05-30T20:51:17Z</time>
      </trkpt>
      <trkpt lat="45.98081" lon="4.3258">
        <ele>402</ele>
        <time>2020-05-30T20:51:24Z</time>
      </trkpt>
      <trkpt lat="45.98034" lon="4.32492">
        <ele>403</ele>
        <time>2020-05-30T20:51:38Z</time>
      </trkpt>
      <trkpt lat="45.98006" lon="4.32428">
        <ele>402</ele>
        <time>2020-05-30T20:51:47Z</time>
      </trkpt>
      <trkpt lat="45.97984" lon="4.32353">
        <ele>405</ele>
        <time>2020-05-30T20:51:57Z</time>
      </trkpt>
      <trkpt lat="45.97977" lon="4.32318">
        <ele>406</ele>
        <time>2020-05-30T20:52:02Z</time>
      </trkpt>
      <trkpt lat="45.97974" lon="4.32276">
        <ele>406</ele>
        <time>2020-05-30T20:52:07Z</time>
      </trkpt>
      <trkpt lat="45.97974" lon="4.32207">
        <ele>406</ele>
        <time>2020-05-30T20:52:16Z</time>
      </trkpt>
      <trkpt lat="45.97979" lon="4.32171">
        <ele>407</ele>
        <time>2020-05-30T20:52:20Z</time>
      </trkpt>
      <trkpt lat="45.97996" lon="4.32105">
        <ele>405</ele>
        <time>2020-05-30T20:52:29Z</time>
      </trkpt>
      <trkpt lat="45.98005" lon="4.32054">
        <ele>402</ele>
        <time>2020-05-30T20:52:35Z</time>
      </trkpt>
      <trkpt lat="45.98003" lon="4.31985">
        <ele>397</ele>
        <time>2020-05-30T20:52:44Z</time>
      </trkpt>
      <trkpt lat="45.97994" lon="4.31927">
        <ele>396</ele>
        <time>2020-05-30T20:52:51Z</time>
      </trkpt>
      <trkpt lat="45.97992" lon="4.31916">
        <ele>396</ele>
        <time>2020-05-30T20:52:53Z</time>
      </trkpt>
      <trkpt lat="45.97987" lon="4.31906">
        <ele>397</ele>
        <time>2020-05-30T20:52:54Z</time>
      </trkpt>
      <trkpt lat="45.97992" lon="4.319">
        <ele>396</ele>
        <time>2020-05-30T20:52:55Z</time>
      </trkpt>
      <trkpt lat="45.97995" lon="4.31892">
        <ele>396</ele>
        <time>2020-05-30T20:52:56Z</time>
      </trkpt>
      <trkpt lat="45.97995" lon="4.31883">
        <ele>397</ele>
        <time>2020-05-30T20:52:58Z</time>
      </trkpt>
      <trkpt lat="45.97993" lon="4.31874">
        <ele>397</ele>
        <time>2020-05-30T20:52:59Z</time>
      </trkpt>
      <trkpt lat="45.97989" lon="4.31867">
        <ele>397</ele>
        <time>2020-05-30T20:53:00Z</time>
      </trkpt>
      <trkpt lat="45.98015" lon="4.31797">
        <ele>397</ele>
        <time>2020-05-30T20:53:10Z</time>
      </trkpt>
      <trkpt lat="45.98121" lon="4.31624">
        <ele>396</ele>
        <time>2020-05-30T20:53:38Z</time>
      </trkpt>
      <trkpt lat="45.98156" lon="4.3156">
        <ele>395</ele>
        <time>2020-05-30T20:53:48Z</time>
      </trkpt>
      <trkpt lat="45.98167" lon="4.31515">
        <ele>396</ele>
        <time>2020-05-30T20:53:54Z</time>
      </trkpt>
      <trkpt lat="45.98175" lon="4.31455">
        <ele>395</ele>
        <time>2020-05-30T20:54:02Z</time>
      </trkpt>
      <trkpt lat="45.98131" lon="4.31125">
        <ele>392</ele>
        <time>2020-05-30T20:54:43Z</time>
      </trkpt>
      <trkpt lat="45.98124" lon="4.31075">
        <ele>392</ele>
        <time>2020-05-30T20:54:50Z</time>
      </trkpt>
      <trkpt lat="45.98116" lon="4.31012">
        <ele>392</ele>
        <time>2020-05-30T20:54:58Z</time>
      </trkpt>
      <trkpt lat="45.98118" lon="4.30719">
        <ele>389</ele>
        <time>2020-05-30T20:55:34Z</time>
      </trkpt>
      <trkpt lat="45.98123" lon="4.30669">
        <ele>388</ele>
        <time>2020-05-30T20:55:40Z</time>
      </trkpt>
      <trkpt lat="45.98135" lon="4.30624">
        <ele>389</ele>
        <time>2020-05-30T20:55:46Z</time>
      </trkpt>
      <trkpt lat="45.98152" lon="4.30587">
        <ele>389</ele>
        <time>2020-05-30T20:55:51Z</time>
      </trkpt>
      <trkpt lat="45.98169" lon="4.30561">
        <ele>389</ele>
        <time>2020-05-30T20:55:56Z</time>
      </trkpt>
      <trkpt lat="45.98202" lon="4.30516">
        <ele>387</ele>
        <time>2020-05-30T20:56:04Z</time>
      </trkpt>
      <trkpt lat="45.98236" lon="4.30474">
        <ele>386</ele>
        <time>2020-05-30T20:56:12Z</time>
      </trkpt>
      <trkpt lat="45.9826" lon="4.3045">
        <ele>387</ele>
        <time>2020-05-30T20:56:17Z</time>
      </trkpt>
      <trkpt lat="45.98361" lon="4.30376">
        <ele>391</ele>
        <time>2020-05-30T20:56:37Z</time>
      </trkpt>
      <trkpt lat="45.98382" lon="4.30354">
        <ele>390</ele>
        <time>2020-05-30T20:56:42Z</time>
      </trkpt>
      <trkpt lat="45.9841" lon="4.30319">
        <ele>389</ele>
        <time>2020-05-30T20:56:48Z</time>
      </trkpt>
      <trkpt lat="45.98429" lon="4.30303">
        <ele>388</ele>
        <time>2020-05-30T20:56:52Z</time>
      </trkpt>
      <trkpt lat="45.98475" lon="4.3027">
        <ele>386</ele>
        <time>2020-05-30T20:57:02Z</time>
      </trkpt>
      <trkpt lat="45.9852" lon="4.30245">
        <ele>383</ele>
        <time>2020-05-30T20:57:10Z</time>
      </trkpt>
      <trkpt lat="45.98546" lon="4.30237">
        <ele>383</ele>
        <time>2020-05-30T20:57:15Z</time>
      </trkpt>
      <trkpt lat="45.9861" lon="4.30228">
        <ele>384</ele>
        <time>2020-05-30T20:57:26Z</time>
      </trkpt>
      <trkpt lat="45.98635" lon="4.30221">
        <ele>383</ele>
        <time>2020-05-30T20:57:31Z</time>
      </trkpt>
      <trkpt lat="45.98662" lon="4.30205">
        <ele>382</ele>
        <time>2020-05-30T20:57:36Z</time>
      </trkpt>
      <trkpt lat="45.98816" lon="4.30099">
        <ele>383</ele>
        <time>2020-05-30T20:58:06Z</time>
      </trkpt>
      <trkpt lat="45.98849" lon="4.30075">
        <ele>385</ele>
        <time>2020-05-30T20:58:13Z</time>
      </trkpt>
      <trkpt lat="45.98868" lon="4.30057">
        <ele>386</ele>
        <time>2020-05-30T20:58:17Z</time>
      </trkpt>
      <trkpt lat="45.98886" lon="4.30036">
        <ele>386</ele>
        <time>2020-05-30T20:58:21Z</time>
      </trkpt>
      <trkpt lat="45.98984" lon="4.29903">
        <ele>385</ele>
        <time>2020-05-30T20:58:45Z</time>
      </trkpt>
      <trkpt lat="45.98999" lon="4.29879">
        <ele>384</ele>
        <time>2020-05-30T20:58:49Z</time>
      </trkpt>
      <trkpt lat="45.99012" lon="4.29847">
        <ele>386</ele>
        <time>2020-05-30T20:58:54Z</time>
      </trkpt>
      <trkpt lat="45.99061" lon="4.29666">
        <ele>383</ele>
        <time>2020-05-30T20:59:18Z</time>
      </trkpt>
      <trkpt lat="45.99074" lon="4.2963">
        <ele>381</ele>
        <time>2020-05-30T20:59:23Z</time>
      </trkpt>
      <trkpt lat="45.99089" lon="4.29604">
        <ele>380</ele>
        <time>2020-05-30T20:59:27Z</time>
      </trkpt>
      <trkpt lat="45.99108" lon="4.29575">
        <ele>380</ele>
        <time>2020-05-30T20:59:32Z</time>
      </trkpt>
      <trkpt lat="45.9921" lon="4.29436">
        <ele>382</ele>
        <time>2020-05-30T20:59:57Z</time>
      </trkpt>
      <trkpt lat="45.99274" lon="4.29355">
        <ele>382</ele>
        <time>2020-05-30T21:00:12Z</time>
      </trkpt>
      <trkpt lat="45.99297" lon="4.29341">
        <ele>382</ele>
        <time>2020-05-30T21:00:16Z</time>
      </trkpt>
      <trkpt lat="45.99319" lon="4.29336">
        <ele>383</ele>
        <time>2020-05-30T21:00:20Z</time>
      </trkpt>
      <trkpt lat="45.99384" lon="4.29337">
        <ele>386</ele>
        <time>2020-05-30T21:00:32Z</time>
      </trkpt>
      <trkpt lat="45.99409" lon="4.29326">
        <ele>386</ele>
        <time>2020-05-30T21:00:37Z</time>
      </trkpt>
      <trkpt lat="45.99521" lon="4.29252">
        <ele>380</ele>
        <time>2020-05-30T21:00:59Z</time>
      </trkpt>
      <trkpt lat="45.99573" lon="4.29215">
        <ele>380</ele>
        <time>2020-05-30T21:01:09Z</time>
      </trkpt>
      <trkpt lat="45.9969" lon="4.29125">
        <ele>376</ele>
        <time>2020-05-30T21:01:32Z</time>
      </trkpt>
      <trkpt lat="45.99782" lon="4.29043">
        <ele>375</ele>
        <time>2020-05-30T21:01:52Z</time>
      </trkpt>
      <trkpt lat="45.99818" lon="4.29">
        <ele>373</ele>
        <time>2020-05-30T21:02:00Z</time>
      </trkpt>
      <trkpt lat="45.99851" lon="4.28946">
        <ele>375</ele>
        <time>2020-05-30T21:02:09Z</time>
      </trkpt>
      <trkpt lat="45.99943" lon="4.2874">
        <ele>373</ele>
        <time>2020-05-30T21:02:39Z</time>
      </trkpt>
      <trkpt lat="45.99965" lon="4.28697">
        <ele>374</ele>
        <time>2020-05-30T21:02:46Z</time>
      </trkpt>
      <trkpt lat="45.99994" lon="4.28658">
        <ele>374</ele>
        <time>2020-05-30T21:02:53Z</time>
      </trkpt>
      <trkpt lat="46.00068" lon="4.28602">
        <ele>374</ele>
        <time>2020-05-30T21:03:08Z</time>
      </trkpt>
      <trkpt lat="46.00106" lon="4.28583">
        <ele>373</ele>
        <time>2020-05-30T21:03:15Z</time>
      </trkpt>
      <trkpt lat="46.00149" lon="4.28557">
        <ele>374</ele>
        <time>2020-05-30T21:03:23Z</time>
      </trkpt>
      <trkpt lat="46.00191" lon="4.28521">
        <ele>377</ele>
        <time>2020-05-30T21:03:32Z</time>
      </trkpt>
      <trkpt lat="46.00329" lon="4.28352">
        <ele>370</ele>
        <time>2020-05-30T21:04:04Z</time>
      </trkpt>
      <trkpt lat="46.00396" lon="4.28206">
        <ele>370</ele>
        <time>2020-05-30T21:04:26Z</time>
      </trkpt>
      <trkpt lat="46.00453" lon="4.28064">
        <ele>371</ele>
        <time>2020-05-30T21:04:46Z</time>
      </trkpt>
      <trkpt lat="46.00459" lon="4.28027">
        <ele>373</ele>
        <time>2020-05-30T21:04:51Z</time>
      </trkpt>
      <trkpt lat="46.00465" lon="4.2794">
        <ele>375</ele>
        <time>2020-05-30T21:05:02Z</time>
      </trkpt>
      <trkpt lat="46.00473" lon="4.27774">
        <ele>370</ele>
        <time>2020-05-30T21:05:22Z</time>
      </trkpt>
      <trkpt lat="46.00472" lon="4.27713">
        <ele>369</ele>
        <time>2020-05-30T21:05:30Z</time>
      </trkpt>
      <trkpt lat="46.00462" lon="4.27554">
        <ele>369</ele>
        <time>2020-05-30T21:05:49Z</time>
      </trkpt>
      <trkpt lat="46.00456" lon="4.27419">
        <ele>370</ele>
        <time>2020-05-30T21:06:06Z</time>
      </trkpt>
      <trkpt lat="46.0046" lon="4.27374">
        <ele>370</ele>
        <time>2020-05-30T21:06:12Z</time>
      </trkpt>
      <trkpt lat="46.00467" lon="4.27332">
        <ele>371</ele>
        <time>2020-05-30T21:06:17Z</time>
      </trkpt>
      <trkpt lat="46.00476" lon="4.27299">
        <ele>370</ele>
        <time>2020-05-30T21:06:21Z</time>
      </trkpt>
      <trkpt lat="46.00488" lon="4.27271">
        <ele>369</ele>
        <time>2020-05-30T21:06:25Z</time>
      </trkpt>
      <trkpt lat="46.00501" lon="4.2725">
        <ele>369</ele>
        <time>2020-05-30T21:06:29Z</time>
      </trkpt>
      <trkpt lat="46.00515" lon="4.27232">
        <ele>370</ele>
        <time>2020-05-30T21:06:32Z</time>
      </trkpt>
      <trkpt lat="46.00561" lon="4.27212">
        <ele>375</ele>
        <time>2020-05-30T21:06:41Z</time>
      </trkpt>
      <trkpt lat="46.00568" lon="4.27209">
        <ele>375</ele>
        <time>2020-05-30T21:06:42Z</time>
      </trkpt>
      <trkpt lat="46.0057" lon="4.27205">
        <ele>376</ele>
        <time>2020-05-30T21:06:43Z</time>
      </trkpt>
      <trkpt lat="46.00572" lon="4.27199">
        <ele>376</ele>
        <time>2020-05-30T21:06:44Z</time>
      </trkpt>
      <trkpt lat="46.00572" lon="4.27191">
        <ele>375</ele>
        <time>2020-05-30T21:06:45Z</time>
      </trkpt>
      <trkpt lat="46.0057" lon="4.27183">
        <ele>375</ele>
        <time>2020-05-30T21:06:46Z</time>
      </trkpt>
      <trkpt lat="46.00563" lon="4.27177">
        <ele>374</ele>
        <time>2020-05-30T21:06:47Z</time>
      </trkpt>
      <trkpt lat="46.00555" lon="4.27142">
        <ele>374</ele>
        <time>2020-05-30T21:06:52Z</time>
      </trkpt>
      <trkpt lat="46.00552" lon="4.271">
        <ele>375</ele>
        <time>2020-05-30T21:06:57Z</time>
      </trkpt>
      <trkpt lat="46.00545" lon="4.27049">
        <ele>375</ele>
        <time>2020-05-30T21:07:03Z</time>
      </trkpt>
      <trkpt lat="46.00535" lon="4.26993">
        <ele>376</ele>
        <time>2020-05-30T21:07:10Z</time>
      </trkpt>
      <trkpt lat="46.00515" lon="4.26962">
        <ele>376</ele>
        <time>2020-05-30T21:07:16Z</time>
      </trkpt>
      <trkpt lat="46.00487" lon="4.26934">
        <ele>376</ele>
        <time>2020-05-30T21:07:22Z</time>
      </trkpt>
      <trkpt lat="46.00438" lon="4.26904">
        <ele>374</ele>
        <time>2020-05-30T21:07:31Z</time>
      </trkpt>
      <trkpt lat="46.00423" lon="4.26884">
        <ele>374</ele>
        <time>2020-05-30T21:07:35Z</time>
      </trkpt>
      <trkpt lat="46.00404" lon="4.26841">
        <ele>376</ele>
        <time>2020-05-30T21:07:41Z</time>
      </trkpt>
      <trkpt lat="46.00384" lon="4.26823">
        <ele>376</ele>
        <time>2020-05-30T21:07:45Z</time>
      </trkpt>
      <trkpt lat="46.00274" lon="4.26809">
        <ele>371</ele>
        <time>2020-05-30T21:08:05Z</time>
      </trkpt>
      <trkpt lat="46.00237" lon="4.26797">
        <ele>369</ele>
        <time>2020-05-30T21:08:12Z</time>
      </trkpt>
      <trkpt lat="46.00188" lon="4.26753">
        <ele>368</ele>
        <time>2020-05-30T21:08:22Z</time>
      </trkpt>
      <trkpt lat="46.00178" lon="4.26738">
        <ele>368</ele>
        <time>2020-05-30T21:08:25Z</time>
      </trkpt>
      <trkpt lat="46.00171" lon="4.2672">
        <ele>368</ele>
        <time>2020-05-30T21:08:27Z</time>
      </trkpt>
      <trkpt lat="46.00164" lon="4.26687">
        <ele>368</ele>
        <time>2020-05-30T21:08:31Z</time>
      </trkpt>
      <trkpt lat="46.00165" lon="4.26607">
        <ele>367</ele>
        <time>2020-05-30T21:08:41Z</time>
      </trkpt>
      <trkpt lat="46.00177" lon="4.26565">
        <ele>367</ele>
        <time>2020-05-30T21:08:47Z</time>
      </trkpt>
      <trkpt lat="46.00195" lon="4.26531">
        <ele>367</ele>
        <time>2020-05-30T21:08:52Z</time>
      </trkpt>
      <trkpt lat="46.00254" lon="4.26451">
        <ele>369</ele>
        <time>2020-05-30T21:09:07Z</time>
      </trkpt>
      <trkpt lat="46.00268" lon="4.26405">
        <ele>369</ele>
        <time>2020-05-30T21:09:13Z</time>
      </trkpt>
      <trkpt lat="46.00273" lon="4.26349">
        <ele>368</ele>
        <time>2020-05-30T21:09:20Z</time>
      </trkpt>
      <trkpt lat="46.00273" lon="4.26317">
        <ele>370</ele>
        <time>2020-05-30T21:09:24Z</time>
      </trkpt>
      <trkpt lat="46.00265" lon="4.26287">
        <ele>372</ele>
        <time>2020-05-30T21:09:28Z</time>
      </trkpt>
      <trkpt lat="46.00249" lon="4.26262">
        <ele>372</ele>
        <time>2020-05-30T21:09:32Z</time>
      </trkpt>
      <trkpt lat="46.00235" lon="4.26247">
        <ele>372</ele>
        <time>2020-05-30T21:09:35Z</time>
      </trkpt>
      <trkpt lat="46.00206" lon="4.26238">
        <ele>369</ele>
        <time>2020-05-30T21:09:40Z</time>
      </trkpt>
      <trkpt lat="46.00174" lon="4.26246">
        <ele>363</ele>
        <time>2020-05-30T21:09:46Z</time>
      </trkpt>
      <trkpt lat="46.00147" lon="4.26246">
        <ele>360</ele>
        <time>2020-05-30T21:09:51Z</time>
      </trkpt>
      <trkpt lat="46.00073" lon="4.26213">
        <ele>355</ele>
        <time>2020-05-30T21:10:05Z</time>
      </trkpt>
      <trkpt lat="46.00037" lon="4.26189">
        <ele>354</ele>
        <time>2020-05-30T21:10:12Z</time>
      </trkpt>
      <trkpt lat="45.99932" lon="4.26095">
        <ele>351</ele>
        <time>2020-05-30T21:10:34Z</time>
      </trkpt>
      <trkpt lat="45.99889" lon="4.2606">
        <ele>355</ele>
        <time>2020-05-30T21:10:42Z</time>
      </trkpt>
      <trkpt lat="45.998" lon="4.26035">
        <ele>360</ele>
        <time>2020-05-30T21:10:59Z</time>
      </trkpt>
      <trkpt lat="45.99752" lon="4.26006">
        <ele>361</ele>
        <time>2020-05-30T21:11:08Z</time>
      </trkpt>
      <trkpt lat="45.99687" lon="4.25941">
        <ele>363</ele>
        <time>2020-05-30T21:11:22Z</time>
      </trkpt>
      <trkpt lat="45.99644" lon="4.25909">
        <ele>361</ele>
        <time>2020-05-30T21:11:31Z</time>
      </trkpt>
      <trkpt lat="45.99612" lon="4.25903">
        <ele>358</ele>
        <time>2020-05-30T21:11:36Z</time>
      </trkpt>
      <trkpt lat="45.99595" lon="4.25892">
        <ele>357</ele>
        <time>2020-05-30T21:11:40Z</time>
      </trkpt>
      <trkpt lat="45.99575" lon="4.25861">
        <ele>358</ele>
        <time>2020-05-30T21:11:45Z</time>
      </trkpt>
      <trkpt lat="45.99562" lon="4.25821">
        <ele>360</ele>
        <time>2020-05-30T21:11:50Z</time>
      </trkpt>
      <trkpt lat="45.99556" lon="4.25776">
        <ele>359</ele>
        <time>2020-05-30T21:11:56Z</time>
      </trkpt>
      <trkpt lat="45.99556" lon="4.25702">
        <ele>357</ele>
        <time>2020-05-30T21:12:05Z</time>
      </trkpt>
      <trkpt lat="45.99579" lon="4.25601">
        <ele>354</ele>
        <time>2020-05-30T21:12:18Z</time>
      </trkpt>
      <trkpt lat="45.99609" lon="4.25539">
        <ele>354</ele>
        <time>2020-05-30T21:12:28Z</time>
      </trkpt>
      <trkpt lat="45.99639" lon="4.25495">
        <ele>355</ele>
        <time>2020-05-30T21:12:35Z</time>
      </trkpt>
      <trkpt lat="45.99654" lon="4.25461">
        <ele>355</ele>
        <time>2020-05-30T21:12:40Z</time>
      </trkpt>
      <trkpt lat="45.99673" lon="4.25387">
        <ele>354</ele>
        <time>2020-05-30T21:12:50Z</time>
      </trkpt>
      <trkpt lat="45.99715" lon="4.2516">
        <ele>352</ele>
        <time>2020-05-30T21:13:19Z</time>
      </trkpt>
      <trkpt lat="45.99747" lon="4.25078">
        <ele>352</ele>
        <time>2020-05-30T21:13:31Z</time>
      </trkpt>
      <trkpt lat="45.99752" lon="4.25025">
        <ele>352</ele>
        <time>2020-05-30T21:13:37Z</time>
      </trkpt>
      <trkpt lat="45.99752" lon="4.24994">
        <ele>351</ele>
        <time>2020-05-30T21:13:41Z</time>
      </trkpt>
      <trkpt lat="45.99751" lon="4.24969">
        <ele>351</ele>
        <time>2020-05-30T21:13:44Z</time>
      </trkpt>
      <trkpt lat="45.99739" lon="4.24902">
        <ele>349</ele>
        <time>2020-05-30T21:13:53Z</time>
      </trkpt>
      <trkpt lat="45.99741" lon="4.2488">
        <ele>348</ele>
        <time>2020-05-30T21:13:55Z</time>
      </trkpt>
      <trkpt lat="45.99753" lon="4.24844">
        <ele>348</ele>
        <time>2020-05-30T21:14:00Z</time>
      </trkpt>
      <trkpt lat="45.99812" lon="4.24743">
        <ele>347</ele>
        <time>2020-05-30T21:14:17Z</time>
      </trkpt>
      <trkpt lat="45.99891" lon="4.24524">
        <ele>345</ele>
        <time>2020-05-30T21:14:47Z</time>
      </trkpt>
      <trkpt lat="45.99924" lon="4.24363">
        <ele>340</ele>
        <time>2020-05-30T21:15:08Z</time>
      </trkpt>
      <trkpt lat="45.99932" lon="4.24338">
        <ele>338</ele>
        <time>2020-05-30T21:15:11Z</time>
      </trkpt>
      <trkpt lat="45.99987" lon="4.24242">
        <ele>337</ele>
        <time>2020-05-30T21:15:27Z</time>
      </trkpt>
      <trkpt lat="45.99992" lon="4.24219">
        <ele>339</ele>
        <time>2020-05-30T21:15:30Z</time>
      </trkpt>
      <trkpt lat="45.9999" lon="4.24198">
        <ele>340</ele>
        <time>2020-05-30T21:15:32Z</time>
      </trkpt>
      <trkpt lat="45.99984" lon="4.24176">
        <ele>340</ele>
        <time>2020-05-30T21:15:35Z</time>
      </trkpt>
      <trkpt lat="45.99982" lon="4.24156">
        <ele>340</ele>
        <time>2020-05-30T21:15:38Z</time>
      </trkpt>
      <trkpt lat="45.99985" lon="4.24125">
        <ele>340</ele>
        <time>2020-05-30T21:15:42Z</time>
      </trkpt>
      <trkpt lat="46.00007" lon="4.24033">
        <ele>341</ele>
        <time>2020-05-30T21:15:54Z</time>
      </trkpt>
      <trkpt lat="46.00027" lon="4.23928">
        <ele>342</ele>
        <time>2020-05-30T21:16:07Z</time>
      </trkpt>
      <trkpt lat="46.00053" lon="4.23752">
        <ele>343</ele>
        <time>2020-05-30T21:16:29Z</time>
      </trkpt>
      <trkpt lat="46.00054" lon="4.23712">
        <ele>342</ele>
        <time>2020-05-30T21:16:34Z</time>
      </trkpt>
      <trkpt lat="46.00049" lon="4.23601">
        <ele>341</ele>
        <time>2020-05-30T21:16:48Z</time>
      </trkpt>
      <trkpt lat="46.00035" lon="4.23415">
        <ele>342</ele>
        <time>2020-05-30T21:17:11Z</time>
      </trkpt>
      <trkpt lat="46.0003" lon="4.23336">
        <ele>348</ele>
        <time>2020-05-30T21:17:21Z</time>
      </trkpt>
      <trkpt lat="46.00024" lon="4.23299">
        <ele>349</ele>
        <time>2020-05-30T21:17:26Z</time>
      </trkpt>
      <trkpt lat="46.00013" lon="4.23265">
        <ele>348</ele>
        <time>2020-05-30T21:17:30Z</time>
      </trkpt>
      <trkpt lat="45.99963" lon="4.23166">
        <ele>344</ele>
        <time>2020-05-30T21:17:45Z</time>
      </trkpt>
      <trkpt lat="45.99934" lon="4.23099">
        <ele>345</ele>
        <time>2020-05-30T21:17:55Z</time>
      </trkpt>
      <trkpt lat="45.99911" lon="4.23063">
        <ele>345</ele>
        <time>2020-05-30T21:18:01Z</time>
      </trkpt>
      <trkpt lat="45.99888" lon="4.23037">
        <ele>347</ele>
        <time>2020-05-30T21:18:06Z</time>
      </trkpt>
      <trkpt lat="45.99786" lon="4.22945">
        <ele>346</ele>
        <time>2020-05-30T21:18:28Z</time>
      </trkpt>
      <trkpt lat="45.99753" lon="4.22926">
        <ele>346</ele>
        <time>2020-05-30T21:18:34Z</time>
      </trkpt>
      <trkpt lat="45.99673" lon="4.22915">
        <ele>343</ele>
        <time>2020-05-30T21:18:48Z</time>
      </trkpt>
      <trkpt lat="45.99569" lon="4.22862">
        <ele>343</ele>
        <time>2020-05-30T21:19:08Z</time>
      </trkpt>
      <trkpt lat="45.99458" lon="4.2284">
        <ele>340</ele>
        <time>2020-05-30T21:19:28Z</time>
      </trkpt>
      <trkpt lat="45.99435" lon="4.22831">
        <ele>339</ele>
        <time>2020-05-30T21:19:32Z</time>
      </trkpt>
      <trkpt lat="45.99387" lon="4.2278">
        <ele>340</ele>
        <time>2020-05-30T21:19:43Z</time>
      </trkpt>
      <trkpt lat="45.99346" lon="4.2272">
        <ele>339</ele>
        <time>2020-05-30T21:19:53Z</time>
      </trkpt>
      <trkpt lat="45.99308" lon="4.22653">
        <ele>337</ele>
        <time>2020-05-30T21:20:04Z</time>
      </trkpt>
      <trkpt lat="45.9922" lon="4.22583">
        <ele>335</ele>
        <time>2020-05-30T21:20:22Z</time>
      </trkpt>
      <trkpt lat="45.9919" lon="4.22545">
        <ele>334</ele>
        <time>2020-05-30T21:20:29Z</time>
      </trkpt>
      <trkpt lat="45.99172" lon="4.22492">
        <ele>335</ele>
        <time>2020-05-30T21:20:36Z</time>
      </trkpt>
      <trkpt lat="45.99159" lon="4.22443">
        <ele>334</ele>
        <time>2020-05-30T21:20:43Z</time>
      </trkpt>
      <trkpt lat="45.99151" lon="4.22375">
        <ele>333</ele>
        <time>2020-05-30T21:20:51Z</time>
      </trkpt>
      <trkpt lat="45.99212" lon="4.2192">
        <ele>332</ele>
        <time>2020-05-30T21:21:49Z</time>
      </trkpt>
      <trkpt lat="45.99222" lon="4.21831">
        <ele>336</ele>
        <time>2020-05-30T21:22:00Z</time>
      </trkpt>
      <trkpt lat="45.9922" lon="4.21805">
        <ele>338</ele>
        <time>2020-05-30T21:22:03Z</time>
      </trkpt>
      <trkpt lat="45.99216" lon="4.21794">
        <ele>339</ele>
        <time>2020-05-30T21:22:04Z</time>
      </trkpt>
      <trkpt lat="45.99207" lon="4.21778">
        <ele>340</ele>
        <time>2020-05-30T21:22:07Z</time>
      </trkpt>
      <trkpt lat="45.99201" lon="4.2177">
        <ele>340</ele>
        <time>2020-05-30T21:22:08Z</time>
      </trkpt>
      <trkpt lat="45.99188" lon="4.21762">
        <ele>340</ele>
        <time>2020-05-30T21:22:11Z</time>
      </trkpt>
      <trkpt lat="45.99162" lon="4.21751">
        <ele>338</ele>
        <time>2020-05-30T21:22:16Z</time>
      </trkpt>
      <trkpt lat="45.99044" lon="4.2161">
        <ele>340</ele>
        <time>2020-05-30T21:22:43Z</time>
      </trkpt>
      <trkpt lat="45.99042" lon="4.21582">
        <ele>342</ele>
        <time>2020-05-30T21:22:47Z</time>
      </trkpt>
      <trkpt lat="45.99045" lon="4.21553">
        <ele>342</ele>
        <time>2020-05-30T21:22:50Z</time>
      </trkpt>
      <trkpt lat="45.99047" lon="4.21545">
        <ele>342</ele>
        <time>2020-05-30T21:22:51Z</time>
      </trkpt>
      <trkpt lat="45.99044" lon="4.21522">
        <ele>342</ele>
        <time>2020-05-30T21:22:54Z</time>
      </trkpt>
      <trkpt lat="45.99023" lon="4.21439">
        <ele>341</ele>
        <time>2020-05-30T21:23:05Z</time>
      </trkpt>
      <trkpt lat="45.99009" lon="4.21367">
        <ele>343</ele>
        <time>2020-05-30T21:23:14Z</time>
      </trkpt>
      <trkpt lat="45.99003" lon="4.21359">
        <ele>343</ele>
        <time>2020-05-30T21:23:16Z</time>
      </trkpt>
      <trkpt lat="45.9895" lon="4.21341">
        <ele>340</ele>
        <time>2020-05-30T21:23:25Z</time>
      </trkpt>
      <trkpt lat="45.98934" lon="4.21332">
        <ele>339</ele>
        <time>2020-05-30T21:23:29Z</time>
      </trkpt>
      <trkpt lat="45.98917" lon="4.21315">
        <ele>339</ele>
        <time>2020-05-30T21:23:32Z</time>
      </trkpt>
      <trkpt lat="45.98894" lon="4.21283">
        <ele>339</ele>
        <time>2020-05-30T21:23:38Z</time>
      </trkpt>
      <trkpt lat="45.98875" lon="4.21251">
        <ele>339</ele>
        <time>2020-05-30T21:23:43Z</time>
      </trkpt>
      <trkpt lat="45.98867" lon="4.21234">
        <ele>339</ele>
        <time>2020-05-30T21:23:46Z</time>
      </trkpt>
      <trkpt lat="45.98861" lon="4.21217">
        <ele>339</ele>
        <time>2020-05-30T21:23:48Z</time>
      </trkpt>
      <trkpt lat="45.98856" lon="4.21195">
        <ele>339</ele>
        <time>2020-05-30T21:23:51Z</time>
      </trkpt>
      <trkpt lat="45.98858" lon="4.21164">
        <ele>340</ele>
        <time>2020-05-30T21:23:55Z</time>
      </trkpt>
      <trkpt lat="45.98871" lon="4.21108">
        <ele>339</ele>
        <time>2020-05-30T21:24:02Z</time>
      </trkpt>
      <trkpt lat="45.98893" lon="4.21005">
        <ele>339</ele>
        <time>2020-05-30T21:24:15Z</time>
      </trkpt>
      <trkpt lat="45.98916" lon="4.20908">
        <ele>336</ele>
        <time>2020-05-30T21:24:28Z</time>
      </trkpt>
      <trkpt lat="45.98927" lon="4.2085">
        <ele>336</ele>
        <time>2020-05-30T21:24:35Z</time>
      </trkpt>
      <trkpt lat="45.98928" lon="4.20825">
        <ele>337</ele>
        <time>2020-05-30T21:24:39Z</time>
      </trkpt>
      <trkpt lat="45.98926" lon="4.20818">
        <ele>337</ele>
        <time>2020-05-30T21:24:39Z</time>
      </trkpt>
      <trkpt lat="45.98914" lon="4.2079">
        <ele>338</ele>
        <time>2020-05-30T21:24:44Z</time>
      </trkpt>
      <trkpt lat="45.98906" lon="4.20776">
        <ele>338</ele>
        <time>2020-05-30T21:24:46Z</time>
      </trkpt>
      <trkpt lat="45.98843" lon="4.20698">
        <ele>336</ele>
        <time>2020-05-30T21:25:01Z</time>
      </trkpt>
      <trkpt lat="45.98835" lon="4.20685">
        <ele>336</ele>
        <time>2020-05-30T21:25:03Z</time>
      </trkpt>
      <trkpt lat="45.98829" lon="4.2067">
        <ele>337</ele>
        <time>2020-05-30T21:25:05Z</time>
      </trkpt>
      <trkpt lat="45.98824" lon="4.2065">
        <ele>337</ele>
        <time>2020-05-30T21:25:07Z</time>
      </trkpt>
      <trkpt lat="45.98823" lon="4.20628">
        <ele>337</ele>
        <time>2020-05-30T21:25:10Z</time>
      </trkpt>
      <trkpt lat="45.9883" lon="4.20519">
        <ele>343</ele>
        <time>2020-05-30T21:25:24Z</time>
      </trkpt>
      <trkpt lat="45.98826" lon="4.20498">
        <ele>343</ele>
        <time>2020-05-30T21:25:26Z</time>
      </trkpt>
      <trkpt lat="45.98818" lon="4.20478">
        <ele>343</ele>
        <time>2020-05-30T21:25:29Z</time>
      </trkpt>
      <trkpt lat="45.98807" lon="4.20461">
        <ele>341</ele>
        <time>2020-05-30T21:25:32Z</time>
      </trkpt>
      <trkpt lat="45.98792" lon="4.20449">
        <ele>339</ele>
        <time>2020-05-30T21:25:35Z</time>
      </trkpt>
      <trkpt lat="45.98776" lon="4.20439">
        <ele>336</ele>
        <time>2020-05-30T21:25:38Z</time>
      </trkpt>
      <trkpt lat="45.9876" lon="4.20432">
        <ele>333</ele>
        <time>2020-05-30T21:25:41Z</time>
      </trkpt>
      <trkpt lat="45.98745" lon="4.2042">
        <ele>331</ele>
        <time>2020-05-30T21:25:44Z</time>
      </trkpt>
      <trkpt lat="45.98734" lon="4.20403">
        <ele>330</ele>
        <time>2020-05-30T21:25:47Z</time>
      </trkpt>
      <trkpt lat="45.98702" lon="4.20345">
        <ele>328</ele>
        <time>2020-05-30T21:25:56Z</time>
      </trkpt>
      <trkpt lat="45.98688" lon="4.20325">
        <ele>327</ele>
        <time>2020-05-30T21:26:00Z</time>
      </trkpt>
      <trkpt lat="45.98654" lon="4.20259">
        <ele>328</ele>
        <time>2020-05-30T21:26:10Z</time>
      </trkpt>
      <trkpt lat="45.98607" lon="4.20175">
        <ele>330</ele>
        <time>2020-05-30T21:26:23Z</time>
      </trkpt>
      <trkpt lat="45.98579" lon="4.20136">
        <ele>328</ele>
        <time>2020-05-30T21:26:30Z</time>
      </trkpt>
      <trkpt lat="45.98536" lon="4.20089">
        <ele>330</ele>
        <time>2020-05-30T21:26:40Z</time>
      </trkpt>
      <trkpt lat="45.98518" lon="4.20051">
        <ele>332</ele>
        <time>2020-05-30T21:26:46Z</time>
      </trkpt>
      <trkpt lat="45.9851" lon="4.20027">
        <ele>334</ele>
        <time>2020-05-30T21:26:49Z</time>
      </trkpt>
      <trkpt lat="45.98505" lon="4.20005">
        <ele>335</ele>
        <time>2020-05-30T21:26:52Z</time>
      </trkpt>
      <trkpt lat="45.985" lon="4.19958">
        <ele>336</ele>
        <time>2020-05-30T21:26:58Z</time>
      </trkpt>
      <trkpt lat="45.985" lon="4.19909">
        <ele>336</ele>
        <time>2020-05-30T21:27:04Z</time>
      </trkpt>
      <trkpt lat="45.98502" lon="4.19886">
        <ele>334</ele>
        <time>2020-05-30T21:27:07Z</time>
      </trkpt>
      <trkpt lat="45.9851" lon="4.19842">
        <ele>333</ele>
        <time>2020-05-30T21:27:12Z</time>
      </trkpt>
      <trkpt lat="45.98547" lon="4.19719">
        <ele>329</ele>
        <time>2020-05-30T21:27:29Z</time>
      </trkpt>
      <trkpt lat="45.98561" lon="4.19666">
        <ele>327</ele>
        <time>2020-05-30T21:27:36Z</time>
      </trkpt>
      <trkpt lat="45.98569" lon="4.19608">
        <ele>327</ele>
        <time>2020-05-30T21:27:43Z</time>
      </trkpt>
      <trkpt lat="45.98569" lon="4.19546">
        <ele>329</ele>
        <time>2020-05-30T21:27:51Z</time>
      </trkpt>
      <trkpt lat="45.98567" lon="4.19516">
        <ele>330</ele>
        <time>2020-05-30T21:27:54Z</time>
      </trkpt>
      <trkpt lat="45.98553" lon="4.19423">
        <ele>332</ele>
        <time>2020-05-30T21:28:06Z</time>
      </trkpt>
      <trkpt lat="45.98456" lon="4.18787">
        <ele>323</ele>
        <time>2020-05-30T21:29:27Z</time>
      </trkpt>
      <trkpt lat="45.98454" lon="4.18765">
        <ele>323</ele>
        <time>2020-05-30T21:29:29Z</time>
      </trkpt>
      <trkpt lat="45.98454" lon="4.1873">
        <ele>325</ele>
        <time>2020-05-30T21:29:34Z</time>
      </trkpt>
      <trkpt lat="45.98457" lon="4.18674">
        <ele>327</ele>
        <time>2020-05-30T21:29:41Z</time>
      </trkpt>
      <trkpt lat="45.98467" lon="4.18624">
        <ele>326</ele>
        <time>2020-05-30T21:29:47Z</time>
      </trkpt>
      <trkpt lat="45.98486" lon="4.18574">
        <ele>325</ele>
        <time>2020-05-30T21:29:54Z</time>
      </trkpt>
      <trkpt lat="45.98498" lon="4.1855">
        <ele>323</ele>
        <time>2020-05-30T21:29:58Z</time>
      </trkpt>
      <trkpt lat="45.98512" lon="4.1853">
        <ele>322</ele>
        <time>2020-05-30T21:30:01Z</time>
      </trkpt>
      <trkpt lat="45.98574" lon="4.18458">
        <ele>320</ele>
        <time>2020-05-30T21:30:16Z</time>
      </trkpt>
      <trkpt lat="45.98589" lon="4.18438">
        <ele>320</ele>
        <time>2020-05-30T21:30:19Z</time>
      </trkpt>
      <trkpt lat="45.98601" lon="4.18416">
        <ele>319</ele>
        <time>2020-05-30T21:30:23Z</time>
      </trkpt>
      <trkpt lat="45.98617" lon="4.18377">
        <ele>318</ele>
        <time>2020-05-30T21:30:28Z</time>
      </trkpt>
      <trkpt lat="45.98652" lon="4.18235">
        <ele>319</ele>
        <time>2020-05-30T21:30:47Z</time>
      </trkpt>
      <trkpt lat="45.9866" lon="4.18211">
        <ele>319</ele>
        <time>2020-05-30T21:30:50Z</time>
      </trkpt>
      <trkpt lat="45.987" lon="4.18109">
        <ele>322</ele>
        <time>2020-05-30T21:31:05Z</time>
      </trkpt>
      <trkpt lat="45.98728" lon="4.17945">
        <ele>325</ele>
        <time>2020-05-30T21:31:26Z</time>
      </trkpt>
      <trkpt lat="45.98728" lon="4.17922">
        <ele>325</ele>
        <time>2020-05-30T21:31:28Z</time>
      </trkpt>
      <trkpt lat="45.98726" lon="4.17897">
        <ele>325</ele>
        <time>2020-05-30T21:31:31Z</time>
      </trkpt>
      <trkpt lat="45.98715" lon="4.17817">
        <ele>327</ele>
        <time>2020-05-30T21:31:42Z</time>
      </trkpt>
      <trkpt lat="45.98706" lon="4.17768">
        <ele>327</ele>
        <time>2020-05-30T21:31:48Z</time>
      </trkpt>
      <trkpt lat="45.98697" lon="4.17743">
        <ele>327</ele>
        <time>2020-05-30T21:31:51Z</time>
      </trkpt>
      <trkpt lat="45.9868" lon="4.17706">
        <ele>326</ele>
        <time>2020-05-30T21:31:57Z</time>
      </trkpt>
      <trkpt lat="45.98672" lon="4.1769">
        <ele>325</ele>
        <time>2020-05-30T21:31:59Z</time>
      </trkpt>
      <trkpt lat="45.98649" lon="4.17658">
        <ele>324</ele>
        <time>2020-05-30T21:32:05Z</time>
      </trkpt>
      <trkpt lat="45.98619" lon="4.17606">
        <ele>323</ele>
        <time>2020-05-30T21:32:13Z</time>
      </trkpt>
      <trkpt lat="45.98604" lon="4.17573">
        <ele>323</ele>
        <time>2020-05-30T21:32:18Z</time>
      </trkpt>
      <trkpt lat="45.98555" lon="4.17454">
        <ele>323</ele>
        <time>2020-05-30T21:32:35Z</time>
      </trkpt>
      <trkpt lat="45.98525" lon="4.17371">
        <ele>325</ele>
        <time>2020-05-30T21:32:47Z</time>
      </trkpt>
      <trkpt lat="45.98507" lon="4.17295">
        <ele>328</ele>
        <time>2020-05-30T21:32:57Z</time>
      </trkpt>
      <trkpt lat="45.98497" lon="4.17239">
        <ele>330</ele>
        <time>2020-05-30T21:33:04Z</time>
      </trkpt>
      <trkpt lat="45.98497" lon="4.17212">
        <ele>332</ele>
        <time>2020-05-30T21:33:07Z</time>
      </trkpt>
      <trkpt lat="45.98502" lon="4.17111">
        <ele>336</ele>
        <time>2020-05-30T21:33:20Z</time>
      </trkpt>
      <trkpt lat="45.98498" lon="4.17089">
        <ele>336</ele>
        <time>2020-05-30T21:33:23Z</time>
      </trkpt>
      <trkpt lat="45.98491" lon="4.17069">
        <ele>335</ele>
        <time>2020-05-30T21:33:25Z</time>
      </trkpt>
      <trkpt lat="45.98481" lon="4.17051">
        <ele>334</ele>
        <time>2020-05-30T21:33:28Z</time>
      </trkpt>
      <trkpt lat="45.98372" lon="4.1691">
        <ele>336</ele>
        <time>2020-05-30T21:33:54Z</time>
      </trkpt>
      <trkpt lat="45.98348" lon="4.16873">
        <ele>338</ele>
        <time>2020-05-30T21:34:01Z</time>
      </trkpt>
      <trkpt lat="45.98333" lon="4.16842">
        <ele>341</ele>
        <time>2020-05-30T21:34:05Z</time>
      </trkpt>
      <trkpt lat="45.98293" lon="4.16737">
        <ele>344</ele>
        <time>2020-05-30T21:34:20Z</time>
      </trkpt>
      <trkpt lat="45.98274" lon="4.16693">
        <ele>343</ele>
        <time>2020-05-30T21:34:26Z</time>
      </trkpt>
      <trkpt lat="45.98256" lon="4.16661">
        <ele>343</ele>
        <time>2020-05-30T21:34:31Z</time>
      </trkpt>
      <trkpt lat="45.98235" lon="4.16637">
        <ele>343</ele>
        <time>2020-05-30T21:34:36Z</time>
      </trkpt>
      <trkpt lat="45.98209" lon="4.16616">
        <ele>343</ele>
        <time>2020-05-30T21:34:42Z</time>
      </trkpt>
      <trkpt lat="45.98035" lon="4.16485">
        <ele>338</ele>
        <time>2020-05-30T21:35:16Z</time>
      </trkpt>
      <trkpt lat="45.97988" lon="4.16426">
        <ele>340</ele>
        <time>2020-05-30T21:35:28Z</time>
      </trkpt>
      <trkpt lat="45.97942" lon="4.16358">
        <ele>338</ele>
        <time>2020-05-30T21:35:39Z</time>
      </trkpt>
      <trkpt lat="45.97928" lon="4.16335">
        <ele>338</ele>
        <time>2020-05-30T21:35:43Z</time>
      </trkpt>
      <trkpt lat="45.97917" lon="4.1631">
        <ele>336</ele>
        <time>2020-05-30T21:35:47Z</time>
      </trkpt>
      <trkpt lat="45.97899" lon="4.16258">
        <ele>334</ele>
        <time>2020-05-30T21:35:54Z</time>
      </trkpt>
      <trkpt lat="45.97887" lon="4.16205">
        <ele>333</ele>
        <time>2020-05-30T21:36:01Z</time>
      </trkpt>
      <trkpt lat="45.97883" lon="4.16178">
        <ele>332</ele>
        <time>2020-05-30T21:36:04Z</time>
      </trkpt>
      <trkpt lat="45.97875" lon="4.16093">
        <ele>330</ele>
        <time>2020-05-30T21:36:15Z</time>
      </trkpt>
      <trkpt lat="45.9787" lon="4.16065">
        <ele>328</ele>
        <time>2020-05-30T21:36:18Z</time>
      </trkpt>
      <trkpt lat="45.97863" lon="4.16035">
        <ele>327</ele>
        <time>2020-05-30T21:36:22Z</time>
      </trkpt>
      <trkpt lat="45.97808" lon="4.15853">
        <ele>323</ele>
        <time>2020-05-30T21:36:47Z</time>
      </trkpt>
      <trkpt lat="45.97762" lon="4.15689">
        <ele>317</ele>
        <time>2020-05-30T21:37:09Z</time>
      </trkpt>
      <trkpt lat="45.97758" lon="4.15663">
        <ele>317</ele>
        <time>2020-05-30T21:37:12Z</time>
      </trkpt>
      <trkpt lat="45.97754" lon="4.15613">
        <ele>315</ele>
        <time>2020-05-30T21:37:18Z</time>
      </trkpt>
      <trkpt lat="45.97753" lon="4.1554">
        <ele>315</ele>
        <time>2020-05-30T21:37:27Z</time>
      </trkpt>
      <trkpt lat="45.97751" lon="4.15517">
        <ele>316</ele>
        <time>2020-05-30T21:37:30Z</time>
      </trkpt>
      <trkpt lat="45.97747" lon="4.15496">
        <ele>316</ele>
        <time>2020-05-30T21:37:33Z</time>
      </trkpt>
      <trkpt lat="45.97741" lon="4.15475">
        <ele>317</ele>
        <time>2020-05-30T21:37:36Z</time>
      </trkpt>
      <trkpt lat="45.9771" lon="4.154">
        <ele>316</ele>
        <time>2020-05-30T21:37:46Z</time>
      </trkpt>
      <trkpt lat="45.97707" lon="4.15385">
        <ele>315</ele>
        <time>2020-05-30T21:37:48Z</time>
      </trkpt>
      <trkpt lat="45.97706" lon="4.15369">
        <ele>315</ele>
        <time>2020-05-30T21:37:50Z</time>
      </trkpt>
      <trkpt lat="45.97711" lon="4.15307">
        <ele>315</ele>
        <time>2020-05-30T21:37:58Z</time>
      </trkpt>
      <trkpt lat="45.97711" lon="4.15282">
        <ele>314</ele>
        <time>2020-05-30T21:38:01Z</time>
      </trkpt>
      <trkpt lat="45.97709" lon="4.15256">
        <ele>314</ele>
        <time>2020-05-30T21:38:04Z</time>
      </trkpt>
      <trkpt lat="45.97698" lon="4.15177">
        <ele>316</ele>
        <time>2020-05-30T21:38:14Z</time>
      </trkpt>
      <trkpt lat="45.97692" lon="4.15153">
        <ele>316</ele>
        <time>2020-05-30T21:38:18Z</time>
      </trkpt>
      <trkpt lat="45.97685" lon="4.15129">
        <ele>316</ele>
        <time>2020-05-30T21:38:21Z</time>
      </trkpt>
      <trkpt lat="45.97675" lon="4.15108">
        <ele>316</ele>
        <time>2020-05-30T21:38:24Z</time>
      </trkpt>
      <trkpt lat="45.97663" lon="4.15089">
        <ele>315</ele>
        <time>2020-05-30T21:38:27Z</time>
      </trkpt>
      <trkpt lat="45.97649" lon="4.15072">
        <ele>315</ele>
        <time>2020-05-30T21:38:30Z</time>
      </trkpt>
      <trkpt lat="45.97632" lon="4.15058">
        <ele>315</ele>
        <time>2020-05-30T21:38:34Z</time>
      </trkpt>
      <trkpt lat="45.97614" lon="4.15047">
        <ele>314</ele>
        <time>2020-05-30T21:38:37Z</time>
      </trkpt>
      <trkpt lat="45.97596" lon="4.15038">
        <ele>314</ele>
        <time>2020-05-30T21:38:41Z</time>
      </trkpt>
      <trkpt lat="45.97577" lon="4.15032">
        <ele>312</ele>
        <time>2020-05-30T21:38:44Z</time>
      </trkpt>
      <trkpt lat="45.97539" lon="4.15026">
        <ele>311</ele>
        <time>2020-05-30T21:38:51Z</time>
      </trkpt>
      <trkpt lat="45.9752" lon="4.15019">
        <ele>310</ele>
        <time>2020-05-30T21:38:54Z</time>
      </trkpt>
      <trkpt lat="45.97463" lon="4.14987">
        <ele>307</ele>
        <time>2020-05-30T21:39:05Z</time>
      </trkpt>
      <trkpt lat="45.97445" lon="4.14975">
        <ele>307</ele>
        <time>2020-05-30T21:39:09Z</time>
      </trkpt>
      <trkpt lat="45.97429" lon="4.1496">
        <ele>307</ele>
        <time>2020-05-30T21:39:12Z</time>
      </trkpt>
      <trkpt lat="45.97414" lon="4.14944">
        <ele>307</ele>
        <time>2020-05-30T21:39:16Z</time>
      </trkpt>
      <trkpt lat="45.97402" lon="4.14926">
        <ele>307</ele>
        <time>2020-05-30T21:39:19Z</time>
      </trkpt>
      <trkpt lat="45.97392" lon="4.14906">
        <ele>307</ele>
        <time>2020-05-30T21:39:22Z</time>
      </trkpt>
      <trkpt lat="45.97384" lon="4.14883">
        <ele>306</ele>
        <time>2020-05-30T21:39:25Z</time>
      </trkpt>
      <trkpt lat="45.97359" lon="4.14795">
        <ele>303</ele>
        <time>2020-05-30T21:39:37Z</time>
      </trkpt>
      <trkpt lat="45.97357" lon="4.14775">
        <ele>303</ele>
        <time>2020-05-30T21:39:39Z</time>
      </trkpt>
      <trkpt lat="45.97357" lon="4.14755">
        <ele>303</ele>
        <time>2020-05-30T21:39:42Z</time>
      </trkpt>
      <trkpt lat="45.9736" lon="4.14736">
        <ele>303</ele>
        <time>2020-05-30T21:39:44Z</time>
      </trkpt>
      <trkpt lat="45.97365" lon="4.14719">
        <ele>304</ele>
        <time>2020-05-30T21:39:46Z</time>
      </trkpt>
      <trkpt lat="45.97373" lon="4.14705">
        <ele>304</ele>
        <time>2020-05-30T21:39:49Z</time>
      </trkpt>
      <trkpt lat="45.97384" lon="4.14693">
        <ele>305</ele>
        <time>2020-05-30T21:39:51Z</time>
      </trkpt>
      <trkpt lat="45.97396" lon="4.14685">
        <ele>306</ele>
        <time>2020-05-30T21:39:53Z</time>
      </trkpt>
      <trkpt lat="45.97553" lon="4.14607">
        <ele>310</ele>
        <time>2020-05-30T21:40:23Z</time>
      </trkpt>
      <trkpt lat="45.97568" lon="4.14596">
        <ele>310</ele>
        <time>2020-05-30T21:40:26Z</time>
      </trkpt>
      <trkpt lat="45.97582" lon="4.14582">
        <ele>310</ele>
        <time>2020-05-30T21:40:29Z</time>
      </trkpt>
      <trkpt lat="45.97595" lon="4.14566">
        <ele>310</ele>
        <time>2020-05-30T21:40:32Z</time>
      </trkpt>
      <trkpt lat="45.97637" lon="4.14488">
        <ele>312</ele>
        <time>2020-05-30T21:40:44Z</time>
      </trkpt>
      <trkpt lat="45.97656" lon="4.14444">
        <ele>313</ele>
        <time>2020-05-30T21:40:51Z</time>
      </trkpt>
      <trkpt lat="45.97672" lon="4.14396">
        <ele>313</ele>
        <time>2020-05-30T21:40:57Z</time>
      </trkpt>
      <trkpt lat="45.97686" lon="4.14344">
        <ele>312</ele>
        <time>2020-05-30T21:41:04Z</time>
      </trkpt>
      <trkpt lat="45.97692" lon="4.14318">
        <ele>312</ele>
        <time>2020-05-30T21:41:07Z</time>
      </trkpt>
      <trkpt lat="45.97695" lon="4.14291">
        <ele>311</ele>
        <time>2020-05-30T21:41:11Z</time>
      </trkpt>
      <trkpt lat="45.97692" lon="4.14206">
        <ele>309</ele>
        <time>2020-05-30T21:41:21Z</time>
      </trkpt>
      <trkpt lat="45.97693" lon="4.14145">
        <ele>310</ele>
        <time>2020-05-30T21:41:29Z</time>
      </trkpt>
      <trkpt lat="45.97691" lon="4.14114">
        <ele>311</ele>
        <time>2020-05-30T21:41:33Z</time>
      </trkpt>
      <trkpt lat="45.97682" lon="4.14052">
        <ele>311</ele>
        <time>2020-05-30T21:41:41Z</time>
      </trkpt>
      <trkpt lat="45.97668" lon="4.13991">
        <ele>310</ele>
        <time>2020-05-30T21:41:49Z</time>
      </trkpt>
      <trkpt lat="45.97648" lon="4.13933">
        <ele>310</ele>
        <time>2020-05-30T21:41:57Z</time>
      </trkpt>
      <trkpt lat="45.97624" lon="4.13876">
        <ele>311</ele>
        <time>2020-05-30T21:42:05Z</time>
      </trkpt>
      <trkpt lat="45.97416" lon="4.13419">
        <ele>299</ele>
        <time>2020-05-30T21:43:12Z</time>
      </trkpt>
      <trkpt lat="45.97396" lon="4.13385">
        <ele>299</ele>
        <time>2020-05-30T21:43:18Z</time>
      </trkpt>
      <trkpt lat="45.97367" lon="4.13333">
        <ele>298</ele>
        <time>2020-05-30T21:43:26Z</time>
      </trkpt>
      <trkpt lat="45.97362" lon="4.13324">
        <ele>298</ele>
        <time>2020-05-30T21:43:28Z</time>
      </trkpt>
      <trkpt lat="45.97345" lon="4.13298">
        <ele>299</ele>
        <time>2020-05-30T21:43:32Z</time>
      </trkpt>
      <trkpt lat="45.97317" lon="4.13249">
        <ele>299</ele>
        <time>2020-05-30T21:43:40Z</time>
      </trkpt>
      <trkpt lat="45.97347" lon="4.13204">
        <ele>302</ele>
        <time>2020-05-30T21:43:47Z</time>
      </trkpt>
      <trkpt lat="45.97363" lon="4.1318">
        <ele>304</ele>
        <time>2020-05-30T21:43:52Z</time>
      </trkpt>
      <trkpt lat="45.97378" lon="4.13159">
        <ele>305</ele>
        <time>2020-05-30T21:43:55Z</time>
      </trkpt>
      <trkpt lat="45.97382" lon="4.13154">
        <ele>305</ele>
        <time>2020-05-30T21:43:56Z</time>
      </trkpt>
      <trkpt lat="45.97388" lon="4.13145">
        <ele>306</ele>
        <time>2020-05-30T21:43:58Z</time>
      </trkpt>
      <trkpt lat="45.97397" lon="4.13133">
        <ele>306</ele>
        <time>2020-05-30T21:44:00Z</time>
      </trkpt>
      <trkpt lat="45.97452" lon="4.13053">
        <ele>309</ele>
        <time>2020-05-30T21:44:14Z</time>
      </trkpt>
      <trkpt lat="45.97463" lon="4.13027">
        <ele>310</ele>
        <time>2020-05-30T21:44:18Z</time>
      </trkpt>
      <trkpt lat="45.97476" lon="4.13007">
        <ele>311</ele>
        <time>2020-05-30T21:44:21Z</time>
      </trkpt>
      <trkpt lat="45.97522" lon="4.1294">
        <ele>312</ele>
        <time>2020-05-30T21:44:33Z</time>
      </trkpt>
      <trkpt lat="45.97526" lon="4.12937">
        <ele>312</ele>
        <time>2020-05-30T21:44:33Z</time>
      </trkpt>
      <trkpt lat="45.97531" lon="4.12934">
        <ele>312</ele>
        <time>2020-05-30T21:44:34Z</time>
      </trkpt>
      <trkpt lat="45.97534" lon="4.12931">
        <ele>312</ele>
        <time>2020-05-30T21:44:35Z</time>
      </trkpt>
      <trkpt lat="45.97537" lon="4.12931">
        <ele>312</ele>
        <time>2020-05-30T21:44:36Z</time>
      </trkpt>
      <trkpt lat="45.97544" lon="4.12926">
        <ele>312</ele>
        <time>2020-05-30T21:44:37Z</time>
      </trkpt>
      <trkpt lat="45.97546" lon="4.12921">
        <ele>313</ele>
        <time>2020-05-30T21:44:38Z</time>
      </trkpt>
      <trkpt lat="45.97546" lon="4.12915">
        <ele>313</ele>
        <time>2020-05-30T21:44:38Z</time>
      </trkpt>
      <trkpt lat="45.97545" lon="4.12914">
        <ele>313</ele>
        <time>2020-05-30T21:44:39Z</time>
      </trkpt>
      <trkpt lat="45.97557" lon="4.12872">
        <ele>312</ele>
        <time>2020-05-30T21:44:44Z</time>
      </trkpt>
      <trkpt lat="45.97573" lon="4.128">
        <ele>310</ele>
        <time>2020-05-30T21:44:54Z</time>
      </trkpt>
      <trkpt lat="45.97633" lon="4.12496">
        <ele>303</ele>
        <time>2020-05-30T21:45:33Z</time>
      </trkpt>
      <trkpt lat="45.97643" lon="4.12426">
        <ele>303</ele>
        <time>2020-05-30T21:45:42Z</time>
      </trkpt>
      <trkpt lat="45.97642" lon="4.12308">
        <ele>297</ele>
        <time>2020-05-30T21:45:56Z</time>
      </trkpt>
      <trkpt lat="45.97667" lon="4.12182">
        <ele>295</ele>
        <time>2020-05-30T21:46:12Z</time>
      </trkpt>
      <trkpt lat="45.97694" lon="4.12097">
        <ele>294</ele>
        <time>2020-05-30T21:46:24Z</time>
      </trkpt>
      <trkpt lat="45.9773" lon="4.12008">
        <ele>294</ele>
        <time>2020-05-30T21:46:37Z</time>
      </trkpt>
      <trkpt lat="45.97766" lon="4.11947">
        <ele>294</ele>
        <time>2020-05-30T21:46:47Z</time>
      </trkpt>
      <trkpt lat="45.98056" lon="4.11643">
        <ele>295</ele>
        <time>2020-05-30T21:47:50Z</time>
      </trkpt>
      <trkpt lat="45.98128" lon="4.11565">
        <ele>298</ele>
        <time>2020-05-30T21:48:06Z</time>
      </trkpt>
      <trkpt lat="45.98167" lon="4.11512">
        <ele>299</ele>
        <time>2020-05-30T21:48:16Z</time>
      </trkpt>
      <trkpt lat="45.98218" lon="4.1142">
        <ele>302</ele>
        <time>2020-05-30T21:48:31Z</time>
      </trkpt>
      <trkpt lat="45.98276" lon="4.1134">
        <ele>307</ele>
        <time>2020-05-30T21:48:45Z</time>
      </trkpt>
      <trkpt lat="45.98329" lon="4.11273">
        <ele>308</ele>
        <time>2020-05-30T21:48:57Z</time>
      </trkpt>
      <trkpt lat="45.98384" lon="4.11221">
        <ele>306</ele>
        <time>2020-05-30T21:49:09Z</time>
      </trkpt>
      <trkpt lat="45.98455" lon="4.11157">
        <ele>303</ele>
        <time>2020-05-30T21:49:24Z</time>
      </trkpt>
      <trkpt lat="45.9851" lon="4.11091">
        <ele>300</ele>
        <time>2020-05-30T21:49:37Z</time>
      </trkpt>
      <trkpt lat="45.98689" lon="4.10839">
        <ele>300</ele>
        <time>2020-05-30T21:50:21Z</time>
      </trkpt>
      <trkpt lat="45.98723" lon="4.10798">
        <ele>298</ele>
        <time>2020-05-30T21:50:29Z</time>
      </trkpt>
      <trkpt lat="45.9875" lon="4.10769">
        <ele>295</ele>
        <time>2020-05-30T21:50:35Z</time>
      </trkpt>
      <trkpt lat="45.98778" lon="4.10751">
        <ele>294</ele>
        <time>2020-05-30T21:50:41Z</time>
      </trkpt>
      <trkpt lat="45.98798" lon="4.10741">
        <ele>292</ele>
        <time>2020-05-30T21:50:44Z</time>
      </trkpt>
      <trkpt lat="45.98846" lon="4.10728">
        <ele>289</ele>
        <time>2020-05-30T21:50:53Z</time>
      </trkpt>
      <trkpt lat="45.99013" lon="4.10697">
        <ele>288</ele>
        <time>2020-05-30T21:51:23Z</time>
      </trkpt>
      <trkpt lat="45.9903" lon="4.10698">
        <ele>289</ele>
        <time>2020-05-30T21:51:26Z</time>
      </trkpt>
      <trkpt lat="45.993" lon="4.10646">
        <ele>285</ele>
        <time>2020-05-30T21:52:15Z</time>
      </trkpt>
      <trkpt lat="45.99318" lon="4.10634">
        <ele>285</ele>
        <time>2020-05-30T21:52:18Z</time>
      </trkpt>
      <trkpt lat="45.99321" lon="4.10628">
        <ele>285</ele>
        <time>2020-05-30T21:52:19Z</time>
      </trkpt>
      <trkpt lat="45.99332" lon="4.1063">
        <ele>285</ele>
        <time>2020-05-30T21:52:21Z</time>
      </trkpt>
      <trkpt lat="45.99373" lon="4.10607">
        <ele>286</ele>
        <time>2020-05-30T21:52:29Z</time>
      </trkpt>
      <trkpt lat="45.99384" lon="4.10602">
        <ele>286</ele>
        <time>2020-05-30T21:52:31Z</time>
      </trkpt>
      <trkpt lat="45.99421" lon="4.10579">
        <ele>287</ele>
        <time>2020-05-30T21:52:38Z</time>
      </trkpt>
      <trkpt lat="45.99435" lon="4.10568">
        <ele>287</ele>
        <time>2020-05-30T21:52:41Z</time>
      </trkpt>
      <trkpt lat="46.0028" lon="4.10044">
        <ele>285</ele>
        <time>2020-05-30T21:55:25Z</time>
      </trkpt>
      <trkpt lat="46.00305" lon="4.10026">
        <ele>285</ele>
        <time>2020-05-30T21:55:30Z</time>
      </trkpt>
      <trkpt lat="46.00321" lon="4.10022">
        <ele>285</ele>
        <time>2020-05-30T21:55:32Z</time>
      </trkpt>
      <trkpt lat="46.00391" lon="4.09974">
        <ele>283</ele>
        <time>2020-05-30T21:55:46Z</time>
      </trkpt>
      <trkpt lat="46.00508" lon="4.09908">
        <ele>282</ele>
        <time>2020-05-30T21:56:09Z</time>
      </trkpt>
      <trkpt lat="46.00564" lon="4.09873">
        <ele>282</ele>
        <time>2020-05-30T21:56:19Z</time>
      </trkpt>
      <trkpt lat="46.00769" lon="4.09745">
        <ele>281</ele>
        <time>2020-05-30T21:56:59Z</time>
      </trkpt>
      <trkpt lat="46.00782" lon="4.09734">
        <ele>281</ele>
        <time>2020-05-30T21:57:02Z</time>
      </trkpt>
      <trkpt lat="46.01504" lon="4.09284">
        <ele>281</ele>
        <time>2020-05-30T21:59:22Z</time>
      </trkpt>
      <trkpt lat="46.01646" lon="4.09193">
        <ele>282</ele>
        <time>2020-05-30T21:59:50Z</time>
      </trkpt>
      <trkpt lat="46.01718" lon="4.09153">
        <ele>280</ele>
        <time>2020-05-30T22:00:03Z</time>
      </trkpt>
      <trkpt lat="46.01798" lon="4.09106">
        <ele>278</ele>
        <time>2020-05-30T22:00:19Z</time>
      </trkpt>
      <trkpt lat="46.01887" lon="4.09044">
        <ele>278</ele>
        <time>2020-05-30T22:00:36Z</time>
      </trkpt>
      <trkpt lat="46.02126" lon="4.08898">
        <ele>279</ele>
        <time>2020-05-30T22:01:22Z</time>
      </trkpt>
      <trkpt lat="46.02511" lon="4.08655">
        <ele>280</ele>
        <time>2020-05-30T22:02:37Z</time>
      </trkpt>
      <trkpt lat="46.02542" lon="4.08639">
        <ele>279</ele>
        <time>2020-05-30T22:02:43Z</time>
      </trkpt>
      <trkpt lat="46.02577" lon="4.08617">
        <ele>279</ele>
        <time>2020-05-30T22:02:50Z</time>
      </trkpt>
      <trkpt lat="46.02823" lon="4.08464">
        <ele>279</ele>
        <time>2020-05-30T22:03:38Z</time>
      </trkpt>
      <trkpt lat="46.02926" lon="4.08397">
        <ele>280</ele>
        <time>2020-05-30T22:03:58Z</time>
      </trkpt>
      <trkpt lat="46.03157" lon="4.08258">
        <ele>276</ele>
        <time>2020-05-30T22:04:42Z</time>
      </trkpt>
      <trkpt lat="46.03168" lon="4.08234">
        <ele>275</ele>
        <time>2020-05-30T22:04:46Z</time>
      </trkpt>
      <trkpt lat="46.03171" lon="4.08229">
        <ele>275</ele>
        <time>2020-05-30T22:04:47Z</time>
      </trkpt>
      <trkpt lat="46.03259" lon="4.07993">
        <ele>272</ele>
        <time>2020-05-30T22:05:20Z</time>
      </trkpt>
      <trkpt lat="46.03288" lon="4.07912">
        <ele>273</ele>
        <time>2020-05-30T22:05:31Z</time>
      </trkpt>
      <trkpt lat="46.03313" lon="4.07852">
        <ele>273</ele>
        <time>2020-05-30T22:05:40Z</time>
      </trkpt>
      <trkpt lat="46.03322" lon="4.07829">
        <ele>273</ele>
        <time>2020-05-30T22:05:43Z</time>
      </trkpt>
      <trkpt lat="46.03327" lon="4.07816">
        <ele>274</ele>
        <time>2020-05-30T22:05:45Z</time>
      </trkpt>
      <trkpt lat="46.03333" lon="4.07806">
        <ele>274</ele>
        <time>2020-05-30T22:05:46Z</time>
      </trkpt>
      <trkpt lat="46.03341" lon="4.07799">
        <ele>275</ele>
        <time>2020-05-30T22:05:48Z</time>
      </trkpt>
      <trkpt lat="46.03354" lon="4.07796">
        <ele>275</ele>
        <time>2020-05-30T22:05:50Z</time>
      </trkpt>
      <trkpt lat="46.03358" lon="4.07798">
        <ele>275</ele>
        <time>2020-05-30T22:05:51Z</time>
      </trkpt>
      <trkpt lat="46.03363" lon="4.07798">
        <ele>275</ele>
        <time>2020-05-30T22:05:52Z</time>
      </trkpt>
      <trkpt lat="46.03365" lon="4.07797">
        <ele>275</ele>
        <time>2020-05-30T22:05:52Z</time>
      </trkpt>
      <trkpt lat="46.03368" lon="4.07795">
        <ele>276</ele>
        <time>2020-05-30T22:05:53Z</time>
      </trkpt>
      <trkpt lat="46.03374" lon="4.07787">
        <ele>276</ele>
        <time>2020-05-30T22:05:54Z</time>
      </trkpt>
      <trkpt lat="46.03375" lon="4.07783">
        <ele>276</ele>
        <time>2020-05-30T22:05:55Z</time>
      </trkpt>
      <trkpt lat="46.03376" lon="4.07776">
        <ele>276</ele>
        <time>2020-05-30T22:05:56Z</time>
      </trkpt>
      <trkpt lat="46.03376" lon="4.07769">
        <ele>276</ele>
        <time>2020-05-30T22:05:57Z</time>
      </trkpt>
      <trkpt lat="46.03371" lon="4.07758">
        <ele>277</ele>
        <time>2020-05-30T22:05:58Z</time>
      </trkpt>
      <trkpt lat="46.03367" lon="4.07755">
        <ele>277</ele>
        <time>2020-05-30T22:05:59Z</time>
      </trkpt>
      <trkpt lat="46.03363" lon="4.07754">
        <ele>277</ele>
        <time>2020-05-30T22:06:00Z</time>
      </trkpt>
      <trkpt lat="46.03359" lon="4.07753">
        <ele>277</ele>
        <time>2020-05-30T22:06:00Z</time>
      </trkpt>
      <trkpt lat="46.03358" lon="4.0775">
        <ele>277</ele>
        <time>2020-05-30T22:06:01Z</time>
      </trkpt>
      <trkpt lat="46.03357" lon="4.07737">
        <ele>277</ele>
        <time>2020-05-30T22:06:03Z</time>
      </trkpt>
      <trkpt lat="46.03358" lon="4.07729">
        <ele>277</ele>
        <time>2020-05-30T22:06:04Z</time>
      </trkpt>
      <trkpt lat="46.03381" lon="4.07661">
        <ele>276</ele>
        <time>2020-05-30T22:06:13Z</time>
      </trkpt>
      <trkpt lat="46.03382" lon="4.07659">
        <ele>276</ele>
        <time>2020-05-30T22:06:13Z</time>
      </trkpt>
      <trkpt lat="46.03409" lon="4.07585">
        <ele>276</ele>
        <time>2020-05-30T22:06:23Z</time>
      </trkpt>
      <trkpt lat="46.03449" lon="4.07474">
        <ele>276</ele>
        <time>2020-05-30T22:06:39Z</time>
      </trkpt>
      <trkpt lat="46.03465" lon="4.07431">
        <ele>277</ele>
        <time>2020-05-30T22:06:45Z</time>
      </trkpt>
      <trkpt lat="46.03475" lon="4.07404">
        <ele>278</ele>
        <time>2020-05-30T22:06:49Z</time>
      </trkpt>
      <trkpt lat="46.03481" lon="4.07384">
        <ele>278</ele>
        <time>2020-05-30T22:06:51Z</time>
      </trkpt>
      <trkpt lat="46.03488" lon="4.07365">
        <ele>278</ele>
        <time>2020-05-30T22:06:54Z</time>
      </trkpt>
      <trkpt lat="46.03517" lon="4.07283">
        <ele>279</ele>
        <time>2020-05-30T22:07:05Z</time>
      </trkpt>
      <trkpt lat="46.03542" lon="4.07218">
        <ele>281</ele>
        <time>2020-05-30T22:07:15Z</time>
      </trkpt>
      <trkpt lat="46.03595" lon="4.07073">
        <ele>283</ele>
        <time>2020-05-30T22:07:35Z</time>
      </trkpt>
      <trkpt lat="46.03595" lon="4.07063">
        <ele>283</ele>
        <time>2020-05-30T22:07:36Z</time>
      </trkpt>
      <trkpt lat="46.03592" lon="4.0705">
        <ele>283</ele>
        <time>2020-05-30T22:07:38Z</time>
      </trkpt>
      <trkpt lat="46.03691" lon="4.06596">
        <ele>286</ele>
        <time>2020-05-30T22:08:37Z</time>
      </trkpt>
      <trkpt lat="46.03693" lon="4.06572">
        <ele>285</ele>
        <time>2020-05-30T22:08:40Z</time>
      </trkpt>
      <trkpt lat="46.03693" lon="4.06538">
        <ele>285</ele>
        <time>2020-05-30T22:08:44Z</time>
      </trkpt>
      <trkpt lat="46.03695" lon="4.06537">
        <ele>285</ele>
        <time>2020-05-30T22:08:44Z</time>
      </trkpt>
      <trkpt lat="46.03697" lon="4.06535">
        <ele>284</ele>
        <time>2020-05-30T22:08:45Z</time>
      </trkpt>
      <trkpt lat="46.03699" lon="4.06532">
        <ele>284</ele>
        <time>2020-05-30T22:08:45Z</time>
      </trkpt>
      <trkpt lat="46.03701" lon="4.06527">
        <ele>284</ele>
        <time>2020-05-30T22:08:46Z</time>
      </trkpt>
      <trkpt lat="46.03702" lon="4.06517">
        <ele>284</ele>
        <time>2020-05-30T22:08:47Z</time>
      </trkpt>
      <trkpt lat="46.03701" lon="4.06511">
        <ele>284</ele>
        <time>2020-05-30T22:08:48Z</time>
      </trkpt>
      <trkpt lat="46.03699" lon="4.06507">
        <ele>284</ele>
        <time>2020-05-30T22:08:48Z</time>
      </trkpt>
      <trkpt lat="46.03695" lon="4.06503">
        <ele>284</ele>
        <time>2020-05-30T22:08:49Z</time>
      </trkpt>
      <trkpt lat="46.03686" lon="4.065">
        <ele>284</ele>
        <time>2020-05-30T22:08:51Z</time>
      </trkpt>
      <trkpt lat="46.03682" lon="4.06503">
        <ele>284</ele>
        <time>2020-05-30T22:08:52Z</time>
      </trkpt>
      <trkpt lat="46.03678" lon="4.06507">
        <ele>284</ele>
        <time>2020-05-30T22:08:53Z</time>
      </trkpt>
      <trkpt lat="46.03666" lon="4.06501">
        <ele>284</ele>
        <time>2020-05-30T22:08:55Z</time>
      </trkpt>
      <trkpt lat="46.03653" lon="4.0649">
        <ele>284</ele>
        <time>2020-05-30T22:08:58Z</time>
      </trkpt>
      <trkpt lat="46.03649" lon="4.06481">
        <ele>284</ele>
        <time>2020-05-30T22:08:59Z</time>
      </trkpt>
      <trkpt lat="46.03646" lon="4.06471">
        <ele>284</ele>
        <time>2020-05-30T22:09:00Z</time>
      </trkpt>
      <trkpt lat="46.03646" lon="4.06449">
        <ele>283</ele>
        <time>2020-05-30T22:09:03Z</time>
      </trkpt>
      <trkpt lat="46.0365" lon="4.06426">
        <ele>283</ele>
        <time>2020-05-30T22:09:06Z</time>
      </trkpt>
      <trkpt lat="46.03654" lon="4.06425">
        <ele>284</ele>
        <time>2020-05-30T22:09:07Z</time>
      </trkpt>
      <trkpt lat="46.03658" lon="4.06422">
        <ele>284</ele>
        <time>2020-05-30T22:09:07Z</time>
      </trkpt>
      <trkpt lat="46.03661" lon="4.06418">
        <ele>284</ele>
        <time>2020-05-30T22:09:08Z</time>
      </trkpt>
      <trkpt lat="46.03666" lon="4.06415">
        <ele>284</ele>
        <time>2020-05-30T22:09:09Z</time>
      </trkpt>
      <trkpt lat="46.03688" lon="4.06405">
        <ele>284</ele>
        <time>2020-05-30T22:09:13Z</time>
      </trkpt>
      <trkpt lat="46.03693" lon="4.06398">
        <ele>284</ele>
        <time>2020-05-30T22:09:14Z</time>
      </trkpt>
      <trkpt lat="46.03702" lon="4.06392">
        <ele>284</ele>
        <time>2020-05-30T22:09:16Z</time>
      </trkpt>
      <trkpt lat="46.03709" lon="4.06386">
        <ele>284</ele>
        <time>2020-05-30T22:09:18Z</time>
      </trkpt>
      <trkpt lat="46.03714" lon="4.06378">
        <ele>284</ele>
        <time>2020-05-30T22:09:19Z</time>
      </trkpt>
      <trkpt lat="46.03716" lon="4.06373">
        <ele>284</ele>
        <time>2020-05-30T22:09:20Z</time>
      </trkpt>
      <trkpt lat="46.03772" lon="4.06151">
        <ele>285</ele>
        <time>2020-05-30T22:09:49Z</time>
      </trkpt>
      <trkpt lat="46.03774" lon="4.06145">
        <ele>285</ele>
        <time>2020-05-30T22:09:50Z</time>
      </trkpt>
      <trkpt lat="46.03791" lon="4.06078">
        <ele>286</ele>
        <time>2020-05-30T22:09:58Z</time>
      </trkpt>
      <trkpt lat="46.03795" lon="4.0606">
        <ele>286</ele>
        <time>2020-05-30T22:10:01Z</time>
      </trkpt>
      <trkpt lat="46.03809" lon="4.06004">
        <ele>286</ele>
        <time>2020-05-30T22:10:08Z</time>
      </trkpt>
      <trkpt lat="46.03816" lon="4.05978">
        <ele>287</ele>
        <time>2020-05-30T22:10:12Z</time>
      </trkpt>
      <trkpt lat="46.03823" lon="4.05949">
        <ele>287</ele>
        <time>2020-05-30T22:10:15Z</time>
      </trkpt>
      <trkpt lat="46.03841" lon="4.05881">
        <ele>287</ele>
        <time>2020-05-30T22:10:24Z</time>
      </trkpt>
      <trkpt lat="46.03855" lon="4.05828">
        <ele>286</ele>
        <time>2020-05-30T22:10:31Z</time>
      </trkpt>
      <trkpt lat="46.03865" lon="4.05788">
        <ele>286</ele>
        <time>2020-05-30T22:10:37Z</time>
      </trkpt>
      <trkpt lat="46.03868" lon="4.05781">
        <ele>286</ele>
        <time>2020-05-30T22:10:38Z</time>
      </trkpt>
      <trkpt lat="46.03873" lon="4.05758">
        <ele>286</ele>
        <time>2020-05-30T22:10:41Z</time>
      </trkpt>
      <trkpt lat="46.03876" lon="4.0575">
        <ele>286</ele>
        <time>2020-05-30T22:10:42Z</time>
      </trkpt>
      <trkpt lat="46.03882" lon="4.05723">
        <ele>285</ele>
        <time>2020-05-30T22:10:45Z</time>
      </trkpt>
      <trkpt lat="46.03883" lon="4.05712">
        <ele>285</ele>
        <time>2020-05-30T22:10:47Z</time>
      </trkpt>
      <trkpt lat="46.03969" lon="4.05374">
        <ele>285</ele>
        <time>2020-05-30T22:11:31Z</time>
      </trkpt>
      <trkpt lat="46.03984" lon="4.05229">
        <ele>286</ele>
        <time>2020-05-30T22:11:49Z</time>
      </trkpt>
      <trkpt lat="46.03989" lon="4.05233">
        <ele>286</ele>
        <time>2020-05-30T22:11:50Z</time>
      </trkpt>
      <trkpt lat="46.03993" lon="4.05234">
        <ele>286</ele>
        <time>2020-05-30T22:11:51Z</time>
      </trkpt>
      <trkpt lat="46.04002" lon="4.0523">
        <ele>286</ele>
        <time>2020-05-30T22:11:53Z</time>
      </trkpt>
      <trkpt lat="46.04006" lon="4.05221">
        <ele>286</ele>
        <time>2020-05-30T22:11:54Z</time>
      </trkpt>
      <trkpt lat="46.04006" lon="4.05208">
        <ele>286</ele>
        <time>2020-05-30T22:11:56Z</time>
      </trkpt>
      <trkpt lat="46.04004" lon="4.05203">
        <ele>286</ele>
        <time>2020-05-30T22:11:56Z</time>
      </trkpt>
      <trkpt lat="46.03996" lon="4.05196">
        <ele>287</ele>
        <time>2020-05-30T22:11:58Z</time>
      </trkpt>
      <trkpt lat="46.0399" lon="4.05196">
        <ele>287</ele>
        <time>2020-05-30T22:11:59Z</time>
      </trkpt>
      <trkpt lat="46.03984" lon="4.05201">
        <ele>286</ele>
        <time>2020-05-30T22:12:00Z</time>
      </trkpt>
      <trkpt lat="46.0398" lon="4.0518">
        <ele>287</ele>
        <time>2020-05-30T22:12:03Z</time>
      </trkpt>
      <trkpt lat="46.0397" lon="4.04803">
        <ele>295</ele>
        <time>2020-05-30T22:12:50Z</time>
      </trkpt>
      <trkpt lat="46.03961" lon="4.0464">
        <ele>300</ele>
        <time>2020-05-30T22:13:10Z</time>
      </trkpt>
      <trkpt lat="46.03961" lon="4.04608">
        <ele>301</ele>
        <time>2020-05-30T22:13:14Z</time>
      </trkpt>
      <trkpt lat="46.03963" lon="4.04599">
        <ele>301</ele>
        <time>2020-05-30T22:13:15Z</time>
      </trkpt>
      <trkpt lat="46.03969" lon="4.04586">
        <ele>302</ele>
        <time>2020-05-30T22:13:17Z</time>
      </trkpt>
      <trkpt lat="46.0397" lon="4.04572">
        <ele>302</ele>
        <time>2020-05-30T22:13:19Z</time>
      </trkpt>
      <trkpt lat="46.03968" lon="4.04565">
        <ele>303</ele>
        <time>2020-05-30T22:13:19Z</time>
      </trkpt>
      <trkpt lat="46.03961" lon="4.04552">
        <ele>303</ele>
        <time>2020-05-30T22:13:21Z</time>
      </trkpt>
      <trkpt lat="46.03958" lon="4.04535">
        <ele>303</ele>
        <time>2020-05-30T22:13:24Z</time>
      </trkpt>
      <trkpt lat="46.03951" lon="4.04472">
        <ele>304</ele>
        <time>2020-05-30T22:13:32Z</time>
      </trkpt>
      <trkpt lat="46.03948" lon="4.04457">
        <ele>304</ele>
        <time>2020-05-30T22:13:33Z</time>
      </trkpt>
      <trkpt lat="46.03944" lon="4.04361">
        <ele>306</ele>
        <time>2020-05-30T22:13:45Z</time>
      </trkpt>
      <trkpt lat="46.03933" lon="4.04214">
        <ele>310</ele>
        <time>2020-05-30T22:14:04Z</time>
      </trkpt>
      <trkpt lat="46.03928" lon="4.04084">
        <ele>314</ele>
        <time>2020-05-30T22:14:20Z</time>
      </trkpt>
      <trkpt lat="46.0393" lon="4.0402">
        <ele>316</ele>
        <time>2020-05-30T22:14:28Z</time>
      </trkpt>
      <trkpt lat="46.03936" lon="4.03957">
        <ele>317</ele>
        <time>2020-05-30T22:14:35Z</time>
      </trkpt>
      <trkpt lat="46.0398" lon="4.03567">
        <ele>317</ele>
        <time>2020-05-30T22:15:24Z</time>
      </trkpt>
      <trkpt lat="46.03992" lon="4.03376">
        <ele>318</ele>
        <time>2020-05-30T22:15:48Z</time>
      </trkpt>
      <trkpt lat="46.03997" lon="4.03318">
        <ele>320</ele>
        <time>2020-05-30T22:15:55Z</time>
      </trkpt>
      <trkpt lat="46.04015" lon="4.03164">
        <ele>320</ele>
        <time>2020-05-30T22:16:14Z</time>
      </trkpt>
      <trkpt lat="46.04018" lon="4.03131">
        <ele>319</ele>
        <time>2020-05-30T22:16:19Z</time>
      </trkpt>
      <trkpt lat="46.0402" lon="4.03085">
        <ele>318</ele>
        <time>2020-05-30T22:16:24Z</time>
      </trkpt>
      <trkpt lat="46.04008" lon="4.02841">
        <ele>318</ele>
        <time>2020-05-30T22:16:54Z</time>
      </trkpt>
      <trkpt lat="46.04008" lon="4.02743">
        <ele>321</ele>
        <time>2020-05-30T22:17:07Z</time>
      </trkpt>
      <trkpt lat="46.04006" lon="4.02685">
        <ele>322</ele>
        <time>2020-05-30T22:17:14Z</time>
      </trkpt>
      <trkpt lat="46.03976" lon="4.02332">
        <ele>320</ele>
        <time>2020-05-30T22:17:58Z</time>
      </trkpt>
      <trkpt lat="46.03971" lon="4.02241">
        <ele>321</ele>
        <time>2020-05-30T22:18:09Z</time>
      </trkpt>
      <trkpt lat="46.03958" lon="4.0164">
        <ele>321</ele>
        <time>2020-05-30T22:19:23Z</time>
      </trkpt>
      <trkpt lat="46.03949" lon="4.01558">
        <ele>320</ele>
        <time>2020-05-30T22:19:33Z</time>
      </trkpt>
      <trkpt lat="46.03945" lon="4.01501">
        <ele>319</ele>
        <time>2020-05-30T22:19:41Z</time>
      </trkpt>
      <trkpt lat="46.0395" lon="4.01163">
        <ele>314</ele>
        <time>2020-05-30T22:20:22Z</time>
      </trkpt>
      <trkpt lat="46.03947" lon="4.00895">
        <ele>313</ele>
        <time>2020-05-30T22:20:55Z</time>
      </trkpt>
      <trkpt lat="46.03955" lon="4.00832">
        <ele>314</ele>
        <time>2020-05-30T22:21:03Z</time>
      </trkpt>
      <trkpt lat="46.03964" lon="4.00799">
        <ele>314</ele>
        <time>2020-05-30T22:21:08Z</time>
      </trkpt>
      <trkpt lat="46.03974" lon="4.00758">
        <ele>314</ele>
        <time>2020-05-30T22:21:13Z</time>
      </trkpt>
      <trkpt lat="46.03978" lon="4.00757">
        <ele>314</ele>
        <time>2020-05-30T22:21:14Z</time>
      </trkpt>
      <trkpt lat="46.03984" lon="4.00752">
        <ele>314</ele>
        <time>2020-05-30T22:21:15Z</time>
      </trkpt>
      <trkpt lat="46.03988" lon="4.00739">
        <ele>315</ele>
        <time>2020-05-30T22:21:17Z</time>
      </trkpt>
      <trkpt lat="46.04003" lon="4.00709">
        <ele>315</ele>
        <time>2020-05-30T22:21:21Z</time>
      </trkpt>
      <trkpt lat="46.04145" lon="4.0039">
        <ele>318</ele>
        <time>2020-05-30T22:22:08Z</time>
      </trkpt>
      <trkpt lat="46.0457" lon="3.9943">
        <ele>329</ele>
        <time>2020-05-30T22:24:29Z</time>
      </trkpt>
      <trkpt lat="46.04591" lon="3.99381">
        <ele>330</ele>
        <time>2020-05-30T22:24:36Z</time>
      </trkpt>
      <trkpt lat="46.04613" lon="3.99324">
        <ele>330</ele>
        <time>2020-05-30T22:24:44Z</time>
      </trkpt>
      <trkpt lat="46.04644" lon="3.99218">
        <ele>330</ele>
        <time>2020-05-30T22:24:58Z</time>
      </trkpt>
      <trkpt lat="46.04655" lon="3.99167">
        <ele>329</ele>
        <time>2020-05-30T22:25:05Z</time>
      </trkpt>
      <trkpt lat="46.0467" lon="3.99085">
        <ele>331</ele>
        <time>2020-05-30T22:25:15Z</time>
      </trkpt>
      <trkpt lat="46.04714" lon="3.98738">
        <ele>333</ele>
        <time>2020-05-30T22:25:59Z</time>
      </trkpt>
      <trkpt lat="46.04738" lon="3.98549">
        <ele>334</ele>
        <time>2020-05-30T22:26:22Z</time>
      </trkpt>
      <trkpt lat="46.04743" lon="3.98525">
        <ele>334</ele>
        <time>2020-05-30T22:26:26Z</time>
      </trkpt>
      <trkpt lat="46.04748" lon="3.98511">
        <ele>335</ele>
        <time>2020-05-30T22:26:28Z</time>
      </trkpt>
      <trkpt lat="46.04755" lon="3.98502">
        <ele>335</ele>
        <time>2020-05-30T22:26:29Z</time>
      </trkpt>
      <trkpt lat="46.04757" lon="3.98493">
        <ele>335</ele>
        <time>2020-05-30T22:26:30Z</time>
      </trkpt>
      <trkpt lat="46.04757" lon="3.98484">
        <ele>335</ele>
        <time>2020-05-30T22:26:31Z</time>
      </trkpt>
      <trkpt lat="46.04752" lon="3.98473">
        <ele>335</ele>
        <time>2020-05-30T22:26:33Z</time>
      </trkpt>
      <trkpt lat="46.0475" lon="3.98453">
        <ele>334</ele>
        <time>2020-05-30T22:26:36Z</time>
      </trkpt>
      <trkpt lat="46.04752" lon="3.98418">
        <ele>334</ele>
        <time>2020-05-30T22:26:40Z</time>
      </trkpt>
      <trkpt lat="46.04959" lon="3.96716">
        <ele>347</ele>
        <time>2020-05-30T22:30:13Z</time>
      </trkpt>
      <trkpt lat="46.05118" lon="3.95401">
        <ele>352</ele>
        <time>2020-05-30T22:32:58Z</time>
      </trkpt>
      <trkpt lat="46.05128" lon="3.95343">
        <ele>350</ele>
        <time>2020-05-30T22:33:06Z</time>
      </trkpt>
      <trkpt lat="46.05143" lon="3.95199">
        <ele>350</ele>
        <time>2020-05-30T22:33:23Z</time>
      </trkpt>
      <trkpt lat="46.05147" lon="3.95135">
        <ele>349</ele>
        <time>2020-05-30T22:33:31Z</time>
      </trkpt>
      <trkpt lat="46.05151" lon="3.94786">
        <ele>352</ele>
        <time>2020-05-30T22:34:15Z</time>
      </trkpt>
      <trkpt lat="46.05159" lon="3.94522">
        <ele>355</ele>
        <time>2020-05-30T22:34:47Z</time>
      </trkpt>
      <trkpt lat="46.05181" lon="3.936">
        <ele>366</ele>
        <time>2020-05-30T22:36:41Z</time>
      </trkpt>
      <trkpt lat="46.05183" lon="3.93589">
        <ele>366</ele>
        <time>2020-05-30T22:36:42Z</time>
      </trkpt>
      <trkpt lat="46.05185" lon="3.93568">
        <ele>367</ele>
        <time>2020-05-30T22:36:45Z</time>
      </trkpt>
      <trkpt lat="46.05189" lon="3.93553">
        <ele>367</ele>
        <time>2020-05-30T22:36:47Z</time>
      </trkpt>
      <trkpt lat="46.05193" lon="3.93543">
        <ele>367</ele>
        <time>2020-05-30T22:36:49Z</time>
      </trkpt>
      <trkpt lat="46.05194" lon="3.93534">
        <ele>367</ele>
        <time>2020-05-30T22:36:50Z</time>
      </trkpt>
      <trkpt lat="46.05193" lon="3.93524">
        <ele>367</ele>
        <time>2020-05-30T22:36:51Z</time>
      </trkpt>
      <trkpt lat="46.05187" lon="3.93513">
        <ele>367</ele>
        <time>2020-05-30T22:36:53Z</time>
      </trkpt>
      <trkpt lat="46.0518" lon="3.93492">
        <ele>367</ele>
        <time>2020-05-30T22:36:55Z</time>
      </trkpt>
      <trkpt lat="46.05179" lon="3.93479">
        <ele>367</ele>
        <time>2020-05-30T22:36:57Z</time>
      </trkpt>
      <trkpt lat="46.05185" lon="3.9343">
        <ele>368</ele>
        <time>2020-05-30T22:37:03Z</time>
      </trkpt>
      <trkpt lat="46.05186" lon="3.93378">
        <ele>368</ele>
        <time>2020-05-30T22:37:10Z</time>
      </trkpt>
      <trkpt lat="46.05185" lon="3.93349">
        <ele>368</ele>
        <time>2020-05-30T22:37:13Z</time>
      </trkpt>
      <trkpt lat="46.05192" lon="3.93152">
        <ele>372</ele>
        <time>2020-05-30T22:37:38Z</time>
      </trkpt>
      <trkpt lat="46.05203" lon="3.93122">
        <ele>372</ele>
        <time>2020-05-30T22:37:42Z</time>
      </trkpt>
      <trkpt lat="46.05194" lon="3.93086">
        <ele>373</ele>
        <time>2020-05-30T22:37:47Z</time>
      </trkpt>
      <trkpt lat="46.05195" lon="3.93019">
        <ele>376</ele>
        <time>2020-05-30T22:37:55Z</time>
      </trkpt>
      <trkpt lat="46.05201" lon="3.92766">
        <ele>382</ele>
        <time>2020-05-30T22:38:26Z</time>
      </trkpt>
      <trkpt lat="46.05202" lon="3.92711">
        <ele>383</ele>
        <time>2020-05-30T22:38:33Z</time>
      </trkpt>
      <trkpt lat="46.05203" lon="3.92688">
        <ele>384</ele>
        <time>2020-05-30T22:38:36Z</time>
      </trkpt>
      <trkpt lat="46.05203" lon="3.92672">
        <ele>384</ele>
        <time>2020-05-30T22:38:38Z</time>
      </trkpt>
      <trkpt lat="46.05201" lon="3.92665">
        <ele>384</ele>
        <time>2020-05-30T22:38:39Z</time>
      </trkpt>
      <trkpt lat="46.05206" lon="3.92589">
        <ele>386</ele>
        <time>2020-05-30T22:38:48Z</time>
      </trkpt>
      <trkpt lat="46.05206" lon="3.92582">
        <ele>386</ele>
        <time>2020-05-30T22:38:49Z</time>
      </trkpt>
      <trkpt lat="46.05202" lon="3.92571">
        <ele>386</ele>
        <time>2020-05-30T22:38:50Z</time>
      </trkpt>
      <trkpt lat="46.05205" lon="3.92564">
        <ele>387</ele>
        <time>2020-05-30T22:38:51Z</time>
      </trkpt>
      <trkpt lat="46.05203" lon="3.92552">
        <ele>387</ele>
        <time>2020-05-30T22:38:53Z</time>
      </trkpt>
      <trkpt lat="46.05197" lon="3.92546">
        <ele>387</ele>
        <time>2020-05-30T22:38:54Z</time>
      </trkpt>
      <trkpt lat="46.05192" lon="3.92547">
        <ele>386</ele>
        <time>2020-05-30T22:38:55Z</time>
      </trkpt>
      <trkpt lat="46.05191" lon="3.92542">
        <ele>386</ele>
        <time>2020-05-30T22:38:56Z</time>
      </trkpt>
      <trkpt lat="46.05186" lon="3.92519">
        <ele>387</ele>
        <time>2020-05-30T22:38:59Z</time>
      </trkpt>
      <trkpt lat="46.05182" lon="3.92498">
        <ele>387</ele>
        <time>2020-05-30T22:39:01Z</time>
      </trkpt>
      <trkpt lat="46.05164" lon="3.92414">
        <ele>391</ele>
        <time>2020-05-30T22:39:12Z</time>
      </trkpt>
      <trkpt lat="46.05157" lon="3.92383">
        <ele>391</ele>
        <time>2020-05-30T22:39:16Z</time>
      </trkpt>
      <trkpt lat="46.05147" lon="3.92341">
        <ele>392</ele>
        <time>2020-05-30T22:39:22Z</time>
      </trkpt>
      <trkpt lat="46.05139" lon="3.92315">
        <ele>393</ele>
        <time>2020-05-30T22:39:25Z</time>
      </trkpt>
      <trkpt lat="46.05118" lon="3.9223">
        <ele>396</ele>
        <time>2020-05-30T22:39:36Z</time>
      </trkpt>
      <trkpt lat="46.05115" lon="3.9222">
        <ele>396</ele>
        <time>2020-05-30T22:39:38Z</time>
      </trkpt>
      <trkpt lat="46.05111" lon="3.92206">
        <ele>396</ele>
        <time>2020-05-30T22:39:40Z</time>
      </trkpt>
      <trkpt lat="46.051" lon="3.92168">
        <ele>397</ele>
        <time>2020-05-30T22:39:45Z</time>
      </trkpt>
      <trkpt lat="46.05085" lon="3.92124">
        <ele>399</ele>
        <time>2020-05-30T22:39:51Z</time>
      </trkpt>
      <trkpt lat="46.05078" lon="3.92105">
        <ele>399</ele>
        <time>2020-05-30T22:39:54Z</time>
      </trkpt>
      <trkpt lat="46.0507" lon="3.92085">
        <ele>399</ele>
        <time>2020-05-30T22:39:56Z</time>
      </trkpt>
      <trkpt lat="46.05068" lon="3.92081">
        <ele>399</ele>
        <time>2020-05-30T22:39:57Z</time>
      </trkpt>
      <trkpt lat="46.05067" lon="3.92052">
        <ele>402</ele>
        <time>2020-05-30T22:40:01Z</time>
      </trkpt>
      <trkpt lat="46.05059" lon="3.91982">
        <ele>408</ele>
        <time>2020-05-30T22:40:09Z</time>
      </trkpt>
      <trkpt lat="46.05059" lon="3.91961">
        <ele>409</ele>
        <time>2020-05-30T22:40:12Z</time>
      </trkpt>
      <trkpt lat="46.05063" lon="3.91893">
        <ele>414</ele>
        <time>2020-05-30T22:40:20Z</time>
      </trkpt>
      <trkpt lat="46.05058" lon="3.91847">
        <ele>413</ele>
        <time>2020-05-30T22:40:26Z</time>
      </trkpt>
      <trkpt lat="46.05051" lon="3.91827">
        <ele>412</ele>
        <time>2020-05-30T22:40:29Z</time>
      </trkpt>
      <trkpt lat="46.0504" lon="3.9179">
        <ele>409</ele>
        <time>2020-05-30T22:40:34Z</time>
      </trkpt>
      <trkpt lat="46.05043" lon="3.91777">
        <ele>410</ele>
        <time>2020-05-30T22:40:36Z</time>
      </trkpt>
      <trkpt lat="46.05043" lon="3.91714">
        <ele>411</ele>
        <time>2020-05-30T22:40:43Z</time>
      </trkpt>
      <trkpt lat="46.05042" lon="3.91695">
        <ele>412</ele>
        <time>2020-05-30T22:40:46Z</time>
      </trkpt>
      <trkpt lat="46.05038" lon="3.91679">
        <ele>411</ele>
        <time>2020-05-30T22:40:48Z</time>
      </trkpt>
      <trkpt lat="46.05032" lon="3.91666">
        <ele>411</ele>
        <time>2020-05-30T22:40:50Z</time>
      </trkpt>
      <trkpt lat="46.05025" lon="3.91656">
        <ele>410</ele>
        <time>2020-05-30T22:40:51Z</time>
      </trkpt>
      <trkpt lat="46.05005" lon="3.91641">
        <ele>408</ele>
        <time>2020-05-30T22:40:55Z</time>
      </trkpt>
      <trkpt lat="46.04998" lon="3.91634">
        <ele>407</ele>
        <time>2020-05-30T22:40:57Z</time>
      </trkpt>
      <trkpt lat="46.04992" lon="3.91624">
        <ele>407</ele>
        <time>2020-05-30T22:40:59Z</time>
      </trkpt>
      <trkpt lat="46.04989" lon="3.91615">
        <ele>407</ele>
        <time>2020-05-30T22:41:00Z</time>
      </trkpt>
      <trkpt lat="46.04958" lon="3.91508">
        <ele>409</ele>
        <time>2020-05-30T22:41:14Z</time>
      </trkpt>
      <trkpt lat="46.04952" lon="3.9148">
        <ele>408</ele>
        <time>2020-05-30T22:41:18Z</time>
      </trkpt>
      <trkpt lat="46.04952" lon="3.91456">
        <ele>408</ele>
        <time>2020-05-30T22:41:21Z</time>
      </trkpt>
      <trkpt lat="46.04955" lon="3.91444">
        <ele>409</ele>
        <time>2020-05-30T22:41:22Z</time>
      </trkpt>
      <trkpt lat="46.04958" lon="3.91434">
        <ele>410</ele>
        <time>2020-05-30T22:41:24Z</time>
      </trkpt>
      <trkpt lat="46.04983" lon="3.91384">
        <ele>416</ele>
        <time>2020-05-30T22:41:31Z</time>
      </trkpt>
      <trkpt lat="46.05011" lon="3.91311">
        <ele>419</ele>
        <time>2020-05-30T22:41:42Z</time>
      </trkpt>
      <trkpt lat="46.05021" lon="3.91287">
        <ele>418</ele>
        <time>2020-05-30T22:41:45Z</time>
      </trkpt>
      <trkpt lat="46.05028" lon="3.91266">
        <ele>418</ele>
        <time>2020-05-30T22:41:48Z</time>
      </trkpt>
      <trkpt lat="46.05041" lon="3.91217">
        <ele>421</ele>
        <time>2020-05-30T22:41:54Z</time>
      </trkpt>
      <trkpt lat="46.05045" lon="3.91185">
        <ele>423</ele>
        <time>2020-05-30T22:41:58Z</time>
      </trkpt>
      <trkpt lat="46.05045" lon="3.91161">
        <ele>424</ele>
        <time>2020-05-30T22:42:01Z</time>
      </trkpt>
      <trkpt lat="46.05045" lon="3.9115">
        <ele>425</ele>
        <time>2020-05-30T22:42:03Z</time>
      </trkpt>
      <trkpt lat="46.05044" lon="3.9114">
        <ele>426</ele>
        <time>2020-05-30T22:42:04Z</time>
      </trkpt>
      <trkpt lat="46.05037" lon="3.911">
        <ele>428</ele>
        <time>2020-05-30T22:42:09Z</time>
      </trkpt>
      <trkpt lat="46.05005" lon="3.90949">
        <ele>435</ele>
        <time>2020-05-30T22:42:29Z</time>
      </trkpt>
      <trkpt lat="46.05002" lon="3.90936">
        <ele>436</ele>
        <time>2020-05-30T22:42:30Z</time>
      </trkpt>
      <trkpt lat="46.04998" lon="3.9092">
        <ele>437</ele>
        <time>2020-05-30T22:42:32Z</time>
      </trkpt>
      <trkpt lat="46.04981" lon="3.90892">
        <ele>438</ele>
        <time>2020-05-30T22:42:37Z</time>
      </trkpt>
      <trkpt lat="46.04898" lon="3.90824">
        <ele>431</ele>
        <time>2020-05-30T22:42:54Z</time>
      </trkpt>
      <trkpt lat="46.04879" lon="3.90803">
        <ele>429</ele>
        <time>2020-05-30T22:42:58Z</time>
      </trkpt>
      <trkpt lat="46.04867" lon="3.90776">
        <ele>428</ele>
        <time>2020-05-30T22:43:02Z</time>
      </trkpt>
      <trkpt lat="46.04864" lon="3.90748">
        <ele>430</ele>
        <time>2020-05-30T22:43:06Z</time>
      </trkpt>
      <trkpt lat="46.04866" lon="3.90711">
        <ele>431</ele>
        <time>2020-05-30T22:43:10Z</time>
      </trkpt>
      <trkpt lat="46.04871" lon="3.90668">
        <ele>433</ele>
        <time>2020-05-30T22:43:16Z</time>
      </trkpt>
      <trkpt lat="46.04876" lon="3.90649">
        <ele>434</ele>
        <time>2020-05-30T22:43:18Z</time>
      </trkpt>
      <trkpt lat="46.04886" lon="3.90627">
        <ele>437</ele>
        <time>2020-05-30T22:43:21Z</time>
      </trkpt>
      <trkpt lat="46.049" lon="3.90604">
        <ele>440</ele>
        <time>2020-05-30T22:43:25Z</time>
      </trkpt>
      <trkpt lat="46.04947" lon="3.90544">
        <ele>452</ele>
        <time>2020-05-30T22:43:36Z</time>
      </trkpt>
      <trkpt lat="46.0496" lon="3.9052">
        <ele>456</ele>
        <time>2020-05-30T22:43:40Z</time>
      </trkpt>
      <trkpt lat="46.04968" lon="3.90499">
        <ele>459</ele>
        <time>2020-05-30T22:43:43Z</time>
      </trkpt>
      <trkpt lat="46.0497" lon="3.90474">
        <ele>462</ele>
        <time>2020-05-30T22:43:46Z</time>
      </trkpt>
      <trkpt lat="46.04969" lon="3.90454">
        <ele>464</ele>
        <time>2020-05-30T22:43:49Z</time>
      </trkpt>
      <trkpt lat="46.04962" lon="3.90438">
        <ele>463</ele>
        <time>2020-05-30T22:43:51Z</time>
      </trkpt>
      <trkpt lat="46.0493" lon="3.90402">
        <ele>459</ele>
        <time>2020-05-30T22:43:58Z</time>
      </trkpt>
      <trkpt lat="46.04917" lon="3.90375">
        <ele>467</ele>
        <time>2020-05-30T22:44:02Z</time>
      </trkpt>
      <trkpt lat="46.04892" lon="3.90354">
        <ele>468</ele>
        <time>2020-05-30T22:44:07Z</time>
      </trkpt>
      <trkpt lat="46.04848" lon="3.90335">
        <ele>463</ele>
        <time>2020-05-30T22:44:16Z</time>
      </trkpt>
      <trkpt lat="46.04822" lon="3.90311">
        <ele>461</ele>
        <time>2020-05-30T22:44:21Z</time>
      </trkpt>
      <trkpt lat="46.04807" lon="3.90286">
        <ele>463</ele>
        <time>2020-05-30T22:44:25Z</time>
      </trkpt>
      <trkpt lat="46.04782" lon="3.90234">
        <ele>466</ele>
        <time>2020-05-30T22:44:33Z</time>
      </trkpt>
      <trkpt lat="46.04765" lon="3.90182">
        <ele>466</ele>
        <time>2020-05-30T22:44:40Z</time>
      </trkpt>
      <trkpt lat="46.04757" lon="3.90022">
        <ele>468</ele>
        <time>2020-05-30T22:45:00Z</time>
      </trkpt>
      <trkpt lat="46.04762" lon="3.89949">
        <ele>470</ele>
        <time>2020-05-30T22:45:09Z</time>
      </trkpt>
      <trkpt lat="46.04758" lon="3.8991">
        <ele>470</ele>
        <time>2020-05-30T22:45:14Z</time>
      </trkpt>
      <trkpt lat="46.04747" lon="3.8987">
        <ele>475</ele>
        <time>2020-05-30T22:45:19Z</time>
      </trkpt>
      <trkpt lat="46.04704" lon="3.89736">
        <ele>474</ele>
        <time>2020-05-30T22:45:37Z</time>
      </trkpt>
      <trkpt lat="46.04697" lon="3.89702">
        <ele>473</ele>
        <time>2020-05-30T22:45:42Z</time>
      </trkpt>
      <trkpt lat="46.04695" lon="3.89683">
        <ele>474</ele>
        <time>2020-05-30T22:45:44Z</time>
      </trkpt>
      <trkpt lat="46.04702" lon="3.89613">
        <ele>482</ele>
        <time>2020-05-30T22:45:53Z</time>
      </trkpt>
      <trkpt lat="46.047" lon="3.89593">
        <ele>482</ele>
        <time>2020-05-30T22:45:55Z</time>
      </trkpt>
      <trkpt lat="46.04684" lon="3.8955">
        <ele>478</ele>
        <time>2020-05-30T22:46:01Z</time>
      </trkpt>
      <trkpt lat="46.04679" lon="3.89527">
        <ele>478</ele>
        <time>2020-05-30T22:46:04Z</time>
      </trkpt>
      <trkpt lat="46.0467" lon="3.89473">
        <ele>476</ele>
        <time>2020-05-30T22:46:11Z</time>
      </trkpt>
      <trkpt lat="46.04667" lon="3.89439">
        <ele>474</ele>
        <time>2020-05-30T22:46:15Z</time>
      </trkpt>
      <trkpt lat="46.04669" lon="3.89413">
        <ele>473</ele>
        <time>2020-05-30T22:46:19Z</time>
      </trkpt>
      <trkpt lat="46.04676" lon="3.89388">
        <ele>473</ele>
        <time>2020-05-30T22:46:22Z</time>
      </trkpt>
      <trkpt lat="46.04696" lon="3.89362">
        <ele>476</ele>
        <time>2020-05-30T22:46:27Z</time>
      </trkpt>
      <trkpt lat="46.0471" lon="3.89334">
        <ele>476</ele>
        <time>2020-05-30T22:46:31Z</time>
      </trkpt>
      <trkpt lat="46.04764" lon="3.89214">
        <ele>483</ele>
        <time>2020-05-30T22:46:49Z</time>
      </trkpt>
      <trkpt lat="46.04777" lon="3.89173">
        <ele>490</ele>
        <time>2020-05-30T22:46:54Z</time>
      </trkpt>
      <trkpt lat="46.04786" lon="3.89131">
        <ele>497</ele>
        <time>2020-05-30T22:47:00Z</time>
      </trkpt>
      <trkpt lat="46.04796" lon="3.89068">
        <ele>506</ele>
        <time>2020-05-30T22:47:08Z</time>
      </trkpt>
      <trkpt lat="46.04797" lon="3.89046">
        <ele>510</ele>
        <time>2020-05-30T22:47:10Z</time>
      </trkpt>
      <trkpt lat="46.04794" lon="3.8903">
        <ele>512</ele>
        <time>2020-05-30T22:47:12Z</time>
      </trkpt>
      <trkpt lat="46.04788" lon="3.89017">
        <ele>513</ele>
        <time>2020-05-30T22:47:14Z</time>
      </trkpt>
      <trkpt lat="46.04779" lon="3.89009">
        <ele>514</ele>
        <time>2020-05-30T22:47:16Z</time>
      </trkpt>
      <trkpt lat="46.04767" lon="3.89006">
        <ele>513</ele>
        <time>2020-05-30T22:47:18Z</time>
      </trkpt>
      <trkpt lat="46.04755" lon="3.8901">
        <ele>511</ele>
        <time>2020-05-30T22:47:21Z</time>
      </trkpt>
      <trkpt lat="46.04732" lon="3.89045">
        <ele>498</ele>
        <time>2020-05-30T22:47:27Z</time>
      </trkpt>
      <trkpt lat="46.04715" lon="3.89059">
        <ele>493</ele>
        <time>2020-05-30T22:47:30Z</time>
      </trkpt>
      <trkpt lat="46.04696" lon="3.89068">
        <ele>489</ele>
        <time>2020-05-30T22:47:34Z</time>
      </trkpt>
      <trkpt lat="46.04674" lon="3.89068">
        <ele>488</ele>
        <time>2020-05-30T22:47:37Z</time>
      </trkpt>
      <trkpt lat="46.04661" lon="3.89057">
        <ele>488</ele>
        <time>2020-05-30T22:47:40Z</time>
      </trkpt>
      <trkpt lat="46.04653" lon="3.89044">
        <ele>489</ele>
        <time>2020-05-30T22:47:42Z</time>
      </trkpt>
      <trkpt lat="46.04591" lon="3.88898">
        <ele>496</ele>
        <time>2020-05-30T22:48:03Z</time>
      </trkpt>
      <trkpt lat="46.04561" lon="3.88805">
        <ele>502</ele>
        <time>2020-05-30T22:48:16Z</time>
      </trkpt>
      <trkpt lat="46.04544" lon="3.88761">
        <ele>503</ele>
        <time>2020-05-30T22:48:22Z</time>
      </trkpt>
      <trkpt lat="46.04539" lon="3.88743">
        <ele>504</ele>
        <time>2020-05-30T22:48:25Z</time>
      </trkpt>
      <trkpt lat="46.04535" lon="3.88724">
        <ele>504</ele>
        <time>2020-05-30T22:48:27Z</time>
      </trkpt>
      <trkpt lat="46.04524" lon="3.88612">
        <ele>512</ele>
        <time>2020-05-30T22:48:41Z</time>
      </trkpt>
      <trkpt lat="46.04509" lon="3.88508">
        <ele>518</ele>
        <time>2020-05-30T22:48:54Z</time>
      </trkpt>
      <trkpt lat="46.04493" lon="3.88441">
        <ele>518</ele>
        <time>2020-05-30T22:49:03Z</time>
      </trkpt>
      <trkpt lat="46.04462" lon="3.8835">
        <ele>510</ele>
        <time>2020-05-30T22:49:16Z</time>
      </trkpt>
      <trkpt lat="46.04452" lon="3.88306">
        <ele>504</ele>
        <time>2020-05-30T22:49:21Z</time>
      </trkpt>
      <trkpt lat="46.04448" lon="3.8828">
        <ele>500</ele>
        <time>2020-05-30T22:49:25Z</time>
      </trkpt>
      <trkpt lat="46.04449" lon="3.88263">
        <ele>500</ele>
        <time>2020-05-30T22:49:27Z</time>
      </trkpt>
      <trkpt lat="46.04456" lon="3.88236">
        <ele>500</ele>
        <time>2020-05-30T22:49:30Z</time>
      </trkpt>
      <trkpt lat="46.04467" lon="3.88221">
        <ele>504</ele>
        <time>2020-05-30T22:49:33Z</time>
      </trkpt>
      <trkpt lat="46.04485" lon="3.88208">
        <ele>511</ele>
        <time>2020-05-30T22:49:36Z</time>
      </trkpt>
      <trkpt lat="46.04492" lon="3.88195">
        <ele>512</ele>
        <time>2020-05-30T22:49:39Z</time>
      </trkpt>
      <trkpt lat="46.04562" lon="3.88104">
        <ele>520</ele>
        <time>2020-05-30T22:49:55Z</time>
      </trkpt>
      <trkpt lat="46.04607" lon="3.8805">
        <ele>527</ele>
        <time>2020-05-30T22:50:06Z</time>
      </trkpt>
      <trkpt lat="46.04611" lon="3.88037">
        <ele>527</ele>
        <time>2020-05-30T22:50:07Z</time>
      </trkpt>
      <trkpt lat="46.04609" lon="3.88019">
        <ele>523</ele>
        <time>2020-05-30T22:50:10Z</time>
      </trkpt>
      <trkpt lat="46.04603" lon="3.87983">
        <ele>513</ele>
        <time>2020-05-30T22:50:14Z</time>
      </trkpt>
      <trkpt lat="46.04613" lon="3.87924">
        <ele>510</ele>
        <time>2020-05-30T22:50:22Z</time>
      </trkpt>
      <trkpt lat="46.04629" lon="3.87866">
        <ele>509</ele>
        <time>2020-05-30T22:50:30Z</time>
      </trkpt>
      <trkpt lat="46.04647" lon="3.8782">
        <ele>511</ele>
        <time>2020-05-30T22:50:36Z</time>
      </trkpt>
      <trkpt lat="46.04672" lon="3.87749">
        <ele>512</ele>
        <time>2020-05-30T22:50:46Z</time>
      </trkpt>
      <trkpt lat="46.04691" lon="3.87673">
        <ele>513</ele>
        <time>2020-05-30T22:50:56Z</time>
      </trkpt>
      <trkpt lat="46.04695" lon="3.87638">
        <ele>515</ele>
        <time>2020-05-30T22:51:00Z</time>
      </trkpt>
      <trkpt lat="46.04693" lon="3.87608">
        <ele>515</ele>
        <time>2020-05-30T22:51:04Z</time>
      </trkpt>
      <trkpt lat="46.04679" lon="3.87545">
        <ele>511</ele>
        <time>2020-05-30T22:51:12Z</time>
      </trkpt>
      <trkpt lat="46.04673" lon="3.87472">
        <ele>510</ele>
        <time>2020-05-30T22:51:21Z</time>
      </trkpt>
      <trkpt lat="46.04674" lon="3.87425">
        <ele>509</ele>
        <time>2020-05-30T22:51:27Z</time>
      </trkpt>
      <trkpt lat="46.04681" lon="3.87376">
        <ele>505</ele>
        <time>2020-05-30T22:51:33Z</time>
      </trkpt>
      <trkpt lat="46.04691" lon="3.87344">
        <ele>504</ele>
        <time>2020-05-30T22:51:38Z</time>
      </trkpt>
      <trkpt lat="46.04764" lon="3.8721">
        <ele>500</ele>
        <time>2020-05-30T22:51:59Z</time>
      </trkpt>
      <trkpt lat="46.04776" lon="3.87192">
        <ele>498</ele>
        <time>2020-05-30T22:52:02Z</time>
      </trkpt>
      <trkpt lat="46.04789" lon="3.87187">
        <ele>500</ele>
        <time>2020-05-30T22:52:04Z</time>
      </trkpt>
      <trkpt lat="46.04806" lon="3.8719">
        <ele>505</ele>
        <time>2020-05-30T22:52:07Z</time>
      </trkpt>
      <trkpt lat="46.04899" lon="3.8724">
        <ele>522</ele>
        <time>2020-05-30T22:52:25Z</time>
      </trkpt>
      <trkpt lat="46.05018" lon="3.87283">
        <ele>533</ele>
        <time>2020-05-30T22:52:47Z</time>
      </trkpt>
      <trkpt lat="46.05041" lon="3.87272">
        <ele>531</ele>
        <time>2020-05-30T22:52:51Z</time>
      </trkpt>
      <trkpt lat="46.05045" lon="3.87251">
        <ele>529</ele>
        <time>2020-05-30T22:52:54Z</time>
      </trkpt>
      <trkpt lat="46.05026" lon="3.87212">
        <ele>531</ele>
        <time>2020-05-30T22:52:59Z</time>
      </trkpt>
      <trkpt lat="46.04945" lon="3.87103">
        <ele>519</ele>
        <time>2020-05-30T22:53:19Z</time>
      </trkpt>
      <trkpt lat="46.04868" lon="3.86977">
        <ele>508</ele>
        <time>2020-05-30T22:53:40Z</time>
      </trkpt>
      <trkpt lat="46.04869" lon="3.8685">
        <ele>508</ele>
        <time>2020-05-30T22:53:56Z</time>
      </trkpt>
      <trkpt lat="46.04877" lon="3.86794">
        <ele>506</ele>
        <time>2020-05-30T22:54:03Z</time>
      </trkpt>
      <trkpt lat="46.04907" lon="3.86754">
        <ele>510</ele>
        <time>2020-05-30T22:54:10Z</time>
      </trkpt>
      <trkpt lat="46.05029" lon="3.86505">
        <ele>517</ele>
        <time>2020-05-30T22:54:48Z</time>
      </trkpt>
      <trkpt lat="46.05094" lon="3.86433">
        <ele>518</ele>
        <time>2020-05-30T22:55:02Z</time>
      </trkpt>
      <trkpt lat="46.05178" lon="3.86357">
        <ele>521</ele>
        <time>2020-05-30T22:55:20Z</time>
      </trkpt>
      <trkpt lat="46.05255" lon="3.86234">
        <ele>516</ele>
        <time>2020-05-30T22:55:40Z</time>
      </trkpt>
      <trkpt lat="46.05391" lon="3.86061">
        <ele>517</ele>
        <time>2020-05-30T22:56:13Z</time>
      </trkpt>
      <trkpt lat="46.05474" lon="3.85977">
        <ele>514</ele>
        <time>2020-05-30T22:56:31Z</time>
      </trkpt>
      <trkpt lat="46.0556" lon="3.85861">
        <ele>513</ele>
        <time>2020-05-30T22:56:52Z</time>
      </trkpt>
      <trkpt lat="46.05602" lon="3.85821">
        <ele>513</ele>
        <time>2020-05-30T22:57:00Z</time>
      </trkpt>
      <trkpt lat="46.05643" lon="3.85742">
        <ele>508</ele>
        <time>2020-05-30T22:57:13Z</time>
      </trkpt>
      <trkpt lat="46.05681" lon="3.85715">
        <ele>509</ele>
        <time>2020-05-30T22:57:20Z</time>
      </trkpt>
      <trkpt lat="46.05732" lon="3.85706">
        <ele>512</ele>
        <time>2020-05-30T22:57:29Z</time>
      </trkpt>
      <trkpt lat="46.05777" lon="3.85702">
        <ele>512</ele>
        <time>2020-05-30T22:57:37Z</time>
      </trkpt>
      <trkpt lat="46.05851" lon="3.85748">
        <ele>519</ele>
        <time>2020-05-30T22:57:52Z</time>
      </trkpt>
      <trkpt lat="46.05938" lon="3.85765">
        <ele>520</ele>
        <time>2020-05-30T22:58:07Z</time>
      </trkpt>
      <trkpt lat="46.06029" lon="3.85771">
        <ele>524</ele>
        <time>2020-05-30T22:58:24Z</time>
      </trkpt>
      <trkpt lat="46.06074" lon="3.85758">
        <ele>521</ele>
        <time>2020-05-30T22:58:32Z</time>
      </trkpt>
      <trkpt lat="46.06115" lon="3.85755">
        <ele>522</ele>
        <time>2020-05-30T22:58:39Z</time>
      </trkpt>
      <trkpt lat="46.0617" lon="3.85784">
        <ele>530</ele>
        <time>2020-05-30T22:58:49Z</time>
      </trkpt>
      <trkpt lat="46.06208" lon="3.85813">
        <ele>536</ele>
        <time>2020-05-30T22:58:57Z</time>
      </trkpt>
      <trkpt lat="46.06247" lon="3.85807">
        <ele>534</ele>
        <time>2020-05-30T22:59:04Z</time>
      </trkpt>
      <trkpt lat="46.06361" lon="3.85744">
        <ele>548</ele>
        <time>2020-05-30T22:59:26Z</time>
      </trkpt>
      <trkpt lat="46.06425" lon="3.85669">
        <ele>547</ele>
        <time>2020-05-30T22:59:40Z</time>
      </trkpt>
      <trkpt lat="46.06528" lon="3.85578">
        <ele>544</ele>
        <time>2020-05-30T23:00:02Z</time>
      </trkpt>
      <trkpt lat="46.06561" lon="3.85572">
        <ele>549</ele>
        <time>2020-05-30T23:00:08Z</time>
      </trkpt>
      <trkpt lat="46.06698" lon="3.8559">
        <ele>558</ele>
        <time>2020-05-30T23:00:32Z</time>
      </trkpt>
      <trkpt lat="46.06712" lon="3.8559">
        <ele>559</ele>
        <time>2020-05-30T23:00:35Z</time>
      </trkpt>
      <trkpt lat="46.06734" lon="3.85582">
        <ele>560</ele>
        <time>2020-05-30T23:00:39Z</time>
      </trkpt>
      <trkpt lat="46.06759" lon="3.85584">
        <ele>563</ele>
        <time>2020-05-30T23:00:43Z</time>
      </trkpt>
      <trkpt lat="46.0677" lon="3.85582">
        <ele>566</ele>
        <time>2020-05-30T23:00:45Z</time>
      </trkpt>
      <trkpt lat="46.06799" lon="3.85555">
        <ele>570</ele>
        <time>2020-05-30T23:00:51Z</time>
      </trkpt>
      <trkpt lat="46.06822" lon="3.85528">
        <ele>569</ele>
        <time>2020-05-30T23:00:57Z</time>
      </trkpt>
      <trkpt lat="46.0684" lon="3.85499">
        <ele>567</ele>
        <time>2020-05-30T23:01:02Z</time>
      </trkpt>
      <trkpt lat="46.06906" lon="3.85383">
        <ele>569</ele>
        <time>2020-05-30T23:01:20Z</time>
      </trkpt>
      <trkpt lat="46.06941" lon="3.85357">
        <ele>569</ele>
        <time>2020-05-30T23:01:27Z</time>
      </trkpt>
      <trkpt lat="46.07006" lon="3.85353">
        <ele>575</ele>
        <time>2020-05-30T23:01:39Z</time>
      </trkpt>
      <trkpt lat="46.0707" lon="3.85314">
        <ele>576</ele>
        <time>2020-05-30T23:01:51Z</time>
      </trkpt>
      <trkpt lat="46.07102" lon="3.85314">
        <ele>578</ele>
        <time>2020-05-30T23:01:57Z</time>
      </trkpt>
      <trkpt lat="46.0716" lon="3.8534">
        <ele>583</ele>
        <time>2020-05-30T23:02:07Z</time>
      </trkpt>
      <trkpt lat="46.072" lon="3.85337">
        <ele>588</ele>
        <time>2020-05-30T23:02:15Z</time>
      </trkpt>
      <trkpt lat="46.07239" lon="3.85294">
        <ele>590</ele>
        <time>2020-05-30T23:02:23Z</time>
      </trkpt>
      <trkpt lat="46.07277" lon="3.85228">
        <ele>590</ele>
        <time>2020-05-30T23:02:34Z</time>
      </trkpt>
      <trkpt lat="46.07292" lon="3.85213">
        <ele>591</ele>
        <time>2020-05-30T23:02:37Z</time>
      </trkpt>
      <trkpt lat="46.07313" lon="3.85217">
        <ele>591</ele>
        <time>2020-05-30T23:02:41Z</time>
      </trkpt>
      <trkpt lat="46.07338" lon="3.85217">
        <ele>591</ele>
        <time>2020-05-30T23:02:45Z</time>
      </trkpt>
      <trkpt lat="46.0739" lon="3.85196">
        <ele>591</ele>
        <time>2020-05-30T23:02:55Z</time>
      </trkpt>
      <trkpt lat="46.0744" lon="3.85183">
        <ele>591</ele>
        <time>2020-05-30T23:03:04Z</time>
      </trkpt>
      <trkpt lat="46.07513" lon="3.85155">
        <ele>592</ele>
        <time>2020-05-30T23:03:17Z</time>
      </trkpt>
      <trkpt lat="46.07535" lon="3.85142">
        <ele>593</ele>
        <time>2020-05-30T23:03:22Z</time>
      </trkpt>
      <trkpt lat="46.07554" lon="3.85103">
        <ele>592</ele>
        <time>2020-05-30T23:03:28Z</time>
      </trkpt>
      <trkpt lat="46.07574" lon="3.85007">
        <ele>590</ele>
        <time>2020-05-30T23:03:40Z</time>
      </trkpt>
      <trkpt lat="46.07591" lon="3.84895">
        <ele>597</ele>
        <time>2020-05-30T23:03:54Z</time>
      </trkpt>
      <trkpt lat="46.07613" lon="3.84894">
        <ele>599</ele>
        <time>2020-05-30T23:03:58Z</time>
      </trkpt>
      <trkpt lat="46.07625" lon="3.84911">
        <ele>597</ele>
        <time>2020-05-30T23:04:01Z</time>
      </trkpt>
      <trkpt lat="46.07644" lon="3.8493">
        <ele>596</ele>
        <time>2020-05-30T23:04:05Z</time>
      </trkpt>
      <trkpt lat="46.07667" lon="3.8496">
        <ele>597</ele>
        <time>2020-05-30T23:04:11Z</time>
      </trkpt>
      <trkpt lat="46.07678" lon="3.84991">
        <ele>599</ele>
        <time>2020-05-30T23:04:15Z</time>
      </trkpt>
      <trkpt lat="46.07679" lon="3.85009">
        <ele>601</ele>
        <time>2020-05-30T23:04:17Z</time>
      </trkpt>
      <trkpt lat="46.07673" lon="3.85029">
        <ele>602</ele>
        <time>2020-05-30T23:04:20Z</time>
      </trkpt>
      <trkpt lat="46.07666" lon="3.85041">
        <ele>602</ele>
        <time>2020-05-30T23:04:22Z</time>
      </trkpt>
      <trkpt lat="46.07658" lon="3.85049">
        <ele>602</ele>
        <time>2020-05-30T23:04:24Z</time>
      </trkpt>
      <trkpt lat="46.07632" lon="3.85064">
        <ele>600</ele>
        <time>2020-05-30T23:04:29Z</time>
      </trkpt>
      <trkpt lat="46.07625" lon="3.85072">
        <ele>600</ele>
        <time>2020-05-30T23:04:30Z</time>
      </trkpt>
      <trkpt lat="46.07621" lon="3.85084">
        <ele>600</ele>
        <time>2020-05-30T23:04:32Z</time>
      </trkpt>
      <trkpt lat="46.07621" lon="3.85094">
        <ele>601</ele>
        <time>2020-05-30T23:04:33Z</time>
      </trkpt>
      <trkpt lat="46.07624" lon="3.85104">
        <ele>602</ele>
        <time>2020-05-30T23:04:34Z</time>
      </trkpt>
      <trkpt lat="46.07628" lon="3.85111">
        <ele>604</ele>
        <time>2020-05-30T23:04:35Z</time>
      </trkpt>
      <trkpt lat="46.07635" lon="3.85113">
        <ele>605</ele>
        <time>2020-05-30T23:04:37Z</time>
      </trkpt>
      <trkpt lat="46.07643" lon="3.8511">
        <ele>606</ele>
        <time>2020-05-30T23:04:38Z</time>
      </trkpt>
      <trkpt lat="46.07651" lon="3.85102">
        <ele>607</ele>
        <time>2020-05-30T23:04:40Z</time>
      </trkpt>
      <trkpt lat="46.07662" lon="3.8508">
        <ele>607</ele>
        <time>2020-05-30T23:04:43Z</time>
      </trkpt>
      <trkpt lat="46.07682" lon="3.85053">
        <ele>607</ele>
        <time>2020-05-30T23:04:48Z</time>
      </trkpt>
      <trkpt lat="46.07718" lon="3.85026">
        <ele>611</ele>
        <time>2020-05-30T23:04:55Z</time>
      </trkpt>
      <trkpt lat="46.07799" lon="3.84976">
        <ele>619</ele>
        <time>2020-05-30T23:05:11Z</time>
      </trkpt>
      <trkpt lat="46.07813" lon="3.84969">
        <ele>620</ele>
        <time>2020-05-30T23:05:14Z</time>
      </trkpt>
      <trkpt lat="46.07827" lon="3.84969">
        <ele>622</ele>
        <time>2020-05-30T23:05:16Z</time>
      </trkpt>
      <trkpt lat="46.07841" lon="3.84966">
        <ele>624</ele>
        <time>2020-05-30T23:05:19Z</time>
      </trkpt>
      <trkpt lat="46.07883" lon="3.84951">
        <ele>628</ele>
        <time>2020-05-30T23:05:26Z</time>
      </trkpt>
      <trkpt lat="46.07996" lon="3.84932">
        <ele>647</ele>
        <time>2020-05-30T23:05:47Z</time>
      </trkpt>
      <trkpt lat="46.08096" lon="3.84903">
        <ele>657</ele>
        <time>2020-05-30T23:06:05Z</time>
      </trkpt>
      <trkpt lat="46.08165" lon="3.84895">
        <ele>662</ele>
        <time>2020-05-30T23:06:17Z</time>
      </trkpt>
      <trkpt lat="46.08187" lon="3.84898">
        <ele>663</ele>
        <time>2020-05-30T23:06:21Z</time>
      </trkpt>
      <trkpt lat="46.08223" lon="3.84912">
        <ele>667</ele>
        <time>2020-05-30T23:06:28Z</time>
      </trkpt>
      <trkpt lat="46.08257" lon="3.84939">
        <ele>675</ele>
        <time>2020-05-30T23:06:35Z</time>
      </trkpt>
      <trkpt lat="46.08269" lon="3.84946">
        <ele>679</ele>
        <time>2020-05-30T23:06:37Z</time>
      </trkpt>
      <trkpt lat="46.08277" lon="3.84946">
        <ele>680</ele>
        <time>2020-05-30T23:06:38Z</time>
      </trkpt>
      <trkpt lat="46.08286" lon="3.84942">
        <ele>680</ele>
        <time>2020-05-30T23:06:40Z</time>
      </trkpt>
      <trkpt lat="46.08298" lon="3.8493">
        <ele>680</ele>
        <time>2020-05-30T23:06:43Z</time>
      </trkpt>
      <trkpt lat="46.08306" lon="3.84919">
        <ele>679</ele>
        <time>2020-05-30T23:06:45Z</time>
      </trkpt>
      <trkpt lat="46.08325" lon="3.84863">
        <ele>675</ele>
        <time>2020-05-30T23:06:52Z</time>
      </trkpt>
      <trkpt lat="46.0834" lon="3.84844">
        <ele>676</ele>
        <time>2020-05-30T23:06:56Z</time>
      </trkpt>
      <trkpt lat="46.0836" lon="3.84826">
        <ele>677</ele>
        <time>2020-05-30T23:07:00Z</time>
      </trkpt>
      <trkpt lat="46.08383" lon="3.84809">
        <ele>679</ele>
        <time>2020-05-30T23:07:05Z</time>
      </trkpt>
      <trkpt lat="46.08462" lon="3.84775">
        <ele>690</ele>
        <time>2020-05-30T23:07:19Z</time>
      </trkpt>
      <trkpt lat="46.08572" lon="3.84711">
        <ele>700</ele>
        <time>2020-05-30T23:07:40Z</time>
      </trkpt>
      <trkpt lat="46.08602" lon="3.84698">
        <ele>703</ele>
        <time>2020-05-30T23:07:46Z</time>
      </trkpt>
      <trkpt lat="46.08691" lon="3.84667">
        <ele>712</ele>
        <time>2020-05-30T23:08:02Z</time>
      </trkpt>
      <trkpt lat="46.08761" lon="3.84654">
        <ele>720</ele>
        <time>2020-05-30T23:08:15Z</time>
      </trkpt>
      <trkpt lat="46.08795" lon="3.84645">
        <ele>722</ele>
        <time>2020-05-30T23:08:21Z</time>
      </trkpt>
      <trkpt lat="46.08849" lon="3.84658">
        <ele>730</ele>
        <time>2020-05-30T23:08:31Z</time>
      </trkpt>
      <trkpt lat="46.08898" lon="3.84688">
        <ele>740</ele>
        <time>2020-05-30T23:08:40Z</time>
      </trkpt>
      <trkpt lat="46.08947" lon="3.84662">
        <ele>745</ele>
        <time>2020-05-30T23:08:49Z</time>
      </trkpt>
      <trkpt lat="46.09031" lon="3.84552">
        <ele>751</ele>
        <time>2020-05-30T23:09:10Z</time>
      </trkpt>
      <trkpt lat="46.09088" lon="3.84501">
        <ele>760</ele>
        <time>2020-05-30T23:09:22Z</time>
      </trkpt>
      <trkpt lat="46.09109" lon="3.84462">
        <ele>761</ele>
        <time>2020-05-30T23:09:28Z</time>
      </trkpt>
      <trkpt lat="46.09113" lon="3.84461">
        <ele>761</ele>
        <time>2020-05-30T23:09:28Z</time>
      </trkpt>
      <trkpt lat="46.09116" lon="3.84464">
        <ele>762</ele>
        <time>2020-05-30T23:09:29Z</time>
      </trkpt>
      <trkpt lat="46.09026" lon="3.84634">
        <ele>761</ele>
        <time>2020-05-30T23:09:55Z</time>
      </trkpt>
      <trkpt lat="46.08989" lon="3.84707">
        <ele>760</ele>
        <time>2020-05-30T23:10:07Z</time>
      </trkpt>
      <trkpt lat="46.08972" lon="3.84739">
        <ele>761</ele>
        <time>2020-05-30T23:10:12Z</time>
      </trkpt>
      <trkpt lat="46.08956" lon="3.84757">
        <ele>760</ele>
        <time>2020-05-30T23:10:15Z</time>
      </trkpt>
      <trkpt lat="46.08944" lon="3.84765">
        <ele>760</ele>
        <time>2020-05-30T23:10:18Z</time>
      </trkpt>
      <trkpt lat="46.08956" lon="3.84757">
        <ele>760</ele>
        <time>2020-05-30T23:10:20Z</time>
      </trkpt>
      <trkpt lat="46.08972" lon="3.84739">
        <ele>761</ele>
        <time>2020-05-30T23:10:23Z</time>
      </trkpt>
      <trkpt lat="46.09125" lon="3.84449">
        <ele>762</ele>
        <time>2020-05-30T23:11:08Z</time>
      </trkpt>
      <trkpt lat="46.09085" lon="3.84398">
        <ele>762</ele>
        <time>2020-05-30T23:11:18Z</time>
      </trkpt>
      <trkpt lat="46.0906" lon="3.84359">
        <ele>762</ele>
        <time>2020-05-30T23:11:25Z</time>
      </trkpt>
      <trkpt lat="46.0905" lon="3.8434">
        <ele>763</ele>
        <time>2020-05-30T23:11:27Z</time>
      </trkpt>
      <trkpt lat="46.09019" lon="3.84262">
        <ele>768</ele>
        <time>2020-05-30T23:11:39Z</time>
      </trkpt>
      <trkpt lat="46.09013" lon="3.84238">
        <ele>769</ele>
        <time>2020-05-30T23:11:42Z</time>
      </trkpt>
      <trkpt lat="46.09009" lon="3.84215">
        <ele>769</ele>
        <time>2020-05-30T23:11:45Z</time>
      </trkpt>
      <trkpt lat="46.09004" lon="3.84169">
        <ele>771</ele>
        <time>2020-05-30T23:11:50Z</time>
      </trkpt>
      <trkpt lat="46.09005" lon="3.84068">
        <ele>779</ele>
        <time>2020-05-30T23:12:03Z</time>
      </trkpt>
      <trkpt lat="46.09001" lon="3.84022">
        <ele>786</ele>
        <time>2020-05-30T23:12:09Z</time>
      </trkpt>
      <trkpt lat="46.08994" lon="3.83998">
        <ele>790</ele>
        <time>2020-05-30T23:12:12Z</time>
      </trkpt>
      <trkpt lat="46.08986" lon="3.83982">
        <ele>795</ele>
        <time>2020-05-30T23:12:14Z</time>
      </trkpt>
      <trkpt lat="46.08964" lon="3.83951">
        <ele>803</ele>
        <time>2020-05-30T23:12:20Z</time>
      </trkpt>
      <trkpt lat="46.08953" lon="3.83945">
        <ele>803</ele>
        <time>2020-05-30T23:12:22Z</time>
      </trkpt>
      <trkpt lat="46.08926" lon="3.83949">
        <ele>798</ele>
        <time>2020-05-30T23:12:27Z</time>
      </trkpt>
      <trkpt lat="46.08761" lon="3.84007">
        <ele>801</ele>
        <time>2020-05-30T23:12:57Z</time>
      </trkpt>
      <trkpt lat="46.08742" lon="3.84006">
        <ele>802</ele>
        <time>2020-05-30T23:13:00Z</time>
      </trkpt>
      <trkpt lat="46.08715" lon="3.83985">
        <ele>803</ele>
        <time>2020-05-30T23:13:06Z</time>
      </trkpt>
      <trkpt lat="46.08697" lon="3.83957">
        <ele>807</ele>
        <time>2020-05-30T23:13:10Z</time>
      </trkpt>
      <trkpt lat="46.08656" lon="3.83884">
        <ele>819</ele>
        <time>2020-05-30T23:13:22Z</time>
      </trkpt>
      <trkpt lat="46.08624" lon="3.83865">
        <ele>824</ele>
        <time>2020-05-30T23:13:28Z</time>
      </trkpt>
      <trkpt lat="46.08605" lon="3.83856">
        <ele>826</ele>
        <time>2020-05-30T23:13:32Z</time>
      </trkpt>
      <trkpt lat="46.08585" lon="3.83861">
        <ele>824</ele>
        <time>2020-05-30T23:13:35Z</time>
      </trkpt>
      <trkpt lat="46.08569" lon="3.83869">
        <ele>824</ele>
        <time>2020-05-30T23:13:38Z</time>
      </trkpt>
      <trkpt lat="46.08533" lon="3.83898">
        <ele>825</ele>
        <time>2020-05-30T23:13:46Z</time>
      </trkpt>
      <trkpt lat="46.08517" lon="3.8394">
        <ele>820</ele>
        <time>2020-05-30T23:13:52Z</time>
      </trkpt>
      <trkpt lat="46.08495" lon="3.83971">
        <ele>821</ele>
        <time>2020-05-30T23:13:57Z</time>
      </trkpt>
      <trkpt lat="46.08463" lon="3.84011">
        <ele>820</ele>
        <time>2020-05-30T23:14:05Z</time>
      </trkpt>
      <trkpt lat="46.08422" lon="3.84057">
        <ele>820</ele>
        <time>2020-05-30T23:14:14Z</time>
      </trkpt>
      <trkpt lat="46.08381" lon="3.84067">
        <ele>821</ele>
        <time>2020-05-30T23:14:21Z</time>
      </trkpt>
      <trkpt lat="46.08348" lon="3.8406">
        <ele>825</ele>
        <time>2020-05-30T23:14:27Z</time>
      </trkpt>
      <trkpt lat="46.08306" lon="3.84025">
        <ele>830</ele>
        <time>2020-05-30T23:14:36Z</time>
      </trkpt>
      <trkpt lat="46.08263" lon="3.83984">
        <ele>834</ele>
        <time>2020-05-30T23:14:45Z</time>
      </trkpt>
      <trkpt lat="46.08237" lon="3.83939">
        <ele>833</ele>
        <time>2020-05-30T23:14:52Z</time>
      </trkpt>
      <trkpt lat="46.08234" lon="3.8385">
        <ele>835</ele>
        <time>2020-05-30T23:15:03Z</time>
      </trkpt>
      <trkpt lat="46.08241" lon="3.83752">
        <ele>839</ele>
        <time>2020-05-30T23:15:15Z</time>
      </trkpt>
      <trkpt lat="46.08252" lon="3.8368">
        <ele>843</ele>
        <time>2020-05-30T23:15:24Z</time>
      </trkpt>
      <trkpt lat="46.08268" lon="3.83607">
        <ele>845</ele>
        <time>2020-05-30T23:15:34Z</time>
      </trkpt>
      <trkpt lat="46.08306" lon="3.83497">
        <ele>854</ele>
        <time>2020-05-30T23:15:49Z</time>
      </trkpt>
      <trkpt lat="46.08326" lon="3.83446">
        <ele>858</ele>
        <time>2020-05-30T23:15:56Z</time>
      </trkpt>
      <trkpt lat="46.08348" lon="3.83397">
        <ele>860</ele>
        <time>2020-05-30T23:16:03Z</time>
      </trkpt>
      <trkpt lat="46.0838" lon="3.8335">
        <ele>865</ele>
        <time>2020-05-30T23:16:12Z</time>
      </trkpt>
      <trkpt lat="46.08413" lon="3.83307">
        <ele>868</ele>
        <time>2020-05-30T23:16:20Z</time>
      </trkpt>
      <trkpt lat="46.08455" lon="3.83267">
        <ele>869</ele>
        <time>2020-05-30T23:16:28Z</time>
      </trkpt>
      <trkpt lat="46.08492" lon="3.83219">
        <ele>871</ele>
        <time>2020-05-30T23:16:37Z</time>
      </trkpt>
      <trkpt lat="46.0857" lon="3.83111">
        <ele>877</ele>
        <time>2020-05-30T23:16:57Z</time>
      </trkpt>
      <trkpt lat="46.08596" lon="3.83064">
        <ele>880</ele>
        <time>2020-05-30T23:17:04Z</time>
      </trkpt>
      <trkpt lat="46.08612" lon="3.83002">
        <ele>880</ele>
        <time>2020-05-30T23:17:12Z</time>
      </trkpt>
      <trkpt lat="46.08622" lon="3.82937">
        <ele>883</ele>
        <time>2020-05-30T23:17:20Z</time>
      </trkpt>
      <trkpt lat="46.08623" lon="3.82867">
        <ele>883</ele>
        <time>2020-05-30T23:17:29Z</time>
      </trkpt>
      <trkpt lat="46.08639" lon="3.8274">
        <ele>890</ele>
        <time>2020-05-30T23:17:45Z</time>
      </trkpt>
      <trkpt lat="46.08644" lon="3.82675">
        <ele>891</ele>
        <time>2020-05-30T23:17:53Z</time>
      </trkpt>
      <trkpt lat="46.08644" lon="3.82608">
        <ele>892</ele>
        <time>2020-05-30T23:18:01Z</time>
      </trkpt>
      <trkpt lat="46.0864" lon="3.82558">
        <ele>893</ele>
        <time>2020-05-30T23:18:07Z</time>
      </trkpt>
      <trkpt lat="46.08614" lon="3.82465">
        <ele>897</ele>
        <time>2020-05-30T23:18:20Z</time>
      </trkpt>
      <trkpt lat="46.08605" lon="3.82451">
        <ele>897</ele>
        <time>2020-05-30T23:18:22Z</time>
      </trkpt>
      <trkpt lat="46.08587" lon="3.82442">
        <ele>897</ele>
        <time>2020-05-30T23:18:26Z</time>
      </trkpt>
      <trkpt lat="46.08574" lon="3.82448">
        <ele>898</ele>
        <time>2020-05-30T23:18:28Z</time>
      </trkpt>
      <trkpt lat="46.08568" lon="3.82456">
        <ele>898</ele>
        <time>2020-05-30T23:18:29Z</time>
      </trkpt>
      <trkpt lat="46.0854" lon="3.82527">
        <ele>898</ele>
        <time>2020-05-30T23:18:40Z</time>
      </trkpt>
      <trkpt lat="46.08516" lon="3.82574">
        <ele>901</ele>
        <time>2020-05-30T23:18:47Z</time>
      </trkpt>
      <trkpt lat="46.0849" lon="3.82603">
        <ele>901</ele>
        <time>2020-05-30T23:18:53Z</time>
      </trkpt>
      <trkpt lat="46.08453" lon="3.82631">
        <ele>900</ele>
        <time>2020-05-30T23:19:00Z</time>
      </trkpt>
      <trkpt lat="46.08442" lon="3.82637">
        <ele>901</ele>
        <time>2020-05-30T23:19:02Z</time>
      </trkpt>
      <trkpt lat="46.08433" lon="3.8264">
        <ele>901</ele>
        <time>2020-05-30T23:19:04Z</time>
      </trkpt>
      <trkpt lat="46.08425" lon="3.82639">
        <ele>902</ele>
        <time>2020-05-30T23:19:05Z</time>
      </trkpt>
      <trkpt lat="46.08416" lon="3.82635">
        <ele>903</ele>
        <time>2020-05-30T23:19:07Z</time>
      </trkpt>
      <trkpt lat="46.08383" lon="3.82601">
        <ele>906</ele>
        <time>2020-05-30T23:19:14Z</time>
      </trkpt>
      <trkpt lat="46.0837" lon="3.82584">
        <ele>907</ele>
        <time>2020-05-30T23:19:17Z</time>
      </trkpt>
      <trkpt lat="46.08364" lon="3.82573">
        <ele>907</ele>
        <time>2020-05-30T23:19:19Z</time>
      </trkpt>
      <trkpt lat="46.08346" lon="3.82529">
        <ele>910</ele>
        <time>2020-05-30T23:19:25Z</time>
      </trkpt>
      <trkpt lat="46.08333" lon="3.82503">
        <ele>912</ele>
        <time>2020-05-30T23:19:29Z</time>
      </trkpt>
      <trkpt lat="46.08325" lon="3.8249">
        <ele>913</ele>
        <time>2020-05-30T23:19:31Z</time>
      </trkpt>
      <trkpt lat="46.08315" lon="3.8248">
        <ele>914</ele>
        <time>2020-05-30T23:19:34Z</time>
      </trkpt>
      <trkpt lat="46.08288" lon="3.82463">
        <ele>916</ele>
        <time>2020-05-30T23:19:39Z</time>
      </trkpt>
      <trkpt lat="46.08271" lon="3.82455">
        <ele>918</ele>
        <time>2020-05-30T23:19:42Z</time>
      </trkpt>
      <trkpt lat="46.08257" lon="3.82452">
        <ele>918</ele>
        <time>2020-05-30T23:19:44Z</time>
      </trkpt>
      <trkpt lat="46.08181" lon="3.82443">
        <ele>922</ele>
        <time>2020-05-30T23:19:58Z</time>
      </trkpt>
      <trkpt lat="46.08126" lon="3.82444">
        <ele>923</ele>
        <time>2020-05-30T23:20:08Z</time>
      </trkpt>
      <trkpt lat="46.08109" lon="3.82441">
        <ele>924</ele>
        <time>2020-05-30T23:20:11Z</time>
      </trkpt>
      <trkpt lat="46.08101" lon="3.82437">
        <ele>924</ele>
        <time>2020-05-30T23:20:12Z</time>
      </trkpt>
      <trkpt lat="46.08086" lon="3.82425">
        <ele>927</ele>
        <time>2020-05-30T23:20:15Z</time>
      </trkpt>
      <trkpt lat="46.08076" lon="3.82411">
        <ele>929</ele>
        <time>2020-05-30T23:20:18Z</time>
      </trkpt>
      <trkpt lat="46.08054" lon="3.82371">
        <ele>938</ele>
        <time>2020-05-30T23:20:24Z</time>
      </trkpt>
      <trkpt lat="46.08039" lon="3.82355">
        <ele>941</ele>
        <time>2020-05-30T23:20:28Z</time>
      </trkpt>
      <trkpt lat="46.08027" lon="3.8235">
        <ele>943</ele>
        <time>2020-05-30T23:20:30Z</time>
      </trkpt>
      <trkpt lat="46.0801" lon="3.8235">
        <ele>943</ele>
        <time>2020-05-30T23:20:33Z</time>
      </trkpt>
      <trkpt lat="46.07979" lon="3.82361">
        <ele>943</ele>
        <time>2020-05-30T23:20:38Z</time>
      </trkpt>
      <trkpt lat="46.07928" lon="3.82394">
        <ele>943</ele>
        <time>2020-05-30T23:20:48Z</time>
      </trkpt>
      <trkpt lat="46.07898" lon="3.82402">
        <ele>945</ele>
        <time>2020-05-30T23:20:54Z</time>
      </trkpt>
      <trkpt lat="46.07872" lon="3.82407">
        <ele>945</ele>
        <time>2020-05-30T23:20:59Z</time>
      </trkpt>
      <trkpt lat="46.07841" lon="3.82407">
        <ele>946</ele>
        <time>2020-05-30T23:21:04Z</time>
      </trkpt>
      <trkpt lat="46.07762" lon="3.82396">
        <ele>949</ele>
        <time>2020-05-30T23:21:18Z</time>
      </trkpt>
      <trkpt lat="46.07701" lon="3.82358">
        <ele>953</ele>
        <time>2020-05-30T23:21:30Z</time>
      </trkpt>
      <trkpt lat="46.07666" lon="3.82332">
        <ele>955</ele>
        <time>2020-05-30T23:21:37Z</time>
      </trkpt>
      <trkpt lat="46.07643" lon="3.8232">
        <ele>957</ele>
        <time>2020-05-30T23:21:41Z</time>
      </trkpt>
      <trkpt lat="46.07579" lon="3.82305">
        <ele>960</ele>
        <time>2020-05-30T23:21:53Z</time>
      </trkpt>
      <trkpt lat="46.07549" lon="3.82293">
        <ele>960</ele>
        <time>2020-05-30T23:21:58Z</time>
      </trkpt>
      <trkpt lat="46.07519" lon="3.82277">
        <ele>961</ele>
        <time>2020-05-30T23:22:04Z</time>
      </trkpt>
      <trkpt lat="46.07482" lon="3.8225">
        <ele>965</ele>
        <time>2020-05-30T23:22:11Z</time>
      </trkpt>
      <trkpt lat="46.07442" lon="3.82229">
        <ele>967</ele>
        <time>2020-05-30T23:22:19Z</time>
      </trkpt>
      <trkpt lat="46.07373" lon="3.822">
        <ele>966</ele>
        <time>2020-05-30T23:22:32Z</time>
      </trkpt>
      <trkpt lat="46.07356" lon="3.82183">
        <ele>967</ele>
        <time>2020-05-30T23:22:36Z</time>
      </trkpt>
      <trkpt lat="46.07315" lon="3.82098">
        <ele>973</ele>
        <time>2020-05-30T23:22:48Z</time>
      </trkpt>
      <trkpt lat="46.07293" lon="3.82058">
        <ele>975</ele>
        <time>2020-05-30T23:22:55Z</time>
      </trkpt>
      <trkpt lat="46.07275" lon="3.82015">
        <ele>976</ele>
        <time>2020-05-30T23:23:01Z</time>
      </trkpt>
      <trkpt lat="46.07263" lon="3.81941">
        <ele>980</ele>
        <time>2020-05-30T23:23:10Z</time>
      </trkpt>
      <trkpt lat="46.07245" lon="3.8185">
        <ele>986</ele>
        <time>2020-05-30T23:23:22Z</time>
      </trkpt>
      <trkpt lat="46.07238" lon="3.81834">
        <ele>986</ele>
        <time>2020-05-30T23:23:24Z</time>
      </trkpt>
      <trkpt lat="46.07194" lon="3.81755">
        <ele>988</ele>
        <time>2020-05-30T23:23:37Z</time>
      </trkpt>
      <trkpt lat="46.07179" lon="3.81713">
        <ele>988</ele>
        <time>2020-05-30T23:23:43Z</time>
      </trkpt>
      <trkpt lat="46.07157" lon="3.8162">
        <ele>990</ele>
        <time>2020-05-30T23:23:55Z</time>
      </trkpt>
      <trkpt lat="46.07152" lon="3.81585">
        <ele>991</ele>
        <time>2020-05-30T23:23:59Z</time>
      </trkpt>
      <trkpt lat="46.07151" lon="3.81559">
        <ele>991</ele>
        <time>2020-05-30T23:24:02Z</time>
      </trkpt>
      <trkpt lat="46.07174" lon="3.81433">
        <ele>996</ele>
        <time>2020-05-30T23:24:18Z</time>
      </trkpt>
      <trkpt lat="46.07159" lon="3.81433">
        <ele>995</ele>
        <time>2020-05-30T23:24:21Z</time>
      </trkpt>
      <trkpt lat="46.07148" lon="3.81438">
        <ele>995</ele>
        <time>2020-05-30T23:24:23Z</time>
      </trkpt>
      <trkpt lat="46.07103" lon="3.81467">
        <ele>993</ele>
        <time>2020-05-30T23:24:32Z</time>
      </trkpt>
      <trkpt lat="46.07005" lon="3.81525">
        <ele>992</ele>
        <time>2020-05-30T23:24:51Z</time>
      </trkpt>
      <trkpt lat="46.0699" lon="3.81533">
        <ele>992</ele>
        <time>2020-05-30T23:24:54Z</time>
      </trkpt>
      <trkpt lat="46.06972" lon="3.81535">
        <ele>993</ele>
        <time>2020-05-30T23:24:57Z</time>
      </trkpt>
      <trkpt lat="46.06958" lon="3.81534">
        <ele>993</ele>
        <time>2020-05-30T23:24:59Z</time>
      </trkpt>
      <trkpt lat="46.06938" lon="3.81526">
        <ele>994</ele>
        <time>2020-05-30T23:25:03Z</time>
      </trkpt>
      <trkpt lat="46.06923" lon="3.81514">
        <ele>995</ele>
        <time>2020-05-30T23:25:06Z</time>
      </trkpt>
      <trkpt lat="46.06911" lon="3.81501">
        <ele>996</ele>
        <time>2020-05-30T23:25:09Z</time>
      </trkpt>
      <trkpt lat="46.0655" lon="3.80997">
        <ele>1008</ele>
        <time>2020-05-30T23:26:38Z</time>
      </trkpt>
      <trkpt lat="46.06521" lon="3.80965">
        <ele>1009</ele>
        <time>2020-05-30T23:26:45Z</time>
      </trkpt>
      <trkpt lat="46.06501" lon="3.80949">
        <ele>1010</ele>
        <time>2020-05-30T23:26:49Z</time>
      </trkpt>
      <trkpt lat="46.06481" lon="3.80938">
        <ele>1010</ele>
        <time>2020-05-30T23:26:52Z</time>
      </trkpt>
      <trkpt lat="46.06461" lon="3.80931">
        <ele>1010</ele>
        <time>2020-05-30T23:26:56Z</time>
      </trkpt>
      <trkpt lat="46.06392" lon="3.80918">
        <ele>1011</ele>
        <time>2020-05-30T23:27:09Z</time>
      </trkpt>
      <trkpt lat="46.06363" lon="3.8091">
        <ele>1010</ele>
        <time>2020-05-30T23:27:14Z</time>
      </trkpt>
      <trkpt lat="46.06352" lon="3.80904">
        <ele>1009</ele>
        <time>2020-05-30T23:27:16Z</time>
      </trkpt>
      <trkpt lat="46.0633" lon="3.80885">
        <ele>1008</ele>
        <time>2020-05-30T23:27:20Z</time>
      </trkpt>
      <trkpt lat="46.06132" lon="3.80655">
        <ele>1013</ele>
        <time>2020-05-30T23:28:06Z</time>
      </trkpt>
      <trkpt lat="46.06109" lon="3.80628">
        <ele>1013</ele>
        <time>2020-05-30T23:28:11Z</time>
      </trkpt>
      <trkpt lat="46.06089" lon="3.80597">
        <ele>1013</ele>
        <time>2020-05-30T23:28:16Z</time>
      </trkpt>
      <trkpt lat="46.06075" lon="3.80569">
        <ele>1013</ele>
        <time>2020-05-30T23:28:20Z</time>
      </trkpt>
      <trkpt lat="46.06007" lon="3.8042">
        <ele>1012</ele>
        <time>2020-05-30T23:28:42Z</time>
      </trkpt>
      <trkpt lat="46.0599" lon="3.8039">
        <ele>1011</ele>
        <time>2020-05-30T23:28:47Z</time>
      </trkpt>
      <trkpt lat="46.05979" lon="3.80376">
        <ele>1010</ele>
        <time>2020-05-30T23:28:50Z</time>
      </trkpt>
      <trkpt lat="46.05904" lon="3.80298">
        <ele>1006</ele>
        <time>2020-05-30T23:29:06Z</time>
      </trkpt>
      <trkpt lat="46.05889" lon="3.80285">
        <ele>1005</ele>
        <time>2020-05-30T23:29:09Z</time>
      </trkpt>
      <trkpt lat="46.05883" lon="3.80282">
        <ele>1005</ele>
        <time>2020-05-30T23:29:11Z</time>
      </trkpt>
      <trkpt lat="46.05869" lon="3.80281">
        <ele>1004</ele>
        <time>2020-05-30T23:29:13Z</time>
      </trkpt>
      <trkpt lat="46.05863" lon="3.80283">
        <ele>1003</ele>
        <time>2020-05-30T23:29:14Z</time>
      </trkpt>
      <trkpt lat="46.05849" lon="3.80294">
        <ele>1002</ele>
        <time>2020-05-30T23:29:17Z</time>
      </trkpt>
      <trkpt lat="46.05808" lon="3.80345">
        <ele>1001</ele>
        <time>2020-05-30T23:29:27Z</time>
      </trkpt>
      <trkpt lat="46.05798" lon="3.80353">
        <ele>1002</ele>
        <time>2020-05-30T23:29:29Z</time>
      </trkpt>
      <trkpt lat="46.05788" lon="3.80357">
        <ele>1002</ele>
        <time>2020-05-30T23:29:31Z</time>
      </trkpt>
      <trkpt lat="46.05773" lon="3.80358">
        <ele>1002</ele>
        <time>2020-05-30T23:29:33Z</time>
      </trkpt>
      <trkpt lat="46.05764" lon="3.80354">
        <ele>1002</ele>
        <time>2020-05-30T23:29:35Z</time>
      </trkpt>
      <trkpt lat="46.05722" lon="3.80326">
        <ele>1001</ele>
        <time>2020-05-30T23:29:43Z</time>
      </trkpt>
      <trkpt lat="46.05706" lon="3.80325">
        <ele>1002</ele>
        <time>2020-05-30T23:29:46Z</time>
      </trkpt>
      <trkpt lat="46.05684" lon="3.80334">
        <ele>1004</ele>
        <time>2020-05-30T23:29:50Z</time>
      </trkpt>
      <trkpt lat="46.05664" lon="3.80344">
        <ele>1006</ele>
        <time>2020-05-30T23:29:54Z</time>
      </trkpt>
      <trkpt lat="46.05663" lon="3.80351">
        <ele>1006</ele>
        <time>2020-05-30T23:29:55Z</time>
      </trkpt>
      <trkpt lat="46.05648" lon="3.80374">
        <ele>1009</ele>
        <time>2020-05-30T23:29:59Z</time>
      </trkpt>
      <trkpt lat="46.05622" lon="3.80422">
        <ele>1013</ele>
        <time>2020-05-30T23:30:06Z</time>
      </trkpt>
      <trkpt lat="46.05617" lon="3.80428">
        <ele>1013</ele>
        <time>2020-05-30T23:30:07Z</time>
      </trkpt>
      <trkpt lat="46.05593" lon="3.80439">
        <ele>1015</ele>
        <time>2020-05-30T23:30:12Z</time>
      </trkpt>
      <trkpt lat="46.05554" lon="3.80419">
        <ele>1014</ele>
        <time>2020-05-30T23:30:19Z</time>
      </trkpt>
      <trkpt lat="46.05541" lon="3.80415">
        <ele>1014</ele>
        <time>2020-05-30T23:30:21Z</time>
      </trkpt>
      <trkpt lat="46.0551" lon="3.80411">
        <ele>1014</ele>
        <time>2020-05-30T23:30:27Z</time>
      </trkpt>
      <trkpt lat="46.0542" lon="3.80426">
        <ele>1011</ele>
        <time>2020-05-30T23:30:43Z</time>
      </trkpt>
      <trkpt lat="46.05413" lon="3.80422">
        <ele>1010</ele>
        <time>2020-05-30T23:30:44Z</time>
      </trkpt>
      <trkpt lat="46.05354" lon="3.80476">
        <ele>1011</ele>
        <time>2020-05-30T23:30:57Z</time>
      </trkpt>
      <trkpt lat="46.05332" lon="3.80491">
        <ele>1010</ele>
        <time>2020-05-30T23:31:01Z</time>
      </trkpt>
      <trkpt lat="46.05284" lon="3.80515">
        <ele>1011</ele>
        <time>2020-05-30T23:31:10Z</time>
      </trkpt>
      <trkpt lat="46.05238" lon="3.80543">
        <ele>1013</ele>
        <time>2020-05-30T23:31:19Z</time>
      </trkpt>
      <trkpt lat="46.04962" lon="3.80751">
        <ele>1029</ele>
        <time>2020-05-30T23:32:15Z</time>
      </trkpt>
      <trkpt lat="46.04901" lon="3.80801">
        <ele>1027</ele>
        <time>2020-05-30T23:32:27Z</time>
      </trkpt>
      <trkpt lat="46.0487" lon="3.80816">
        <ele>1025</ele>
        <time>2020-05-30T23:32:33Z</time>
      </trkpt>
      <trkpt lat="46.04855" lon="3.80817">
        <ele>1025</ele>
        <time>2020-05-30T23:32:36Z</time>
      </trkpt>
      <trkpt lat="46.04841" lon="3.80815">
        <ele>1024</ele>
        <time>2020-05-30T23:32:38Z</time>
      </trkpt>
      <trkpt lat="46.0469" lon="3.80746">
        <ele>1017</ele>
        <time>2020-05-30T23:33:06Z</time>
      </trkpt>
      <trkpt lat="46.04671" lon="3.80741">
        <ele>1017</ele>
        <time>2020-05-30T23:33:10Z</time>
      </trkpt>
      <trkpt lat="46.04634" lon="3.80743">
        <ele>1015</ele>
        <time>2020-05-30T23:33:16Z</time>
      </trkpt>
      <trkpt lat="46.04593" lon="3.80752">
        <ele>1013</ele>
        <time>2020-05-30T23:33:24Z</time>
      </trkpt>
      <trkpt lat="46.04573" lon="3.8076">
        <ele>1011</ele>
        <time>2020-05-30T23:33:27Z</time>
      </trkpt>
      <trkpt lat="46.04544" lon="3.80779">
        <ele>1010</ele>
        <time>2020-05-30T23:33:33Z</time>
      </trkpt>
      <trkpt lat="46.04493" lon="3.80821">
        <ele>1007</ele>
        <time>2020-05-30T23:33:43Z</time>
      </trkpt>
      <trkpt lat="46.04397" lon="3.80892">
        <ele>1001</ele>
        <time>2020-05-30T23:34:03Z</time>
      </trkpt>
      <trkpt lat="46.04213" lon="3.81023">
        <ele>994</ele>
        <time>2020-05-30T23:34:39Z</time>
      </trkpt>
      <trkpt lat="46.04164" lon="3.81063">
        <ele>992</ele>
        <time>2020-05-30T23:34:49Z</time>
      </trkpt>
      <trkpt lat="46.04143" lon="3.81083">
        <ele>992</ele>
        <time>2020-05-30T23:34:54Z</time>
      </trkpt>
      <trkpt lat="46.04123" lon="3.81106">
        <ele>993</ele>
        <time>2020-05-30T23:34:58Z</time>
      </trkpt>
      <trkpt lat="46.04069" lon="3.81196">
        <ele>996</ele>
        <time>2020-05-30T23:35:13Z</time>
      </trkpt>
      <trkpt lat="46.04038" lon="3.81261">
        <ele>997</ele>
        <time>2020-05-30T23:35:23Z</time>
      </trkpt>
      <trkpt lat="46.0402" lon="3.81308">
        <ele>998</ele>
        <time>2020-05-30T23:35:29Z</time>
      </trkpt>
      <trkpt lat="46.04015" lon="3.81334">
        <ele>999</ele>
        <time>2020-05-30T23:35:33Z</time>
      </trkpt>
      <trkpt lat="46.04008" lon="3.81345">
        <ele>999</ele>
        <time>2020-05-30T23:35:34Z</time>
      </trkpt>
      <trkpt lat="46.04005" lon="3.81355">
        <ele>1000</ele>
        <time>2020-05-30T23:35:36Z</time>
      </trkpt>
      <trkpt lat="46.03996" lon="3.81365">
        <ele>1000</ele>
        <time>2020-05-30T23:35:38Z</time>
      </trkpt>
      <trkpt lat="46.03975" lon="3.81378">
        <ele>1002</ele>
        <time>2020-05-30T23:35:42Z</time>
      </trkpt>
      <trkpt lat="46.03951" lon="3.81386">
        <ele>1003</ele>
        <time>2020-05-30T23:35:46Z</time>
      </trkpt>
      <trkpt lat="46.0392" lon="3.81392">
        <ele>1004</ele>
        <time>2020-05-30T23:35:52Z</time>
      </trkpt>
      <trkpt lat="46.03894" lon="3.81395">
        <ele>1004</ele>
        <time>2020-05-30T23:35:56Z</time>
      </trkpt>
      <trkpt lat="46.03858" lon="3.81406">
        <ele>1006</ele>
        <time>2020-05-30T23:36:03Z</time>
      </trkpt>
      <trkpt lat="46.03779" lon="3.81463">
        <ele>1009</ele>
        <time>2020-05-30T23:36:19Z</time>
      </trkpt>
      <trkpt lat="46.0374" lon="3.81483">
        <ele>1011</ele>
        <time>2020-05-30T23:36:26Z</time>
      </trkpt>
      <trkpt lat="46.03725" lon="3.81485">
        <ele>1011</ele>
        <time>2020-05-30T23:36:29Z</time>
      </trkpt>
      <trkpt lat="46.0369" lon="3.81484">
        <ele>1012</ele>
        <time>2020-05-30T23:36:35Z</time>
      </trkpt>
      <trkpt lat="46.03645" lon="3.81479">
        <ele>1012</ele>
        <time>2020-05-30T23:36:43Z</time>
      </trkpt>
      <trkpt lat="46.03492" lon="3.81453">
        <ele>1008</ele>
        <time>2020-05-30T23:37:10Z</time>
      </trkpt>
      <trkpt lat="46.03479" lon="3.81445">
        <ele>1007</ele>
        <time>2020-05-30T23:37:13Z</time>
      </trkpt>
      <trkpt lat="46.03467" lon="3.81435">
        <ele>1007</ele>
        <time>2020-05-30T23:37:15Z</time>
      </trkpt>
      <trkpt lat="46.03446" lon="3.81412">
        <ele>1007</ele>
        <time>2020-05-30T23:37:20Z</time>
      </trkpt>
      <trkpt lat="46.03429" lon="3.81397">
        <ele>1008</ele>
        <time>2020-05-30T23:37:24Z</time>
      </trkpt>
      <trkpt lat="46.03391" lon="3.81368">
        <ele>1010</ele>
        <time>2020-05-30T23:37:31Z</time>
      </trkpt>
      <trkpt lat="46.0332" lon="3.81339">
        <ele>1014</ele>
        <time>2020-05-30T23:37:44Z</time>
      </trkpt>
      <trkpt lat="46.03304" lon="3.81335">
        <ele>1017</ele>
        <time>2020-05-30T23:37:47Z</time>
      </trkpt>
      <trkpt lat="46.03287" lon="3.81335">
        <ele>1019</ele>
        <time>2020-05-30T23:37:50Z</time>
      </trkpt>
      <trkpt lat="46.03272" lon="3.81339">
        <ele>1020</ele>
        <time>2020-05-30T23:37:53Z</time>
      </trkpt>
      <trkpt lat="46.03205" lon="3.81375">
        <ele>1024</ele>
        <time>2020-05-30T23:38:06Z</time>
      </trkpt>
      <trkpt lat="46.03168" lon="3.81387">
        <ele>1027</ele>
        <time>2020-05-30T23:38:13Z</time>
      </trkpt>
      <trkpt lat="46.03146" lon="3.81385">
        <ele>1029</ele>
        <time>2020-05-30T23:38:16Z</time>
      </trkpt>
      <trkpt lat="46.03081" lon="3.8137">
        <ele>1035</ele>
        <time>2020-05-30T23:38:28Z</time>
      </trkpt>
      <trkpt lat="46.0298" lon="3.81342">
        <ele>1037</ele>
        <time>2020-05-30T23:38:46Z</time>
      </trkpt>
      <trkpt lat="46.02924" lon="3.81333">
        <ele>1037</ele>
        <time>2020-05-30T23:38:57Z</time>
      </trkpt>
      <trkpt lat="46.02896" lon="3.81331">
        <ele>1038</ele>
        <time>2020-05-30T23:39:02Z</time>
      </trkpt>
      <trkpt lat="46.02868" lon="3.81332">
        <ele>1040</ele>
        <time>2020-05-30T23:39:06Z</time>
      </trkpt>
      <trkpt lat="46.02744" lon="3.81344">
        <ele>1041</ele>
        <time>2020-05-30T23:39:29Z</time>
      </trkpt>
      <trkpt lat="46.02723" lon="3.81348">
        <ele>1040</ele>
        <time>2020-05-30T23:39:32Z</time>
      </trkpt>
      <trkpt lat="46.02666" lon="3.81373">
        <ele>1037</ele>
        <time>2020-05-30T23:39:43Z</time>
      </trkpt>
      <trkpt lat="46.02589" lon="3.81421">
        <ele>1033</ele>
        <time>2020-05-30T23:39:58Z</time>
      </trkpt>
      <trkpt lat="46.0251" lon="3.81463">
        <ele>1031</ele>
        <time>2020-05-30T23:40:13Z</time>
      </trkpt>
      <trkpt lat="46.02494" lon="3.81468">
        <ele>1031</ele>
        <time>2020-05-30T23:40:16Z</time>
      </trkpt>
      <trkpt lat="46.02485" lon="3.81467">
        <ele>1031</ele>
        <time>2020-05-30T23:40:17Z</time>
      </trkpt>
      <trkpt lat="46.02479" lon="3.81466">
        <ele>1032</ele>
        <time>2020-05-30T23:40:18Z</time>
      </trkpt>
      <trkpt lat="46.02472" lon="3.81462">
        <ele>1032</ele>
        <time>2020-05-30T23:40:20Z</time>
      </trkpt>
      <trkpt lat="46.02056" lon="3.81138">
        <ele>1049</ele>
        <time>2020-05-30T23:41:44Z</time>
      </trkpt>
      <trkpt lat="46.0204" lon="3.81124">
        <ele>1049</ele>
        <time>2020-05-30T23:41:47Z</time>
      </trkpt>
      <trkpt lat="46.02026" lon="3.81109">
        <ele>1049</ele>
        <time>2020-05-30T23:41:50Z</time>
      </trkpt>
      <trkpt lat="46.01989" lon="3.81062">
        <ele>1047</ele>
        <time>2020-05-30T23:41:59Z</time>
      </trkpt>
      <trkpt lat="46.01978" lon="3.81053">
        <ele>1046</ele>
        <time>2020-05-30T23:42:01Z</time>
      </trkpt>
      <trkpt lat="46.01964" lon="3.81047">
        <ele>1045</ele>
        <time>2020-05-30T23:42:04Z</time>
      </trkpt>
      <trkpt lat="46.01949" lon="3.81045">
        <ele>1045</ele>
        <time>2020-05-30T23:42:07Z</time>
      </trkpt>
      <trkpt lat="46.01928" lon="3.81047">
        <ele>1045</ele>
        <time>2020-05-30T23:42:10Z</time>
      </trkpt>
      <trkpt lat="46.01841" lon="3.81065">
        <ele>1043</ele>
        <time>2020-05-30T23:42:26Z</time>
      </trkpt>
      <trkpt lat="46.01817" lon="3.81065">
        <ele>1043</ele>
        <time>2020-05-30T23:42:30Z</time>
      </trkpt>
      <trkpt lat="46.01803" lon="3.81063">
        <ele>1042</ele>
        <time>2020-05-30T23:42:33Z</time>
      </trkpt>
      <trkpt lat="46.01783" lon="3.81054">
        <ele>1039</ele>
        <time>2020-05-30T23:42:37Z</time>
      </trkpt>
      <trkpt lat="46.01716" lon="3.8102">
        <ele>1031</ele>
        <time>2020-05-30T23:42:49Z</time>
      </trkpt>
      <trkpt lat="46.01676" lon="3.81005">
        <ele>1027</ele>
        <time>2020-05-30T23:42:57Z</time>
      </trkpt>
      <trkpt lat="46.01658" lon="3.81">
        <ele>1025</ele>
        <time>2020-05-30T23:43:00Z</time>
      </trkpt>
      <trkpt lat="46.01606" lon="3.81003">
        <ele>1023</ele>
        <time>2020-05-30T23:43:09Z</time>
      </trkpt>
      <trkpt lat="46.01549" lon="3.80998">
        <ele>1019</ele>
        <time>2020-05-30T23:43:19Z</time>
      </trkpt>
      <trkpt lat="46.0148" lon="3.80989">
        <ele>1015</ele>
        <time>2020-05-30T23:43:32Z</time>
      </trkpt>
      <trkpt lat="46.01456" lon="3.8099">
        <ele>1014</ele>
        <time>2020-05-30T23:43:36Z</time>
      </trkpt>
      <trkpt lat="46.01397" lon="3.80999">
        <ele>1014</ele>
        <time>2020-05-30T23:43:46Z</time>
      </trkpt>
      <trkpt lat="46.01343" lon="3.81">
        <ele>1013</ele>
        <time>2020-05-30T23:43:56Z</time>
      </trkpt>
      <trkpt lat="46.0129" lon="3.80996">
        <ele>1013</ele>
        <time>2020-05-30T23:44:05Z</time>
      </trkpt>
      <trkpt lat="46.01237" lon="3.80987">
        <ele>1013</ele>
        <time>2020-05-30T23:44:15Z</time>
      </trkpt>
      <trkpt lat="46.0123" lon="3.80986">
        <ele>1013</ele>
        <time>2020-05-30T23:44:16Z</time>
      </trkpt>
      <trkpt lat="46.01224" lon="3.80985">
        <ele>1014</ele>
        <time>2020-05-30T23:44:17Z</time>
      </trkpt>
      <trkpt lat="46.01219" lon="3.80981">
        <ele>1014</ele>
        <time>2020-05-30T23:44:18Z</time>
      </trkpt>
      <trkpt lat="46.01217" lon="3.80976">
        <ele>1015</ele>
        <time>2020-05-30T23:44:19Z</time>
      </trkpt>
      <trkpt lat="46.01216" lon="3.8097">
        <ele>1016</ele>
        <time>2020-05-30T23:44:20Z</time>
      </trkpt>
      <trkpt lat="46.01209" lon="3.80972">
        <ele>1016</ele>
        <time>2020-05-30T23:44:21Z</time>
      </trkpt>
      <trkpt lat="46.01185" lon="3.80977">
        <ele>1015</ele>
        <time>2020-05-30T23:44:25Z</time>
      </trkpt>
      <trkpt lat="46.01086" lon="3.80978">
        <ele>1017</ele>
        <time>2020-05-30T23:44:43Z</time>
      </trkpt>
      <trkpt lat="46.00863" lon="3.80979">
        <ele>1019</ele>
        <time>2020-05-30T23:45:23Z</time>
      </trkpt>
      <trkpt lat="46.00819" lon="3.80979">
        <ele>1021</ele>
        <time>2020-05-30T23:45:31Z</time>
      </trkpt>
      <trkpt lat="46.00793" lon="3.8097">
        <ele>1023</ele>
        <time>2020-05-30T23:45:35Z</time>
      </trkpt>
      <trkpt lat="46.00766" lon="3.80948">
        <ele>1026</ele>
        <time>2020-05-30T23:45:41Z</time>
      </trkpt>
      <trkpt lat="46.00744" lon="3.80916">
        <ele>1030</ele>
        <time>2020-05-30T23:45:46Z</time>
      </trkpt>
      <trkpt lat="46.0073" lon="3.80878">
        <ele>1034</ele>
        <time>2020-05-30T23:45:52Z</time>
      </trkpt>
      <trkpt lat="46.0072" lon="3.80809">
        <ele>1041</ele>
        <time>2020-05-30T23:46:00Z</time>
      </trkpt>
      <trkpt lat="46.00706" lon="3.80771">
        <ele>1044</ele>
        <time>2020-05-30T23:46:06Z</time>
      </trkpt>
      <trkpt lat="46.00679" lon="3.80735">
        <ele>1045</ele>
        <time>2020-05-30T23:46:12Z</time>
      </trkpt>
      <trkpt lat="46.00667" lon="3.80715">
        <ele>1045</ele>
        <time>2020-05-30T23:46:16Z</time>
      </trkpt>
      <trkpt lat="46.00657" lon="3.80691">
        <ele>1047</ele>
        <time>2020-05-30T23:46:19Z</time>
      </trkpt>
      <trkpt lat="46.00654" lon="3.80658">
        <ele>1049</ele>
        <time>2020-05-30T23:46:23Z</time>
      </trkpt>
      <trkpt lat="46.00657" lon="3.80619">
        <ele>1051</ele>
        <time>2020-05-30T23:46:28Z</time>
      </trkpt>
      <trkpt lat="46.00664" lon="3.80588">
        <ele>1051</ele>
        <time>2020-05-30T23:46:32Z</time>
      </trkpt>
      <trkpt lat="46.00702" lon="3.80492">
        <ele>1058</ele>
        <time>2020-05-30T23:46:46Z</time>
      </trkpt>
      <trkpt lat="46.00707" lon="3.80447">
        <ele>1060</ele>
        <time>2020-05-30T23:46:51Z</time>
      </trkpt>
      <trkpt lat="46.00705" lon="3.80398">
        <ele>1062</ele>
        <time>2020-05-30T23:46:57Z</time>
      </trkpt>
      <trkpt lat="46.00697" lon="3.80299">
        <ele>1067</ele>
        <time>2020-05-30T23:47:10Z</time>
      </trkpt>
      <trkpt lat="46.00682" lon="3.80256">
        <ele>1069</ele>
        <time>2020-05-30T23:47:16Z</time>
      </trkpt>
      <trkpt lat="46.00672" lon="3.80244">
        <ele>1070</ele>
        <time>2020-05-30T23:47:18Z</time>
      </trkpt>
      <trkpt lat="46.00656" lon="3.80223">
        <ele>1072</ele>
        <time>2020-05-30T23:47:22Z</time>
      </trkpt>
      <trkpt lat="46.00627" lon="3.80205">
        <ele>1075</ele>
        <time>2020-05-30T23:47:27Z</time>
      </trkpt>
      <trkpt lat="46.00583" lon="3.80181">
        <ele>1078</ele>
        <time>2020-05-30T23:47:36Z</time>
      </trkpt>
      <trkpt lat="46.00565" lon="3.8016">
        <ele>1080</ele>
        <time>2020-05-30T23:47:40Z</time>
      </trkpt>
      <trkpt lat="46.00547" lon="3.80114">
        <ele>1083</ele>
        <time>2020-05-30T23:47:46Z</time>
      </trkpt>
      <trkpt lat="46.00543" lon="3.80063">
        <ele>1085</ele>
        <time>2020-05-30T23:47:53Z</time>
      </trkpt>
      <trkpt lat="46.00547" lon="3.80012">
        <ele>1085</ele>
        <time>2020-05-30T23:47:59Z</time>
      </trkpt>
      <trkpt lat="46.00554" lon="3.79979">
        <ele>1084</ele>
        <time>2020-05-30T23:48:03Z</time>
      </trkpt>
      <trkpt lat="46.00561" lon="3.7995">
        <ele>1083</ele>
        <time>2020-05-30T23:48:07Z</time>
      </trkpt>
      <trkpt lat="46.00576" lon="3.79915">
        <ele>1081</ele>
        <time>2020-05-30T23:48:12Z</time>
      </trkpt>
      <trkpt lat="46.00589" lon="3.79886">
        <ele>1082</ele>
        <time>2020-05-30T23:48:16Z</time>
      </trkpt>
      <trkpt lat="46.00609" lon="3.79842">
        <ele>1083</ele>
        <time>2020-05-30T23:48:23Z</time>
      </trkpt>
      <trkpt lat="46.00613" lon="3.79831">
        <ele>1083</ele>
        <time>2020-05-30T23:48:25Z</time>
      </trkpt>
      <trkpt lat="46.00622" lon="3.79817">
        <ele>1082</ele>
        <time>2020-05-30T23:48:27Z</time>
      </trkpt>
      <trkpt lat="46.00633" lon="3.79807">
        <ele>1081</ele>
        <time>2020-05-30T23:48:29Z</time>
      </trkpt>
      <trkpt lat="46.00643" lon="3.79802">
        <ele>1080</ele>
        <time>2020-05-30T23:48:31Z</time>
      </trkpt>
      <trkpt lat="46.0066" lon="3.79799">
        <ele>1078</ele>
        <time>2020-05-30T23:48:34Z</time>
      </trkpt>
      <trkpt lat="46.00728" lon="3.79807">
        <ele>1075</ele>
        <time>2020-05-30T23:48:46Z</time>
      </trkpt>
      <trkpt lat="46.00738" lon="3.79805">
        <ele>1074</ele>
        <time>2020-05-30T23:48:48Z</time>
      </trkpt>
      <trkpt lat="46.00742" lon="3.79801">
        <ele>1073</ele>
        <time>2020-05-30T23:48:49Z</time>
      </trkpt>
      <trkpt lat="46.00745" lon="3.79793">
        <ele>1072</ele>
        <time>2020-05-30T23:48:50Z</time>
      </trkpt>
      <trkpt lat="46.00743" lon="3.79776">
        <ele>1070</ele>
        <time>2020-05-30T23:48:52Z</time>
      </trkpt>
      <trkpt lat="46.00671" lon="3.79677">
        <ele>1061</ele>
        <time>2020-05-30T23:49:10Z</time>
      </trkpt>
      <trkpt lat="46.00648" lon="3.7962">
        <ele>1057</ele>
        <time>2020-05-30T23:49:18Z</time>
      </trkpt>
      <trkpt lat="46.00627" lon="3.79533">
        <ele>1052</ele>
        <time>2020-05-30T23:49:29Z</time>
      </trkpt>
      <trkpt lat="46.00623" lon="3.795">
        <ele>1050</ele>
        <time>2020-05-30T23:49:34Z</time>
      </trkpt>
      <trkpt lat="46.00624" lon="3.7946">
        <ele>1048</ele>
        <time>2020-05-30T23:49:38Z</time>
      </trkpt>
      <trkpt lat="46.00627" lon="3.7943">
        <ele>1046</ele>
        <time>2020-05-30T23:49:42Z</time>
      </trkpt>
      <trkpt lat="46.00653" lon="3.793">
        <ele>1032</ele>
        <time>2020-05-30T23:49:59Z</time>
      </trkpt>
      <trkpt lat="46.00653" lon="3.79231">
        <ele>1028</ele>
        <time>2020-05-30T23:50:07Z</time>
      </trkpt>
      <trkpt lat="46.00642" lon="3.79198">
        <ele>1026</ele>
        <time>2020-05-30T23:50:12Z</time>
      </trkpt>
      <trkpt lat="46.0064" lon="3.79193">
        <ele>1026</ele>
        <time>2020-05-30T23:50:13Z</time>
      </trkpt>
      <trkpt lat="46.00612" lon="3.79153">
        <ele>1024</ele>
        <time>2020-05-30T23:50:20Z</time>
      </trkpt>
      <trkpt lat="46.00536" lon="3.79098">
        <ele>1022</ele>
        <time>2020-05-30T23:50:35Z</time>
      </trkpt>
      <trkpt lat="46.00514" lon="3.79072">
        <ele>1018</ele>
        <time>2020-05-30T23:50:40Z</time>
      </trkpt>
      <trkpt lat="46.00465" lon="3.7904">
        <ele>1019</ele>
        <time>2020-05-30T23:50:50Z</time>
      </trkpt>
      <trkpt lat="46.00414" lon="3.78997">
        <ele>1018</ele>
        <time>2020-05-30T23:51:00Z</time>
      </trkpt>
      <trkpt lat="46.0039" lon="3.78964">
        <ele>1017</ele>
        <time>2020-05-30T23:51:06Z</time>
      </trkpt>
      <trkpt lat="46.00351" lon="3.78907">
        <ele>1017</ele>
        <time>2020-05-30T23:51:16Z</time>
      </trkpt>
      <trkpt lat="46.00329" lon="3.7884">
        <ele>1011</ele>
        <time>2020-05-30T23:51:25Z</time>
      </trkpt>
      <trkpt lat="46.00273" lon="3.78706">
        <ele>1012</ele>
        <time>2020-05-30T23:51:44Z</time>
      </trkpt>
      <trkpt lat="46.00263" lon="3.7859">
        <ele>1008</ele>
        <time>2020-05-30T23:51:59Z</time>
      </trkpt>
      <trkpt lat="46.00257" lon="3.78534">
        <ele>1007</ele>
        <time>2020-05-30T23:52:06Z</time>
      </trkpt>
      <trkpt lat="46.00246" lon="3.78483">
        <ele>1006</ele>
        <time>2020-05-30T23:52:12Z</time>
      </trkpt>
      <trkpt lat="46.00234" lon="3.78452">
        <ele>1004</ele>
        <time>2020-05-30T23:52:17Z</time>
      </trkpt>
      <trkpt lat="46.00205" lon="3.7837">
        <ele>996</ele>
        <time>2020-05-30T23:52:28Z</time>
      </trkpt>
      <trkpt lat="46.00198" lon="3.7833">
        <ele>993</ele>
        <time>2020-05-30T23:52:33Z</time>
      </trkpt>
      <trkpt lat="46.00196" lon="3.78281">
        <ele>993</ele>
        <time>2020-05-30T23:52:39Z</time>
      </trkpt>
      <trkpt lat="46.00187" lon="3.78247">
        <ele>992</ele>
        <time>2020-05-30T23:52:44Z</time>
      </trkpt>
      <trkpt lat="46.00067" lon="3.78067">
        <ele>975</ele>
        <time>2020-05-30T23:53:15Z</time>
      </trkpt>
      <trkpt lat="46.00032" lon="3.77987">
        <ele>969</ele>
        <time>2020-05-30T23:53:26Z</time>
      </trkpt>
      <trkpt lat="46.00026" lon="3.77984">
        <ele>969</ele>
        <time>2020-05-30T23:53:27Z</time>
      </trkpt>
      <trkpt lat="46.00016" lon="3.77987">
        <ele>968</ele>
        <time>2020-05-30T23:53:29Z</time>
      </trkpt>
      <trkpt lat="46.00011" lon="3.78">
        <ele>968</ele>
        <time>2020-05-30T23:53:31Z</time>
      </trkpt>
      <trkpt lat="46.00018" lon="3.78021">
        <ele>967</ele>
        <time>2020-05-30T23:53:34Z</time>
      </trkpt>
      <trkpt lat="46.00033" lon="3.78056">
        <ele>968</ele>
        <time>2020-05-30T23:53:39Z</time>
      </trkpt>
      <trkpt lat="46.0004" lon="3.78173">
        <ele>964</ele>
        <time>2020-05-30T23:53:54Z</time>
      </trkpt>
      <trkpt lat="46.00036" lon="3.7826">
        <ele>962</ele>
        <time>2020-05-30T23:54:04Z</time>
      </trkpt>
      <trkpt lat="46.0003" lon="3.78278">
        <ele>962</ele>
        <time>2020-05-30T23:54:07Z</time>
      </trkpt>
      <trkpt lat="46.00005" lon="3.78302">
        <ele>959</ele>
        <time>2020-05-30T23:54:12Z</time>
      </trkpt>
      <trkpt lat="45.99971" lon="3.7832">
        <ele>957</ele>
        <time>2020-05-30T23:54:19Z</time>
      </trkpt>
      <trkpt lat="45.99923" lon="3.78316">
        <ele>951</ele>
        <time>2020-05-30T23:54:27Z</time>
      </trkpt>
      <trkpt lat="45.99746" lon="3.78249">
        <ele>930</ele>
        <time>2020-05-30T23:55:00Z</time>
      </trkpt>
      <trkpt lat="45.99713" lon="3.78226">
        <ele>925</ele>
        <time>2020-05-30T23:55:06Z</time>
      </trkpt>
      <trkpt lat="45.99665" lon="3.78161">
        <ele>919</ele>
        <time>2020-05-30T23:55:18Z</time>
      </trkpt>
      <trkpt lat="45.99629" lon="3.78097">
        <ele>910</ele>
        <time>2020-05-30T23:55:28Z</time>
      </trkpt>
      <trkpt lat="45.99601" lon="3.78074">
        <ele>908</ele>
        <time>2020-05-30T23:55:34Z</time>
      </trkpt>
      <trkpt lat="45.99506" lon="3.78012">
        <ele>898</ele>
        <time>2020-05-30T23:55:52Z</time>
      </trkpt>
      <trkpt lat="45.99462" lon="3.78024">
        <ele>891</ele>
        <time>2020-05-30T23:56:00Z</time>
      </trkpt>
      <trkpt lat="45.99451" lon="3.78012">
        <ele>888</ele>
        <time>2020-05-30T23:56:03Z</time>
      </trkpt>
      <trkpt lat="45.99448" lon="3.7799">
        <ele>887</ele>
        <time>2020-05-30T23:56:06Z</time>
      </trkpt>
      <trkpt lat="45.99457" lon="3.77972">
        <ele>886</ele>
        <time>2020-05-30T23:56:08Z</time>
      </trkpt>
      <trkpt lat="45.99483" lon="3.77953">
        <ele>888</ele>
        <time>2020-05-30T23:56:14Z</time>
      </trkpt>
      <trkpt lat="45.99546" lon="3.77934">
        <ele>888</ele>
        <time>2020-05-30T23:56:25Z</time>
      </trkpt>
      <trkpt lat="45.99607" lon="3.77903">
        <ele>882</ele>
        <time>2020-05-30T23:56:37Z</time>
      </trkpt>
      <trkpt lat="45.99624" lon="3.77905">
        <ele>881</ele>
        <time>2020-05-30T23:56:40Z</time>
      </trkpt>
      <trkpt lat="45.99635" lon="3.77898">
        <ele>880</ele>
        <time>2020-05-30T23:56:42Z</time>
      </trkpt>
      <trkpt lat="45.99637" lon="3.77886">
        <ele>878</ele>
        <time>2020-05-30T23:56:43Z</time>
      </trkpt>
      <trkpt lat="45.9963" lon="3.77871">
        <ele>876</ele>
        <time>2020-05-30T23:56:45Z</time>
      </trkpt>
      <trkpt lat="45.99618" lon="3.77862">
        <ele>876</ele>
        <time>2020-05-30T23:56:48Z</time>
      </trkpt>
      <trkpt lat="45.99552" lon="3.7786">
        <ele>878</ele>
        <time>2020-05-30T23:57:00Z</time>
      </trkpt>
      <trkpt lat="45.99532" lon="3.77847">
        <ele>875</ele>
        <time>2020-05-30T23:57:04Z</time>
      </trkpt>
      <trkpt lat="45.99319" lon="3.77551">
        <ele>836</ele>
        <time>2020-05-30T23:57:56Z</time>
      </trkpt>
      <trkpt lat="45.99289" lon="3.7753">
        <ele>831</ele>
        <time>2020-05-30T23:58:02Z</time>
      </trkpt>
      <trkpt lat="45.99142" lon="3.77501">
        <ele>816</ele>
        <time>2020-05-30T23:58:29Z</time>
      </trkpt>
      <trkpt lat="45.9912" lon="3.77489">
        <ele>813</ele>
        <time>2020-05-30T23:58:33Z</time>
      </trkpt>
      <trkpt lat="45.9911" lon="3.77486">
        <ele>812</ele>
        <time>2020-05-30T23:58:35Z</time>
      </trkpt>
      <trkpt lat="45.99103" lon="3.77486">
        <ele>811</ele>
        <time>2020-05-30T23:58:36Z</time>
      </trkpt>
      <trkpt lat="45.99095" lon="3.77492">
        <ele>811</ele>
        <time>2020-05-30T23:58:37Z</time>
      </trkpt>
      <trkpt lat="45.99094" lon="3.77497">
        <ele>811</ele>
        <time>2020-05-30T23:58:38Z</time>
      </trkpt>
      <trkpt lat="45.99093" lon="3.77508">
        <ele>810</ele>
        <time>2020-05-30T23:58:39Z</time>
      </trkpt>
      <trkpt lat="45.99095" lon="3.77513">
        <ele>810</ele>
        <time>2020-05-30T23:58:40Z</time>
      </trkpt>
      <trkpt lat="45.99104" lon="3.77521">
        <ele>810</ele>
        <time>2020-05-30T23:58:42Z</time>
      </trkpt>
      <trkpt lat="45.99134" lon="3.77531">
        <ele>814</ele>
        <time>2020-05-30T23:58:47Z</time>
      </trkpt>
      <trkpt lat="45.99147" lon="3.77541">
        <ele>815</ele>
        <time>2020-05-30T23:58:50Z</time>
      </trkpt>
      <trkpt lat="45.9915" lon="3.77546">
        <ele>815</ele>
        <time>2020-05-30T23:58:51Z</time>
      </trkpt>
      <trkpt lat="45.99152" lon="3.77553">
        <ele>815</ele>
        <time>2020-05-30T23:58:52Z</time>
      </trkpt>
      <trkpt lat="45.99152" lon="3.77559">
        <ele>815</ele>
        <time>2020-05-30T23:58:53Z</time>
      </trkpt>
      <trkpt lat="45.99149" lon="3.77567">
        <ele>814</ele>
        <time>2020-05-30T23:58:54Z</time>
      </trkpt>
      <trkpt lat="45.99148" lon="3.77568">
        <ele>814</ele>
        <time>2020-05-30T23:58:54Z</time>
      </trkpt>
      <trkpt lat="45.99145" lon="3.7757">
        <ele>813</ele>
        <time>2020-05-30T23:58:55Z</time>
      </trkpt>
      <trkpt lat="45.99135" lon="3.7757">
        <ele>812</ele>
        <time>2020-05-30T23:58:56Z</time>
      </trkpt>
      <trkpt lat="45.99112" lon="3.77563">
        <ele>808</ele>
        <time>2020-05-30T23:59:00Z</time>
      </trkpt>
      <trkpt lat="45.991" lon="3.77561">
        <ele>806</ele>
        <time>2020-05-30T23:59:03Z</time>
      </trkpt>
      <trkpt lat="45.99062" lon="3.77569">
        <ele>799</ele>
        <time>2020-05-30T23:59:09Z</time>
      </trkpt>
      <trkpt lat="45.99036" lon="3.77565">
        <ele>796</ele>
        <time>2020-05-30T23:59:14Z</time>
      </trkpt>
      <trkpt lat="45.99011" lon="3.77548">
        <ele>795</ele>
        <time>2020-05-30T23:59:19Z</time>
      </trkpt>
      <trkpt lat="45.98928" lon="3.77455">
        <ele>790</ele>
        <time>2020-05-30T23:59:38Z</time>
      </trkpt>
      <trkpt lat="45.9888" lon="3.77416">
        <ele>786</ele>
        <time>2020-05-30T23:59:48Z</time>
      </trkpt>
      <trkpt lat="45.98781" lon="3.77359">
        <ele>777</ele>
        <time>2020-05-31T00:00:07Z</time>
      </trkpt>
      <trkpt lat="45.98634" lon="3.77236">
        <ele>757</ele>
        <time>2020-05-31T00:00:37Z</time>
      </trkpt>
      <trkpt lat="45.98598" lon="3.77184">
        <ele>753</ele>
        <time>2020-05-31T00:00:46Z</time>
      </trkpt>
      <trkpt lat="45.98547" lon="3.77031">
        <ele>739</ele>
        <time>2020-05-31T00:01:07Z</time>
      </trkpt>
      <trkpt lat="45.98543" lon="3.77">
        <ele>737</ele>
        <time>2020-05-31T00:01:11Z</time>
      </trkpt>
      <trkpt lat="45.98542" lon="3.76965">
        <ele>735</ele>
        <time>2020-05-31T00:01:15Z</time>
      </trkpt>
      <trkpt lat="45.98551" lon="3.76897">
        <ele>732</ele>
        <time>2020-05-31T00:01:24Z</time>
      </trkpt>
      <trkpt lat="45.98584" lon="3.76816">
        <ele>727</ele>
        <time>2020-05-31T00:01:35Z</time>
      </trkpt>
      <trkpt lat="45.98615" lon="3.76775">
        <ele>723</ele>
        <time>2020-05-31T00:01:43Z</time>
      </trkpt>
      <trkpt lat="45.98642" lon="3.76758">
        <ele>723</ele>
        <time>2020-05-31T00:01:48Z</time>
      </trkpt>
      <trkpt lat="45.98671" lon="3.76712">
        <ele>716</ele>
        <time>2020-05-31T00:01:56Z</time>
      </trkpt>
      <trkpt lat="45.98708" lon="3.767">
        <ele>712</ele>
        <time>2020-05-31T00:02:02Z</time>
      </trkpt>
      <trkpt lat="45.98741" lon="3.76707">
        <ele>711</ele>
        <time>2020-05-31T00:02:08Z</time>
      </trkpt>
      <trkpt lat="45.98785" lon="3.76731">
        <ele>710</ele>
        <time>2020-05-31T00:02:17Z</time>
      </trkpt>
      <trkpt lat="45.98851" lon="3.76712">
        <ele>700</ele>
        <time>2020-05-31T00:02:29Z</time>
      </trkpt>
      <trkpt lat="45.989" lon="3.76719">
        <ele>697</ele>
        <time>2020-05-31T00:02:37Z</time>
      </trkpt>
      <trkpt lat="45.98917" lon="3.7671">
        <ele>694</ele>
        <time>2020-05-31T00:02:41Z</time>
      </trkpt>
      <trkpt lat="45.9892" lon="3.76688">
        <ele>691</ele>
        <time>2020-05-31T00:02:43Z</time>
      </trkpt>
      <trkpt lat="45.98904" lon="3.76621">
        <ele>683</ele>
        <time>2020-05-31T00:02:52Z</time>
      </trkpt>
      <trkpt lat="45.98889" lon="3.76603">
        <ele>681</ele>
        <time>2020-05-31T00:02:56Z</time>
      </trkpt>
      <trkpt lat="45.98868" lon="3.76601">
        <ele>681</ele>
        <time>2020-05-31T00:02:59Z</time>
      </trkpt>
      <trkpt lat="45.98835" lon="3.76607">
        <ele>682</ele>
        <time>2020-05-31T00:03:05Z</time>
      </trkpt>
      <trkpt lat="45.98788" lon="3.76589">
        <ele>683</ele>
        <time>2020-05-31T00:03:14Z</time>
      </trkpt>
      <trkpt lat="45.98772" lon="3.76569">
        <ele>682</ele>
        <time>2020-05-31T00:03:18Z</time>
      </trkpt>
      <trkpt lat="45.98766" lon="3.76539">
        <ele>679</ele>
        <time>2020-05-31T00:03:22Z</time>
      </trkpt>
      <trkpt lat="45.98773" lon="3.76504">
        <ele>674</ele>
        <time>2020-05-31T00:03:26Z</time>
      </trkpt>
      <trkpt lat="45.98772" lon="3.76476">
        <ele>670</ele>
        <time>2020-05-31T00:03:30Z</time>
      </trkpt>
      <trkpt lat="45.98753" lon="3.76454">
        <ele>668</ele>
        <time>2020-05-31T00:03:34Z</time>
      </trkpt>
      <trkpt lat="45.98705" lon="3.76428">
        <ele>668</ele>
        <time>2020-05-31T00:03:43Z</time>
      </trkpt>
      <trkpt lat="45.98695" lon="3.76402">
        <ele>666</ele>
        <time>2020-05-31T00:03:47Z</time>
      </trkpt>
      <trkpt lat="45.98701" lon="3.76375">
        <ele>664</ele>
        <time>2020-05-31T00:03:50Z</time>
      </trkpt>
      <trkpt lat="45.98729" lon="3.76323">
        <ele>658</ele>
        <time>2020-05-31T00:03:58Z</time>
      </trkpt>
      <trkpt lat="45.98731" lon="3.76296">
        <ele>657</ele>
        <time>2020-05-31T00:04:02Z</time>
      </trkpt>
      <trkpt lat="45.98717" lon="3.76237">
        <ele>655</ele>
        <time>2020-05-31T00:04:09Z</time>
      </trkpt>
      <trkpt lat="45.98648" lon="3.76179">
        <ele>652</ele>
        <time>2020-05-31T00:04:24Z</time>
      </trkpt>
      <trkpt lat="45.98636" lon="3.76152">
        <ele>650</ele>
        <time>2020-05-31T00:04:28Z</time>
      </trkpt>
      <trkpt lat="45.98624" lon="3.76073">
        <ele>643</ele>
        <time>2020-05-31T00:04:38Z</time>
      </trkpt>
      <trkpt lat="45.9863" lon="3.76045">
        <ele>642</ele>
        <time>2020-05-31T00:04:41Z</time>
      </trkpt>
      <trkpt lat="45.98644" lon="3.7603">
        <ele>641</ele>
        <time>2020-05-31T00:04:44Z</time>
      </trkpt>
      <trkpt lat="45.98679" lon="3.76026">
        <ele>637</ele>
        <time>2020-05-31T00:04:51Z</time>
      </trkpt>
      <trkpt lat="45.98694" lon="3.76013">
        <ele>635</ele>
        <time>2020-05-31T00:04:54Z</time>
      </trkpt>
      <trkpt lat="45.98747" lon="3.75933">
        <ele>628</ele>
        <time>2020-05-31T00:05:07Z</time>
      </trkpt>
      <trkpt lat="45.98761" lon="3.75907">
        <ele>625</ele>
        <time>2020-05-31T00:05:11Z</time>
      </trkpt>
      <trkpt lat="45.98814" lon="3.75809">
        <ele>615</ele>
        <time>2020-05-31T00:05:27Z</time>
      </trkpt>
      <trkpt lat="45.98816" lon="3.75784">
        <ele>613</ele>
        <time>2020-05-31T00:05:30Z</time>
      </trkpt>
      <trkpt lat="45.98808" lon="3.75759">
        <ele>612</ele>
        <time>2020-05-31T00:05:33Z</time>
      </trkpt>
      <trkpt lat="45.98744" lon="3.75712">
        <ele>609</ele>
        <time>2020-05-31T00:05:46Z</time>
      </trkpt>
      <trkpt lat="45.98719" lon="3.75715">
        <ele>609</ele>
        <time>2020-05-31T00:05:51Z</time>
      </trkpt>
      <trkpt lat="45.98701" lon="3.75731">
        <ele>611</ele>
        <time>2020-05-31T00:05:54Z</time>
      </trkpt>
      <trkpt lat="45.98675" lon="3.75727">
        <ele>610</ele>
        <time>2020-05-31T00:05:59Z</time>
      </trkpt>
      <trkpt lat="45.98656" lon="3.75705">
        <ele>607</ele>
        <time>2020-05-31T00:06:03Z</time>
      </trkpt>
      <trkpt lat="45.98647" lon="3.75677">
        <ele>604</ele>
        <time>2020-05-31T00:06:07Z</time>
      </trkpt>
      <trkpt lat="45.98654" lon="3.75668">
        <ele>602</ele>
        <time>2020-05-31T00:06:09Z</time>
      </trkpt>
      <trkpt lat="45.98662" lon="3.7566">
        <ele>601</ele>
        <time>2020-05-31T00:06:11Z</time>
      </trkpt>
      <trkpt lat="45.98683" lon="3.75642">
        <ele>603</ele>
        <time>2020-05-31T00:06:15Z</time>
      </trkpt>
      <trkpt lat="45.98681" lon="3.75623">
        <ele>604</ele>
        <time>2020-05-31T00:06:17Z</time>
      </trkpt>
      <trkpt lat="45.98685" lon="3.75601">
        <ele>606</ele>
        <time>2020-05-31T00:06:20Z</time>
      </trkpt>
      <trkpt lat="45.98715" lon="3.75559">
        <ele>617</ele>
        <time>2020-05-31T00:06:28Z</time>
      </trkpt>
      <trkpt lat="45.98782" lon="3.75529">
        <ele>638</ele>
        <time>2020-05-31T00:06:40Z</time>
      </trkpt>
      <trkpt lat="45.98977" lon="3.75618">
        <ele>637</ele>
        <time>2020-05-31T00:07:16Z</time>
      </trkpt>
      <trkpt lat="45.99001" lon="3.75642">
        <ele>633</ele>
        <time>2020-05-31T00:07:22Z</time>
      </trkpt>
      <trkpt lat="45.99041" lon="3.75642">
        <ele>638</ele>
        <time>2020-05-31T00:07:29Z</time>
      </trkpt>
      <trkpt lat="45.99084" lon="3.7562">
        <ele>645</ele>
        <time>2020-05-31T00:07:37Z</time>
      </trkpt>
      <trkpt lat="45.9914" lon="3.75619">
        <ele>646</ele>
        <time>2020-05-31T00:07:47Z</time>
      </trkpt>
      <trkpt lat="45.9917" lon="3.75597">
        <ele>647</ele>
        <time>2020-05-31T00:07:53Z</time>
      </trkpt>
      <trkpt lat="45.992" lon="3.75538">
        <ele>644</ele>
        <time>2020-05-31T00:08:02Z</time>
      </trkpt>
      <trkpt lat="45.99211" lon="3.75481">
        <ele>645</ele>
        <time>2020-05-31T00:08:09Z</time>
      </trkpt>
      <trkpt lat="45.99207" lon="3.7542">
        <ele>646</ele>
        <time>2020-05-31T00:08:17Z</time>
      </trkpt>
      <trkpt lat="45.99187" lon="3.75355">
        <ele>647</ele>
        <time>2020-05-31T00:08:25Z</time>
      </trkpt>
      <trkpt lat="45.99145" lon="3.75308">
        <ele>651</ele>
        <time>2020-05-31T00:08:35Z</time>
      </trkpt>
      <trkpt lat="45.9898" lon="3.75223">
        <ele>678</ele>
        <time>2020-05-31T00:09:06Z</time>
      </trkpt>
      <trkpt lat="45.98964" lon="3.75198">
        <ele>680</ele>
        <time>2020-05-31T00:09:10Z</time>
      </trkpt>
      <trkpt lat="45.98964" lon="3.75172">
        <ele>680</ele>
        <time>2020-05-31T00:09:14Z</time>
      </trkpt>
      <trkpt lat="45.98978" lon="3.75151">
        <ele>679</ele>
        <time>2020-05-31T00:09:17Z</time>
      </trkpt>
      <trkpt lat="45.98984" lon="3.75131">
        <ele>677</ele>
        <time>2020-05-31T00:09:20Z</time>
      </trkpt>
      <trkpt lat="45.98983" lon="3.75112">
        <ele>677</ele>
        <time>2020-05-31T00:09:22Z</time>
      </trkpt>
      <trkpt lat="45.98966" lon="3.75077">
        <ele>678</ele>
        <time>2020-05-31T00:09:27Z</time>
      </trkpt>
      <trkpt lat="45.98947" lon="3.75046">
        <ele>681</ele>
        <time>2020-05-31T00:09:33Z</time>
      </trkpt>
      <trkpt lat="45.9893" lon="3.75009">
        <ele>684</ele>
        <time>2020-05-31T00:09:38Z</time>
      </trkpt>
      <trkpt lat="45.98933" lon="3.74989">
        <ele>684</ele>
        <time>2020-05-31T00:09:41Z</time>
      </trkpt>
      <trkpt lat="45.98956" lon="3.74964">
        <ele>684</ele>
        <time>2020-05-31T00:09:46Z</time>
      </trkpt>
      <trkpt lat="45.98979" lon="3.74919">
        <ele>686</ele>
        <time>2020-05-31T00:09:53Z</time>
      </trkpt>
      <trkpt lat="45.99008" lon="3.74909">
        <ele>684</ele>
        <time>2020-05-31T00:09:58Z</time>
      </trkpt>
      <trkpt lat="45.99015" lon="3.749">
        <ele>682</ele>
        <time>2020-05-31T00:10:00Z</time>
      </trkpt>
      <trkpt lat="45.9902" lon="3.74884">
        <ele>681</ele>
        <time>2020-05-31T00:10:02Z</time>
      </trkpt>
      <trkpt lat="45.99012" lon="3.7486">
        <ele>681</ele>
        <time>2020-05-31T00:10:05Z</time>
      </trkpt>
      <trkpt lat="45.99002" lon="3.74847">
        <ele>682</ele>
        <time>2020-05-31T00:10:07Z</time>
      </trkpt>
      <trkpt lat="45.98989" lon="3.7482">
        <ele>683</ele>
        <time>2020-05-31T00:10:12Z</time>
      </trkpt>
      <trkpt lat="45.98976" lon="3.74756">
        <ele>683</ele>
        <time>2020-05-31T00:10:20Z</time>
      </trkpt>
      <trkpt lat="45.98931" lon="3.74692">
        <ele>686</ele>
        <time>2020-05-31T00:10:31Z</time>
      </trkpt>
      <trkpt lat="45.98876" lon="3.74662">
        <ele>688</ele>
        <time>2020-05-31T00:10:42Z</time>
      </trkpt>
      <trkpt lat="45.98846" lon="3.74651">
        <ele>689</ele>
        <time>2020-05-31T00:10:47Z</time>
      </trkpt>
      <trkpt lat="45.98816" lon="3.7464">
        <ele>689</ele>
        <time>2020-05-31T00:10:53Z</time>
      </trkpt>
      <trkpt lat="45.98704" lon="3.74611">
        <ele>694</ele>
        <time>2020-05-31T00:11:13Z</time>
      </trkpt>
      <trkpt lat="45.98698" lon="3.7461">
        <ele>694</ele>
        <time>2020-05-31T00:11:14Z</time>
      </trkpt>
      <trkpt lat="45.98659" lon="3.74585">
        <ele>695</ele>
        <time>2020-05-31T00:11:21Z</time>
      </trkpt>
      <trkpt lat="45.98646" lon="3.74566">
        <ele>696</ele>
        <time>2020-05-31T00:11:25Z</time>
      </trkpt>
      <trkpt lat="45.98643" lon="3.74554">
        <ele>696</ele>
        <time>2020-05-31T00:11:26Z</time>
      </trkpt>
      <trkpt lat="45.98642" lon="3.74543">
        <ele>696</ele>
        <time>2020-05-31T00:11:28Z</time>
      </trkpt>
      <trkpt lat="45.98643" lon="3.74484">
        <ele>695</ele>
        <time>2020-05-31T00:11:35Z</time>
      </trkpt>
      <trkpt lat="45.98641" lon="3.74453">
        <ele>694</ele>
        <time>2020-05-31T00:11:39Z</time>
      </trkpt>
      <trkpt lat="45.98638" lon="3.74394">
        <ele>693</ele>
        <time>2020-05-31T00:11:46Z</time>
      </trkpt>
      <trkpt lat="45.98642" lon="3.74331">
        <ele>693</ele>
        <time>2020-05-31T00:11:54Z</time>
      </trkpt>
      <trkpt lat="45.98643" lon="3.74306">
        <ele>694</ele>
        <time>2020-05-31T00:11:57Z</time>
      </trkpt>
      <trkpt lat="45.98639" lon="3.7427">
        <ele>695</ele>
        <time>2020-05-31T00:12:02Z</time>
      </trkpt>
      <trkpt lat="45.98639" lon="3.74243">
        <ele>696</ele>
        <time>2020-05-31T00:12:05Z</time>
      </trkpt>
      <trkpt lat="45.98639" lon="3.74217">
        <ele>699</ele>
        <time>2020-05-31T00:12:08Z</time>
      </trkpt>
      <trkpt lat="45.9864" lon="3.74182">
        <ele>703</ele>
        <time>2020-05-31T00:12:12Z</time>
      </trkpt>
      <trkpt lat="45.98605" lon="3.74195">
        <ele>703</ele>
        <time>2020-05-31T00:12:19Z</time>
      </trkpt>
      <trkpt lat="45.98594" lon="3.74136">
        <ele>711</ele>
        <time>2020-05-31T00:12:26Z</time>
      </trkpt>
      <trkpt lat="45.98584" lon="3.74134">
        <ele>712</ele>
        <time>2020-05-31T00:12:28Z</time>
      </trkpt>
      <trkpt lat="45.98558" lon="3.74138">
        <ele>714</ele>
        <time>2020-05-31T00:12:33Z</time>
      </trkpt>
      <trkpt lat="45.98548" lon="3.74077">
        <ele>723</ele>
        <time>2020-05-31T00:12:41Z</time>
      </trkpt>
      <trkpt lat="45.98525" lon="3.74083">
        <ele>724</ele>
        <time>2020-05-31T00:12:45Z</time>
      </trkpt>
      <trkpt lat="45.9845" lon="3.74077">
        <ele>727</ele>
        <time>2020-05-31T00:12:58Z</time>
      </trkpt>
      <trkpt lat="45.98429" lon="3.74081">
        <ele>726</ele>
        <time>2020-05-31T00:13:02Z</time>
      </trkpt>
      <trkpt lat="45.98419" lon="3.74075">
        <ele>727</ele>
        <time>2020-05-31T00:13:04Z</time>
      </trkpt>
      <trkpt lat="45.98406" lon="3.74031">
        <ele>728</ele>
        <time>2020-05-31T00:13:10Z</time>
      </trkpt>
      <trkpt lat="45.98411" lon="3.74007">
        <ele>730</ele>
        <time>2020-05-31T00:13:13Z</time>
      </trkpt>
      <trkpt lat="45.9848" lon="3.73931">
        <ele>744</ele>
        <time>2020-05-31T00:13:28Z</time>
      </trkpt>
      <trkpt lat="45.98484" lon="3.73911">
        <ele>746</ele>
        <time>2020-05-31T00:13:31Z</time>
      </trkpt>
      <trkpt lat="45.98481" lon="3.73887">
        <ele>749</ele>
        <time>2020-05-31T00:13:34Z</time>
      </trkpt>
      <trkpt lat="45.98464" lon="3.73841">
        <ele>755</ele>
        <time>2020-05-31T00:13:40Z</time>
      </trkpt>
      <trkpt lat="45.98423" lon="3.73789">
        <ele>767</ele>
        <time>2020-05-31T00:13:50Z</time>
      </trkpt>
      <trkpt lat="45.98402" lon="3.73751">
        <ele>776</ele>
        <time>2020-05-31T00:13:56Z</time>
      </trkpt>
      <trkpt lat="45.98322" lon="3.73723">
        <ele>785</ele>
        <time>2020-05-31T00:14:11Z</time>
      </trkpt>
      <trkpt lat="45.983" lon="3.73704">
        <ele>789</ele>
        <time>2020-05-31T00:14:15Z</time>
      </trkpt>
      <trkpt lat="45.9824" lon="3.73594">
        <ele>804</ele>
        <time>2020-05-31T00:14:33Z</time>
      </trkpt>
      <trkpt lat="45.98218" lon="3.73484">
        <ele>820</ele>
        <time>2020-05-31T00:14:47Z</time>
      </trkpt>
      <trkpt lat="45.98099" lon="3.7348">
        <ele>825</ele>
        <time>2020-05-31T00:15:08Z</time>
      </trkpt>
      <trkpt lat="45.97987" lon="3.73427">
        <ele>841</ele>
        <time>2020-05-31T00:15:29Z</time>
      </trkpt>
      <trkpt lat="45.97948" lon="3.73434">
        <ele>837</ele>
        <time>2020-05-31T00:15:36Z</time>
      </trkpt>
      <trkpt lat="45.97851" lon="3.73391">
        <ele>842</ele>
        <time>2020-05-31T00:15:54Z</time>
      </trkpt>
      <trkpt lat="45.97821" lon="3.73389">
        <ele>842</ele>
        <time>2020-05-31T00:15:59Z</time>
      </trkpt>
      <trkpt lat="45.97765" lon="3.73353">
        <ele>845</ele>
        <time>2020-05-31T00:16:10Z</time>
      </trkpt>
      <trkpt lat="45.97714" lon="3.733">
        <ele>851</ele>
        <time>2020-05-31T00:16:21Z</time>
      </trkpt>
      <trkpt lat="45.97677" lon="3.73238">
        <ele>857</ele>
        <time>2020-05-31T00:16:31Z</time>
      </trkpt>
      <trkpt lat="45.97636" lon="3.73127">
        <ele>862</ele>
        <time>2020-05-31T00:16:47Z</time>
      </trkpt>
      <trkpt lat="45.97626" lon="3.73089">
        <ele>863</ele>
        <time>2020-05-31T00:16:52Z</time>
      </trkpt>
      <trkpt lat="45.97621" lon="3.73045">
        <ele>865</ele>
        <time>2020-05-31T00:16:58Z</time>
      </trkpt>
      <trkpt lat="45.97612" lon="3.73004">
        <ele>865</ele>
        <time>2020-05-31T00:17:03Z</time>
      </trkpt>
      <trkpt lat="45.9761" lon="3.72891">
        <ele>862</ele>
        <time>2020-05-31T00:17:17Z</time>
      </trkpt>
      <trkpt lat="45.97606" lon="3.72867">
        <ele>860</ele>
        <time>2020-05-31T00:17:20Z</time>
      </trkpt>
      <trkpt lat="45.97583" lon="3.72884">
        <ele>856</ele>
        <time>2020-05-31T00:17:25Z</time>
      </trkpt>
      <trkpt lat="45.97549" lon="3.72897">
        <ele>849</ele>
        <time>2020-05-31T00:17:31Z</time>
      </trkpt>
      <trkpt lat="45.97524" lon="3.72897">
        <ele>844</ele>
        <time>2020-05-31T00:17:35Z</time>
      </trkpt>
      <trkpt lat="45.9751" lon="3.72891">
        <ele>841</ele>
        <time>2020-05-31T00:17:38Z</time>
      </trkpt>
      <trkpt lat="45.97499" lon="3.72879">
        <ele>838</ele>
        <time>2020-05-31T00:17:40Z</time>
      </trkpt>
      <trkpt lat="45.97497" lon="3.7286">
        <ele>836</ele>
        <time>2020-05-31T00:17:43Z</time>
      </trkpt>
      <trkpt lat="45.97504" lon="3.72813">
        <ele>835</ele>
        <time>2020-05-31T00:17:49Z</time>
      </trkpt>
      <trkpt lat="45.97505" lon="3.72792">
        <ele>835</ele>
        <time>2020-05-31T00:17:51Z</time>
      </trkpt>
      <trkpt lat="45.97487" lon="3.72719">
        <ele>832</ele>
        <time>2020-05-31T00:18:01Z</time>
      </trkpt>
      <trkpt lat="45.97459" lon="3.72655">
        <ele>830</ele>
        <time>2020-05-31T00:18:10Z</time>
      </trkpt>
      <trkpt lat="45.97442" lon="3.72631">
        <ele>830</ele>
        <time>2020-05-31T00:18:14Z</time>
      </trkpt>
      <trkpt lat="45.9742" lon="3.7263">
        <ele>827</ele>
        <time>2020-05-31T00:18:18Z</time>
      </trkpt>
      <trkpt lat="45.97397" lon="3.72621">
        <ele>826</ele>
        <time>2020-05-31T00:18:23Z</time>
      </trkpt>
      <trkpt lat="45.97371" lon="3.72623">
        <ele>824</ele>
        <time>2020-05-31T00:18:27Z</time>
      </trkpt>
      <trkpt lat="45.97353" lon="3.72615">
        <ele>823</ele>
        <time>2020-05-31T00:18:31Z</time>
      </trkpt>
      <trkpt lat="45.97339" lon="3.72594">
        <ele>824</ele>
        <time>2020-05-31T00:18:34Z</time>
      </trkpt>
      <trkpt lat="45.97327" lon="3.72595">
        <ele>823</ele>
        <time>2020-05-31T00:18:36Z</time>
      </trkpt>
      <trkpt lat="45.97321" lon="3.7258">
        <ele>823</ele>
        <time>2020-05-31T00:18:38Z</time>
      </trkpt>
      <trkpt lat="45.97327" lon="3.72538">
        <ele>823</ele>
        <time>2020-05-31T00:18:44Z</time>
      </trkpt>
      <trkpt lat="45.97343" lon="3.72513">
        <ele>825</ele>
        <time>2020-05-31T00:18:48Z</time>
      </trkpt>
      <trkpt lat="45.97364" lon="3.72507">
        <ele>827</ele>
        <time>2020-05-31T00:18:52Z</time>
      </trkpt>
      <trkpt lat="45.9737" lon="3.72491">
        <ele>827</ele>
        <time>2020-05-31T00:18:54Z</time>
      </trkpt>
      <trkpt lat="45.97363" lon="3.7245">
        <ele>826</ele>
        <time>2020-05-31T00:18:59Z</time>
      </trkpt>
      <trkpt lat="45.97394" lon="3.72367">
        <ele>829</ele>
        <time>2020-05-31T00:19:11Z</time>
      </trkpt>
      <trkpt lat="45.97406" lon="3.72284">
        <ele>831</ele>
        <time>2020-05-31T00:19:21Z</time>
      </trkpt>
      <trkpt lat="45.97404" lon="3.72258">
        <ele>831</ele>
        <time>2020-05-31T00:19:25Z</time>
      </trkpt>
      <trkpt lat="45.97372" lon="3.72176">
        <ele>827</ele>
        <time>2020-05-31T00:19:36Z</time>
      </trkpt>
      <trkpt lat="45.97329" lon="3.72101">
        <ele>821</ele>
        <time>2020-05-31T00:19:48Z</time>
      </trkpt>
      <trkpt lat="45.9732" lon="3.72061">
        <ele>821</ele>
        <time>2020-05-31T00:19:53Z</time>
      </trkpt>
      <trkpt lat="45.97322" lon="3.72027">
        <ele>821</ele>
        <time>2020-05-31T00:19:58Z</time>
      </trkpt>
      <trkpt lat="45.9733" lon="3.71959">
        <ele>820</ele>
        <time>2020-05-31T00:20:06Z</time>
      </trkpt>
      <trkpt lat="45.97331" lon="3.71848">
        <ele>817</ele>
        <time>2020-05-31T00:20:20Z</time>
      </trkpt>
      <trkpt lat="45.97357" lon="3.7167">
        <ele>816</ele>
        <time>2020-05-31T00:20:42Z</time>
      </trkpt>
      <trkpt lat="45.9736" lon="3.71589">
        <ele>816</ele>
        <time>2020-05-31T00:20:52Z</time>
      </trkpt>
      <trkpt lat="45.97354" lon="3.7154">
        <ele>816</ele>
        <time>2020-05-31T00:20:59Z</time>
      </trkpt>
      <trkpt lat="45.97348" lon="3.7156">
        <ele>813</ele>
        <time>2020-05-31T00:21:01Z</time>
      </trkpt>
      <trkpt lat="45.97339" lon="3.71577">
        <ele>810</ele>
        <time>2020-05-31T00:21:04Z</time>
      </trkpt>
      <trkpt lat="45.97322" lon="3.71592">
        <ele>807</ele>
        <time>2020-05-31T00:21:07Z</time>
      </trkpt>
      <trkpt lat="45.97266" lon="3.7162">
        <ele>803</ele>
        <time>2020-05-31T00:21:18Z</time>
      </trkpt>
      <trkpt lat="45.97208" lon="3.71674">
        <ele>799</ele>
        <time>2020-05-31T00:21:30Z</time>
      </trkpt>
      <trkpt lat="45.97177" lon="3.71728">
        <ele>797</ele>
        <time>2020-05-31T00:21:39Z</time>
      </trkpt>
      <trkpt lat="45.97171" lon="3.71752">
        <ele>797</ele>
        <time>2020-05-31T00:21:42Z</time>
      </trkpt>
      <trkpt lat="45.97171" lon="3.7176">
        <ele>797</ele>
        <time>2020-05-31T00:21:43Z</time>
      </trkpt>
      <trkpt lat="45.9717" lon="3.71779">
        <ele>796</ele>
        <time>2020-05-31T00:21:45Z</time>
      </trkpt>
      <trkpt lat="45.97176" lon="3.71813">
        <ele>795</ele>
        <time>2020-05-31T00:21:50Z</time>
      </trkpt>
      <trkpt lat="45.97193" lon="3.7187">
        <ele>795</ele>
        <time>2020-05-31T00:21:57Z</time>
      </trkpt>
      <trkpt lat="45.97195" lon="3.71901">
        <ele>794</ele>
        <time>2020-05-31T00:22:01Z</time>
      </trkpt>
      <trkpt lat="45.97192" lon="3.71924">
        <ele>793</ele>
        <time>2020-05-31T00:22:04Z</time>
      </trkpt>
      <trkpt lat="45.97178" lon="3.71971">
        <ele>793</ele>
        <time>2020-05-31T00:22:11Z</time>
      </trkpt>
      <trkpt lat="45.97149" lon="3.72053">
        <ele>788</ele>
        <time>2020-05-31T00:22:22Z</time>
      </trkpt>
      <trkpt lat="45.97145" lon="3.72082">
        <ele>787</ele>
        <time>2020-05-31T00:22:26Z</time>
      </trkpt>
      <trkpt lat="45.97145" lon="3.72132">
        <ele>786</ele>
        <time>2020-05-31T00:22:32Z</time>
      </trkpt>
      <trkpt lat="45.97145" lon="3.72143">
        <ele>785</ele>
        <time>2020-05-31T00:22:33Z</time>
      </trkpt>
      <trkpt lat="45.9714" lon="3.72177">
        <ele>784</ele>
        <time>2020-05-31T00:22:37Z</time>
      </trkpt>
      <trkpt lat="45.97129" lon="3.72202">
        <ele>783</ele>
        <time>2020-05-31T00:22:41Z</time>
      </trkpt>
      <trkpt lat="45.97112" lon="3.72217">
        <ele>781</ele>
        <time>2020-05-31T00:22:45Z</time>
      </trkpt>
      <trkpt lat="45.96889" lon="3.72304">
        <ele>769</ele>
        <time>2020-05-31T00:23:26Z</time>
      </trkpt>
      <trkpt lat="45.96856" lon="3.72343">
        <ele>767</ele>
        <time>2020-05-31T00:23:33Z</time>
      </trkpt>
      <trkpt lat="45.96836" lon="3.72403">
        <ele>765</ele>
        <time>2020-05-31T00:23:42Z</time>
      </trkpt>
      <trkpt lat="45.96834" lon="3.72476">
        <ele>762</ele>
        <time>2020-05-31T00:23:51Z</time>
      </trkpt>
      <trkpt lat="45.96866" lon="3.72606">
        <ele>760</ele>
        <time>2020-05-31T00:24:08Z</time>
      </trkpt>
      <trkpt lat="45.96874" lon="3.7266">
        <ele>759</ele>
        <time>2020-05-31T00:24:14Z</time>
      </trkpt>
      <trkpt lat="45.96869" lon="3.72688">
        <ele>760</ele>
        <time>2020-05-31T00:24:18Z</time>
      </trkpt>
      <trkpt lat="45.96859" lon="3.72712">
        <ele>760</ele>
        <time>2020-05-31T00:24:21Z</time>
      </trkpt>
      <trkpt lat="45.96839" lon="3.72735">
        <ele>760</ele>
        <time>2020-05-31T00:24:26Z</time>
      </trkpt>
      <trkpt lat="45.96806" lon="3.72761">
        <ele>757</ele>
        <time>2020-05-31T00:24:33Z</time>
      </trkpt>
      <trkpt lat="45.96764" lon="3.72806">
        <ele>753</ele>
        <time>2020-05-31T00:24:42Z</time>
      </trkpt>
      <trkpt lat="45.96724" lon="3.72862">
        <ele>748</ele>
        <time>2020-05-31T00:24:52Z</time>
      </trkpt>
      <trkpt lat="45.96686" lon="3.72935">
        <ele>744</ele>
        <time>2020-05-31T00:25:03Z</time>
      </trkpt>
      <trkpt lat="45.96673" lon="3.72996">
        <ele>748</ele>
        <time>2020-05-31T00:25:11Z</time>
      </trkpt>
      <trkpt lat="45.96669" lon="3.73045">
        <ele>745</ele>
        <time>2020-05-31T00:25:17Z</time>
      </trkpt>
      <trkpt lat="45.96683" lon="3.7307">
        <ele>744</ele>
        <time>2020-05-31T00:25:21Z</time>
      </trkpt>
      <trkpt lat="45.96709" lon="3.73083">
        <ele>745</ele>
        <time>2020-05-31T00:25:26Z</time>
      </trkpt>
      <trkpt lat="45.96747" lon="3.73092">
        <ele>746</ele>
        <time>2020-05-31T00:25:33Z</time>
      </trkpt>
      <trkpt lat="45.9676" lon="3.73099">
        <ele>746</ele>
        <time>2020-05-31T00:25:35Z</time>
      </trkpt>
      <trkpt lat="45.96769" lon="3.73115">
        <ele>744</ele>
        <time>2020-05-31T00:25:38Z</time>
      </trkpt>
      <trkpt lat="45.96772" lon="3.73135">
        <ele>741</ele>
        <time>2020-05-31T00:25:41Z</time>
      </trkpt>
      <trkpt lat="45.96771" lon="3.73151">
        <ele>739</ele>
        <time>2020-05-31T00:25:43Z</time>
      </trkpt>
      <trkpt lat="45.96759" lon="3.73176">
        <ele>735</ele>
        <time>2020-05-31T00:25:46Z</time>
      </trkpt>
      <trkpt lat="45.96751" lon="3.73184">
        <ele>734</ele>
        <time>2020-05-31T00:25:48Z</time>
      </trkpt>
      <trkpt lat="45.96671" lon="3.73245">
        <ele>729</ele>
        <time>2020-05-31T00:26:04Z</time>
      </trkpt>
      <trkpt lat="45.96593" lon="3.7329">
        <ele>726</ele>
        <time>2020-05-31T00:26:19Z</time>
      </trkpt>
      <trkpt lat="45.96574" lon="3.73301">
        <ele>725</ele>
        <time>2020-05-31T00:26:23Z</time>
      </trkpt>
      <trkpt lat="45.96551" lon="3.73325">
        <ele>723</ele>
        <time>2020-05-31T00:26:28Z</time>
      </trkpt>
      <trkpt lat="45.96537" lon="3.73338">
        <ele>722</ele>
        <time>2020-05-31T00:26:31Z</time>
      </trkpt>
      <trkpt lat="45.96509" lon="3.73379">
        <ele>719</ele>
        <time>2020-05-31T00:26:38Z</time>
      </trkpt>
      <trkpt lat="45.96484" lon="3.73428">
        <ele>717</ele>
        <time>2020-05-31T00:26:45Z</time>
      </trkpt>
      <trkpt lat="45.96464" lon="3.73488">
        <ele>714</ele>
        <time>2020-05-31T00:26:54Z</time>
      </trkpt>
      <trkpt lat="45.9645" lon="3.73554">
        <ele>712</ele>
        <time>2020-05-31T00:27:02Z</time>
      </trkpt>
      <trkpt lat="45.96448" lon="3.7358">
        <ele>711</ele>
        <time>2020-05-31T00:27:05Z</time>
      </trkpt>
      <trkpt lat="45.96451" lon="3.73633">
        <ele>712</ele>
        <time>2020-05-31T00:27:12Z</time>
      </trkpt>
      <trkpt lat="45.9645" lon="3.73655">
        <ele>711</ele>
        <time>2020-05-31T00:27:15Z</time>
      </trkpt>
      <trkpt lat="45.96445" lon="3.73675">
        <ele>710</ele>
        <time>2020-05-31T00:27:17Z</time>
      </trkpt>
      <trkpt lat="45.96415" lon="3.73722">
        <ele>706</ele>
        <time>2020-05-31T00:27:25Z</time>
      </trkpt>
      <trkpt lat="45.96405" lon="3.73752">
        <ele>705</ele>
        <time>2020-05-31T00:27:29Z</time>
      </trkpt>
      <trkpt lat="45.964" lon="3.73784">
        <ele>705</ele>
        <time>2020-05-31T00:27:33Z</time>
      </trkpt>
      <trkpt lat="45.96377" lon="3.74131">
        <ele>694</ele>
        <time>2020-05-31T00:28:16Z</time>
      </trkpt>
      <trkpt lat="45.96361" lon="3.74337">
        <ele>687</ele>
        <time>2020-05-31T00:28:42Z</time>
      </trkpt>
      <trkpt lat="45.96357" lon="3.74373">
        <ele>686</ele>
        <time>2020-05-31T00:28:47Z</time>
      </trkpt>
      <trkpt lat="45.96336" lon="3.74398">
        <ele>685</ele>
        <time>2020-05-31T00:28:51Z</time>
      </trkpt>
      <trkpt lat="45.96331" lon="3.74403">
        <ele>684</ele>
        <time>2020-05-31T00:28:53Z</time>
      </trkpt>
      <trkpt lat="45.96319" lon="3.74417">
        <ele>684</ele>
        <time>2020-05-31T00:28:55Z</time>
      </trkpt>
      <trkpt lat="45.96307" lon="3.74429">
        <ele>685</ele>
        <time>2020-05-31T00:28:58Z</time>
      </trkpt>
      <trkpt lat="45.96295" lon="3.74448">
        <ele>686</ele>
        <time>2020-05-31T00:29:01Z</time>
      </trkpt>
      <trkpt lat="45.9629" lon="3.74468">
        <ele>688</ele>
        <time>2020-05-31T00:29:04Z</time>
      </trkpt>
      <trkpt lat="45.96289" lon="3.74476">
        <ele>688</ele>
        <time>2020-05-31T00:29:05Z</time>
      </trkpt>
      <trkpt lat="45.96293" lon="3.74491">
        <ele>689</ele>
        <time>2020-05-31T00:29:07Z</time>
      </trkpt>
      <trkpt lat="45.96305" lon="3.74504">
        <ele>689</ele>
        <time>2020-05-31T00:29:09Z</time>
      </trkpt>
      <trkpt lat="45.96333" lon="3.74522">
        <ele>692</ele>
        <time>2020-05-31T00:29:15Z</time>
      </trkpt>
      <trkpt lat="45.9635" lon="3.74543">
        <ele>694</ele>
        <time>2020-05-31T00:29:19Z</time>
      </trkpt>
      <trkpt lat="45.96363" lon="3.74571">
        <ele>697</ele>
        <time>2020-05-31T00:29:23Z</time>
      </trkpt>
      <trkpt lat="45.9639" lon="3.74639">
        <ele>700</ele>
        <time>2020-05-31T00:29:33Z</time>
      </trkpt>
      <trkpt lat="45.96408" lon="3.74682">
        <ele>702</ele>
        <time>2020-05-31T00:29:39Z</time>
      </trkpt>
      <trkpt lat="45.96427" lon="3.74716">
        <ele>705</ele>
        <time>2020-05-31T00:29:44Z</time>
      </trkpt>
      <trkpt lat="45.96494" lon="3.74789">
        <ele>706</ele>
        <time>2020-05-31T00:29:59Z</time>
      </trkpt>
      <trkpt lat="45.96508" lon="3.74807">
        <ele>706</ele>
        <time>2020-05-31T00:30:03Z</time>
      </trkpt>
      <trkpt lat="45.96514" lon="3.74826">
        <ele>708</ele>
        <time>2020-05-31T00:30:05Z</time>
      </trkpt>
      <trkpt lat="45.96519" lon="3.74847">
        <ele>710</ele>
        <time>2020-05-31T00:30:08Z</time>
      </trkpt>
      <trkpt lat="45.96524" lon="3.74913">
        <ele>713</ele>
        <time>2020-05-31T00:30:16Z</time>
      </trkpt>
      <trkpt lat="45.96535" lon="3.74972">
        <ele>712</ele>
        <time>2020-05-31T00:30:24Z</time>
      </trkpt>
      <trkpt lat="45.96537" lon="3.75007">
        <ele>711</ele>
        <time>2020-05-31T00:30:28Z</time>
      </trkpt>
      <trkpt lat="45.96535" lon="3.75024">
        <ele>710</ele>
        <time>2020-05-31T00:30:30Z</time>
      </trkpt>
      <trkpt lat="45.96529" lon="3.75036">
        <ele>710</ele>
        <time>2020-05-31T00:30:32Z</time>
      </trkpt>
      <trkpt lat="45.96516" lon="3.75052">
        <ele>711</ele>
        <time>2020-05-31T00:30:35Z</time>
      </trkpt>
      <trkpt lat="45.96499" lon="3.75057">
        <ele>712</ele>
        <time>2020-05-31T00:30:38Z</time>
      </trkpt>
      <trkpt lat="45.96487" lon="3.75054">
        <ele>714</ele>
        <time>2020-05-31T00:30:40Z</time>
      </trkpt>
      <trkpt lat="45.96476" lon="3.75049">
        <ele>716</ele>
        <time>2020-05-31T00:30:42Z</time>
      </trkpt>
      <trkpt lat="45.96461" lon="3.75027">
        <ele>719</ele>
        <time>2020-05-31T00:30:46Z</time>
      </trkpt>
      <trkpt lat="45.96451" lon="3.75002">
        <ele>721</ele>
        <time>2020-05-31T00:30:50Z</time>
      </trkpt>
      <trkpt lat="45.96446" lon="3.74975">
        <ele>722</ele>
        <time>2020-05-31T00:30:53Z</time>
      </trkpt>
      <trkpt lat="45.96442" lon="3.74921">
        <ele>723</ele>
        <time>2020-05-31T00:31:00Z</time>
      </trkpt>
      <trkpt lat="45.96435" lon="3.74893">
        <ele>723</ele>
        <time>2020-05-31T00:31:04Z</time>
      </trkpt>
      <trkpt lat="45.9642" lon="3.74871">
        <ele>724</ele>
        <time>2020-05-31T00:31:07Z</time>
      </trkpt>
      <trkpt lat="45.96329" lon="3.74794">
        <ele>733</ele>
        <time>2020-05-31T00:31:26Z</time>
      </trkpt>
      <trkpt lat="45.96309" lon="3.74782">
        <ele>734</ele>
        <time>2020-05-31T00:31:30Z</time>
      </trkpt>
      <trkpt lat="45.96236" lon="3.74751">
        <ele>739</ele>
        <time>2020-05-31T00:31:44Z</time>
      </trkpt>
      <trkpt lat="45.96212" lon="3.74745">
        <ele>739</ele>
        <time>2020-05-31T00:31:48Z</time>
      </trkpt>
      <trkpt lat="45.96196" lon="3.74753">
        <ele>740</ele>
        <time>2020-05-31T00:31:51Z</time>
      </trkpt>
      <trkpt lat="45.96173" lon="3.74772">
        <ele>742</ele>
        <time>2020-05-31T00:31:56Z</time>
      </trkpt>
      <trkpt lat="45.96161" lon="3.74785">
        <ele>742</ele>
        <time>2020-05-31T00:31:58Z</time>
      </trkpt>
      <trkpt lat="45.96158" lon="3.74799">
        <ele>743</ele>
        <time>2020-05-31T00:32:00Z</time>
      </trkpt>
      <trkpt lat="45.96157" lon="3.74807">
        <ele>743</ele>
        <time>2020-05-31T00:32:01Z</time>
      </trkpt>
      <trkpt lat="45.96156" lon="3.74839">
        <ele>745</ele>
        <time>2020-05-31T00:32:05Z</time>
      </trkpt>
      <trkpt lat="45.96159" lon="3.74873">
        <ele>747</ele>
        <time>2020-05-31T00:32:09Z</time>
      </trkpt>
      <trkpt lat="45.96149" lon="3.74891">
        <ele>748</ele>
        <time>2020-05-31T00:32:12Z</time>
      </trkpt>
      <trkpt lat="45.96144" lon="3.74895">
        <ele>748</ele>
        <time>2020-05-31T00:32:13Z</time>
      </trkpt>
      <trkpt lat="45.96101" lon="3.74933">
        <ele>749</ele>
        <time>2020-05-31T00:32:22Z</time>
      </trkpt>
      <trkpt lat="45.96068" lon="3.74981">
        <ele>749</ele>
        <time>2020-05-31T00:32:30Z</time>
      </trkpt>
      <trkpt lat="45.96024" lon="3.75066">
        <ele>750</ele>
        <time>2020-05-31T00:32:44Z</time>
      </trkpt>
      <trkpt lat="45.95913" lon="3.752">
        <ele>752</ele>
        <time>2020-05-31T00:33:09Z</time>
      </trkpt>
      <trkpt lat="45.95911" lon="3.75202">
        <ele>752</ele>
        <time>2020-05-31T00:33:10Z</time>
      </trkpt>
      <trkpt lat="45.95899" lon="3.75216">
        <ele>753</ele>
        <time>2020-05-31T00:33:13Z</time>
      </trkpt>
      <trkpt lat="45.95861" lon="3.75266">
        <ele>756</ele>
        <time>2020-05-31T00:33:22Z</time>
      </trkpt>
      <trkpt lat="45.95839" lon="3.75292">
        <ele>757</ele>
        <time>2020-05-31T00:33:27Z</time>
      </trkpt>
      <trkpt lat="45.95822" lon="3.75309">
        <ele>758</ele>
        <time>2020-05-31T00:33:30Z</time>
      </trkpt>
      <trkpt lat="45.95586" lon="3.75532">
        <ele>776</ele>
        <time>2020-05-31T00:34:21Z</time>
      </trkpt>
      <trkpt lat="45.95563" lon="3.75559">
        <ele>776</ele>
        <time>2020-05-31T00:34:26Z</time>
      </trkpt>
      <trkpt lat="45.95555" lon="3.75592">
        <ele>776</ele>
        <time>2020-05-31T00:34:30Z</time>
      </trkpt>
      <trkpt lat="45.95548" lon="3.75676">
        <ele>773</ele>
        <time>2020-05-31T00:34:41Z</time>
      </trkpt>
      <trkpt lat="45.95545" lon="3.75741">
        <ele>772</ele>
        <time>2020-05-31T00:34:49Z</time>
      </trkpt>
      <trkpt lat="45.95552" lon="3.75807">
        <ele>772</ele>
        <time>2020-05-31T00:34:57Z</time>
      </trkpt>
      <trkpt lat="45.95549" lon="3.75843">
        <ele>772</ele>
        <time>2020-05-31T00:35:02Z</time>
      </trkpt>
      <trkpt lat="45.95538" lon="3.75871">
        <ele>770</ele>
        <time>2020-05-31T00:35:06Z</time>
      </trkpt>
      <trkpt lat="45.95522" lon="3.75891">
        <ele>768</ele>
        <time>2020-05-31T00:35:09Z</time>
      </trkpt>
      <trkpt lat="45.95505" lon="3.75906">
        <ele>766</ele>
        <time>2020-05-31T00:35:13Z</time>
      </trkpt>
      <trkpt lat="45.95493" lon="3.75909">
        <ele>765</ele>
        <time>2020-05-31T00:35:15Z</time>
      </trkpt>
      <trkpt lat="45.95483" lon="3.75913">
        <ele>765</ele>
        <time>2020-05-31T00:35:17Z</time>
      </trkpt>
      <trkpt lat="45.95454" lon="3.75913">
        <ele>763</ele>
        <time>2020-05-31T00:35:22Z</time>
      </trkpt>
      <trkpt lat="45.95434" lon="3.7592">
        <ele>761</ele>
        <time>2020-05-31T00:35:26Z</time>
      </trkpt>
      <trkpt lat="45.95408" lon="3.75933">
        <ele>760</ele>
        <time>2020-05-31T00:35:31Z</time>
      </trkpt>
      <trkpt lat="45.95372" lon="3.75987">
        <ele>758</ele>
        <time>2020-05-31T00:35:40Z</time>
      </trkpt>
      <trkpt lat="45.95359" lon="3.76031">
        <ele>757</ele>
        <time>2020-05-31T00:35:46Z</time>
      </trkpt>
      <trkpt lat="45.95361" lon="3.761">
        <ele>758</ele>
        <time>2020-05-31T00:35:54Z</time>
      </trkpt>
      <trkpt lat="45.95365" lon="3.76133">
        <ele>757</ele>
        <time>2020-05-31T00:35:58Z</time>
      </trkpt>
      <trkpt lat="45.9536" lon="3.76168">
        <ele>756</ele>
        <time>2020-05-31T00:36:03Z</time>
      </trkpt>
      <trkpt lat="45.95345" lon="3.762">
        <ele>755</ele>
        <time>2020-05-31T00:36:08Z</time>
      </trkpt>
      <trkpt lat="45.95328" lon="3.76216">
        <ele>754</ele>
        <time>2020-05-31T00:36:11Z</time>
      </trkpt>
      <trkpt lat="45.95317" lon="3.76221">
        <ele>753</ele>
        <time>2020-05-31T00:36:13Z</time>
      </trkpt>
      <trkpt lat="45.95234" lon="3.76236">
        <ele>746</ele>
        <time>2020-05-31T00:36:28Z</time>
      </trkpt>
      <trkpt lat="45.95207" lon="3.76247">
        <ele>744</ele>
        <time>2020-05-31T00:36:33Z</time>
      </trkpt>
      <trkpt lat="45.95178" lon="3.76267">
        <ele>742</ele>
        <time>2020-05-31T00:36:39Z</time>
      </trkpt>
      <trkpt lat="45.95148" lon="3.76302">
        <ele>740</ele>
        <time>2020-05-31T00:36:46Z</time>
      </trkpt>
      <trkpt lat="45.95116" lon="3.76357">
        <ele>739</ele>
        <time>2020-05-31T00:36:55Z</time>
      </trkpt>
      <trkpt lat="45.95083" lon="3.76423">
        <ele>738</ele>
        <time>2020-05-31T00:37:05Z</time>
      </trkpt>
      <trkpt lat="45.94966" lon="3.76668">
        <ele>730</ele>
        <time>2020-05-31T00:37:42Z</time>
      </trkpt>
      <trkpt lat="45.94853" lon="3.76916">
        <ele>722</ele>
        <time>2020-05-31T00:38:18Z</time>
      </trkpt>
      <trkpt lat="45.9484" lon="3.76964">
        <ele>721</ele>
        <time>2020-05-31T00:38:25Z</time>
      </trkpt>
      <trkpt lat="45.94823" lon="3.77061">
        <ele>718</ele>
        <time>2020-05-31T00:38:37Z</time>
      </trkpt>
      <trkpt lat="45.94785" lon="3.77299">
        <ele>710</ele>
        <time>2020-05-31T00:39:07Z</time>
      </trkpt>
      <trkpt lat="45.94778" lon="3.77349">
        <ele>708</ele>
        <time>2020-05-31T00:39:13Z</time>
      </trkpt>
      <trkpt lat="45.94778" lon="3.77383">
        <ele>707</ele>
        <time>2020-05-31T00:39:18Z</time>
      </trkpt>
      <trkpt lat="45.94784" lon="3.77493">
        <ele>703</ele>
        <time>2020-05-31T00:39:31Z</time>
      </trkpt>
      <trkpt lat="45.94784" lon="3.77549">
        <ele>704</ele>
        <time>2020-05-31T00:39:38Z</time>
      </trkpt>
      <trkpt lat="45.9478" lon="3.77581">
        <ele>704</ele>
        <time>2020-05-31T00:39:42Z</time>
      </trkpt>
      <trkpt lat="45.94764" lon="3.77614">
        <ele>706</ele>
        <time>2020-05-31T00:39:47Z</time>
      </trkpt>
      <trkpt lat="45.94735" lon="3.77653">
        <ele>707</ele>
        <time>2020-05-31T00:39:54Z</time>
      </trkpt>
      <trkpt lat="45.94705" lon="3.77713">
        <ele>708</ele>
        <time>2020-05-31T00:40:03Z</time>
      </trkpt>
      <trkpt lat="45.94664" lon="3.77831">
        <ele>709</ele>
        <time>2020-05-31T00:40:20Z</time>
      </trkpt>
      <trkpt lat="45.946" lon="3.77998">
        <ele>702</ele>
        <time>2020-05-31T00:40:43Z</time>
      </trkpt>
      <trkpt lat="45.94596" lon="3.78044">
        <ele>699</ele>
        <time>2020-05-31T00:40:49Z</time>
      </trkpt>
      <trkpt lat="45.94599" lon="3.78066">
        <ele>699</ele>
        <time>2020-05-31T00:40:52Z</time>
      </trkpt>
      <trkpt lat="45.94605" lon="3.78089">
        <ele>699</ele>
        <time>2020-05-31T00:40:55Z</time>
      </trkpt>
      <trkpt lat="45.94627" lon="3.78123">
        <ele>698</ele>
        <time>2020-05-31T00:41:01Z</time>
      </trkpt>
      <trkpt lat="45.94644" lon="3.78146">
        <ele>697</ele>
        <time>2020-05-31T00:41:05Z</time>
      </trkpt>
      <trkpt lat="45.94649" lon="3.78163">
        <ele>696</ele>
        <time>2020-05-31T00:41:07Z</time>
      </trkpt>
      <trkpt lat="45.94651" lon="3.78185">
        <ele>695</ele>
        <time>2020-05-31T00:41:10Z</time>
      </trkpt>
      <trkpt lat="45.94646" lon="3.78235">
        <ele>693</ele>
        <time>2020-05-31T00:41:16Z</time>
      </trkpt>
      <trkpt lat="45.94549" lon="3.79044">
        <ele>687</ele>
        <time>2020-05-31T00:42:58Z</time>
      </trkpt>
      <trkpt lat="45.94549" lon="3.79085">
        <ele>688</ele>
        <time>2020-05-31T00:43:03Z</time>
      </trkpt>
      <trkpt lat="45.94555" lon="3.7912">
        <ele>687</ele>
        <time>2020-05-31T00:43:07Z</time>
      </trkpt>
      <trkpt lat="45.94566" lon="3.79161">
        <ele>685</ele>
        <time>2020-05-31T00:43:13Z</time>
      </trkpt>
      <trkpt lat="45.94584" lon="3.79205">
        <ele>681</ele>
        <time>2020-05-31T00:43:19Z</time>
      </trkpt>
      <trkpt lat="45.94588" lon="3.79227">
        <ele>679</ele>
        <time>2020-05-31T00:43:22Z</time>
      </trkpt>
      <trkpt lat="45.9459" lon="3.79257">
        <ele>678</ele>
        <time>2020-05-31T00:43:25Z</time>
      </trkpt>
      <trkpt lat="45.94587" lon="3.79286">
        <ele>678</ele>
        <time>2020-05-31T00:43:29Z</time>
      </trkpt>
      <trkpt lat="45.94573" lon="3.79337">
        <ele>678</ele>
        <time>2020-05-31T00:43:36Z</time>
      </trkpt>
      <trkpt lat="45.94556" lon="3.79387">
        <ele>679</ele>
        <time>2020-05-31T00:43:43Z</time>
      </trkpt>
      <trkpt lat="45.94537" lon="3.79433">
        <ele>678</ele>
        <time>2020-05-31T00:43:49Z</time>
      </trkpt>
      <trkpt lat="45.94475" lon="3.79556">
        <ele>678</ele>
        <time>2020-05-31T00:44:08Z</time>
      </trkpt>
      <trkpt lat="45.94458" lon="3.79595">
        <ele>678</ele>
        <time>2020-05-31T00:44:14Z</time>
      </trkpt>
      <trkpt lat="45.9445" lon="3.79631">
        <ele>677</ele>
        <time>2020-05-31T00:44:19Z</time>
      </trkpt>
      <trkpt lat="45.9445" lon="3.79671">
        <ele>677</ele>
        <time>2020-05-31T00:44:24Z</time>
      </trkpt>
      <trkpt lat="45.94455" lon="3.79711">
        <ele>675</ele>
        <time>2020-05-31T00:44:29Z</time>
      </trkpt>
      <trkpt lat="45.94465" lon="3.79795">
        <ele>671</ele>
        <time>2020-05-31T00:44:39Z</time>
      </trkpt>
      <trkpt lat="45.94476" lon="3.79879">
        <ele>670</ele>
        <time>2020-05-31T00:44:50Z</time>
      </trkpt>
      <trkpt lat="45.94482" lon="3.7993">
        <ele>670</ele>
        <time>2020-05-31T00:44:56Z</time>
      </trkpt>
      <trkpt lat="45.94493" lon="3.80012">
        <ele>671</ele>
        <time>2020-05-31T00:45:06Z</time>
      </trkpt>
      <trkpt lat="45.94494" lon="3.8003">
        <ele>672</ele>
        <time>2020-05-31T00:45:09Z</time>
      </trkpt>
      <trkpt lat="45.94492" lon="3.80052">
        <ele>673</ele>
        <time>2020-05-31T00:45:11Z</time>
      </trkpt>
      <trkpt lat="45.94471" lon="3.80134">
        <ele>676</ele>
        <time>2020-05-31T00:45:22Z</time>
      </trkpt>
      <trkpt lat="45.94464" lon="3.8015">
        <ele>676</ele>
        <time>2020-05-31T00:45:25Z</time>
      </trkpt>
      <trkpt lat="45.94453" lon="3.80164">
        <ele>676</ele>
        <time>2020-05-31T00:45:27Z</time>
      </trkpt>
      <trkpt lat="45.94385" lon="3.80238">
        <ele>676</ele>
        <time>2020-05-31T00:45:42Z</time>
      </trkpt>
      <trkpt lat="45.94373" lon="3.8025">
        <ele>676</ele>
        <time>2020-05-31T00:45:45Z</time>
      </trkpt>
      <trkpt lat="45.94345" lon="3.80281">
        <ele>676</ele>
        <time>2020-05-31T00:45:51Z</time>
      </trkpt>
      <trkpt lat="45.94286" lon="3.80322">
        <ele>676</ele>
        <time>2020-05-31T00:46:03Z</time>
      </trkpt>
      <trkpt lat="45.94269" lon="3.80339">
        <ele>676</ele>
        <time>2020-05-31T00:46:07Z</time>
      </trkpt>
      <trkpt lat="45.94236" lon="3.80389">
        <ele>677</ele>
        <time>2020-05-31T00:46:15Z</time>
      </trkpt>
      <trkpt lat="45.94205" lon="3.80439">
        <ele>679</ele>
        <time>2020-05-31T00:46:23Z</time>
      </trkpt>
      <trkpt lat="45.94186" lon="3.8046">
        <ele>679</ele>
        <time>2020-05-31T00:46:28Z</time>
      </trkpt>
      <trkpt lat="45.94161" lon="3.80476">
        <ele>678</ele>
        <time>2020-05-31T00:46:32Z</time>
      </trkpt>
      <trkpt lat="45.94081" lon="3.80498">
        <ele>677</ele>
        <time>2020-05-31T00:46:47Z</time>
      </trkpt>
      <trkpt lat="45.94021" lon="3.80538">
        <ele>677</ele>
        <time>2020-05-31T00:46:59Z</time>
      </trkpt>
      <trkpt lat="45.93999" lon="3.80549">
        <ele>678</ele>
        <time>2020-05-31T00:47:03Z</time>
      </trkpt>
      <trkpt lat="45.93927" lon="3.80558">
        <ele>673</ele>
        <time>2020-05-31T00:47:16Z</time>
      </trkpt>
      <trkpt lat="45.93899" lon="3.80566">
        <ele>672</ele>
        <time>2020-05-31T00:47:21Z</time>
      </trkpt>
      <trkpt lat="45.93853" lon="3.80586">
        <ele>669</ele>
        <time>2020-05-31T00:47:29Z</time>
      </trkpt>
      <trkpt lat="45.9381" lon="3.80615">
        <ele>667</ele>
        <time>2020-05-31T00:47:38Z</time>
      </trkpt>
      <trkpt lat="45.93806" lon="3.80619">
        <ele>667</ele>
        <time>2020-05-31T00:47:39Z</time>
      </trkpt>
      <trkpt lat="45.93772" lon="3.80652">
        <ele>665</ele>
        <time>2020-05-31T00:47:46Z</time>
      </trkpt>
      <trkpt lat="45.93718" lon="3.80715">
        <ele>661</ele>
        <time>2020-05-31T00:47:58Z</time>
      </trkpt>
      <trkpt lat="45.93699" lon="3.80746">
        <ele>660</ele>
        <time>2020-05-31T00:48:03Z</time>
      </trkpt>
      <trkpt lat="45.93686" lon="3.80779">
        <ele>658</ele>
        <time>2020-05-31T00:48:08Z</time>
      </trkpt>
      <trkpt lat="45.93675" lon="3.80821">
        <ele>657</ele>
        <time>2020-05-31T00:48:14Z</time>
      </trkpt>
      <trkpt lat="45.9366" lon="3.8086">
        <ele>657</ele>
        <time>2020-05-31T00:48:19Z</time>
      </trkpt>
      <trkpt lat="45.93641" lon="3.80888">
        <ele>658</ele>
        <time>2020-05-31T00:48:24Z</time>
      </trkpt>
      <trkpt lat="45.93595" lon="3.80942">
        <ele>661</ele>
        <time>2020-05-31T00:48:35Z</time>
      </trkpt>
      <trkpt lat="45.93577" lon="3.80969">
        <ele>664</ele>
        <time>2020-05-31T00:48:39Z</time>
      </trkpt>
      <trkpt lat="45.93558" lon="3.8101">
        <ele>665</ele>
        <time>2020-05-31T00:48:45Z</time>
      </trkpt>
      <trkpt lat="45.93549" lon="3.81048">
        <ele>665</ele>
        <time>2020-05-31T00:48:50Z</time>
      </trkpt>
      <trkpt lat="45.93546" lon="3.81065">
        <ele>665</ele>
        <time>2020-05-31T00:48:53Z</time>
      </trkpt>
      <trkpt lat="45.93545" lon="3.8113">
        <ele>664</ele>
        <time>2020-05-31T00:49:01Z</time>
      </trkpt>
      <trkpt lat="45.9355" lon="3.81259">
        <ele>663</ele>
        <time>2020-05-31T00:49:17Z</time>
      </trkpt>
      <trkpt lat="45.9354" lon="3.81313">
        <ele>662</ele>
        <time>2020-05-31T00:49:23Z</time>
      </trkpt>
      <trkpt lat="45.93522" lon="3.81358">
        <ele>661</ele>
        <time>2020-05-31T00:49:30Z</time>
      </trkpt>
      <trkpt lat="45.93476" lon="3.8142">
        <ele>660</ele>
        <time>2020-05-31T00:49:41Z</time>
      </trkpt>
      <trkpt lat="45.93465" lon="3.81446">
        <ele>661</ele>
        <time>2020-05-31T00:49:45Z</time>
      </trkpt>
      <trkpt lat="45.93446" lon="3.81503">
        <ele>662</ele>
        <time>2020-05-31T00:49:53Z</time>
      </trkpt>
      <trkpt lat="45.93428" lon="3.81557">
        <ele>660</ele>
        <time>2020-05-31T00:50:00Z</time>
      </trkpt>
      <trkpt lat="45.93357" lon="3.81694">
        <ele>658</ele>
        <time>2020-05-31T00:50:21Z</time>
      </trkpt>
      <trkpt lat="45.93335" lon="3.81729">
        <ele>656</ele>
        <time>2020-05-31T00:50:27Z</time>
      </trkpt>
      <trkpt lat="45.93275" lon="3.81781">
        <ele>654</ele>
        <time>2020-05-31T00:50:40Z</time>
      </trkpt>
      <trkpt lat="45.93223" lon="3.81846">
        <ele>655</ele>
        <time>2020-05-31T00:50:52Z</time>
      </trkpt>
      <trkpt lat="45.93197" lon="3.81871">
        <ele>655</ele>
        <time>2020-05-31T00:50:57Z</time>
      </trkpt>
      <trkpt lat="45.93168" lon="3.81894">
        <ele>652</ele>
        <time>2020-05-31T00:51:03Z</time>
      </trkpt>
      <trkpt lat="45.93152" lon="3.81913">
        <ele>651</ele>
        <time>2020-05-31T00:51:07Z</time>
      </trkpt>
      <trkpt lat="45.9314" lon="3.81942">
        <ele>651</ele>
        <time>2020-05-31T00:51:11Z</time>
      </trkpt>
      <trkpt lat="45.9313" lon="3.8199">
        <ele>651</ele>
        <time>2020-05-31T00:51:17Z</time>
      </trkpt>
      <trkpt lat="45.93115" lon="3.82024">
        <ele>650</ele>
        <time>2020-05-31T00:51:22Z</time>
      </trkpt>
      <trkpt lat="45.93111" lon="3.82028">
        <ele>650</ele>
        <time>2020-05-31T00:51:23Z</time>
      </trkpt>
      <trkpt lat="45.93089" lon="3.82048">
        <ele>650</ele>
        <time>2020-05-31T00:51:28Z</time>
      </trkpt>
      <trkpt lat="45.92922" lon="3.82088">
        <ele>644</ele>
        <time>2020-05-31T00:51:58Z</time>
      </trkpt>
      <trkpt lat="45.92806" lon="3.82105">
        <ele>639</ele>
        <time>2020-05-31T00:52:19Z</time>
      </trkpt>
      <trkpt lat="45.9271" lon="3.82159">
        <ele>638</ele>
        <time>2020-05-31T00:52:37Z</time>
      </trkpt>
      <trkpt lat="45.92651" lon="3.82196">
        <ele>637</ele>
        <time>2020-05-31T00:52:48Z</time>
      </trkpt>
      <trkpt lat="45.92633" lon="3.82215">
        <ele>637</ele>
        <time>2020-05-31T00:52:52Z</time>
      </trkpt>
      <trkpt lat="45.92605" lon="3.82265">
        <ele>638</ele>
        <time>2020-05-31T00:53:00Z</time>
      </trkpt>
      <trkpt lat="45.92589" lon="3.82338">
        <ele>648</ele>
        <time>2020-05-31T00:53:10Z</time>
      </trkpt>
      <trkpt lat="45.92574" lon="3.82365">
        <ele>649</ele>
        <time>2020-05-31T00:53:14Z</time>
      </trkpt>
      <trkpt lat="45.9255" lon="3.82386">
        <ele>649</ele>
        <time>2020-05-31T00:53:19Z</time>
      </trkpt>
      <trkpt lat="45.92465" lon="3.82434">
        <ele>645</ele>
        <time>2020-05-31T00:53:35Z</time>
      </trkpt>
      <trkpt lat="45.9244" lon="3.82454">
        <ele>644</ele>
        <time>2020-05-31T00:53:40Z</time>
      </trkpt>
      <trkpt lat="45.9242" lon="3.82485">
        <ele>645</ele>
        <time>2020-05-31T00:53:46Z</time>
      </trkpt>
      <trkpt lat="45.92356" lon="3.82619">
        <ele>640</ele>
        <time>2020-05-31T00:54:06Z</time>
      </trkpt>
      <trkpt lat="45.92296" lon="3.82717">
        <ele>637</ele>
        <time>2020-05-31T00:54:22Z</time>
      </trkpt>
      <trkpt lat="45.92278" lon="3.82758">
        <ele>637</ele>
        <time>2020-05-31T00:54:28Z</time>
      </trkpt>
      <trkpt lat="45.92266" lon="3.82797">
        <ele>635</ele>
        <time>2020-05-31T00:54:33Z</time>
      </trkpt>
      <trkpt lat="45.9225" lon="3.8285">
        <ele>633</ele>
        <time>2020-05-31T00:54:40Z</time>
      </trkpt>
      <trkpt lat="45.92247" lon="3.82883">
        <ele>632</ele>
        <time>2020-05-31T00:54:45Z</time>
      </trkpt>
      <trkpt lat="45.92247" lon="3.82928">
        <ele>631</ele>
        <time>2020-05-31T00:54:50Z</time>
      </trkpt>
      <trkpt lat="45.92241" lon="3.82972">
        <ele>630</ele>
        <time>2020-05-31T00:54:56Z</time>
      </trkpt>
      <trkpt lat="45.92195" lon="3.83075">
        <ele>629</ele>
        <time>2020-05-31T00:55:11Z</time>
      </trkpt>
      <trkpt lat="45.92151" lon="3.83121">
        <ele>631</ele>
        <time>2020-05-31T00:55:20Z</time>
      </trkpt>
      <trkpt lat="45.92152" lon="3.83135">
        <ele>631</ele>
        <time>2020-05-31T00:55:22Z</time>
      </trkpt>
      <trkpt lat="45.92149" lon="3.83154">
        <ele>632</ele>
        <time>2020-05-31T00:55:25Z</time>
      </trkpt>
      <trkpt lat="45.92115" lon="3.83254">
        <ele>638</ele>
        <time>2020-05-31T00:55:38Z</time>
      </trkpt>
      <trkpt lat="45.92104" lon="3.83299">
        <ele>641</ele>
        <time>2020-05-31T00:55:44Z</time>
      </trkpt>
      <trkpt lat="45.92093" lon="3.83355">
        <ele>646</ele>
        <time>2020-05-31T00:55:52Z</time>
      </trkpt>
      <trkpt lat="45.92087" lon="3.83409">
        <ele>651</ele>
        <time>2020-05-31T00:55:58Z</time>
      </trkpt>
      <trkpt lat="45.92062" lon="3.83576">
        <ele>657</ele>
        <time>2020-05-31T00:56:19Z</time>
      </trkpt>
      <trkpt lat="45.9206" lon="3.83605">
        <ele>656</ele>
        <time>2020-05-31T00:56:23Z</time>
      </trkpt>
      <trkpt lat="45.92066" lon="3.83664">
        <ele>654</ele>
        <time>2020-05-31T00:56:30Z</time>
      </trkpt>
      <trkpt lat="45.92067" lon="3.83699">
        <ele>651</ele>
        <time>2020-05-31T00:56:35Z</time>
      </trkpt>
      <trkpt lat="45.92064" lon="3.83725">
        <ele>647</ele>
        <time>2020-05-31T00:56:38Z</time>
      </trkpt>
      <trkpt lat="45.92053" lon="3.83763">
        <ele>643</ele>
        <time>2020-05-31T00:56:43Z</time>
      </trkpt>
      <trkpt lat="45.92042" lon="3.83792">
        <ele>640</ele>
        <time>2020-05-31T00:56:47Z</time>
      </trkpt>
      <trkpt lat="45.92031" lon="3.83807">
        <ele>639</ele>
        <time>2020-05-31T00:56:50Z</time>
      </trkpt>
      <trkpt lat="45.91978" lon="3.83851">
        <ele>633</ele>
        <time>2020-05-31T00:57:01Z</time>
      </trkpt>
      <trkpt lat="45.91932" lon="3.83899">
        <ele>628</ele>
        <time>2020-05-31T00:57:11Z</time>
      </trkpt>
      <trkpt lat="45.91875" lon="3.83949">
        <ele>622</ele>
        <time>2020-05-31T00:57:23Z</time>
      </trkpt>
      <trkpt lat="45.91836" lon="3.83985">
        <ele>618</ele>
        <time>2020-05-31T00:57:31Z</time>
      </trkpt>
      <trkpt lat="45.91825" lon="3.83989">
        <ele>618</ele>
        <time>2020-05-31T00:57:33Z</time>
      </trkpt>
      <trkpt lat="45.91825" lon="3.84011">
        <ele>618</ele>
        <time>2020-05-31T00:57:36Z</time>
      </trkpt>
      <trkpt lat="45.91816" lon="3.84039">
        <ele>620</ele>
        <time>2020-05-31T00:57:40Z</time>
      </trkpt>
      <trkpt lat="45.91805" lon="3.84052">
        <ele>621</ele>
        <time>2020-05-31T00:57:42Z</time>
      </trkpt>
      <trkpt lat="45.91753" lon="3.84069">
        <ele>626</ele>
        <time>2020-05-31T00:57:52Z</time>
      </trkpt>
      <trkpt lat="45.91689" lon="3.84072">
        <ele>627</ele>
        <time>2020-05-31T00:58:03Z</time>
      </trkpt>
      <trkpt lat="45.91624" lon="3.8407">
        <ele>626</ele>
        <time>2020-05-31T00:58:15Z</time>
      </trkpt>
      <trkpt lat="45.91603" lon="3.84073">
        <ele>625</ele>
        <time>2020-05-31T00:58:18Z</time>
      </trkpt>
      <trkpt lat="45.91583" lon="3.84085">
        <ele>626</ele>
        <time>2020-05-31T00:58:22Z</time>
      </trkpt>
      <trkpt lat="45.91566" lon="3.84104">
        <ele>628</ele>
        <time>2020-05-31T00:58:26Z</time>
      </trkpt>
      <trkpt lat="45.91507" lon="3.84183">
        <ele>631</ele>
        <time>2020-05-31T00:58:40Z</time>
      </trkpt>
      <trkpt lat="45.91501" lon="3.84197">
        <ele>631</ele>
        <time>2020-05-31T00:58:42Z</time>
      </trkpt>
      <trkpt lat="45.91498" lon="3.8422">
        <ele>632</ele>
        <time>2020-05-31T00:58:45Z</time>
      </trkpt>
      <trkpt lat="45.91498" lon="3.84236">
        <ele>633</ele>
        <time>2020-05-31T00:58:47Z</time>
      </trkpt>
      <trkpt lat="45.91507" lon="3.84259">
        <ele>637</ele>
        <time>2020-05-31T00:58:51Z</time>
      </trkpt>
      <trkpt lat="45.91545" lon="3.84331">
        <ele>646</ele>
        <time>2020-05-31T00:59:02Z</time>
      </trkpt>
      <trkpt lat="45.9155" lon="3.8435">
        <ele>647</ele>
        <time>2020-05-31T00:59:04Z</time>
      </trkpt>
      <trkpt lat="45.91548" lon="3.84361">
        <ele>647</ele>
        <time>2020-05-31T00:59:06Z</time>
      </trkpt>
      <trkpt lat="45.91535" lon="3.84388">
        <ele>647</ele>
        <time>2020-05-31T00:59:10Z</time>
      </trkpt>
      <trkpt lat="45.91522" lon="3.84405">
        <ele>646</ele>
        <time>2020-05-31T00:59:13Z</time>
      </trkpt>
      <trkpt lat="45.91461" lon="3.84498">
        <ele>649</ele>
        <time>2020-05-31T00:59:29Z</time>
      </trkpt>
      <trkpt lat="45.91451" lon="3.84533">
        <ele>651</ele>
        <time>2020-05-31T00:59:33Z</time>
      </trkpt>
      <trkpt lat="45.91446" lon="3.84565">
        <ele>653</ele>
        <time>2020-05-31T00:59:37Z</time>
      </trkpt>
      <trkpt lat="45.91443" lon="3.84606">
        <ele>654</ele>
        <time>2020-05-31T00:59:43Z</time>
      </trkpt>
      <trkpt lat="45.91433" lon="3.84645">
        <ele>654</ele>
        <time>2020-05-31T00:59:48Z</time>
      </trkpt>
      <trkpt lat="45.91424" lon="3.8467">
        <ele>653</ele>
        <time>2020-05-31T00:59:51Z</time>
      </trkpt>
      <trkpt lat="45.91393" lon="3.8478">
        <ele>654</ele>
        <time>2020-05-31T01:00:06Z</time>
      </trkpt>
      <trkpt lat="45.91389" lon="3.848">
        <ele>653</ele>
        <time>2020-05-31T01:00:08Z</time>
      </trkpt>
      <trkpt lat="45.91373" lon="3.84843">
        <ele>654</ele>
        <time>2020-05-31T01:00:14Z</time>
      </trkpt>
      <trkpt lat="45.91349" lon="3.84869">
        <ele>656</ele>
        <time>2020-05-31T01:00:20Z</time>
      </trkpt>
      <trkpt lat="45.91259" lon="3.8492">
        <ele>658</ele>
        <time>2020-05-31T01:00:37Z</time>
      </trkpt>
      <trkpt lat="45.91179" lon="3.84945">
        <ele>656</ele>
        <time>2020-05-31T01:00:52Z</time>
      </trkpt>
      <trkpt lat="45.9106" lon="3.8499">
        <ele>656</ele>
        <time>2020-05-31T01:01:13Z</time>
      </trkpt>
      <trkpt lat="45.91029" lon="3.84988">
        <ele>658</ele>
        <time>2020-05-31T01:01:19Z</time>
      </trkpt>
      <trkpt lat="45.91014" lon="3.84974">
        <ele>657</ele>
        <time>2020-05-31T01:01:22Z</time>
      </trkpt>
      <trkpt lat="45.91001" lon="3.84947">
        <ele>655</ele>
        <time>2020-05-31T01:01:26Z</time>
      </trkpt>
      <trkpt lat="45.9098" lon="3.84908">
        <ele>651</ele>
        <time>2020-05-31T01:01:32Z</time>
      </trkpt>
      <trkpt lat="45.90953" lon="3.84886">
        <ele>649</ele>
        <time>2020-05-31T01:01:38Z</time>
      </trkpt>
      <trkpt lat="45.90915" lon="3.84885">
        <ele>651</ele>
        <time>2020-05-31T01:01:45Z</time>
      </trkpt>
      <trkpt lat="45.90876" lon="3.84905">
        <ele>649</ele>
        <time>2020-05-31T01:01:52Z</time>
      </trkpt>
      <trkpt lat="45.90713" lon="3.85067">
        <ele>645</ele>
        <time>2020-05-31T01:02:27Z</time>
      </trkpt>
      <trkpt lat="45.90685" lon="3.85098">
        <ele>643</ele>
        <time>2020-05-31T01:02:34Z</time>
      </trkpt>
      <trkpt lat="45.90668" lon="3.8513">
        <ele>641</ele>
        <time>2020-05-31T01:02:39Z</time>
      </trkpt>
      <trkpt lat="45.90659" lon="3.85174">
        <ele>641</ele>
        <time>2020-05-31T01:02:44Z</time>
      </trkpt>
      <trkpt lat="45.90673" lon="3.85282">
        <ele>644</ele>
        <time>2020-05-31T01:02:58Z</time>
      </trkpt>
      <trkpt lat="45.90671" lon="3.85304">
        <ele>644</ele>
        <time>2020-05-31T01:03:01Z</time>
      </trkpt>
      <trkpt lat="45.90661" lon="3.8533">
        <ele>642</ele>
        <time>2020-05-31T01:03:04Z</time>
      </trkpt>
      <trkpt lat="45.9065" lon="3.85344">
        <ele>641</ele>
        <time>2020-05-31T01:03:07Z</time>
      </trkpt>
      <trkpt lat="45.90634" lon="3.85358">
        <ele>641</ele>
        <time>2020-05-31T01:03:10Z</time>
      </trkpt>
      <trkpt lat="45.90619" lon="3.8536">
        <ele>641</ele>
        <time>2020-05-31T01:03:13Z</time>
      </trkpt>
      <trkpt lat="45.90603" lon="3.85355">
        <ele>641</ele>
        <time>2020-05-31T01:03:16Z</time>
      </trkpt>
      <trkpt lat="45.9054" lon="3.85322">
        <ele>637</ele>
        <time>2020-05-31T01:03:28Z</time>
      </trkpt>
      <trkpt lat="45.90511" lon="3.85314">
        <ele>635</ele>
        <time>2020-05-31T01:03:33Z</time>
      </trkpt>
      <trkpt lat="45.90449" lon="3.85321">
        <ele>633</ele>
        <time>2020-05-31T01:03:44Z</time>
      </trkpt>
      <trkpt lat="45.90422" lon="3.85338">
        <ele>634</ele>
        <time>2020-05-31T01:03:49Z</time>
      </trkpt>
      <trkpt lat="45.9037" lon="3.85387">
        <ele>637</ele>
        <time>2020-05-31T01:04:00Z</time>
      </trkpt>
      <trkpt lat="45.90339" lon="3.85409">
        <ele>637</ele>
        <time>2020-05-31T01:04:07Z</time>
      </trkpt>
      <trkpt lat="45.90256" lon="3.85449">
        <ele>636</ele>
        <time>2020-05-31T01:04:22Z</time>
      </trkpt>
      <trkpt lat="45.90227" lon="3.85475">
        <ele>633</ele>
        <time>2020-05-31T01:04:28Z</time>
      </trkpt>
      <trkpt lat="45.90146" lon="3.85612">
        <ele>629</ele>
        <time>2020-05-31T01:04:50Z</time>
      </trkpt>
      <trkpt lat="45.90121" lon="3.8564">
        <ele>628</ele>
        <time>2020-05-31T01:04:56Z</time>
      </trkpt>
      <trkpt lat="45.90062" lon="3.85699">
        <ele>625</ele>
        <time>2020-05-31T01:05:09Z</time>
      </trkpt>
      <trkpt lat="45.90042" lon="3.85727">
        <ele>625</ele>
        <time>2020-05-31T01:05:14Z</time>
      </trkpt>
      <trkpt lat="45.90034" lon="3.85753">
        <ele>625</ele>
        <time>2020-05-31T01:05:17Z</time>
      </trkpt>
      <trkpt lat="45.90012" lon="3.8584">
        <ele>624</ele>
        <time>2020-05-31T01:05:29Z</time>
      </trkpt>
      <trkpt lat="45.89997" lon="3.85875">
        <ele>620</ele>
        <time>2020-05-31T01:05:34Z</time>
      </trkpt>
      <trkpt lat="45.89939" lon="3.85953">
        <ele>617</ele>
        <time>2020-05-31T01:05:48Z</time>
      </trkpt>
      <trkpt lat="45.8973" lon="3.8613">
        <ele>601</ele>
        <time>2020-05-31T01:06:31Z</time>
      </trkpt>
      <trkpt lat="45.89728" lon="3.86132">
        <ele>601</ele>
        <time>2020-05-31T01:06:32Z</time>
      </trkpt>
      <trkpt lat="45.89639" lon="3.86211">
        <ele>593</ele>
        <time>2020-05-31T01:06:50Z</time>
      </trkpt>
      <trkpt lat="45.896" lon="3.86246">
        <ele>589</ele>
        <time>2020-05-31T01:06:58Z</time>
      </trkpt>
      <trkpt lat="45.89576" lon="3.86284">
        <ele>588</ele>
        <time>2020-05-31T01:07:05Z</time>
      </trkpt>
      <trkpt lat="45.89567" lon="3.8631">
        <ele>588</ele>
        <time>2020-05-31T01:07:08Z</time>
      </trkpt>
      <trkpt lat="45.89564" lon="3.86347">
        <ele>590</ele>
        <time>2020-05-31T01:07:13Z</time>
      </trkpt>
      <trkpt lat="45.89562" lon="3.86392">
        <ele>592</ele>
        <time>2020-05-31T01:07:19Z</time>
      </trkpt>
      <trkpt lat="45.89555" lon="3.8642">
        <ele>593</ele>
        <time>2020-05-31T01:07:22Z</time>
      </trkpt>
      <trkpt lat="45.89538" lon="3.86439">
        <ele>593</ele>
        <time>2020-05-31T01:07:26Z</time>
      </trkpt>
      <trkpt lat="45.89518" lon="3.86446">
        <ele>593</ele>
        <time>2020-05-31T01:07:30Z</time>
      </trkpt>
      <trkpt lat="45.89488" lon="3.86445">
        <ele>593</ele>
        <time>2020-05-31T01:07:35Z</time>
      </trkpt>
      <trkpt lat="45.89462" lon="3.8645">
        <ele>594</ele>
        <time>2020-05-31T01:07:40Z</time>
      </trkpt>
      <trkpt lat="45.89444" lon="3.86459">
        <ele>595</ele>
        <time>2020-05-31T01:07:43Z</time>
      </trkpt>
      <trkpt lat="45.89428" lon="3.86475">
        <ele>596</ele>
        <time>2020-05-31T01:07:47Z</time>
      </trkpt>
      <trkpt lat="45.89414" lon="3.86497">
        <ele>598</ele>
        <time>2020-05-31T01:07:50Z</time>
      </trkpt>
      <trkpt lat="45.89402" lon="3.86528">
        <ele>598</ele>
        <time>2020-05-31T01:07:55Z</time>
      </trkpt>
      <trkpt lat="45.89393" lon="3.86561">
        <ele>599</ele>
        <time>2020-05-31T01:07:59Z</time>
      </trkpt>
      <trkpt lat="45.89358" lon="3.86694">
        <ele>598</ele>
        <time>2020-05-31T01:08:17Z</time>
      </trkpt>
      <trkpt lat="45.89317" lon="3.86849">
        <ele>599</ele>
        <time>2020-05-31T01:08:37Z</time>
      </trkpt>
      <trkpt lat="45.89316" lon="3.86865">
        <ele>598</ele>
        <time>2020-05-31T01:08:39Z</time>
      </trkpt>
      <trkpt lat="45.8932" lon="3.86885">
        <ele>598</ele>
        <time>2020-05-31T01:08:42Z</time>
      </trkpt>
      <trkpt lat="45.89329" lon="3.86902">
        <ele>599</ele>
        <time>2020-05-31T01:08:44Z</time>
      </trkpt>
      <trkpt lat="45.89348" lon="3.86928">
        <ele>600</ele>
        <time>2020-05-31T01:08:49Z</time>
      </trkpt>
      <trkpt lat="45.89385" lon="3.86968">
        <ele>601</ele>
        <time>2020-05-31T01:08:57Z</time>
      </trkpt>
      <trkpt lat="45.89396" lon="3.86997">
        <ele>601</ele>
        <time>2020-05-31T01:09:01Z</time>
      </trkpt>
      <trkpt lat="45.89394" lon="3.87016">
        <ele>602</ele>
        <time>2020-05-31T01:09:04Z</time>
      </trkpt>
      <trkpt lat="45.89388" lon="3.87033">
        <ele>603</ele>
        <time>2020-05-31T01:09:06Z</time>
      </trkpt>
      <trkpt lat="45.89378" lon="3.87045">
        <ele>603</ele>
        <time>2020-05-31T01:09:08Z</time>
      </trkpt>
      <trkpt lat="45.89329" lon="3.87074">
        <ele>601</ele>
        <time>2020-05-31T01:09:18Z</time>
      </trkpt>
      <trkpt lat="45.89274" lon="3.87117">
        <ele>603</ele>
        <time>2020-05-31T01:09:29Z</time>
      </trkpt>
      <trkpt lat="45.89258" lon="3.87134">
        <ele>603</ele>
        <time>2020-05-31T01:09:33Z</time>
      </trkpt>
      <trkpt lat="45.89244" lon="3.87155">
        <ele>603</ele>
        <time>2020-05-31T01:09:36Z</time>
      </trkpt>
      <trkpt lat="45.89232" lon="3.87184">
        <ele>603</ele>
        <time>2020-05-31T01:09:40Z</time>
      </trkpt>
      <trkpt lat="45.89225" lon="3.87215">
        <ele>603</ele>
        <time>2020-05-31T01:09:44Z</time>
      </trkpt>
      <trkpt lat="45.89216" lon="3.87283">
        <ele>608</ele>
        <time>2020-05-31T01:09:53Z</time>
      </trkpt>
      <trkpt lat="45.89213" lon="3.87297">
        <ele>609</ele>
        <time>2020-05-31T01:09:55Z</time>
      </trkpt>
      <trkpt lat="45.89206" lon="3.87313">
        <ele>610</ele>
        <time>2020-05-31T01:09:57Z</time>
      </trkpt>
      <trkpt lat="45.89187" lon="3.87332">
        <ele>608</ele>
        <time>2020-05-31T01:10:01Z</time>
      </trkpt>
      <trkpt lat="45.89051" lon="3.87452">
        <ele>615</ele>
        <time>2020-05-31T01:10:30Z</time>
      </trkpt>
      <trkpt lat="45.88973" lon="3.87506">
        <ele>619</ele>
        <time>2020-05-31T01:10:45Z</time>
      </trkpt>
      <trkpt lat="45.8893" lon="3.8754">
        <ele>621</ele>
        <time>2020-05-31T01:10:54Z</time>
      </trkpt>
      <trkpt lat="45.88925" lon="3.87545">
        <ele>621</ele>
        <time>2020-05-31T01:10:55Z</time>
      </trkpt>
      <trkpt lat="45.88883" lon="3.87596">
        <ele>618</ele>
        <time>2020-05-31T01:11:05Z</time>
      </trkpt>
      <trkpt lat="45.88809" lon="3.87731">
        <ele>612</ele>
        <time>2020-05-31T01:11:26Z</time>
      </trkpt>
      <trkpt lat="45.88787" lon="3.87787">
        <ele>609</ele>
        <time>2020-05-31T01:11:34Z</time>
      </trkpt>
      <trkpt lat="45.8877" lon="3.8784">
        <ele>609</ele>
        <time>2020-05-31T01:11:41Z</time>
      </trkpt>
      <trkpt lat="45.8876" lon="3.87876">
        <ele>609</ele>
        <time>2020-05-31T01:11:46Z</time>
      </trkpt>
      <trkpt lat="45.88751" lon="3.87925">
        <ele>610</ele>
        <time>2020-05-31T01:11:52Z</time>
      </trkpt>
      <trkpt lat="45.88753" lon="3.88026">
        <ele>607</ele>
        <time>2020-05-31T01:12:05Z</time>
      </trkpt>
      <trkpt lat="45.88745" lon="3.88054">
        <ele>606</ele>
        <time>2020-05-31T01:12:08Z</time>
      </trkpt>
      <trkpt lat="45.88666" lon="3.88214">
        <ele>597</ele>
        <time>2020-05-31T01:12:33Z</time>
      </trkpt>
      <trkpt lat="45.8866" lon="3.88246">
        <ele>598</ele>
        <time>2020-05-31T01:12:37Z</time>
      </trkpt>
      <trkpt lat="45.88662" lon="3.88339">
        <ele>599</ele>
        <time>2020-05-31T01:12:48Z</time>
      </trkpt>
      <trkpt lat="45.88652" lon="3.88369">
        <ele>599</ele>
        <time>2020-05-31T01:12:53Z</time>
      </trkpt>
      <trkpt lat="45.88627" lon="3.88401">
        <ele>597</ele>
        <time>2020-05-31T01:12:58Z</time>
      </trkpt>
      <trkpt lat="45.88605" lon="3.88413">
        <ele>595</ele>
        <time>2020-05-31T01:13:03Z</time>
      </trkpt>
      <trkpt lat="45.88548" lon="3.88414">
        <ele>587</ele>
        <time>2020-05-31T01:13:13Z</time>
      </trkpt>
      <trkpt lat="45.88483" lon="3.88469">
        <ele>580</ele>
        <time>2020-05-31T01:13:26Z</time>
      </trkpt>
      <trkpt lat="45.88455" lon="3.88497">
        <ele>576</ele>
        <time>2020-05-31T01:13:32Z</time>
      </trkpt>
      <trkpt lat="45.88445" lon="3.88527">
        <ele>573</ele>
        <time>2020-05-31T01:13:36Z</time>
      </trkpt>
      <trkpt lat="45.88448" lon="3.88581">
        <ele>572</ele>
        <time>2020-05-31T01:13:43Z</time>
      </trkpt>
      <trkpt lat="45.88455" lon="3.88605">
        <ele>571</ele>
        <time>2020-05-31T01:13:46Z</time>
      </trkpt>
      <trkpt lat="45.8847" lon="3.88619">
        <ele>574</ele>
        <time>2020-05-31T01:13:50Z</time>
      </trkpt>
      <trkpt lat="45.8849" lon="3.88633">
        <ele>577</ele>
        <time>2020-05-31T01:13:53Z</time>
      </trkpt>
      <trkpt lat="45.885" lon="3.88645">
        <ele>579</ele>
        <time>2020-05-31T01:13:56Z</time>
      </trkpt>
      <trkpt lat="45.88506" lon="3.88665">
        <ele>578</ele>
        <time>2020-05-31T01:13:59Z</time>
      </trkpt>
      <trkpt lat="45.88506" lon="3.88685">
        <ele>577</ele>
        <time>2020-05-31T01:14:01Z</time>
      </trkpt>
      <trkpt lat="45.88502" lon="3.88716">
        <ele>575</ele>
        <time>2020-05-31T01:14:05Z</time>
      </trkpt>
      <trkpt lat="45.88493" lon="3.88765">
        <ele>570</ele>
        <time>2020-05-31T01:14:11Z</time>
      </trkpt>
      <trkpt lat="45.88458" lon="3.88871">
        <ele>557</ele>
        <time>2020-05-31T01:14:26Z</time>
      </trkpt>
      <trkpt lat="45.88456" lon="3.88892">
        <ele>557</ele>
        <time>2020-05-31T01:14:28Z</time>
      </trkpt>
      <trkpt lat="45.88458" lon="3.88906">
        <ele>557</ele>
        <time>2020-05-31T01:14:30Z</time>
      </trkpt>
      <trkpt lat="45.8847" lon="3.88925">
        <ele>559</ele>
        <time>2020-05-31T01:14:33Z</time>
      </trkpt>
      <trkpt lat="45.88482" lon="3.88943">
        <ele>561</ele>
        <time>2020-05-31T01:14:36Z</time>
      </trkpt>
      <trkpt lat="45.88485" lon="3.88964">
        <ele>561</ele>
        <time>2020-05-31T01:14:39Z</time>
      </trkpt>
      <trkpt lat="45.88483" lon="3.88984">
        <ele>560</ele>
        <time>2020-05-31T01:14:42Z</time>
      </trkpt>
      <trkpt lat="45.88412" lon="3.89122">
        <ele>550</ele>
        <time>2020-05-31T01:15:03Z</time>
      </trkpt>
      <trkpt lat="45.88403" lon="3.89136">
        <ele>550</ele>
        <time>2020-05-31T01:15:05Z</time>
      </trkpt>
      <trkpt lat="45.88389" lon="3.89146">
        <ele>548</ele>
        <time>2020-05-31T01:15:08Z</time>
      </trkpt>
      <trkpt lat="45.88362" lon="3.8916">
        <ele>546</ele>
        <time>2020-05-31T01:15:13Z</time>
      </trkpt>
      <trkpt lat="45.88344" lon="3.89177">
        <ele>543</ele>
        <time>2020-05-31T01:15:17Z</time>
      </trkpt>
      <trkpt lat="45.88292" lon="3.89274">
        <ele>538</ele>
        <time>2020-05-31T01:15:32Z</time>
      </trkpt>
      <trkpt lat="45.88288" lon="3.8929">
        <ele>538</ele>
        <time>2020-05-31T01:15:34Z</time>
      </trkpt>
      <trkpt lat="45.88283" lon="3.8931">
        <ele>538</ele>
        <time>2020-05-31T01:15:37Z</time>
      </trkpt>
      <trkpt lat="45.88255" lon="3.89348">
        <ele>538</ele>
        <time>2020-05-31T01:15:44Z</time>
      </trkpt>
      <trkpt lat="45.8822" lon="3.89378">
        <ele>539</ele>
        <time>2020-05-31T01:15:51Z</time>
      </trkpt>
      <trkpt lat="45.88205" lon="3.89408">
        <ele>539</ele>
        <time>2020-05-31T01:15:55Z</time>
      </trkpt>
      <trkpt lat="45.88198" lon="3.89421">
        <ele>540</ele>
        <time>2020-05-31T01:15:57Z</time>
      </trkpt>
      <trkpt lat="45.8818" lon="3.89446">
        <ele>541</ele>
        <time>2020-05-31T01:16:02Z</time>
      </trkpt>
      <trkpt lat="45.8799" lon="3.89568">
        <ele>538</ele>
        <time>2020-05-31T01:16:39Z</time>
      </trkpt>
      <trkpt lat="45.8795" lon="3.89609">
        <ele>538</ele>
        <time>2020-05-31T01:16:48Z</time>
      </trkpt>
      <trkpt lat="45.87881" lon="3.89675">
        <ele>536</ele>
        <time>2020-05-31T01:17:02Z</time>
      </trkpt>
      <trkpt lat="45.87862" lon="3.89714">
        <ele>536</ele>
        <time>2020-05-31T01:17:08Z</time>
      </trkpt>
      <trkpt lat="45.87732" lon="3.9004">
        <ele>536</ele>
        <time>2020-05-31T01:17:55Z</time>
      </trkpt>
      <trkpt lat="45.87706" lon="3.90148">
        <ele>539</ele>
        <time>2020-05-31T01:18:09Z</time>
      </trkpt>
      <trkpt lat="45.87684" lon="3.90206">
        <ele>538</ele>
        <time>2020-05-31T01:18:17Z</time>
      </trkpt>
      <trkpt lat="45.87625" lon="3.90321">
        <ele>538</ele>
        <time>2020-05-31T01:18:35Z</time>
      </trkpt>
      <trkpt lat="45.87591" lon="3.90366">
        <ele>533</ele>
        <time>2020-05-31T01:18:43Z</time>
      </trkpt>
      <trkpt lat="45.87552" lon="3.90438">
        <ele>532</ele>
        <time>2020-05-31T01:18:54Z</time>
      </trkpt>
      <trkpt lat="45.87537" lon="3.90486">
        <ele>530</ele>
        <time>2020-05-31T01:19:01Z</time>
      </trkpt>
      <trkpt lat="45.87509" lon="3.90677">
        <ele>531</ele>
        <time>2020-05-31T01:19:25Z</time>
      </trkpt>
      <trkpt lat="45.87487" lon="3.90782">
        <ele>529</ele>
        <time>2020-05-31T01:19:39Z</time>
      </trkpt>
      <trkpt lat="45.87462" lon="3.90896">
        <ele>530</ele>
        <time>2020-05-31T01:19:54Z</time>
      </trkpt>
      <trkpt lat="45.87451" lon="3.90934">
        <ele>530</ele>
        <time>2020-05-31T01:19:59Z</time>
      </trkpt>
      <trkpt lat="45.87439" lon="3.90959">
        <ele>530</ele>
        <time>2020-05-31T01:20:02Z</time>
      </trkpt>
      <trkpt lat="45.87424" lon="3.90976">
        <ele>529</ele>
        <time>2020-05-31T01:20:06Z</time>
      </trkpt>
      <trkpt lat="45.87396" lon="3.90996">
        <ele>529</ele>
        <time>2020-05-31T01:20:11Z</time>
      </trkpt>
      <trkpt lat="45.87374" lon="3.91016">
        <ele>529</ele>
        <time>2020-05-31T01:20:16Z</time>
      </trkpt>
      <trkpt lat="45.87358" lon="3.91044">
        <ele>529</ele>
        <time>2020-05-31T01:20:20Z</time>
      </trkpt>
      <trkpt lat="45.8735" lon="3.91073">
        <ele>529</ele>
        <time>2020-05-31T01:20:24Z</time>
      </trkpt>
      <trkpt lat="45.87349" lon="3.91106">
        <ele>530</ele>
        <time>2020-05-31T01:20:28Z</time>
      </trkpt>
      <trkpt lat="45.87365" lon="3.91275">
        <ele>536</ele>
        <time>2020-05-31T01:20:50Z</time>
      </trkpt>
      <trkpt lat="45.87371" lon="3.91303">
        <ele>536</ele>
        <time>2020-05-31T01:20:53Z</time>
      </trkpt>
      <trkpt lat="45.87381" lon="3.91321">
        <ele>536</ele>
        <time>2020-05-31T01:20:56Z</time>
      </trkpt>
      <trkpt lat="45.87398" lon="3.91339">
        <ele>536</ele>
        <time>2020-05-31T01:21:00Z</time>
      </trkpt>
      <trkpt lat="45.87435" lon="3.91359">
        <ele>536</ele>
        <time>2020-05-31T01:21:07Z</time>
      </trkpt>
      <trkpt lat="45.87446" lon="3.9137">
        <ele>536</ele>
        <time>2020-05-31T01:21:09Z</time>
      </trkpt>
      <trkpt lat="45.87454" lon="3.91383">
        <ele>536</ele>
        <time>2020-05-31T01:21:11Z</time>
      </trkpt>
      <trkpt lat="45.8746" lon="3.91407">
        <ele>537</ele>
        <time>2020-05-31T01:21:15Z</time>
      </trkpt>
      <trkpt lat="45.87462" lon="3.9153">
        <ele>545</ele>
        <time>2020-05-31T01:21:30Z</time>
      </trkpt>
      <trkpt lat="45.87463" lon="3.91718">
        <ele>552</ele>
        <time>2020-05-31T01:21:53Z</time>
      </trkpt>
      <trkpt lat="45.87447" lon="3.91825">
        <ele>556</ele>
        <time>2020-05-31T01:22:07Z</time>
      </trkpt>
      <trkpt lat="45.87438" lon="3.91925">
        <ele>560</ele>
        <time>2020-05-31T01:22:19Z</time>
      </trkpt>
      <trkpt lat="45.87438" lon="3.91967">
        <ele>562</ele>
        <time>2020-05-31T01:22:24Z</time>
      </trkpt>
      <trkpt lat="45.87444" lon="3.92024">
        <ele>565</ele>
        <time>2020-05-31T01:22:31Z</time>
      </trkpt>
      <trkpt lat="45.87445" lon="3.92045">
        <ele>565</ele>
        <time>2020-05-31T01:22:34Z</time>
      </trkpt>
      <trkpt lat="45.87442" lon="3.92069">
        <ele>566</ele>
        <time>2020-05-31T01:22:37Z</time>
      </trkpt>
      <trkpt lat="45.87428" lon="3.92096">
        <ele>566</ele>
        <time>2020-05-31T01:22:41Z</time>
      </trkpt>
      <trkpt lat="45.8738" lon="3.9216">
        <ele>568</ele>
        <time>2020-05-31T01:22:53Z</time>
      </trkpt>
      <trkpt lat="45.8732" lon="3.92278">
        <ele>572</ele>
        <time>2020-05-31T01:23:11Z</time>
      </trkpt>
      <trkpt lat="45.8729" lon="3.92361">
        <ele>578</ele>
        <time>2020-05-31T01:23:23Z</time>
      </trkpt>
      <trkpt lat="45.87261" lon="3.92486">
        <ele>586</ele>
        <time>2020-05-31T01:23:39Z</time>
      </trkpt>
      <trkpt lat="45.87244" lon="3.92536">
        <ele>587</ele>
        <time>2020-05-31T01:23:46Z</time>
      </trkpt>
      <trkpt lat="45.87224" lon="3.92572">
        <ele>589</ele>
        <time>2020-05-31T01:23:52Z</time>
      </trkpt>
      <trkpt lat="45.87195" lon="3.92608">
        <ele>589</ele>
        <time>2020-05-31T01:23:58Z</time>
      </trkpt>
      <trkpt lat="45.87174" lon="3.92627">
        <ele>589</ele>
        <time>2020-05-31T01:24:03Z</time>
      </trkpt>
      <trkpt lat="45.87148" lon="3.92642">
        <ele>589</ele>
        <time>2020-05-31T01:24:08Z</time>
      </trkpt>
      <trkpt lat="45.87141" lon="3.92646">
        <ele>589</ele>
        <time>2020-05-31T01:24:09Z</time>
      </trkpt>
      <trkpt lat="45.87068" lon="3.92676">
        <ele>590</ele>
        <time>2020-05-31T01:24:23Z</time>
      </trkpt>
      <trkpt lat="45.87045" lon="3.92691">
        <ele>591</ele>
        <time>2020-05-31T01:24:27Z</time>
      </trkpt>
      <trkpt lat="45.87" lon="3.92721">
        <ele>594</ele>
        <time>2020-05-31T01:24:36Z</time>
      </trkpt>
      <trkpt lat="45.86952" lon="3.92803">
        <ele>595</ele>
        <time>2020-05-31T01:24:49Z</time>
      </trkpt>
      <trkpt lat="45.86921" lon="3.92981">
        <ele>599</ele>
        <time>2020-05-31T01:25:12Z</time>
      </trkpt>
      <trkpt lat="45.86908" lon="3.93091">
        <ele>598</ele>
        <time>2020-05-31T01:25:26Z</time>
      </trkpt>
      <trkpt lat="45.86869" lon="3.93402">
        <ele>579</ele>
        <time>2020-05-31T01:26:05Z</time>
      </trkpt>
      <trkpt lat="45.86861" lon="3.93473">
        <ele>573</ele>
        <time>2020-05-31T01:26:14Z</time>
      </trkpt>
      <trkpt lat="45.86839" lon="3.93798">
        <ele>565</ele>
        <time>2020-05-31T01:26:54Z</time>
      </trkpt>
      <trkpt lat="45.86819" lon="3.93972">
        <ele>563</ele>
        <time>2020-05-31T01:27:16Z</time>
      </trkpt>
      <trkpt lat="45.86812" lon="3.93995">
        <ele>562</ele>
        <time>2020-05-31T01:27:19Z</time>
      </trkpt>
      <trkpt lat="45.86779" lon="3.94109">
        <ele>559</ele>
        <time>2020-05-31T01:27:35Z</time>
      </trkpt>
      <trkpt lat="45.86622" lon="3.94335">
        <ele>551</ele>
        <time>2020-05-31T01:28:14Z</time>
      </trkpt>
      <trkpt lat="45.86584" lon="3.94402">
        <ele>551</ele>
        <time>2020-05-31T01:28:25Z</time>
      </trkpt>
      <trkpt lat="45.86571" lon="3.94438">
        <ele>551</ele>
        <time>2020-05-31T01:28:30Z</time>
      </trkpt>
      <trkpt lat="45.8651" lon="3.9465">
        <ele>549</ele>
        <time>2020-05-31T01:28:58Z</time>
      </trkpt>
      <trkpt lat="45.86459" lon="3.94787">
        <ele>545</ele>
        <time>2020-05-31T01:29:17Z</time>
      </trkpt>
      <trkpt lat="45.86432" lon="3.9486">
        <ele>546</ele>
        <time>2020-05-31T01:29:28Z</time>
      </trkpt>
      <trkpt lat="45.86379" lon="3.95">
        <ele>550</ele>
        <time>2020-05-31T01:29:47Z</time>
      </trkpt>
      <trkpt lat="45.8632" lon="3.95102">
        <ele>555</ele>
        <time>2020-05-31T01:30:04Z</time>
      </trkpt>
      <trkpt lat="45.86312" lon="3.95117">
        <ele>555</ele>
        <time>2020-05-31T01:30:06Z</time>
      </trkpt>
      <trkpt lat="45.86301" lon="3.95137">
        <ele>555</ele>
        <time>2020-05-31T01:30:09Z</time>
      </trkpt>
      <trkpt lat="45.863" lon="3.95139">
        <ele>555</ele>
        <time>2020-05-31T01:30:10Z</time>
      </trkpt>
      <trkpt lat="45.86295" lon="3.95147">
        <ele>555</ele>
        <time>2020-05-31T01:30:11Z</time>
      </trkpt>
      <trkpt lat="45.86283" lon="3.9517">
        <ele>555</ele>
        <time>2020-05-31T01:30:15Z</time>
      </trkpt>
      <trkpt lat="45.86272" lon="3.95184">
        <ele>555</ele>
        <time>2020-05-31T01:30:17Z</time>
      </trkpt>
      <trkpt lat="45.86261" lon="3.95223">
        <ele>556</ele>
        <time>2020-05-31T01:30:22Z</time>
      </trkpt>
      <trkpt lat="45.86228" lon="3.9528">
        <ele>560</ele>
        <time>2020-05-31T01:30:32Z</time>
      </trkpt>
      <trkpt lat="45.8621" lon="3.95305">
        <ele>561</ele>
        <time>2020-05-31T01:30:36Z</time>
      </trkpt>
      <trkpt lat="45.86185" lon="3.95346">
        <ele>563</ele>
        <time>2020-05-31T01:30:43Z</time>
      </trkpt>
      <trkpt lat="45.86183" lon="3.95349">
        <ele>563</ele>
        <time>2020-05-31T01:30:43Z</time>
      </trkpt>
      <trkpt lat="45.86159" lon="3.95363">
        <ele>563</ele>
        <time>2020-05-31T01:30:48Z</time>
      </trkpt>
      <trkpt lat="45.86147" lon="3.95374">
        <ele>562</ele>
        <time>2020-05-31T01:30:50Z</time>
      </trkpt>
      <trkpt lat="45.86113" lon="3.95414">
        <ele>560</ele>
        <time>2020-05-31T01:30:58Z</time>
      </trkpt>
      <trkpt lat="45.86084" lon="3.95458">
        <ele>559</ele>
        <time>2020-05-31T01:31:06Z</time>
      </trkpt>
      <trkpt lat="45.86041" lon="3.9553">
        <ele>558</ele>
        <time>2020-05-31T01:31:18Z</time>
      </trkpt>
      <trkpt lat="45.86009" lon="3.95608">
        <ele>555</ele>
        <time>2020-05-31T01:31:29Z</time>
      </trkpt>
      <trkpt lat="45.85968" lon="3.95718">
        <ele>550</ele>
        <time>2020-05-31T01:31:44Z</time>
      </trkpt>
      <trkpt lat="45.85966" lon="3.95756">
        <ele>548</ele>
        <time>2020-05-31T01:31:49Z</time>
      </trkpt>
      <trkpt lat="45.85969" lon="3.95791">
        <ele>546</ele>
        <time>2020-05-31T01:31:53Z</time>
      </trkpt>
      <trkpt lat="45.85939" lon="3.95791">
        <ele>547</ele>
        <time>2020-05-31T01:31:59Z</time>
      </trkpt>
      <trkpt lat="45.85933" lon="3.95819">
        <ele>546</ele>
        <time>2020-05-31T01:32:02Z</time>
      </trkpt>
      <trkpt lat="45.85909" lon="3.95882">
        <ele>546</ele>
        <time>2020-05-31T01:32:11Z</time>
      </trkpt>
      <trkpt lat="45.85883" lon="3.95924">
        <ele>546</ele>
        <time>2020-05-31T01:32:18Z</time>
      </trkpt>
      <trkpt lat="45.85836" lon="3.95995">
        <ele>546</ele>
        <time>2020-05-31T01:32:30Z</time>
      </trkpt>
      <trkpt lat="45.85788" lon="3.96146">
        <ele>540</ele>
        <time>2020-05-31T01:32:51Z</time>
      </trkpt>
      <trkpt lat="45.85725" lon="3.96288">
        <ele>536</ele>
        <time>2020-05-31T01:33:12Z</time>
      </trkpt>
      <trkpt lat="45.85654" lon="3.96483">
        <ele>532</ele>
        <time>2020-05-31T01:33:39Z</time>
      </trkpt>
      <trkpt lat="45.85594" lon="3.96628">
        <ele>531</ele>
        <time>2020-05-31T01:34:00Z</time>
      </trkpt>
      <trkpt lat="45.85531" lon="3.96771">
        <ele>526</ele>
        <time>2020-05-31T01:34:21Z</time>
      </trkpt>
      <trkpt lat="45.85495" lon="3.96847">
        <ele>523</ele>
        <time>2020-05-31T01:34:32Z</time>
      </trkpt>
      <trkpt lat="45.85434" lon="3.96932">
        <ele>519</ele>
        <time>2020-05-31T01:34:47Z</time>
      </trkpt>
      <trkpt lat="45.8539" lon="3.97005">
        <ele>518</ele>
        <time>2020-05-31T01:34:59Z</time>
      </trkpt>
      <trkpt lat="45.85321" lon="3.97179">
        <ele>522</ele>
        <time>2020-05-31T01:35:24Z</time>
      </trkpt>
      <trkpt lat="45.85301" lon="3.97241">
        <ele>520</ele>
        <time>2020-05-31T01:35:33Z</time>
      </trkpt>
      <trkpt lat="45.85275" lon="3.9733">
        <ele>521</ele>
        <time>2020-05-31T01:35:45Z</time>
      </trkpt>
      <trkpt lat="45.85249" lon="3.97463">
        <ele>520</ele>
        <time>2020-05-31T01:36:02Z</time>
      </trkpt>
      <trkpt lat="45.85232" lon="3.97736">
        <ele>523</ele>
        <time>2020-05-31T01:36:36Z</time>
      </trkpt>
      <trkpt lat="45.85195" lon="3.97923">
        <ele>525</ele>
        <time>2020-05-31T01:37:00Z</time>
      </trkpt>
      <trkpt lat="45.85144" lon="3.98134">
        <ele>520</ele>
        <time>2020-05-31T01:37:27Z</time>
      </trkpt>
      <trkpt lat="45.85096" lon="3.98306">
        <ele>514</ele>
        <time>2020-05-31T01:37:50Z</time>
      </trkpt>
      <trkpt lat="45.85035" lon="3.98455">
        <ele>509</ele>
        <time>2020-05-31T01:38:12Z</time>
      </trkpt>
      <trkpt lat="45.84978" lon="3.98616">
        <ele>505</ele>
        <time>2020-05-31T01:38:34Z</time>
      </trkpt>
      <trkpt lat="45.84931" lon="3.98758">
        <ele>501</ele>
        <time>2020-05-31T01:38:54Z</time>
      </trkpt>
      <trkpt lat="45.84876" lon="3.98967">
        <ele>497</ele>
        <time>2020-05-31T01:39:21Z</time>
      </trkpt>
      <trkpt lat="45.84823" lon="3.99179">
        <ele>492</ele>
        <time>2020-05-31T01:39:49Z</time>
      </trkpt>
      <trkpt lat="45.84815" lon="3.99218">
        <ele>491</ele>
        <time>2020-05-31T01:39:54Z</time>
      </trkpt>
      <trkpt lat="45.84803" lon="3.9941">
        <ele>486</ele>
        <time>2020-05-31T01:40:18Z</time>
      </trkpt>
      <trkpt lat="45.84793" lon="3.99474">
        <ele>485</ele>
        <time>2020-05-31T01:40:26Z</time>
      </trkpt>
      <trkpt lat="45.84756" lon="3.99599">
        <ele>488</ele>
        <time>2020-05-31T01:40:43Z</time>
      </trkpt>
      <trkpt lat="45.84737" lon="3.9962">
        <ele>487</ele>
        <time>2020-05-31T01:40:47Z</time>
      </trkpt>
      <trkpt lat="45.84661" lon="3.99727">
        <ele>488</ele>
        <time>2020-05-31T01:41:06Z</time>
      </trkpt>
      <trkpt lat="45.84642" lon="3.99769">
        <ele>488</ele>
        <time>2020-05-31T01:41:13Z</time>
      </trkpt>
      <trkpt lat="45.84634" lon="3.99815">
        <ele>488</ele>
        <time>2020-05-31T01:41:18Z</time>
      </trkpt>
      <trkpt lat="45.84629" lon="3.99894">
        <ele>488</ele>
        <time>2020-05-31T01:41:28Z</time>
      </trkpt>
      <trkpt lat="45.84606" lon="3.99986">
        <ele>488</ele>
        <time>2020-05-31T01:41:40Z</time>
      </trkpt>
      <trkpt lat="45.84564" lon="4.00068">
        <ele>487</ele>
        <time>2020-05-31T01:41:53Z</time>
      </trkpt>
      <trkpt lat="45.84532" lon="4.00135">
        <ele>485</ele>
        <time>2020-05-31T01:42:03Z</time>
      </trkpt>
      <trkpt lat="45.84504" lon="4.00201">
        <ele>484</ele>
        <time>2020-05-31T01:42:13Z</time>
      </trkpt>
      <trkpt lat="45.84465" lon="4.00259">
        <ele>481</ele>
        <time>2020-05-31T01:42:23Z</time>
      </trkpt>
      <trkpt lat="45.8441" lon="4.00329">
        <ele>475</ele>
        <time>2020-05-31T01:42:36Z</time>
      </trkpt>
      <trkpt lat="45.84364" lon="4.00396">
        <ele>472</ele>
        <time>2020-05-31T01:42:47Z</time>
      </trkpt>
      <trkpt lat="45.84309" lon="4.00465">
        <ele>470</ele>
        <time>2020-05-31T01:43:00Z</time>
      </trkpt>
      <trkpt lat="45.84246" lon="4.0053">
        <ele>466</ele>
        <time>2020-05-31T01:43:14Z</time>
      </trkpt>
      <trkpt lat="45.84056" lon="4.00676">
        <ele>461</ele>
        <time>2020-05-31T01:43:53Z</time>
      </trkpt>
      <trkpt lat="45.84068" lon="4.0076">
        <ele>457</ele>
        <time>2020-05-31T01:44:03Z</time>
      </trkpt>
      <trkpt lat="45.84056" lon="4.00676">
        <ele>461</ele>
        <time>2020-05-31T01:44:14Z</time>
      </trkpt>
      <trkpt lat="45.83986" lon="4.00722">
        <ele>460</ele>
        <time>2020-05-31T01:44:27Z</time>
      </trkpt>
      <trkpt lat="45.83909" lon="4.00763">
        <ele>458</ele>
        <time>2020-05-31T01:44:42Z</time>
      </trkpt>
      <trkpt lat="45.83724" lon="4.00825">
        <ele>455</ele>
        <time>2020-05-31T01:45:16Z</time>
      </trkpt>
      <trkpt lat="45.83661" lon="4.00834">
        <ele>455</ele>
        <time>2020-05-31T01:45:27Z</time>
      </trkpt>
      <trkpt lat="45.83614" lon="4.00839">
        <ele>453</ele>
        <time>2020-05-31T01:45:36Z</time>
      </trkpt>
      <trkpt lat="45.83567" lon="4.00821">
        <ele>451</ele>
        <time>2020-05-31T01:45:44Z</time>
      </trkpt>
      <trkpt lat="45.83509" lon="4.0077">
        <ele>446</ele>
        <time>2020-05-31T01:45:56Z</time>
      </trkpt>
      <trkpt lat="45.83479" lon="4.00755">
        <ele>442</ele>
        <time>2020-05-31T01:46:02Z</time>
      </trkpt>
      <trkpt lat="45.83444" lon="4.00762">
        <ele>440</ele>
        <time>2020-05-31T01:46:08Z</time>
      </trkpt>
      <trkpt lat="45.83358" lon="4.0083">
        <ele>438</ele>
        <time>2020-05-31T01:46:26Z</time>
      </trkpt>
      <trkpt lat="45.83311" lon="4.00849">
        <ele>434</ele>
        <time>2020-05-31T01:46:34Z</time>
      </trkpt>
      <trkpt lat="45.83259" lon="4.00864">
        <ele>428</ele>
        <time>2020-05-31T01:46:44Z</time>
      </trkpt>
      <trkpt lat="45.83233" lon="4.0089">
        <ele>427</ele>
        <time>2020-05-31T01:46:49Z</time>
      </trkpt>
      <trkpt lat="45.83216" lon="4.00918">
        <ele>427</ele>
        <time>2020-05-31T01:46:54Z</time>
      </trkpt>
      <trkpt lat="45.83198" lon="4.00968">
        <ele>426</ele>
        <time>2020-05-31T01:47:01Z</time>
      </trkpt>
      <trkpt lat="45.83188" lon="4.01029">
        <ele>427</ele>
        <time>2020-05-31T01:47:09Z</time>
      </trkpt>
      <trkpt lat="45.83177" lon="4.01083">
        <ele>426</ele>
        <time>2020-05-31T01:47:16Z</time>
      </trkpt>
      <trkpt lat="45.83128" lon="4.01276">
        <ele>427</ele>
        <time>2020-05-31T01:47:41Z</time>
      </trkpt>
      <trkpt lat="45.83108" lon="4.01394">
        <ele>424</ele>
        <time>2020-05-31T01:47:56Z</time>
      </trkpt>
      <trkpt lat="45.83098" lon="4.01477">
        <ele>421</ele>
        <time>2020-05-31T01:48:07Z</time>
      </trkpt>
      <trkpt lat="45.83098" lon="4.01491">
        <ele>420</ele>
        <time>2020-05-31T01:48:09Z</time>
      </trkpt>
      <trkpt lat="45.83101" lon="4.01505">
        <ele>419</ele>
        <time>2020-05-31T01:48:10Z</time>
      </trkpt>
      <trkpt lat="45.83118" lon="4.01544">
        <ele>417</ele>
        <time>2020-05-31T01:48:16Z</time>
      </trkpt>
      <trkpt lat="45.83138" lon="4.01579">
        <ele>415</ele>
        <time>2020-05-31T01:48:22Z</time>
      </trkpt>
      <trkpt lat="45.83152" lon="4.01611">
        <ele>413</ele>
        <time>2020-05-31T01:48:26Z</time>
      </trkpt>
      <trkpt lat="45.83157" lon="4.01634">
        <ele>412</ele>
        <time>2020-05-31T01:48:29Z</time>
      </trkpt>
      <trkpt lat="45.8316" lon="4.0166">
        <ele>411</ele>
        <time>2020-05-31T01:48:33Z</time>
      </trkpt>
      <trkpt lat="45.83159" lon="4.01695">
        <ele>409</ele>
        <time>2020-05-31T01:48:37Z</time>
      </trkpt>
      <trkpt lat="45.83184" lon="4.01742">
        <ele>408</ele>
        <time>2020-05-31T01:48:44Z</time>
      </trkpt>
      <trkpt lat="45.83246" lon="4.01841">
        <ele>405</ele>
        <time>2020-05-31T01:49:01Z</time>
      </trkpt>
      <trkpt lat="45.83288" lon="4.01894">
        <ele>403</ele>
        <time>2020-05-31T01:49:11Z</time>
      </trkpt>
      <trkpt lat="45.83415" lon="4.0199">
        <ele>402</ele>
        <time>2020-05-31T01:49:36Z</time>
      </trkpt>
      <trkpt lat="45.83454" lon="4.02057">
        <ele>400</ele>
        <time>2020-05-31T01:49:47Z</time>
      </trkpt>
      <trkpt lat="45.83468" lon="4.021">
        <ele>397</ele>
        <time>2020-05-31T01:49:53Z</time>
      </trkpt>
      <trkpt lat="45.83514" lon="4.02182">
        <ele>394</ele>
        <time>2020-05-31T01:50:06Z</time>
      </trkpt>
      <trkpt lat="45.83554" lon="4.02305">
        <ele>389</ele>
        <time>2020-05-31T01:50:23Z</time>
      </trkpt>
      <trkpt lat="45.83598" lon="4.02355">
        <ele>387</ele>
        <time>2020-05-31T01:50:33Z</time>
      </trkpt>
      <trkpt lat="45.83626" lon="4.02386">
        <ele>386</ele>
        <time>2020-05-31T01:50:39Z</time>
      </trkpt>
      <trkpt lat="45.83637" lon="4.02399">
        <ele>386</ele>
        <time>2020-05-31T01:50:42Z</time>
      </trkpt>
      <trkpt lat="45.83659" lon="4.02432">
        <ele>384</ele>
        <time>2020-05-31T01:50:47Z</time>
      </trkpt>
      <trkpt lat="45.8368" lon="4.02471">
        <ele>384</ele>
        <time>2020-05-31T01:50:53Z</time>
      </trkpt>
      <trkpt lat="45.83724" lon="4.02566">
        <ele>382</ele>
        <time>2020-05-31T01:51:08Z</time>
      </trkpt>
      <trkpt lat="45.83729" lon="4.02575">
        <ele>382</ele>
        <time>2020-05-31T01:51:09Z</time>
      </trkpt>
      <trkpt lat="45.83835" lon="4.02811">
        <ele>379</ele>
        <time>2020-05-31T01:51:44Z</time>
      </trkpt>
      <trkpt lat="45.83855" lon="4.02863">
        <ele>378</ele>
        <time>2020-05-31T01:51:51Z</time>
      </trkpt>
      <trkpt lat="45.83863" lon="4.02895">
        <ele>378</ele>
        <time>2020-05-31T01:51:55Z</time>
      </trkpt>
      <trkpt lat="45.83868" lon="4.02966">
        <ele>377</ele>
        <time>2020-05-31T01:52:04Z</time>
      </trkpt>
      <trkpt lat="45.83855" lon="4.03138">
        <ele>375</ele>
        <time>2020-05-31T01:52:26Z</time>
      </trkpt>
      <trkpt lat="45.83853" lon="4.0321">
        <ele>374</ele>
        <time>2020-05-31T01:52:35Z</time>
      </trkpt>
      <trkpt lat="45.83855" lon="4.03262">
        <ele>373</ele>
        <time>2020-05-31T01:52:41Z</time>
      </trkpt>
      <trkpt lat="45.83865" lon="4.0332">
        <ele>372</ele>
        <time>2020-05-31T01:52:48Z</time>
      </trkpt>
      <trkpt lat="45.8388" lon="4.03394">
        <ele>372</ele>
        <time>2020-05-31T01:52:58Z</time>
      </trkpt>
      <trkpt lat="45.83886" lon="4.0344">
        <ele>371</ele>
        <time>2020-05-31T01:53:04Z</time>
      </trkpt>
      <trkpt lat="45.83908" lon="4.037">
        <ele>369</ele>
        <time>2020-05-31T01:53:36Z</time>
      </trkpt>
      <trkpt lat="45.83911" lon="4.03792">
        <ele>368</ele>
        <time>2020-05-31T01:53:48Z</time>
      </trkpt>
      <trkpt lat="45.83912" lon="4.03968">
        <ele>366</ele>
        <time>2020-05-31T01:54:10Z</time>
      </trkpt>
      <trkpt lat="45.83912" lon="4.04141">
        <ele>359</ele>
        <time>2020-05-31T01:54:31Z</time>
      </trkpt>
      <trkpt lat="45.83921" lon="4.04184">
        <ele>357</ele>
        <time>2020-05-31T01:54:37Z</time>
      </trkpt>
      <trkpt lat="45.8394" lon="4.04229">
        <ele>355</ele>
        <time>2020-05-31T01:54:43Z</time>
      </trkpt>
      <trkpt lat="45.83971" lon="4.04284">
        <ele>354</ele>
        <time>2020-05-31T01:54:52Z</time>
      </trkpt>
      <trkpt lat="45.83989" lon="4.04315">
        <ele>353</ele>
        <time>2020-05-31T01:54:57Z</time>
      </trkpt>
      <trkpt lat="45.84031" lon="4.04393">
        <ele>353</ele>
        <time>2020-05-31T01:55:09Z</time>
      </trkpt>
      <trkpt lat="45.84043" lon="4.04424">
        <ele>353</ele>
        <time>2020-05-31T01:55:13Z</time>
      </trkpt>
      <trkpt lat="45.84051" lon="4.04462">
        <ele>353</ele>
        <time>2020-05-31T01:55:18Z</time>
      </trkpt>
      <trkpt lat="45.84095" lon="4.04711">
        <ele>362</ele>
        <time>2020-05-31T01:55:50Z</time>
      </trkpt>
      <trkpt lat="45.84143" lon="4.05126">
        <ele>367</ele>
        <time>2020-05-31T01:56:42Z</time>
      </trkpt>
      <trkpt lat="45.84146" lon="4.05192">
        <ele>368</ele>
        <time>2020-05-31T01:56:51Z</time>
      </trkpt>
      <trkpt lat="45.84144" lon="4.05258">
        <ele>368</ele>
        <time>2020-05-31T01:56:59Z</time>
      </trkpt>
      <trkpt lat="45.84147" lon="4.05287">
        <ele>367</ele>
        <time>2020-05-31T01:57:02Z</time>
      </trkpt>
      <trkpt lat="45.84159" lon="4.05326">
        <ele>366</ele>
        <time>2020-05-31T01:57:08Z</time>
      </trkpt>
      <trkpt lat="45.8417" lon="4.05344">
        <ele>366</ele>
        <time>2020-05-31T01:57:11Z</time>
      </trkpt>
      <trkpt lat="45.84195" lon="4.05393">
        <ele>368</ele>
        <time>2020-05-31T01:57:18Z</time>
      </trkpt>
      <trkpt lat="45.84201" lon="4.05435">
        <ele>368</ele>
        <time>2020-05-31T01:57:23Z</time>
      </trkpt>
      <trkpt lat="45.84194" lon="4.05557">
        <ele>367</ele>
        <time>2020-05-31T01:57:39Z</time>
      </trkpt>
      <trkpt lat="45.84202" lon="4.05656">
        <ele>366</ele>
        <time>2020-05-31T01:57:51Z</time>
      </trkpt>
      <trkpt lat="45.84498" lon="4.08435">
        <ele>369</ele>
        <time>2020-05-31T02:03:39Z</time>
      </trkpt>
      <trkpt lat="45.84509" lon="4.08538">
        <ele>370</ele>
        <time>2020-05-31T02:03:52Z</time>
      </trkpt>
      <trkpt lat="45.8454" lon="4.088">
        <ele>371</ele>
        <time>2020-05-31T02:04:25Z</time>
      </trkpt>
      <trkpt lat="45.84835" lon="4.11563">
        <ele>394</ele>
        <time>2020-05-31T02:10:12Z</time>
      </trkpt>
      <trkpt lat="45.84847" lon="4.11654">
        <ele>394</ele>
        <time>2020-05-31T02:10:23Z</time>
      </trkpt>
      <trkpt lat="45.84855" lon="4.11758">
        <ele>394</ele>
        <time>2020-05-31T02:10:36Z</time>
      </trkpt>
      <trkpt lat="45.84864" lon="4.1183">
        <ele>394</ele>
        <time>2020-05-31T02:10:45Z</time>
      </trkpt>
      <trkpt lat="45.84876" lon="4.11877">
        <ele>395</ele>
        <time>2020-05-31T02:10:51Z</time>
      </trkpt>
      <trkpt lat="45.84901" lon="4.11944">
        <ele>395</ele>
        <time>2020-05-31T02:11:01Z</time>
      </trkpt>
      <trkpt lat="45.84927" lon="4.12008">
        <ele>396</ele>
        <time>2020-05-31T02:11:10Z</time>
      </trkpt>
      <trkpt lat="45.84947" lon="4.12067">
        <ele>397</ele>
        <time>2020-05-31T02:11:18Z</time>
      </trkpt>
      <trkpt lat="45.84957" lon="4.12118">
        <ele>396</ele>
        <time>2020-05-31T02:11:25Z</time>
      </trkpt>
      <trkpt lat="45.8497" lon="4.12257">
        <ele>395</ele>
        <time>2020-05-31T02:11:42Z</time>
      </trkpt>
      <trkpt lat="45.84981" lon="4.12344">
        <ele>394</ele>
        <time>2020-05-31T02:11:53Z</time>
      </trkpt>
      <trkpt lat="45.84985" lon="4.12407">
        <ele>393</ele>
        <time>2020-05-31T02:12:01Z</time>
      </trkpt>
      <trkpt lat="45.84984" lon="4.12457">
        <ele>393</ele>
        <time>2020-05-31T02:12:07Z</time>
      </trkpt>
      <trkpt lat="45.84975" lon="4.12531">
        <ele>394</ele>
        <time>2020-05-31T02:12:16Z</time>
      </trkpt>
      <trkpt lat="45.8498" lon="4.12636">
        <ele>395</ele>
        <time>2020-05-31T02:12:29Z</time>
      </trkpt>
      <trkpt lat="45.8498" lon="4.12687">
        <ele>395</ele>
        <time>2020-05-31T02:12:36Z</time>
      </trkpt>
      <trkpt lat="45.84975" lon="4.12949">
        <ele>391</ele>
        <time>2020-05-31T02:13:08Z</time>
      </trkpt>
      <trkpt lat="45.8497" lon="4.12965">
        <ele>391</ele>
        <time>2020-05-31T02:13:10Z</time>
      </trkpt>
      <trkpt lat="45.84956" lon="4.1299">
        <ele>391</ele>
        <time>2020-05-31T02:13:14Z</time>
      </trkpt>
      <trkpt lat="45.84901" lon="4.13068">
        <ele>390</ele>
        <time>2020-05-31T02:13:28Z</time>
      </trkpt>
      <trkpt lat="45.84917" lon="4.13137">
        <ele>392</ele>
        <time>2020-05-31T02:13:37Z</time>
      </trkpt>
      <trkpt lat="45.84942" lon="4.13186">
        <ele>391</ele>
        <time>2020-05-31T02:13:45Z</time>
      </trkpt>
      <trkpt lat="45.84949" lon="4.13193">
        <ele>390</ele>
        <time>2020-05-31T02:13:46Z</time>
      </trkpt>
      <trkpt lat="45.84958" lon="4.13187">
        <ele>390</ele>
        <time>2020-05-31T02:13:48Z</time>
      </trkpt>
      <trkpt lat="45.84989" lon="4.13137">
        <ele>391</ele>
        <time>2020-05-31T02:13:56Z</time>
      </trkpt>
      <trkpt lat="45.85005" lon="4.13122">
        <ele>390</ele>
        <time>2020-05-31T02:14:00Z</time>
      </trkpt>
      <trkpt lat="45.85077" lon="4.13072">
        <ele>391</ele>
        <time>2020-05-31T02:14:14Z</time>
      </trkpt>
      <trkpt lat="45.85114" lon="4.1304">
        <ele>392</ele>
        <time>2020-05-31T02:14:22Z</time>
      </trkpt>
      <trkpt lat="45.85145" lon="4.13018">
        <ele>392</ele>
        <time>2020-05-31T02:14:28Z</time>
      </trkpt>
      <trkpt lat="45.8517" lon="4.13007">
        <ele>392</ele>
        <time>2020-05-31T02:14:32Z</time>
      </trkpt>
      <trkpt lat="45.85442" lon="4.12921">
        <ele>388</ele>
        <time>2020-05-31T02:15:22Z</time>
      </trkpt>
      <trkpt lat="45.85477" lon="4.12914">
        <ele>388</ele>
        <time>2020-05-31T02:15:28Z</time>
      </trkpt>
      <trkpt lat="45.85515" lon="4.12914">
        <ele>388</ele>
        <time>2020-05-31T02:15:35Z</time>
      </trkpt>
      <trkpt lat="45.85557" lon="4.12921">
        <ele>385</ele>
        <time>2020-05-31T02:15:43Z</time>
      </trkpt>
      <trkpt lat="45.85671" lon="4.12975">
        <ele>375</ele>
        <time>2020-05-31T02:16:04Z</time>
      </trkpt>
      <trkpt lat="45.85708" lon="4.1298">
        <ele>374</ele>
        <time>2020-05-31T02:16:11Z</time>
      </trkpt>
      <trkpt lat="45.8574" lon="4.12981">
        <ele>373</ele>
        <time>2020-05-31T02:16:16Z</time>
      </trkpt>
      <trkpt lat="45.85791" lon="4.12977">
        <ele>373</ele>
        <time>2020-05-31T02:16:25Z</time>
      </trkpt>
      <trkpt lat="45.85815" lon="4.1298">
        <ele>372</ele>
        <time>2020-05-31T02:16:30Z</time>
      </trkpt>
      <trkpt lat="45.85835" lon="4.12985">
        <ele>371</ele>
        <time>2020-05-31T02:16:33Z</time>
      </trkpt>
      <trkpt lat="45.85851" lon="4.12993">
        <ele>370</ele>
        <time>2020-05-31T02:16:36Z</time>
      </trkpt>
      <trkpt lat="45.85895" lon="4.13027">
        <ele>365</ele>
        <time>2020-05-31T02:16:45Z</time>
      </trkpt>
      <trkpt lat="45.8591" lon="4.13031">
        <ele>365</ele>
        <time>2020-05-31T02:16:48Z</time>
      </trkpt>
      <trkpt lat="45.85927" lon="4.13031">
        <ele>366</ele>
        <time>2020-05-31T02:16:51Z</time>
      </trkpt>
      <trkpt lat="45.85956" lon="4.13026">
        <ele>368</ele>
        <time>2020-05-31T02:16:56Z</time>
      </trkpt>
      <trkpt lat="45.85972" lon="4.13027">
        <ele>368</ele>
        <time>2020-05-31T02:16:59Z</time>
      </trkpt>
      <trkpt lat="45.85988" lon="4.1303">
        <ele>367</ele>
        <time>2020-05-31T02:17:02Z</time>
      </trkpt>
      <trkpt lat="45.86038" lon="4.13054">
        <ele>361</ele>
        <time>2020-05-31T02:17:11Z</time>
      </trkpt>
      <trkpt lat="45.8605" lon="4.13056">
        <ele>361</ele>
        <time>2020-05-31T02:17:13Z</time>
      </trkpt>
      <trkpt lat="45.86072" lon="4.13056">
        <ele>360</ele>
        <time>2020-05-31T02:17:17Z</time>
      </trkpt>
      <trkpt lat="45.86098" lon="4.13054">
        <ele>360</ele>
        <time>2020-05-31T02:17:22Z</time>
      </trkpt>
      <trkpt lat="45.86121" lon="4.13055">
        <ele>359</ele>
        <time>2020-05-31T02:17:26Z</time>
      </trkpt>
      <trkpt lat="45.86188" lon="4.13065">
        <ele>354</ele>
        <time>2020-05-31T02:17:38Z</time>
      </trkpt>
      <trkpt lat="45.86205" lon="4.13063">
        <ele>354</ele>
        <time>2020-05-31T02:17:41Z</time>
      </trkpt>
      <trkpt lat="45.86256" lon="4.13045">
        <ele>356</ele>
        <time>2020-05-31T02:17:50Z</time>
      </trkpt>
      <trkpt lat="45.86286" lon="4.13038">
        <ele>356</ele>
        <time>2020-05-31T02:17:56Z</time>
      </trkpt>
      <trkpt lat="45.86317" lon="4.13033">
        <ele>356</ele>
        <time>2020-05-31T02:18:01Z</time>
      </trkpt>
      <trkpt lat="45.86357" lon="4.13033">
        <ele>353</ele>
        <time>2020-05-31T02:18:08Z</time>
      </trkpt>
      <trkpt lat="45.86378" lon="4.1303">
        <ele>353</ele>
        <time>2020-05-31T02:18:12Z</time>
      </trkpt>
      <trkpt lat="45.86503" lon="4.12983">
        <ele>349</ele>
        <time>2020-05-31T02:18:35Z</time>
      </trkpt>
      <trkpt lat="45.86534" lon="4.12978">
        <ele>347</ele>
        <time>2020-05-31T02:18:41Z</time>
      </trkpt>
      <trkpt lat="45.8657" lon="4.12977">
        <ele>344</ele>
        <time>2020-05-31T02:18:47Z</time>
      </trkpt>
      <trkpt lat="45.86619" lon="4.12972">
        <ele>339</ele>
        <time>2020-05-31T02:18:56Z</time>
      </trkpt>
      <trkpt lat="45.86637" lon="4.12966">
        <ele>338</ele>
        <time>2020-05-31T02:18:59Z</time>
      </trkpt>
      <trkpt lat="45.86662" lon="4.12953">
        <ele>338</ele>
        <time>2020-05-31T02:19:04Z</time>
      </trkpt>
      <trkpt lat="45.86682" lon="4.1294">
        <ele>339</ele>
        <time>2020-05-31T02:19:08Z</time>
      </trkpt>
      <trkpt lat="45.86705" lon="4.12918">
        <ele>340</ele>
        <time>2020-05-31T02:19:13Z</time>
      </trkpt>
      <trkpt lat="45.86714" lon="4.12912">
        <ele>340</ele>
        <time>2020-05-31T02:19:14Z</time>
      </trkpt>
      <trkpt lat="45.86728" lon="4.12908">
        <ele>338</ele>
        <time>2020-05-31T02:19:17Z</time>
      </trkpt>
      <trkpt lat="45.86814" lon="4.12892">
        <ele>322</ele>
        <time>2020-05-31T02:19:32Z</time>
      </trkpt>
      <trkpt lat="45.86876" lon="4.12889">
        <ele>322</ele>
        <time>2020-05-31T02:19:43Z</time>
      </trkpt>
      <trkpt lat="45.86945" lon="4.12892">
        <ele>333</ele>
        <time>2020-05-31T02:19:56Z</time>
      </trkpt>
      <trkpt lat="45.86957" lon="4.12892">
        <ele>335</ele>
        <time>2020-05-31T02:19:58Z</time>
      </trkpt>
      <trkpt lat="45.86966" lon="4.12883">
        <ele>337</ele>
        <time>2020-05-31T02:20:00Z</time>
      </trkpt>
      <trkpt lat="45.86977" lon="4.1286">
        <ele>337</ele>
        <time>2020-05-31T02:20:03Z</time>
      </trkpt>
      <trkpt lat="45.86987" lon="4.12795">
        <ele>334</ele>
        <time>2020-05-31T02:20:12Z</time>
      </trkpt>
      <trkpt lat="45.86992" lon="4.12742">
        <ele>333</ele>
        <time>2020-05-31T02:20:18Z</time>
      </trkpt>
      <trkpt lat="45.86988" lon="4.12726">
        <ele>332</ele>
        <time>2020-05-31T02:20:20Z</time>
      </trkpt>
      <trkpt lat="45.86997" lon="4.12702">
        <ele>335</ele>
        <time>2020-05-31T02:20:24Z</time>
      </trkpt>
      <trkpt lat="45.87" lon="4.1268">
        <ele>336</ele>
        <time>2020-05-31T02:20:26Z</time>
      </trkpt>
      <trkpt lat="45.86998" lon="4.12656">
        <ele>337</ele>
        <time>2020-05-31T02:20:29Z</time>
      </trkpt>
      <trkpt lat="45.86992" lon="4.12631">
        <ele>339</ele>
        <time>2020-05-31T02:20:33Z</time>
      </trkpt>
      <trkpt lat="45.86977" lon="4.12594">
        <ele>339</ele>
        <time>2020-05-31T02:20:38Z</time>
      </trkpt>
      <trkpt lat="45.86957" lon="4.12555">
        <ele>341</ele>
        <time>2020-05-31T02:20:44Z</time>
      </trkpt>
      <trkpt lat="45.86901" lon="4.12486">
        <ele>341</ele>
        <time>2020-05-31T02:20:57Z</time>
      </trkpt>
      <trkpt lat="45.86889" lon="4.12467">
        <ele>342</ele>
        <time>2020-05-31T02:21:00Z</time>
      </trkpt>
      <trkpt lat="45.86867" lon="4.12421">
        <ele>344</ele>
        <time>2020-05-31T02:21:07Z</time>
      </trkpt>
      <trkpt lat="45.86854" lon="4.12405">
        <ele>344</ele>
        <time>2020-05-31T02:21:10Z</time>
      </trkpt>
      <trkpt lat="45.86823" lon="4.12371">
        <ele>343</ele>
        <time>2020-05-31T02:21:17Z</time>
      </trkpt>
      <trkpt lat="45.86795" lon="4.12307">
        <ele>345</ele>
        <time>2020-05-31T02:21:27Z</time>
      </trkpt>
      <trkpt lat="45.86787" lon="4.12281">
        <ele>345</ele>
        <time>2020-05-31T02:21:30Z</time>
      </trkpt>
      <trkpt lat="45.86783" lon="4.1226">
        <ele>346</ele>
        <time>2020-05-31T02:21:33Z</time>
      </trkpt>
      <trkpt lat="45.86783" lon="4.12252">
        <ele>347</ele>
        <time>2020-05-31T02:21:34Z</time>
      </trkpt>
      <trkpt lat="45.86784" lon="4.12247">
        <ele>347</ele>
        <time>2020-05-31T02:21:34Z</time>
      </trkpt>
      <trkpt lat="45.86784" lon="4.12243">
        <ele>347</ele>
        <time>2020-05-31T02:21:35Z</time>
      </trkpt>
      <trkpt lat="45.86794" lon="4.12183">
        <ele>351</ele>
        <time>2020-05-31T02:21:43Z</time>
      </trkpt>
      <trkpt lat="45.86793" lon="4.12169">
        <ele>351</ele>
        <time>2020-05-31T02:21:44Z</time>
      </trkpt>
      <trkpt lat="45.86791" lon="4.12156">
        <ele>352</ele>
        <time>2020-05-31T02:21:46Z</time>
      </trkpt>
      <trkpt lat="45.86785" lon="4.12141">
        <ele>352</ele>
        <time>2020-05-31T02:21:48Z</time>
      </trkpt>
      <trkpt lat="45.86745" lon="4.12057">
        <ele>348</ele>
        <time>2020-05-31T02:22:01Z</time>
      </trkpt>
      <trkpt lat="45.86743" lon="4.12044">
        <ele>348</ele>
        <time>2020-05-31T02:22:02Z</time>
      </trkpt>
      <trkpt lat="45.86744" lon="4.12034">
        <ele>349</ele>
        <time>2020-05-31T02:22:04Z</time>
      </trkpt>
      <trkpt lat="45.86748" lon="4.12026">
        <ele>350</ele>
        <time>2020-05-31T02:22:05Z</time>
      </trkpt>
      <trkpt lat="45.86754" lon="4.12023">
        <ele>352</ele>
        <time>2020-05-31T02:22:06Z</time>
      </trkpt>
      <trkpt lat="45.8676" lon="4.12025">
        <ele>353</ele>
        <time>2020-05-31T02:22:07Z</time>
      </trkpt>
      <trkpt lat="45.86767" lon="4.12031">
        <ele>354</ele>
        <time>2020-05-31T02:22:09Z</time>
      </trkpt>
      <trkpt lat="45.86773" lon="4.12043">
        <ele>355</ele>
        <time>2020-05-31T02:22:10Z</time>
      </trkpt>
      <trkpt lat="45.86789" lon="4.12085">
        <ele>358</ele>
        <time>2020-05-31T02:22:16Z</time>
      </trkpt>
      <trkpt lat="45.868" lon="4.12107">
        <ele>358</ele>
        <time>2020-05-31T02:22:20Z</time>
      </trkpt>
      <trkpt lat="45.86829" lon="4.12151">
        <ele>362</ele>
        <time>2020-05-31T02:22:27Z</time>
      </trkpt>
      <trkpt lat="45.86835" lon="4.12174">
        <ele>362</ele>
        <time>2020-05-31T02:22:30Z</time>
      </trkpt>
      <trkpt lat="45.86839" lon="4.12196">
        <ele>362</ele>
        <time>2020-05-31T02:22:33Z</time>
      </trkpt>
      <trkpt lat="45.86839" lon="4.12199">
        <ele>362</ele>
        <time>2020-05-31T02:22:33Z</time>
      </trkpt>
      <trkpt lat="45.86842" lon="4.12213">
        <ele>362</ele>
        <time>2020-05-31T02:22:35Z</time>
      </trkpt>
      <trkpt lat="45.86849" lon="4.1223">
        <ele>363</ele>
        <time>2020-05-31T02:22:38Z</time>
      </trkpt>
      <trkpt lat="45.86861" lon="4.12248">
        <ele>364</ele>
        <time>2020-05-31T02:22:41Z</time>
      </trkpt>
      <trkpt lat="45.86955" lon="4.12331">
        <ele>371</ele>
        <time>2020-05-31T02:23:00Z</time>
      </trkpt>
      <trkpt lat="45.86979" lon="4.12359">
        <ele>373</ele>
        <time>2020-05-31T02:23:06Z</time>
      </trkpt>
      <trkpt lat="45.86987" lon="4.12376">
        <ele>373</ele>
        <time>2020-05-31T02:23:08Z</time>
      </trkpt>
      <trkpt lat="45.87005" lon="4.12432">
        <ele>373</ele>
        <time>2020-05-31T02:23:16Z</time>
      </trkpt>
      <trkpt lat="45.87017" lon="4.12464">
        <ele>371</ele>
        <time>2020-05-31T02:23:21Z</time>
      </trkpt>
      <trkpt lat="45.87026" lon="4.12478">
        <ele>371</ele>
        <time>2020-05-31T02:23:23Z</time>
      </trkpt>
      <trkpt lat="45.87037" lon="4.1249">
        <ele>372</ele>
        <time>2020-05-31T02:23:25Z</time>
      </trkpt>
      <trkpt lat="45.87106" lon="4.1253">
        <ele>380</ele>
        <time>2020-05-31T02:23:39Z</time>
      </trkpt>
      <trkpt lat="45.87118" lon="4.12541">
        <ele>381</ele>
        <time>2020-05-31T02:23:41Z</time>
      </trkpt>
      <trkpt lat="45.87139" lon="4.12584">
        <ele>380</ele>
        <time>2020-05-31T02:23:48Z</time>
      </trkpt>
      <trkpt lat="45.87154" lon="4.12624">
        <ele>381</ele>
        <time>2020-05-31T02:23:53Z</time>
      </trkpt>
      <trkpt lat="45.8717" lon="4.1266">
        <ele>383</ele>
        <time>2020-05-31T02:23:59Z</time>
      </trkpt>
      <trkpt lat="45.87182" lon="4.12678">
        <ele>382</ele>
        <time>2020-05-31T02:24:02Z</time>
      </trkpt>
      <trkpt lat="45.87197" lon="4.12691">
        <ele>382</ele>
        <time>2020-05-31T02:24:05Z</time>
      </trkpt>
      <trkpt lat="45.87237" lon="4.12705">
        <ele>386</ele>
        <time>2020-05-31T02:24:12Z</time>
      </trkpt>
      <trkpt lat="45.87259" lon="4.12712">
        <ele>387</ele>
        <time>2020-05-31T02:24:16Z</time>
      </trkpt>
      <trkpt lat="45.87264" lon="4.12713">
        <ele>387</ele>
        <time>2020-05-31T02:24:17Z</time>
      </trkpt>
      <trkpt lat="45.87286" lon="4.1272">
        <ele>388</ele>
        <time>2020-05-31T02:24:21Z</time>
      </trkpt>
      <trkpt lat="45.87296" lon="4.12727">
        <ele>388</ele>
        <time>2020-05-31T02:24:23Z</time>
      </trkpt>
      <trkpt lat="45.87307" lon="4.12743">
        <ele>387</ele>
        <time>2020-05-31T02:24:26Z</time>
      </trkpt>
      <trkpt lat="45.87317" lon="4.12766">
        <ele>387</ele>
        <time>2020-05-31T02:24:29Z</time>
      </trkpt>
      <trkpt lat="45.87326" lon="4.12805">
        <ele>388</ele>
        <time>2020-05-31T02:24:34Z</time>
      </trkpt>
      <trkpt lat="45.87332" lon="4.12832">
        <ele>388</ele>
        <time>2020-05-31T02:24:38Z</time>
      </trkpt>
      <trkpt lat="45.87344" lon="4.12891">
        <ele>392</ele>
        <time>2020-05-31T02:24:45Z</time>
      </trkpt>
      <trkpt lat="45.87349" lon="4.1292">
        <ele>394</ele>
        <time>2020-05-31T02:24:49Z</time>
      </trkpt>
      <trkpt lat="45.87349" lon="4.12938">
        <ele>395</ele>
        <time>2020-05-31T02:24:51Z</time>
      </trkpt>
      <trkpt lat="45.87346" lon="4.1296">
        <ele>396</ele>
        <time>2020-05-31T02:24:54Z</time>
      </trkpt>
      <trkpt lat="45.87311" lon="4.13092">
        <ele>401</ele>
        <time>2020-05-31T02:25:12Z</time>
      </trkpt>
      <trkpt lat="45.87308" lon="4.13121">
        <ele>401</ele>
        <time>2020-05-31T02:25:15Z</time>
      </trkpt>
      <trkpt lat="45.87307" lon="4.13132">
        <ele>401</ele>
        <time>2020-05-31T02:25:17Z</time>
      </trkpt>
      <trkpt lat="45.87304" lon="4.13219">
        <ele>401</ele>
        <time>2020-05-31T02:25:27Z</time>
      </trkpt>
      <trkpt lat="45.87304" lon="4.13235">
        <ele>401</ele>
        <time>2020-05-31T02:25:29Z</time>
      </trkpt>
      <trkpt lat="45.87307" lon="4.13286">
        <ele>402</ele>
        <time>2020-05-31T02:25:36Z</time>
      </trkpt>
      <trkpt lat="45.87327" lon="4.13526">
        <ele>407</ele>
        <time>2020-05-31T02:26:06Z</time>
      </trkpt>
      <trkpt lat="45.87337" lon="4.13567">
        <ele>409</ele>
        <time>2020-05-31T02:26:11Z</time>
      </trkpt>
      <trkpt lat="45.87347" lon="4.13609">
        <ele>410</ele>
        <time>2020-05-31T02:26:16Z</time>
      </trkpt>
      <trkpt lat="45.87355" lon="4.13628">
        <ele>410</ele>
        <time>2020-05-31T02:26:19Z</time>
      </trkpt>
      <trkpt lat="45.87359" lon="4.13658">
        <ele>411</ele>
        <time>2020-05-31T02:26:23Z</time>
      </trkpt>
      <trkpt lat="45.87359" lon="4.1366">
        <ele>411</ele>
        <time>2020-05-31T02:26:23Z</time>
      </trkpt>
      <trkpt lat="45.87364" lon="4.13712">
        <ele>412</ele>
        <time>2020-05-31T02:26:30Z</time>
      </trkpt>
      <trkpt lat="45.87382" lon="4.13761">
        <ele>411</ele>
        <time>2020-05-31T02:26:37Z</time>
      </trkpt>
      <trkpt lat="45.87396" lon="4.13816">
        <ele>412</ele>
        <time>2020-05-31T02:26:44Z</time>
      </trkpt>
      <trkpt lat="45.87399" lon="4.13825">
        <ele>412</ele>
        <time>2020-05-31T02:26:45Z</time>
      </trkpt>
      <trkpt lat="45.87416" lon="4.13922">
        <ele>414</ele>
        <time>2020-05-31T02:26:58Z</time>
      </trkpt>
      <trkpt lat="45.87423" lon="4.13968">
        <ele>415</ele>
        <time>2020-05-31T02:27:03Z</time>
      </trkpt>
      <trkpt lat="45.87432" lon="4.14068">
        <ele>416</ele>
        <time>2020-05-31T02:27:16Z</time>
      </trkpt>
      <trkpt lat="45.87439" lon="4.14119">
        <ele>417</ele>
        <time>2020-05-31T02:27:22Z</time>
      </trkpt>
      <trkpt lat="45.8744" lon="4.14166">
        <ele>418</ele>
        <time>2020-05-31T02:27:28Z</time>
      </trkpt>
      <trkpt lat="45.87434" lon="4.14292">
        <ele>420</ele>
        <time>2020-05-31T02:27:44Z</time>
      </trkpt>
      <trkpt lat="45.87436" lon="4.14324">
        <ele>420</ele>
        <time>2020-05-31T02:27:48Z</time>
      </trkpt>
      <trkpt lat="45.87443" lon="4.14348">
        <ele>420</ele>
        <time>2020-05-31T02:27:51Z</time>
      </trkpt>
      <trkpt lat="45.87451" lon="4.14361">
        <ele>420</ele>
        <time>2020-05-31T02:27:53Z</time>
      </trkpt>
      <trkpt lat="45.87459" lon="4.14371">
        <ele>421</ele>
        <time>2020-05-31T02:27:55Z</time>
      </trkpt>
      <trkpt lat="45.87515" lon="4.14415">
        <ele>424</ele>
        <time>2020-05-31T02:28:06Z</time>
      </trkpt>
      <trkpt lat="45.87524" lon="4.14425">
        <ele>425</ele>
        <time>2020-05-31T02:28:08Z</time>
      </trkpt>
      <trkpt lat="45.87529" lon="4.14437">
        <ele>425</ele>
        <time>2020-05-31T02:28:10Z</time>
      </trkpt>
      <trkpt lat="45.87536" lon="4.14466">
        <ele>426</ele>
        <time>2020-05-31T02:28:14Z</time>
      </trkpt>
      <trkpt lat="45.87537" lon="4.1448">
        <ele>426</ele>
        <time>2020-05-31T02:28:16Z</time>
      </trkpt>
      <trkpt lat="45.87528" lon="4.14556">
        <ele>425</ele>
        <time>2020-05-31T02:28:25Z</time>
      </trkpt>
      <trkpt lat="45.87533" lon="4.14577">
        <ele>426</ele>
        <time>2020-05-31T02:28:28Z</time>
      </trkpt>
      <trkpt lat="45.87547" lon="4.14603">
        <ele>427</ele>
        <time>2020-05-31T02:28:32Z</time>
      </trkpt>
      <trkpt lat="45.87595" lon="4.14675">
        <ele>430</ele>
        <time>2020-05-31T02:28:44Z</time>
      </trkpt>
      <trkpt lat="45.87622" lon="4.14703">
        <ele>431</ele>
        <time>2020-05-31T02:28:50Z</time>
      </trkpt>
      <trkpt lat="45.87671" lon="4.14723">
        <ele>436</ele>
        <time>2020-05-31T02:28:59Z</time>
      </trkpt>
      <trkpt lat="45.8769" lon="4.14737">
        <ele>436</ele>
        <time>2020-05-31T02:29:03Z</time>
      </trkpt>
      <trkpt lat="45.87704" lon="4.14762">
        <ele>437</ele>
        <time>2020-05-31T02:29:07Z</time>
      </trkpt>
      <trkpt lat="45.87729" lon="4.14819">
        <ele>439</ele>
        <time>2020-05-31T02:29:15Z</time>
      </trkpt>
      <trkpt lat="45.8776" lon="4.14871">
        <ele>440</ele>
        <time>2020-05-31T02:29:24Z</time>
      </trkpt>
      <trkpt lat="45.87809" lon="4.14907">
        <ele>442</ele>
        <time>2020-05-31T02:29:34Z</time>
      </trkpt>
      <trkpt lat="45.87827" lon="4.14922">
        <ele>442</ele>
        <time>2020-05-31T02:29:37Z</time>
      </trkpt>
      <trkpt lat="45.87843" lon="4.14942">
        <ele>443</ele>
        <time>2020-05-31T02:29:41Z</time>
      </trkpt>
      <trkpt lat="45.87905" lon="4.15083">
        <ele>446</ele>
        <time>2020-05-31T02:30:02Z</time>
      </trkpt>
      <trkpt lat="45.87935" lon="4.15144">
        <ele>449</ele>
        <time>2020-05-31T02:30:11Z</time>
      </trkpt>
      <trkpt lat="45.87974" lon="4.1521">
        <ele>451</ele>
        <time>2020-05-31T02:30:22Z</time>
      </trkpt>
      <trkpt lat="45.87983" lon="4.1523">
        <ele>451</ele>
        <time>2020-05-31T02:30:25Z</time>
      </trkpt>
      <trkpt lat="45.87989" lon="4.15248">
        <ele>452</ele>
        <time>2020-05-31T02:30:27Z</time>
      </trkpt>
      <trkpt lat="45.87991" lon="4.15262">
        <ele>452</ele>
        <time>2020-05-31T02:30:29Z</time>
      </trkpt>
      <trkpt lat="45.87988" lon="4.15285">
        <ele>453</ele>
        <time>2020-05-31T02:30:32Z</time>
      </trkpt>
      <trkpt lat="45.87982" lon="4.15307">
        <ele>453</ele>
        <time>2020-05-31T02:30:35Z</time>
      </trkpt>
      <trkpt lat="45.87966" lon="4.1533">
        <ele>453</ele>
        <time>2020-05-31T02:30:39Z</time>
      </trkpt>
      <trkpt lat="45.87928" lon="4.15355">
        <ele>454</ele>
        <time>2020-05-31T02:30:46Z</time>
      </trkpt>
      <trkpt lat="45.87905" lon="4.15379">
        <ele>455</ele>
        <time>2020-05-31T02:30:51Z</time>
      </trkpt>
      <trkpt lat="45.87891" lon="4.15424">
        <ele>457</ele>
        <time>2020-05-31T02:30:58Z</time>
      </trkpt>
      <trkpt lat="45.87891" lon="4.15468">
        <ele>459</ele>
        <time>2020-05-31T02:31:03Z</time>
      </trkpt>
      <trkpt lat="45.87904" lon="4.15503">
        <ele>461</ele>
        <time>2020-05-31T02:31:08Z</time>
      </trkpt>
      <trkpt lat="45.87938" lon="4.15548">
        <ele>461</ele>
        <time>2020-05-31T02:31:16Z</time>
      </trkpt>
      <trkpt lat="45.87939" lon="4.1555">
        <ele>461</ele>
        <time>2020-05-31T02:31:16Z</time>
      </trkpt>
      <trkpt lat="45.88137" lon="4.15831">
        <ele>464</ele>
        <time>2020-05-31T02:32:06Z</time>
      </trkpt>
      <trkpt lat="45.88285" lon="4.16043">
        <ele>465</ele>
        <time>2020-05-31T02:32:43Z</time>
      </trkpt>
      <trkpt lat="45.88481" lon="4.16499">
        <ele>468</ele>
        <time>2020-05-31T02:33:49Z</time>
      </trkpt>
      <trkpt lat="45.88662" lon="4.1689">
        <ele>479</ele>
        <time>2020-05-31T02:34:48Z</time>
      </trkpt>
      <trkpt lat="45.88697" lon="4.16958">
        <ele>481</ele>
        <time>2020-05-31T02:34:58Z</time>
      </trkpt>
      <trkpt lat="45.88906" lon="4.17193">
        <ele>493</ele>
        <time>2020-05-31T02:35:45Z</time>
      </trkpt>
      <trkpt lat="45.88935" lon="4.17237">
        <ele>493</ele>
        <time>2020-05-31T02:35:53Z</time>
      </trkpt>
      <trkpt lat="45.88979" lon="4.17315">
        <ele>491</ele>
        <time>2020-05-31T02:36:05Z</time>
      </trkpt>
      <trkpt lat="45.89014" lon="4.17405">
        <ele>491</ele>
        <time>2020-05-31T02:36:18Z</time>
      </trkpt>
      <trkpt lat="45.89039" lon="4.17475">
        <ele>492</ele>
        <time>2020-05-31T02:36:28Z</time>
      </trkpt>
      <trkpt lat="45.89056" lon="4.17516">
        <ele>494</ele>
        <time>2020-05-31T02:36:34Z</time>
      </trkpt>
      <trkpt lat="45.89066" lon="4.17536">
        <ele>494</ele>
        <time>2020-05-31T02:36:37Z</time>
      </trkpt>
      <trkpt lat="45.89079" lon="4.17551">
        <ele>495</ele>
        <time>2020-05-31T02:36:40Z</time>
      </trkpt>
      <trkpt lat="45.89095" lon="4.17559">
        <ele>495</ele>
        <time>2020-05-31T02:36:43Z</time>
      </trkpt>
      <trkpt lat="45.8911" lon="4.1756">
        <ele>495</ele>
        <time>2020-05-31T02:36:45Z</time>
      </trkpt>
      <trkpt lat="45.89195" lon="4.17545">
        <ele>495</ele>
        <time>2020-05-31T02:37:01Z</time>
      </trkpt>
      <trkpt lat="45.89207" lon="4.17545">
        <ele>495</ele>
        <time>2020-05-31T02:37:03Z</time>
      </trkpt>
      <trkpt lat="45.89223" lon="4.17547">
        <ele>496</ele>
        <time>2020-05-31T02:37:06Z</time>
      </trkpt>
      <trkpt lat="45.89399" lon="4.17597">
        <ele>498</ele>
        <time>2020-05-31T02:37:38Z</time>
      </trkpt>
      <trkpt lat="45.89519" lon="4.1762">
        <ele>507</ele>
        <time>2020-05-31T02:37:59Z</time>
      </trkpt>
      <trkpt lat="45.89631" lon="4.17638">
        <ele>515</ele>
        <time>2020-05-31T02:38:19Z</time>
      </trkpt>
      <trkpt lat="45.89692" lon="4.17651">
        <ele>519</ele>
        <time>2020-05-31T02:38:30Z</time>
      </trkpt>
      <trkpt lat="45.8973" lon="4.17669">
        <ele>522</ele>
        <time>2020-05-31T02:38:37Z</time>
      </trkpt>
      <trkpt lat="45.89798" lon="4.17707">
        <ele>525</ele>
        <time>2020-05-31T02:38:50Z</time>
      </trkpt>
      <trkpt lat="45.89829" lon="4.17732">
        <ele>527</ele>
        <time>2020-05-31T02:38:57Z</time>
      </trkpt>
      <trkpt lat="45.89855" lon="4.17756">
        <ele>529</ele>
        <time>2020-05-31T02:39:02Z</time>
      </trkpt>
      <trkpt lat="45.89867" lon="4.17769">
        <ele>529</ele>
        <time>2020-05-31T02:39:05Z</time>
      </trkpt>
      <trkpt lat="45.89891" lon="4.17796">
        <ele>530</ele>
        <time>2020-05-31T02:39:10Z</time>
      </trkpt>
      <trkpt lat="45.89905" lon="4.17807">
        <ele>531</ele>
        <time>2020-05-31T02:39:13Z</time>
      </trkpt>
      <trkpt lat="45.89922" lon="4.17816">
        <ele>532</ele>
        <time>2020-05-31T02:39:16Z</time>
      </trkpt>
      <trkpt lat="45.89907" lon="4.17849">
        <ele>532</ele>
        <time>2020-05-31T02:39:21Z</time>
      </trkpt>
      <trkpt lat="45.89913" lon="4.17898">
        <ele>533</ele>
        <time>2020-05-31T02:39:27Z</time>
      </trkpt>
      <trkpt lat="45.89915" lon="4.17931">
        <ele>533</ele>
        <time>2020-05-31T02:39:31Z</time>
      </trkpt>
      <trkpt lat="45.89926" lon="4.17979">
        <ele>536</ele>
        <time>2020-05-31T02:39:38Z</time>
      </trkpt>
      <trkpt lat="45.89906" lon="4.18001">
        <ele>536</ele>
        <time>2020-05-31T02:39:42Z</time>
      </trkpt>
      <trkpt lat="45.89877" lon="4.18054">
        <ele>538</ele>
        <time>2020-05-31T02:39:50Z</time>
      </trkpt>
      <trkpt lat="45.89823" lon="4.18163">
        <ele>546</ele>
        <time>2020-05-31T02:40:07Z</time>
      </trkpt>
      <trkpt lat="45.89947" lon="4.18164">
        <ele>550</ele>
        <time>2020-05-31T02:40:29Z</time>
      </trkpt>
      <trkpt lat="45.90011" lon="4.18164">
        <ele>552</ele>
        <time>2020-05-31T02:40:40Z</time>
      </trkpt>
      <trkpt lat="45.9006" lon="4.18165">
        <ele>554</ele>
        <time>2020-05-31T02:40:49Z</time>
      </trkpt>
      <trkpt lat="45.90123" lon="4.1813">
        <ele>553</ele>
        <time>2020-05-31T02:41:01Z</time>
      </trkpt>
      <trkpt lat="45.90216" lon="4.1807">
        <ele>554</ele>
        <time>2020-05-31T02:41:19Z</time>
      </trkpt>
      <trkpt lat="45.9022" lon="4.18068">
        <ele>554</ele>
        <time>2020-05-31T02:41:20Z</time>
      </trkpt>
      <trkpt lat="45.90221" lon="4.18087">
        <ele>554</ele>
        <time>2020-05-31T02:41:22Z</time>
      </trkpt>
      <trkpt lat="45.90221" lon="4.18112">
        <ele>554</ele>
        <time>2020-05-31T02:41:26Z</time>
      </trkpt>
      <trkpt lat="45.90219" lon="4.18168">
        <ele>553</ele>
        <time>2020-05-31T02:41:32Z</time>
      </trkpt>
      <trkpt lat="45.90218" lon="4.18181">
        <ele>553</ele>
        <time>2020-05-31T02:41:34Z</time>
      </trkpt>
      <trkpt lat="45.90211" lon="4.18266">
        <ele>552</ele>
        <time>2020-05-31T02:41:45Z</time>
      </trkpt>
      <trkpt lat="45.90205" lon="4.18319">
        <ele>553</ele>
        <time>2020-05-31T02:41:51Z</time>
      </trkpt>
      <trkpt lat="45.90201" lon="4.18352">
        <ele>553</ele>
        <time>2020-05-31T02:41:55Z</time>
      </trkpt>
      <trkpt lat="45.90179" lon="4.18441">
        <ele>553</ele>
        <time>2020-05-31T02:42:07Z</time>
      </trkpt>
      <trkpt lat="45.90167" lon="4.18504">
        <ele>552</ele>
        <time>2020-05-31T02:42:15Z</time>
      </trkpt>
      <trkpt lat="45.90166" lon="4.1856">
        <ele>551</ele>
        <time>2020-05-31T02:42:22Z</time>
      </trkpt>
      <trkpt lat="45.90174" lon="4.18621">
        <ele>552</ele>
        <time>2020-05-31T02:42:30Z</time>
      </trkpt>
      <trkpt lat="45.90188" lon="4.18677">
        <ele>552</ele>
        <time>2020-05-31T02:42:37Z</time>
      </trkpt>
      <trkpt lat="45.90204" lon="4.18774">
        <ele>551</ele>
        <time>2020-05-31T02:42:50Z</time>
      </trkpt>
      <trkpt lat="45.90207" lon="4.18885">
        <ele>544</ele>
        <time>2020-05-31T02:43:03Z</time>
      </trkpt>
      <trkpt lat="45.90193" lon="4.18996">
        <ele>541</ele>
        <time>2020-05-31T02:43:17Z</time>
      </trkpt>
      <trkpt lat="45.90156" lon="4.19147">
        <ele>531</ele>
        <time>2020-05-31T02:43:37Z</time>
      </trkpt>
      <trkpt lat="45.90142" lon="4.19214">
        <ele>526</ele>
        <time>2020-05-31T02:43:46Z</time>
      </trkpt>
      <trkpt lat="45.90132" lon="4.19283">
        <ele>521</ele>
        <time>2020-05-31T02:43:55Z</time>
      </trkpt>
      <trkpt lat="45.90131" lon="4.19331">
        <ele>519</ele>
        <time>2020-05-31T02:44:00Z</time>
      </trkpt>
      <trkpt lat="45.90135" lon="4.19397">
        <ele>517</ele>
        <time>2020-05-31T02:44:09Z</time>
      </trkpt>
      <trkpt lat="45.90153" lon="4.19526">
        <ele>515</ele>
        <time>2020-05-31T02:44:25Z</time>
      </trkpt>
      <trkpt lat="45.90154" lon="4.19527">
        <ele>515</ele>
        <time>2020-05-31T02:44:25Z</time>
      </trkpt>
      <trkpt lat="45.90177" lon="4.19663">
        <ele>514</ele>
        <time>2020-05-31T02:44:43Z</time>
      </trkpt>
      <trkpt lat="45.90183" lon="4.19762">
        <ele>515</ele>
        <time>2020-05-31T02:44:55Z</time>
      </trkpt>
      <trkpt lat="45.90191" lon="4.20202">
        <ele>532</ele>
        <time>2020-05-31T02:45:49Z</time>
      </trkpt>
      <trkpt lat="45.90195" lon="4.20381">
        <ele>531</ele>
        <time>2020-05-31T02:46:12Z</time>
      </trkpt>
      <trkpt lat="45.90207" lon="4.20454">
        <ele>534</ele>
        <time>2020-05-31T02:46:21Z</time>
      </trkpt>
      <trkpt lat="45.90228" lon="4.20514">
        <ele>534</ele>
        <time>2020-05-31T02:46:29Z</time>
      </trkpt>
      <trkpt lat="45.90278" lon="4.20597">
        <ele>527</ele>
        <time>2020-05-31T02:46:43Z</time>
      </trkpt>
      <trkpt lat="45.90352" lon="4.20722">
        <ele>524</ele>
        <time>2020-05-31T02:47:03Z</time>
      </trkpt>
      <trkpt lat="45.90376" lon="4.20762">
        <ele>527</ele>
        <time>2020-05-31T02:47:10Z</time>
      </trkpt>
      <trkpt lat="45.90428" lon="4.20854">
        <ele>534</ele>
        <time>2020-05-31T02:47:24Z</time>
      </trkpt>
      <trkpt lat="45.90453" lon="4.20918">
        <ele>536</ele>
        <time>2020-05-31T02:47:33Z</time>
      </trkpt>
      <trkpt lat="45.90462" lon="4.21001">
        <ele>531</ele>
        <time>2020-05-31T02:47:44Z</time>
      </trkpt>
      <trkpt lat="45.90464" lon="4.21039">
        <ele>531</ele>
        <time>2020-05-31T02:47:48Z</time>
      </trkpt>
      <trkpt lat="45.90453" lon="4.21309">
        <ele>533</ele>
        <time>2020-05-31T02:48:22Z</time>
      </trkpt>
      <trkpt lat="45.9046" lon="4.21377">
        <ele>535</ele>
        <time>2020-05-31T02:48:30Z</time>
      </trkpt>
      <trkpt lat="45.90477" lon="4.21417">
        <ele>535</ele>
        <time>2020-05-31T02:48:36Z</time>
      </trkpt>
      <trkpt lat="45.90507" lon="4.21451">
        <ele>532</ele>
        <time>2020-05-31T02:48:43Z</time>
      </trkpt>
      <trkpt lat="45.90557" lon="4.21484">
        <ele>530</ele>
        <time>2020-05-31T02:48:53Z</time>
      </trkpt>
      <trkpt lat="45.90629" lon="4.21517">
        <ele>530</ele>
        <time>2020-05-31T02:49:06Z</time>
      </trkpt>
      <trkpt lat="45.90669" lon="4.21553">
        <ele>531</ele>
        <time>2020-05-31T02:49:15Z</time>
      </trkpt>
      <trkpt lat="45.90711" lon="4.2162">
        <ele>530</ele>
        <time>2020-05-31T02:49:26Z</time>
      </trkpt>
      <trkpt lat="45.90782" lon="4.21739">
        <ele>526</ele>
        <time>2020-05-31T02:49:45Z</time>
      </trkpt>
      <trkpt lat="45.90798" lon="4.21799">
        <ele>524</ele>
        <time>2020-05-31T02:49:53Z</time>
      </trkpt>
      <trkpt lat="45.90803" lon="4.21827">
        <ele>523</ele>
        <time>2020-05-31T02:49:57Z</time>
      </trkpt>
      <trkpt lat="45.90806" lon="4.21853">
        <ele>522</ele>
        <time>2020-05-31T02:50:00Z</time>
      </trkpt>
      <trkpt lat="45.90807" lon="4.21879">
        <ele>522</ele>
        <time>2020-05-31T02:50:03Z</time>
      </trkpt>
      <trkpt lat="45.90806" lon="4.2192">
        <ele>521</ele>
        <time>2020-05-31T02:50:08Z</time>
      </trkpt>
      <trkpt lat="45.90799" lon="4.21976">
        <ele>518</ele>
        <time>2020-05-31T02:50:15Z</time>
      </trkpt>
      <trkpt lat="45.90791" lon="4.22005">
        <ele>518</ele>
        <time>2020-05-31T02:50:19Z</time>
      </trkpt>
      <trkpt lat="45.9078" lon="4.22041">
        <ele>518</ele>
        <time>2020-05-31T02:50:24Z</time>
      </trkpt>
      <trkpt lat="45.90766" lon="4.22072">
        <ele>519</ele>
        <time>2020-05-31T02:50:29Z</time>
      </trkpt>
      <trkpt lat="45.90737" lon="4.22108">
        <ele>520</ele>
        <time>2020-05-31T02:50:36Z</time>
      </trkpt>
      <trkpt lat="45.90645" lon="4.2222">
        <ele>525</ele>
        <time>2020-05-31T02:50:57Z</time>
      </trkpt>
      <trkpt lat="45.906" lon="4.22266">
        <ele>527</ele>
        <time>2020-05-31T02:51:07Z</time>
      </trkpt>
      <trkpt lat="45.90582" lon="4.22275">
        <ele>528</ele>
        <time>2020-05-31T02:51:10Z</time>
      </trkpt>
      <trkpt lat="45.90565" lon="4.22281">
        <ele>529</ele>
        <time>2020-05-31T02:51:13Z</time>
      </trkpt>
      <trkpt lat="45.90454" lon="4.22289">
        <ele>533</ele>
        <time>2020-05-31T02:51:33Z</time>
      </trkpt>
      <trkpt lat="45.90418" lon="4.22292">
        <ele>535</ele>
        <time>2020-05-31T02:51:39Z</time>
      </trkpt>
      <trkpt lat="45.90392" lon="4.22298">
        <ele>535</ele>
        <time>2020-05-31T02:51:44Z</time>
      </trkpt>
      <trkpt lat="45.90358" lon="4.22314">
        <ele>536</ele>
        <time>2020-05-31T02:51:51Z</time>
      </trkpt>
      <trkpt lat="45.90333" lon="4.22333">
        <ele>538</ele>
        <time>2020-05-31T02:51:56Z</time>
      </trkpt>
      <trkpt lat="45.90298" lon="4.22367">
        <ele>540</ele>
        <time>2020-05-31T02:52:03Z</time>
      </trkpt>
      <trkpt lat="45.90261" lon="4.22423">
        <ele>542</ele>
        <time>2020-05-31T02:52:13Z</time>
      </trkpt>
      <trkpt lat="45.90219" lon="4.22483">
        <ele>542</ele>
        <time>2020-05-31T02:52:23Z</time>
      </trkpt>
      <trkpt lat="45.90198" lon="4.22504">
        <ele>542</ele>
        <time>2020-05-31T02:52:28Z</time>
      </trkpt>
      <trkpt lat="45.90173" lon="4.22523">
        <ele>541</ele>
        <time>2020-05-31T02:52:33Z</time>
      </trkpt>
      <trkpt lat="45.90143" lon="4.22539">
        <ele>540</ele>
        <time>2020-05-31T02:52:38Z</time>
      </trkpt>
      <trkpt lat="45.8997" lon="4.22609">
        <ele>544</ele>
        <time>2020-05-31T02:53:10Z</time>
      </trkpt>
      <trkpt lat="45.89941" lon="4.22621">
        <ele>545</ele>
        <time>2020-05-31T02:53:16Z</time>
      </trkpt>
      <trkpt lat="45.89882" lon="4.22678">
        <ele>547</ele>
        <time>2020-05-31T02:53:28Z</time>
      </trkpt>
      <trkpt lat="45.8984" lon="4.2283">
        <ele>553</ele>
        <time>2020-05-31T02:53:49Z</time>
      </trkpt>
      <trkpt lat="45.89817" lon="4.22882">
        <ele>554</ele>
        <time>2020-05-31T02:53:56Z</time>
      </trkpt>
      <trkpt lat="45.89689" lon="4.22997">
        <ele>556</ele>
        <time>2020-05-31T02:54:23Z</time>
      </trkpt>
      <trkpt lat="45.89686" lon="4.23">
        <ele>556</ele>
        <time>2020-05-31T02:54:24Z</time>
      </trkpt>
      <trkpt lat="45.89662" lon="4.23021">
        <ele>558</ele>
        <time>2020-05-31T02:54:29Z</time>
      </trkpt>
      <trkpt lat="45.8964" lon="4.23042">
        <ele>558</ele>
        <time>2020-05-31T02:54:34Z</time>
      </trkpt>
      <trkpt lat="45.89634" lon="4.23047">
        <ele>558</ele>
        <time>2020-05-31T02:54:35Z</time>
      </trkpt>
      <trkpt lat="45.8959" lon="4.2308">
        <ele>559</ele>
        <time>2020-05-31T02:54:44Z</time>
      </trkpt>
      <trkpt lat="45.89539" lon="4.23118">
        <ele>559</ele>
        <time>2020-05-31T02:54:54Z</time>
      </trkpt>
      <trkpt lat="45.89384" lon="4.23242">
        <ele>562</ele>
        <time>2020-05-31T02:55:25Z</time>
      </trkpt>
      <trkpt lat="45.89363" lon="4.23256">
        <ele>563</ele>
        <time>2020-05-31T02:55:30Z</time>
      </trkpt>
      <trkpt lat="45.89341" lon="4.23266">
        <ele>564</ele>
        <time>2020-05-31T02:55:34Z</time>
      </trkpt>
      <trkpt lat="45.8929" lon="4.23277">
        <ele>564</ele>
        <time>2020-05-31T02:55:43Z</time>
      </trkpt>
      <trkpt lat="45.89238" lon="4.23286">
        <ele>563</ele>
        <time>2020-05-31T02:55:52Z</time>
      </trkpt>
      <trkpt lat="45.89218" lon="4.23294">
        <ele>562</ele>
        <time>2020-05-31T02:55:56Z</time>
      </trkpt>
      <trkpt lat="45.89206" lon="4.23309">
        <ele>562</ele>
        <time>2020-05-31T02:55:59Z</time>
      </trkpt>
      <trkpt lat="45.89198" lon="4.23329">
        <ele>563</ele>
        <time>2020-05-31T02:56:02Z</time>
      </trkpt>
      <trkpt lat="45.89194" lon="4.23347">
        <ele>563</ele>
        <time>2020-05-31T02:56:04Z</time>
      </trkpt>
      <trkpt lat="45.89205" lon="4.23548">
        <ele>566</ele>
        <time>2020-05-31T02:56:29Z</time>
      </trkpt>
      <trkpt lat="45.8921" lon="4.23586">
        <ele>566</ele>
        <time>2020-05-31T02:56:34Z</time>
      </trkpt>
      <trkpt lat="45.89213" lon="4.23619">
        <ele>566</ele>
        <time>2020-05-31T02:56:38Z</time>
      </trkpt>
      <trkpt lat="45.89208" lon="4.23622">
        <ele>566</ele>
        <time>2020-05-31T02:56:39Z</time>
      </trkpt>
      <trkpt lat="45.89206" lon="4.23629">
        <ele>566</ele>
        <time>2020-05-31T02:56:40Z</time>
      </trkpt>
      <trkpt lat="45.89208" lon="4.23636">
        <ele>566</ele>
        <time>2020-05-31T02:56:41Z</time>
      </trkpt>
      <trkpt lat="45.89209" lon="4.23637">
        <ele>566</ele>
        <time>2020-05-31T02:56:41Z</time>
      </trkpt>
      <trkpt lat="45.89213" lon="4.23639">
        <ele>566</ele>
        <time>2020-05-31T02:56:42Z</time>
      </trkpt>
      <trkpt lat="45.892" lon="4.2373">
        <ele>567</ele>
        <time>2020-05-31T02:56:53Z</time>
      </trkpt>
      <trkpt lat="45.89198" lon="4.23767">
        <ele>569</ele>
        <time>2020-05-31T02:56:58Z</time>
      </trkpt>
      <trkpt lat="45.89197" lon="4.23844">
        <ele>572</ele>
        <time>2020-05-31T02:57:07Z</time>
      </trkpt>
      <trkpt lat="45.892" lon="4.23929">
        <ele>573</ele>
        <time>2020-05-31T02:57:18Z</time>
      </trkpt>
      <trkpt lat="45.89198" lon="4.23952">
        <ele>574</ele>
        <time>2020-05-31T02:57:21Z</time>
      </trkpt>
      <trkpt lat="45.89195" lon="4.23969">
        <ele>574</ele>
        <time>2020-05-31T02:57:23Z</time>
      </trkpt>
      <trkpt lat="45.89186" lon="4.23996">
        <ele>574</ele>
        <time>2020-05-31T02:57:26Z</time>
      </trkpt>
      <trkpt lat="45.89174" lon="4.24033">
        <ele>574</ele>
        <time>2020-05-31T02:57:32Z</time>
      </trkpt>
      <trkpt lat="45.89173" lon="4.24038">
        <ele>574</ele>
        <time>2020-05-31T02:57:32Z</time>
      </trkpt>
      <trkpt lat="45.89168" lon="4.24053">
        <ele>574</ele>
        <time>2020-05-31T02:57:34Z</time>
      </trkpt>
      <trkpt lat="45.89138" lon="4.24149">
        <ele>567</ele>
        <time>2020-05-31T02:57:47Z</time>
      </trkpt>
      <trkpt lat="45.8911" lon="4.24218">
        <ele>561</ele>
        <time>2020-05-31T02:57:57Z</time>
      </trkpt>
      <trkpt lat="45.89097" lon="4.24234">
        <ele>560</ele>
        <time>2020-05-31T02:58:00Z</time>
      </trkpt>
      <trkpt lat="45.89045" lon="4.24283">
        <ele>555</ele>
        <time>2020-05-31T02:58:11Z</time>
      </trkpt>
      <trkpt lat="45.89026" lon="4.24296">
        <ele>554</ele>
        <time>2020-05-31T02:58:15Z</time>
      </trkpt>
      <trkpt lat="45.89006" lon="4.24309">
        <ele>553</ele>
        <time>2020-05-31T02:58:19Z</time>
      </trkpt>
      <trkpt lat="45.89" lon="4.24312">
        <ele>553</ele>
        <time>2020-05-31T02:58:20Z</time>
      </trkpt>
      <trkpt lat="45.88975" lon="4.24337">
        <ele>552</ele>
        <time>2020-05-31T02:58:25Z</time>
      </trkpt>
      <trkpt lat="45.88959" lon="4.24365">
        <ele>549</ele>
        <time>2020-05-31T02:58:30Z</time>
      </trkpt>
      <trkpt lat="45.88983" lon="4.24404">
        <ele>546</ele>
        <time>2020-05-31T02:58:36Z</time>
      </trkpt>
      <trkpt lat="45.88956" lon="4.2444">
        <ele>543</ele>
        <time>2020-05-31T02:58:43Z</time>
      </trkpt>
      <trkpt lat="45.88935" lon="4.24486">
        <ele>540</ele>
        <time>2020-05-31T02:58:50Z</time>
      </trkpt>
      <trkpt lat="45.88923" lon="4.24501">
        <ele>540</ele>
        <time>2020-05-31T02:58:53Z</time>
      </trkpt>
      <trkpt lat="45.88898" lon="4.24512">
        <ele>540</ele>
        <time>2020-05-31T02:58:57Z</time>
      </trkpt>
      <trkpt lat="45.88879" lon="4.24515">
        <ele>539</ele>
        <time>2020-05-31T02:59:01Z</time>
      </trkpt>
      <trkpt lat="45.88857" lon="4.24531">
        <ele>538</ele>
        <time>2020-05-31T02:59:05Z</time>
      </trkpt>
      <trkpt lat="45.88849" lon="4.24561">
        <ele>536</ele>
        <time>2020-05-31T02:59:09Z</time>
      </trkpt>
      <trkpt lat="45.88853" lon="4.24589">
        <ele>535</ele>
        <time>2020-05-31T02:59:13Z</time>
      </trkpt>
      <trkpt lat="45.88869" lon="4.24607">
        <ele>534</ele>
        <time>2020-05-31T02:59:16Z</time>
      </trkpt>
      <trkpt lat="45.88889" lon="4.24605">
        <ele>533</ele>
        <time>2020-05-31T02:59:20Z</time>
      </trkpt>
      <trkpt lat="45.8901" lon="4.24502">
        <ele>532</ele>
        <time>2020-05-31T02:59:45Z</time>
      </trkpt>
      <trkpt lat="45.89024" lon="4.24501">
        <ele>533</ele>
        <time>2020-05-31T02:59:47Z</time>
      </trkpt>
      <trkpt lat="45.89032" lon="4.24506">
        <ele>533</ele>
        <time>2020-05-31T02:59:49Z</time>
      </trkpt>
      <trkpt lat="45.89036" lon="4.24516">
        <ele>533</ele>
        <time>2020-05-31T02:59:50Z</time>
      </trkpt>
      <trkpt lat="45.89036" lon="4.24533">
        <ele>532</ele>
        <time>2020-05-31T02:59:52Z</time>
      </trkpt>
      <trkpt lat="45.8903" lon="4.24549">
        <ele>531</ele>
        <time>2020-05-31T02:59:55Z</time>
      </trkpt>
      <trkpt lat="45.88981" lon="4.24624">
        <ele>528</ele>
        <time>2020-05-31T03:00:07Z</time>
      </trkpt>
      <trkpt lat="45.88962" lon="4.24679">
        <ele>527</ele>
        <time>2020-05-31T03:00:15Z</time>
      </trkpt>
      <trkpt lat="45.8895" lon="4.24705">
        <ele>526</ele>
        <time>2020-05-31T03:00:19Z</time>
      </trkpt>
      <trkpt lat="45.88951" lon="4.24735">
        <ele>524</ele>
        <time>2020-05-31T03:00:23Z</time>
      </trkpt>
      <trkpt lat="45.88956" lon="4.24782">
        <ele>523</ele>
        <time>2020-05-31T03:00:28Z</time>
      </trkpt>
      <trkpt lat="45.8897" lon="4.24842">
        <ele>521</ele>
        <time>2020-05-31T03:00:36Z</time>
      </trkpt>
      <trkpt lat="45.88961" lon="4.24918">
        <ele>517</ele>
        <time>2020-05-31T03:00:46Z</time>
      </trkpt>
      <trkpt lat="45.88927" lon="4.25049">
        <ele>510</ele>
        <time>2020-05-31T03:01:03Z</time>
      </trkpt>
      <trkpt lat="45.88923" lon="4.25108">
        <ele>509</ele>
        <time>2020-05-31T03:01:10Z</time>
      </trkpt>
      <trkpt lat="45.88932" lon="4.25208">
        <ele>505</ele>
        <time>2020-05-31T03:01:23Z</time>
      </trkpt>
      <trkpt lat="45.88924" lon="4.25212">
        <ele>504</ele>
        <time>2020-05-31T03:01:24Z</time>
      </trkpt>
      <trkpt lat="45.88917" lon="4.25218">
        <ele>504</ele>
        <time>2020-05-31T03:01:26Z</time>
      </trkpt>
      <trkpt lat="45.8889" lon="4.2528">
        <ele>502</ele>
        <time>2020-05-31T03:01:35Z</time>
      </trkpt>
      <trkpt lat="45.88862" lon="4.25328">
        <ele>498</ele>
        <time>2020-05-31T03:01:43Z</time>
      </trkpt>
      <trkpt lat="45.88847" lon="4.25365">
        <ele>494</ele>
        <time>2020-05-31T03:01:48Z</time>
      </trkpt>
      <trkpt lat="45.88832" lon="4.25408">
        <ele>489</ele>
        <time>2020-05-31T03:01:54Z</time>
      </trkpt>
      <trkpt lat="45.88818" lon="4.25429">
        <ele>488</ele>
        <time>2020-05-31T03:01:58Z</time>
      </trkpt>
      <trkpt lat="45.88808" lon="4.25432">
        <ele>488</ele>
        <time>2020-05-31T03:01:59Z</time>
      </trkpt>
      <trkpt lat="45.88784" lon="4.25431">
        <ele>489</ele>
        <time>2020-05-31T03:02:04Z</time>
      </trkpt>
      <trkpt lat="45.88768" lon="4.25428">
        <ele>490</ele>
        <time>2020-05-31T03:02:07Z</time>
      </trkpt>
      <trkpt lat="45.88722" lon="4.25429">
        <ele>492</ele>
        <time>2020-05-31T03:02:15Z</time>
      </trkpt>
      <trkpt lat="45.88716" lon="4.25425">
        <ele>492</ele>
        <time>2020-05-31T03:02:16Z</time>
      </trkpt>
      <trkpt lat="45.88714" lon="4.25418">
        <ele>493</ele>
        <time>2020-05-31T03:02:17Z</time>
      </trkpt>
      <trkpt lat="45.88718" lon="4.25388">
        <ele>498</ele>
        <time>2020-05-31T03:02:21Z</time>
      </trkpt>
      <trkpt lat="45.88718" lon="4.25382">
        <ele>499</ele>
        <time>2020-05-31T03:02:21Z</time>
      </trkpt>
      <trkpt lat="45.88712" lon="4.25376">
        <ele>500</ele>
        <time>2020-05-31T03:02:23Z</time>
      </trkpt>
      <trkpt lat="45.88681" lon="4.25361">
        <ele>504</ele>
        <time>2020-05-31T03:02:28Z</time>
      </trkpt>
      <trkpt lat="45.8865" lon="4.25355">
        <ele>508</ele>
        <time>2020-05-31T03:02:34Z</time>
      </trkpt>
      <trkpt lat="45.88616" lon="4.25354">
        <ele>512</ele>
        <time>2020-05-31T03:02:40Z</time>
      </trkpt>
      <trkpt lat="45.88594" lon="4.25358">
        <ele>514</ele>
        <time>2020-05-31T03:02:44Z</time>
      </trkpt>
      <trkpt lat="45.88571" lon="4.25365">
        <ele>515</ele>
        <time>2020-05-31T03:02:48Z</time>
      </trkpt>
      <trkpt lat="45.8852" lon="4.25385">
        <ele>518</ele>
        <time>2020-05-31T03:02:58Z</time>
      </trkpt>
      <trkpt lat="45.8846" lon="4.2539">
        <ele>522</ele>
        <time>2020-05-31T03:03:08Z</time>
      </trkpt>
      <trkpt lat="45.88449" lon="4.25499">
        <ele>524</ele>
        <time>2020-05-31T03:03:22Z</time>
      </trkpt>
      <trkpt lat="45.88436" lon="4.25556">
        <ele>527</ele>
        <time>2020-05-31T03:03:29Z</time>
      </trkpt>
      <trkpt lat="45.88419" lon="4.25598">
        <ele>529</ele>
        <time>2020-05-31T03:03:35Z</time>
      </trkpt>
      <trkpt lat="45.88393" lon="4.2563">
        <ele>529</ele>
        <time>2020-05-31T03:03:42Z</time>
      </trkpt>
      <trkpt lat="45.88364" lon="4.2565">
        <ele>531</ele>
        <time>2020-05-31T03:03:47Z</time>
      </trkpt>
      <trkpt lat="45.88332" lon="4.25663">
        <ele>532</ele>
        <time>2020-05-31T03:03:53Z</time>
      </trkpt>
      <trkpt lat="45.88259" lon="4.25661">
        <ele>536</ele>
        <time>2020-05-31T03:04:06Z</time>
      </trkpt>
      <trkpt lat="45.88206" lon="4.25664">
        <ele>538</ele>
        <time>2020-05-31T03:04:16Z</time>
      </trkpt>
      <trkpt lat="45.88128" lon="4.25696">
        <ele>542</ele>
        <time>2020-05-31T03:04:30Z</time>
      </trkpt>
      <trkpt lat="45.88086" lon="4.25694">
        <ele>548</ele>
        <time>2020-05-31T03:04:37Z</time>
      </trkpt>
      <trkpt lat="45.88052" lon="4.25703">
        <ele>549</ele>
        <time>2020-05-31T03:04:44Z</time>
      </trkpt>
      <trkpt lat="45.87943" lon="4.25781">
        <ele>542</ele>
        <time>2020-05-31T03:05:05Z</time>
      </trkpt>
      <trkpt lat="45.87899" lon="4.25803">
        <ele>544</ele>
        <time>2020-05-31T03:05:14Z</time>
      </trkpt>
      <trkpt lat="45.87886" lon="4.25816">
        <ele>545</ele>
        <time>2020-05-31T03:05:16Z</time>
      </trkpt>
      <trkpt lat="45.87876" lon="4.25854">
        <ele>547</ele>
        <time>2020-05-31T03:05:21Z</time>
      </trkpt>
      <trkpt lat="45.87871" lon="4.25908">
        <ele>551</ele>
        <time>2020-05-31T03:05:28Z</time>
      </trkpt>
      <trkpt lat="45.87876" lon="4.25946">
        <ele>553</ele>
        <time>2020-05-31T03:05:33Z</time>
      </trkpt>
      <trkpt lat="45.8793" lon="4.26043">
        <ele>554</ele>
        <time>2020-05-31T03:05:48Z</time>
      </trkpt>
      <trkpt lat="45.88041" lon="4.26177">
        <ele>555</ele>
        <time>2020-05-31T03:06:14Z</time>
      </trkpt>
      <trkpt lat="45.88055" lon="4.26211">
        <ele>554</ele>
        <time>2020-05-31T03:06:19Z</time>
      </trkpt>
      <trkpt lat="45.88068" lon="4.26272">
        <ele>553</ele>
        <time>2020-05-31T03:06:27Z</time>
      </trkpt>
      <trkpt lat="45.88064" lon="4.263">
        <ele>553</ele>
        <time>2020-05-31T03:06:30Z</time>
      </trkpt>
      <trkpt lat="45.88054" lon="4.26338">
        <ele>554</ele>
        <time>2020-05-31T03:06:36Z</time>
      </trkpt>
      <trkpt lat="45.88037" lon="4.26368">
        <ele>555</ele>
        <time>2020-05-31T03:06:40Z</time>
      </trkpt>
      <trkpt lat="45.88014" lon="4.26386">
        <ele>559</ele>
        <time>2020-05-31T03:06:45Z</time>
      </trkpt>
      <trkpt lat="45.87978" lon="4.26397">
        <ele>566</ele>
        <time>2020-05-31T03:06:52Z</time>
      </trkpt>
      <trkpt lat="45.8795" lon="4.26416">
        <ele>569</ele>
        <time>2020-05-31T03:06:57Z</time>
      </trkpt>
      <trkpt lat="45.8793" lon="4.26447">
        <ele>571</ele>
        <time>2020-05-31T03:07:02Z</time>
      </trkpt>
      <trkpt lat="45.87921" lon="4.26478">
        <ele>570</ele>
        <time>2020-05-31T03:07:06Z</time>
      </trkpt>
      <trkpt lat="45.8792" lon="4.26507">
        <ele>568</ele>
        <time>2020-05-31T03:07:10Z</time>
      </trkpt>
      <trkpt lat="45.87925" lon="4.2654">
        <ele>571</ele>
        <time>2020-05-31T03:07:14Z</time>
      </trkpt>
      <trkpt lat="45.87974" lon="4.26611">
        <ele>571</ele>
        <time>2020-05-31T03:07:27Z</time>
      </trkpt>
      <trkpt lat="45.87989" lon="4.26623">
        <ele>569</ele>
        <time>2020-05-31T03:07:30Z</time>
      </trkpt>
      <trkpt lat="45.88047" lon="4.26646">
        <ele>563</ele>
        <time>2020-05-31T03:07:40Z</time>
      </trkpt>
      <trkpt lat="45.88066" lon="4.26662">
        <ele>562</ele>
        <time>2020-05-31T03:07:44Z</time>
      </trkpt>
      <trkpt lat="45.88079" lon="4.26685">
        <ele>563</ele>
        <time>2020-05-31T03:07:48Z</time>
      </trkpt>
      <trkpt lat="45.88092" lon="4.26727">
        <ele>564</ele>
        <time>2020-05-31T03:07:54Z</time>
      </trkpt>
      <trkpt lat="45.88096" lon="4.26754">
        <ele>564</ele>
        <time>2020-05-31T03:07:57Z</time>
      </trkpt>
      <trkpt lat="45.88092" lon="4.26783">
        <ele>564</ele>
        <time>2020-05-31T03:08:01Z</time>
      </trkpt>
      <trkpt lat="45.88075" lon="4.26822">
        <ele>569</ele>
        <time>2020-05-31T03:08:06Z</time>
      </trkpt>
      <trkpt lat="45.88009" lon="4.26944">
        <ele>575</ele>
        <time>2020-05-31T03:08:26Z</time>
      </trkpt>
      <trkpt lat="45.87982" lon="4.26984">
        <ele>575</ele>
        <time>2020-05-31T03:08:32Z</time>
      </trkpt>
      <trkpt lat="45.87962" lon="4.27004">
        <ele>575</ele>
        <time>2020-05-31T03:08:37Z</time>
      </trkpt>
      <trkpt lat="45.87916" lon="4.27025">
        <ele>581</ele>
        <time>2020-05-31T03:08:45Z</time>
      </trkpt>
      <trkpt lat="45.8786" lon="4.27084">
        <ele>578</ele>
        <time>2020-05-31T03:08:58Z</time>
      </trkpt>
      <trkpt lat="45.87843" lon="4.27107">
        <ele>581</ele>
        <time>2020-05-31T03:09:02Z</time>
      </trkpt>
      <trkpt lat="45.87838" lon="4.27131">
        <ele>582</ele>
        <time>2020-05-31T03:09:05Z</time>
      </trkpt>
      <trkpt lat="45.87861" lon="4.27215">
        <ele>576</ele>
        <time>2020-05-31T03:09:16Z</time>
      </trkpt>
      <trkpt lat="45.87861" lon="4.27253">
        <ele>578</ele>
        <time>2020-05-31T03:09:21Z</time>
      </trkpt>
      <trkpt lat="45.87855" lon="4.27292">
        <ele>578</ele>
        <time>2020-05-31T03:09:26Z</time>
      </trkpt>
      <trkpt lat="45.87836" lon="4.27332">
        <ele>582</ele>
        <time>2020-05-31T03:09:32Z</time>
      </trkpt>
      <trkpt lat="45.87783" lon="4.27412">
        <ele>583</ele>
        <time>2020-05-31T03:09:46Z</time>
      </trkpt>
      <trkpt lat="45.87743" lon="4.27479">
        <ele>588</ele>
        <time>2020-05-31T03:09:56Z</time>
      </trkpt>
      <trkpt lat="45.87733" lon="4.27501">
        <ele>589</ele>
        <time>2020-05-31T03:10:00Z</time>
      </trkpt>
      <trkpt lat="45.87733" lon="4.27531">
        <ele>590</ele>
        <time>2020-05-31T03:10:03Z</time>
      </trkpt>
      <trkpt lat="45.8775" lon="4.27557">
        <ele>588</ele>
        <time>2020-05-31T03:10:08Z</time>
      </trkpt>
      <trkpt lat="45.87762" lon="4.27566">
        <ele>588</ele>
        <time>2020-05-31T03:10:10Z</time>
      </trkpt>
      <trkpt lat="45.87793" lon="4.27563">
        <ele>587</ele>
        <time>2020-05-31T03:10:16Z</time>
      </trkpt>
      <trkpt lat="45.87833" lon="4.27539">
        <ele>582</ele>
        <time>2020-05-31T03:10:23Z</time>
      </trkpt>
      <trkpt lat="45.87847" lon="4.27532">
        <ele>580</ele>
        <time>2020-05-31T03:10:26Z</time>
      </trkpt>
      <trkpt lat="45.87854" lon="4.27529">
        <ele>579</ele>
        <time>2020-05-31T03:10:27Z</time>
      </trkpt>
      <trkpt lat="45.87879" lon="4.27538">
        <ele>579</ele>
        <time>2020-05-31T03:10:32Z</time>
      </trkpt>
      <trkpt lat="45.8792" lon="4.27565">
        <ele>578</ele>
        <time>2020-05-31T03:10:40Z</time>
      </trkpt>
      <trkpt lat="45.87938" lon="4.27606">
        <ele>579</ele>
        <time>2020-05-31T03:10:46Z</time>
      </trkpt>
      <trkpt lat="45.87948" lon="4.27634">
        <ele>581</ele>
        <time>2020-05-31T03:10:50Z</time>
      </trkpt>
      <trkpt lat="45.8798" lon="4.27698">
        <ele>578</ele>
        <time>2020-05-31T03:11:00Z</time>
      </trkpt>
      <trkpt lat="45.87975" lon="4.27741">
        <ele>580</ele>
        <time>2020-05-31T03:11:05Z</time>
      </trkpt>
      <trkpt lat="45.87957" lon="4.27772">
        <ele>582</ele>
        <time>2020-05-31T03:11:10Z</time>
      </trkpt>
      <trkpt lat="45.87901" lon="4.27835">
        <ele>587</ele>
        <time>2020-05-31T03:11:23Z</time>
      </trkpt>
      <trkpt lat="45.87886" lon="4.27869">
        <ele>591</ele>
        <time>2020-05-31T03:11:28Z</time>
      </trkpt>
      <trkpt lat="45.87878" lon="4.2792">
        <ele>591</ele>
        <time>2020-05-31T03:11:34Z</time>
      </trkpt>
      <trkpt lat="45.87879" lon="4.27972">
        <ele>592</ele>
        <time>2020-05-31T03:11:41Z</time>
      </trkpt>
      <trkpt lat="45.87887" lon="4.28018">
        <ele>592</ele>
        <time>2020-05-31T03:11:47Z</time>
      </trkpt>
      <trkpt lat="45.87894" lon="4.28035">
        <ele>592</ele>
        <time>2020-05-31T03:11:49Z</time>
      </trkpt>
      <trkpt lat="45.87903" lon="4.28049">
        <ele>592</ele>
        <time>2020-05-31T03:11:51Z</time>
      </trkpt>
      <trkpt lat="45.87976" lon="4.28099">
        <ele>590</ele>
        <time>2020-05-31T03:12:06Z</time>
      </trkpt>
      <trkpt lat="45.87987" lon="4.28127">
        <ele>590</ele>
        <time>2020-05-31T03:12:10Z</time>
      </trkpt>
      <trkpt lat="45.87984" lon="4.28149">
        <ele>591</ele>
        <time>2020-05-31T03:12:12Z</time>
      </trkpt>
      <trkpt lat="45.87975" lon="4.2818">
        <ele>591</ele>
        <time>2020-05-31T03:12:17Z</time>
      </trkpt>
      <trkpt lat="45.87956" lon="4.28203">
        <ele>590</ele>
        <time>2020-05-31T03:12:21Z</time>
      </trkpt>
      <trkpt lat="45.87844" lon="4.2827">
        <ele>595</ele>
        <time>2020-05-31T03:12:43Z</time>
      </trkpt>
      <trkpt lat="45.8779" lon="4.283">
        <ele>598</ele>
        <time>2020-05-31T03:12:53Z</time>
      </trkpt>
      <trkpt lat="45.87759" lon="4.28328">
        <ele>600</ele>
        <time>2020-05-31T03:12:59Z</time>
      </trkpt>
      <trkpt lat="45.87734" lon="4.28381">
        <ele>598</ele>
        <time>2020-05-31T03:13:07Z</time>
      </trkpt>
      <trkpt lat="45.87704" lon="4.28422">
        <ele>601</ele>
        <time>2020-05-31T03:13:15Z</time>
      </trkpt>
      <trkpt lat="45.87682" lon="4.28458">
        <ele>605</ele>
        <time>2020-05-31T03:13:21Z</time>
      </trkpt>
      <trkpt lat="45.87676" lon="4.285">
        <ele>604</ele>
        <time>2020-05-31T03:13:26Z</time>
      </trkpt>
      <trkpt lat="45.87685" lon="4.28551">
        <ele>604</ele>
        <time>2020-05-31T03:13:33Z</time>
      </trkpt>
      <trkpt lat="45.87698" lon="4.28604">
        <ele>601</ele>
        <time>2020-05-31T03:13:39Z</time>
      </trkpt>
      <trkpt lat="45.87697" lon="4.28646">
        <ele>600</ele>
        <time>2020-05-31T03:13:45Z</time>
      </trkpt>
      <trkpt lat="45.87685" lon="4.28681">
        <ele>600</ele>
        <time>2020-05-31T03:13:50Z</time>
      </trkpt>
      <trkpt lat="45.8763" lon="4.28732">
        <ele>605</ele>
        <time>2020-05-31T03:14:01Z</time>
      </trkpt>
      <trkpt lat="45.87582" lon="4.28758">
        <ele>609</ele>
        <time>2020-05-31T03:14:10Z</time>
      </trkpt>
      <trkpt lat="45.87522" lon="4.28769">
        <ele>610</ele>
        <time>2020-05-31T03:14:21Z</time>
      </trkpt>
      <trkpt lat="45.87475" lon="4.2878">
        <ele>610</ele>
        <time>2020-05-31T03:14:30Z</time>
      </trkpt>
      <trkpt lat="45.87437" lon="4.28805">
        <ele>609</ele>
        <time>2020-05-31T03:14:37Z</time>
      </trkpt>
      <trkpt lat="45.87354" lon="4.28828">
        <ele>611</ele>
        <time>2020-05-31T03:14:52Z</time>
      </trkpt>
      <trkpt lat="45.87332" lon="4.28848">
        <ele>611</ele>
        <time>2020-05-31T03:14:57Z</time>
      </trkpt>
      <trkpt lat="45.87268" lon="4.2897">
        <ele>617</ele>
        <time>2020-05-31T03:15:16Z</time>
      </trkpt>
      <trkpt lat="45.87233" lon="4.28995">
        <ele>622</ele>
        <time>2020-05-31T03:15:23Z</time>
      </trkpt>
      <trkpt lat="45.87133" lon="4.29019">
        <ele>627</ele>
        <time>2020-05-31T03:15:41Z</time>
      </trkpt>
      <trkpt lat="45.87082" lon="4.29042">
        <ele>630</ele>
        <time>2020-05-31T03:15:50Z</time>
      </trkpt>
      <trkpt lat="45.87036" lon="4.29057">
        <ele>632</ele>
        <time>2020-05-31T03:15:58Z</time>
      </trkpt>
      <trkpt lat="45.87014" lon="4.29057">
        <ele>632</ele>
        <time>2020-05-31T03:16:02Z</time>
      </trkpt>
      <trkpt lat="45.86989" lon="4.29058">
        <ele>634</ele>
        <time>2020-05-31T03:16:07Z</time>
      </trkpt>
      <trkpt lat="45.86913" lon="4.29041">
        <ele>640</ele>
        <time>2020-05-31T03:16:21Z</time>
      </trkpt>
      <trkpt lat="45.86873" lon="4.29055">
        <ele>641</ele>
        <time>2020-05-31T03:16:28Z</time>
      </trkpt>
      <trkpt lat="45.86857" lon="4.29078">
        <ele>642</ele>
        <time>2020-05-31T03:16:32Z</time>
      </trkpt>
      <trkpt lat="45.86812" lon="4.29139">
        <ele>644</ele>
        <time>2020-05-31T03:16:43Z</time>
      </trkpt>
      <trkpt lat="45.86752" lon="4.29198">
        <ele>646</ele>
        <time>2020-05-31T03:16:56Z</time>
      </trkpt>
      <trkpt lat="45.86713" lon="4.29264">
        <ele>654</ele>
        <time>2020-05-31T03:17:07Z</time>
      </trkpt>
      <trkpt lat="45.8669" lon="4.29282">
        <ele>655</ele>
        <time>2020-05-31T03:17:11Z</time>
      </trkpt>
      <trkpt lat="45.86628" lon="4.29285">
        <ele>651</ele>
        <time>2020-05-31T03:17:22Z</time>
      </trkpt>
      <trkpt lat="45.86604" lon="4.29279">
        <ele>648</ele>
        <time>2020-05-31T03:17:27Z</time>
      </trkpt>
      <trkpt lat="45.86583" lon="4.29293">
        <ele>650</ele>
        <time>2020-05-31T03:17:31Z</time>
      </trkpt>
      <trkpt lat="45.86558" lon="4.29296">
        <ele>652</ele>
        <time>2020-05-31T03:17:35Z</time>
      </trkpt>
      <trkpt lat="45.86537" lon="4.29285">
        <ele>649</ele>
        <time>2020-05-31T03:17:39Z</time>
      </trkpt>
      <trkpt lat="45.86518" lon="4.29282">
        <ele>649</ele>
        <time>2020-05-31T03:17:43Z</time>
      </trkpt>
      <trkpt lat="45.86491" lon="4.29297">
        <ele>651</ele>
        <time>2020-05-31T03:17:48Z</time>
      </trkpt>
      <trkpt lat="45.86468" lon="4.29342">
        <ele>654</ele>
        <time>2020-05-31T03:17:55Z</time>
      </trkpt>
      <trkpt lat="45.86416" lon="4.29428">
        <ele>654</ele>
        <time>2020-05-31T03:18:09Z</time>
      </trkpt>
      <trkpt lat="45.86369" lon="4.29501">
        <ele>653</ele>
        <time>2020-05-31T03:18:21Z</time>
      </trkpt>
      <trkpt lat="45.86352" lon="4.29534">
        <ele>652</ele>
        <time>2020-05-31T03:18:26Z</time>
      </trkpt>
      <trkpt lat="45.86282" lon="4.29788">
        <ele>658</ele>
        <time>2020-05-31T03:19:00Z</time>
      </trkpt>
      <trkpt lat="45.8626" lon="4.29894">
        <ele>656</ele>
        <time>2020-05-31T03:19:14Z</time>
      </trkpt>
      <trkpt lat="45.86259" lon="4.29928">
        <ele>655</ele>
        <time>2020-05-31T03:19:18Z</time>
      </trkpt>
      <trkpt lat="45.86271" lon="4.29972">
        <ele>654</ele>
        <time>2020-05-31T03:19:24Z</time>
      </trkpt>
      <trkpt lat="45.86285" lon="4.29992">
        <ele>654</ele>
        <time>2020-05-31T03:19:27Z</time>
      </trkpt>
      <trkpt lat="45.86302" lon="4.29999">
        <ele>656</ele>
        <time>2020-05-31T03:19:30Z</time>
      </trkpt>
      <trkpt lat="45.86323" lon="4.29992">
        <ele>660</ele>
        <time>2020-05-31T03:19:34Z</time>
      </trkpt>
      <trkpt lat="45.86347" lon="4.29991">
        <ele>665</ele>
        <time>2020-05-31T03:19:39Z</time>
      </trkpt>
      <trkpt lat="45.86361" lon="4.29999">
        <ele>668</ele>
        <time>2020-05-31T03:19:41Z</time>
      </trkpt>
      <trkpt lat="45.8637" lon="4.30013">
        <ele>669</ele>
        <time>2020-05-31T03:19:44Z</time>
      </trkpt>
      <trkpt lat="45.86366" lon="4.30049">
        <ele>667</ele>
        <time>2020-05-31T03:19:48Z</time>
      </trkpt>
      <trkpt lat="45.86355" lon="4.30113">
        <ele>663</ele>
        <time>2020-05-31T03:19:56Z</time>
      </trkpt>
      <trkpt lat="45.86356" lon="4.30167">
        <ele>666</ele>
        <time>2020-05-31T03:20:03Z</time>
      </trkpt>
      <trkpt lat="45.86361" lon="4.30225">
        <ele>669</ele>
        <time>2020-05-31T03:20:10Z</time>
      </trkpt>
      <trkpt lat="45.86357" lon="4.30271">
        <ele>670</ele>
        <time>2020-05-31T03:20:16Z</time>
      </trkpt>
      <trkpt lat="45.86351" lon="4.30301">
        <ele>670</ele>
        <time>2020-05-31T03:20:20Z</time>
      </trkpt>
      <trkpt lat="45.86339" lon="4.30322">
        <ele>669</ele>
        <time>2020-05-31T03:20:23Z</time>
      </trkpt>
      <trkpt lat="45.86309" lon="4.30342">
        <ele>668</ele>
        <time>2020-05-31T03:20:29Z</time>
      </trkpt>
      <trkpt lat="45.86269" lon="4.30354">
        <ele>667</ele>
        <time>2020-05-31T03:20:36Z</time>
      </trkpt>
      <trkpt lat="45.86238" lon="4.30372">
        <ele>667</ele>
        <time>2020-05-31T03:20:42Z</time>
      </trkpt>
      <trkpt lat="45.86216" lon="4.30396">
        <ele>667</ele>
        <time>2020-05-31T03:20:47Z</time>
      </trkpt>
      <trkpt lat="45.86203" lon="4.30425">
        <ele>668</ele>
        <time>2020-05-31T03:20:51Z</time>
      </trkpt>
      <trkpt lat="45.86198" lon="4.30457">
        <ele>668</ele>
        <time>2020-05-31T03:20:56Z</time>
      </trkpt>
      <trkpt lat="45.86205" lon="4.30501">
        <ele>672</ele>
        <time>2020-05-31T03:21:01Z</time>
      </trkpt>
      <trkpt lat="45.86216" lon="4.30548">
        <ele>675</ele>
        <time>2020-05-31T03:21:07Z</time>
      </trkpt>
      <trkpt lat="45.86215" lon="4.30582">
        <ele>674</ele>
        <time>2020-05-31T03:21:11Z</time>
      </trkpt>
      <trkpt lat="45.86198" lon="4.30621">
        <ele>673</ele>
        <time>2020-05-31T03:21:17Z</time>
      </trkpt>
      <trkpt lat="45.86181" lon="4.30647">
        <ele>672</ele>
        <time>2020-05-31T03:21:22Z</time>
      </trkpt>
      <trkpt lat="45.86171" lon="4.30661">
        <ele>673</ele>
        <time>2020-05-31T03:21:24Z</time>
      </trkpt>
      <trkpt lat="45.86167" lon="4.30665">
        <ele>673</ele>
        <time>2020-05-31T03:21:25Z</time>
      </trkpt>
      <trkpt lat="45.86133" lon="4.30687">
        <ele>674</ele>
        <time>2020-05-31T03:21:32Z</time>
      </trkpt>
      <trkpt lat="45.86098" lon="4.30691">
        <ele>675</ele>
        <time>2020-05-31T03:21:38Z</time>
      </trkpt>
      <trkpt lat="45.86008" lon="4.3067">
        <ele>677</ele>
        <time>2020-05-31T03:21:54Z</time>
      </trkpt>
      <trkpt lat="45.85979" lon="4.30669">
        <ele>676</ele>
        <time>2020-05-31T03:21:59Z</time>
      </trkpt>
      <trkpt lat="45.85961" lon="4.30683">
        <ele>676</ele>
        <time>2020-05-31T03:22:03Z</time>
      </trkpt>
      <trkpt lat="45.85943" lon="4.30718">
        <ele>679</ele>
        <time>2020-05-31T03:22:08Z</time>
      </trkpt>
      <trkpt lat="45.85926" lon="4.30763">
        <ele>682</ele>
        <time>2020-05-31T03:22:15Z</time>
      </trkpt>
      <trkpt lat="45.85908" lon="4.308">
        <ele>686</ele>
        <time>2020-05-31T03:22:20Z</time>
      </trkpt>
      <trkpt lat="45.85852" lon="4.30802">
        <ele>691</ele>
        <time>2020-05-31T03:22:30Z</time>
      </trkpt>
      <trkpt lat="45.85815" lon="4.30795">
        <ele>692</ele>
        <time>2020-05-31T03:22:37Z</time>
      </trkpt>
      <trkpt lat="45.85761" lon="4.30797">
        <ele>694</ele>
        <time>2020-05-31T03:22:46Z</time>
      </trkpt>
      <trkpt lat="45.85702" lon="4.30806">
        <ele>696</ele>
        <time>2020-05-31T03:22:57Z</time>
      </trkpt>
      <trkpt lat="45.85677" lon="4.30817">
        <ele>698</ele>
        <time>2020-05-31T03:23:02Z</time>
      </trkpt>
      <trkpt lat="45.85649" lon="4.30842">
        <ele>701</ele>
        <time>2020-05-31T03:23:07Z</time>
      </trkpt>
      <trkpt lat="45.85623" lon="4.30869">
        <ele>702</ele>
        <time>2020-05-31T03:23:13Z</time>
      </trkpt>
      <trkpt lat="45.85578" lon="4.30937">
        <ele>709</ele>
        <time>2020-05-31T03:23:25Z</time>
      </trkpt>
      <trkpt lat="45.8557" lon="4.30956">
        <ele>712</ele>
        <time>2020-05-31T03:23:28Z</time>
      </trkpt>
      <trkpt lat="45.85561" lon="4.30972">
        <ele>715</ele>
        <time>2020-05-31T03:23:30Z</time>
      </trkpt>
      <trkpt lat="45.85548" lon="4.30983">
        <ele>716</ele>
        <time>2020-05-31T03:23:33Z</time>
      </trkpt>
      <trkpt lat="45.85537" lon="4.30984">
        <ele>716</ele>
        <time>2020-05-31T03:23:35Z</time>
      </trkpt>
      <trkpt lat="45.85471" lon="4.30955">
        <ele>706</ele>
        <time>2020-05-31T03:23:47Z</time>
      </trkpt>
      <trkpt lat="45.85452" lon="4.30955">
        <ele>705</ele>
        <time>2020-05-31T03:23:50Z</time>
      </trkpt>
      <trkpt lat="45.85387" lon="4.30993">
        <ele>714</ele>
        <time>2020-05-31T03:24:03Z</time>
      </trkpt>
      <trkpt lat="45.85367" lon="4.30996">
        <ele>717</ele>
        <time>2020-05-31T03:24:06Z</time>
      </trkpt>
      <trkpt lat="45.85351" lon="4.30985">
        <ele>717</ele>
        <time>2020-05-31T03:24:10Z</time>
      </trkpt>
      <trkpt lat="45.85333" lon="4.30955">
        <ele>715</ele>
        <time>2020-05-31T03:24:15Z</time>
      </trkpt>
      <trkpt lat="45.85325" lon="4.30924">
        <ele>711</ele>
        <time>2020-05-31T03:24:19Z</time>
      </trkpt>
      <trkpt lat="45.85322" lon="4.30896">
        <ele>710</ele>
        <time>2020-05-31T03:24:22Z</time>
      </trkpt>
      <trkpt lat="45.85322" lon="4.30873">
        <ele>710</ele>
        <time>2020-05-31T03:24:25Z</time>
      </trkpt>
      <trkpt lat="45.85327" lon="4.30812">
        <ele>709</ele>
        <time>2020-05-31T03:24:33Z</time>
      </trkpt>
      <trkpt lat="45.85319" lon="4.30797">
        <ele>709</ele>
        <time>2020-05-31T03:24:35Z</time>
      </trkpt>
      <trkpt lat="45.85307" lon="4.3079">
        <ele>709</ele>
        <time>2020-05-31T03:24:37Z</time>
      </trkpt>
      <trkpt lat="45.85302" lon="4.30788">
        <ele>709</ele>
        <time>2020-05-31T03:24:38Z</time>
      </trkpt>
      <trkpt lat="45.85286" lon="4.30921">
        <ele>713</ele>
        <time>2020-05-31T03:24:55Z</time>
      </trkpt>
      <trkpt lat="45.85285" lon="4.30939">
        <ele>716</ele>
        <time>2020-05-31T03:24:57Z</time>
      </trkpt>
      <trkpt lat="45.85281" lon="4.30947">
        <ele>717</ele>
        <time>2020-05-31T03:24:58Z</time>
      </trkpt>
      <trkpt lat="45.85279" lon="4.30954">
        <ele>718</ele>
        <time>2020-05-31T03:24:59Z</time>
      </trkpt>
      <trkpt lat="45.8528" lon="4.30964">
        <ele>720</ele>
        <time>2020-05-31T03:25:01Z</time>
      </trkpt>
      <trkpt lat="45.85284" lon="4.3099">
        <ele>723</ele>
        <time>2020-05-31T03:25:04Z</time>
      </trkpt>
      <trkpt lat="45.85299" lon="4.31034">
        <ele>729</ele>
        <time>2020-05-31T03:25:10Z</time>
      </trkpt>
      <trkpt lat="45.8532" lon="4.31066">
        <ele>734</ele>
        <time>2020-05-31T03:25:15Z</time>
      </trkpt>
      <trkpt lat="45.85362" lon="4.31103">
        <ele>736</ele>
        <time>2020-05-31T03:25:24Z</time>
      </trkpt>
      <trkpt lat="45.85397" lon="4.31146">
        <ele>736</ele>
        <time>2020-05-31T03:25:32Z</time>
      </trkpt>
      <trkpt lat="45.85418" lon="4.31179">
        <ele>737</ele>
        <time>2020-05-31T03:25:38Z</time>
      </trkpt>
      <trkpt lat="45.85451" lon="4.31245">
        <ele>737</ele>
        <time>2020-05-31T03:25:48Z</time>
      </trkpt>
      <trkpt lat="45.85466" lon="4.31233">
        <ele>738</ele>
        <time>2020-05-31T03:25:51Z</time>
      </trkpt>
      <trkpt lat="45.85505" lon="4.31303">
        <ele>738</ele>
        <time>2020-05-31T03:26:02Z</time>
      </trkpt>
      <trkpt lat="45.85517" lon="4.31331">
        <ele>738</ele>
        <time>2020-05-31T03:26:06Z</time>
      </trkpt>
      <trkpt lat="45.85527" lon="4.31358">
        <ele>739</ele>
        <time>2020-05-31T03:26:10Z</time>
      </trkpt>
      <trkpt lat="45.85535" lon="4.31393">
        <ele>739</ele>
        <time>2020-05-31T03:26:15Z</time>
      </trkpt>
      <trkpt lat="45.8554" lon="4.31426">
        <ele>740</ele>
        <time>2020-05-31T03:26:19Z</time>
      </trkpt>
      <trkpt lat="45.85584" lon="4.31827">
        <ele>743</ele>
        <time>2020-05-31T03:27:09Z</time>
      </trkpt>
      <trkpt lat="45.85584" lon="4.3185">
        <ele>743</ele>
        <time>2020-05-31T03:27:12Z</time>
      </trkpt>
      <trkpt lat="45.85582" lon="4.31881">
        <ele>743</ele>
        <time>2020-05-31T03:27:16Z</time>
      </trkpt>
      <trkpt lat="45.85579" lon="4.31902">
        <ele>742</ele>
        <time>2020-05-31T03:27:18Z</time>
      </trkpt>
      <trkpt lat="45.85573" lon="4.31922">
        <ele>742</ele>
        <time>2020-05-31T03:27:21Z</time>
      </trkpt>
      <trkpt lat="45.85567" lon="4.31939">
        <ele>742</ele>
        <time>2020-05-31T03:27:23Z</time>
      </trkpt>
      <trkpt lat="45.85548" lon="4.3197">
        <ele>742</ele>
        <time>2020-05-31T03:27:29Z</time>
      </trkpt>
      <trkpt lat="45.85533" lon="4.31988">
        <ele>743</ele>
        <time>2020-05-31T03:27:32Z</time>
      </trkpt>
      <trkpt lat="45.85497" lon="4.32011">
        <ele>743</ele>
        <time>2020-05-31T03:27:39Z</time>
      </trkpt>
      <trkpt lat="45.8542" lon="4.32043">
        <ele>744</ele>
        <time>2020-05-31T03:27:53Z</time>
      </trkpt>
      <trkpt lat="45.85401" lon="4.32051">
        <ele>745</ele>
        <time>2020-05-31T03:27:57Z</time>
      </trkpt>
      <trkpt lat="45.85341" lon="4.32076">
        <ele>751</ele>
        <time>2020-05-31T03:28:08Z</time>
      </trkpt>
      <trkpt lat="45.85275" lon="4.32112">
        <ele>746</ele>
        <time>2020-05-31T03:28:21Z</time>
      </trkpt>
      <trkpt lat="45.85256" lon="4.32132">
        <ele>745</ele>
        <time>2020-05-31T03:28:25Z</time>
      </trkpt>
      <trkpt lat="45.85238" lon="4.32173">
        <ele>746</ele>
        <time>2020-05-31T03:28:31Z</time>
      </trkpt>
      <trkpt lat="45.85227" lon="4.32213">
        <ele>746</ele>
        <time>2020-05-31T03:28:36Z</time>
      </trkpt>
      <trkpt lat="45.85224" lon="4.32249">
        <ele>747</ele>
        <time>2020-05-31T03:28:41Z</time>
      </trkpt>
      <trkpt lat="45.85229" lon="4.32294">
        <ele>749</ele>
        <time>2020-05-31T03:28:46Z</time>
      </trkpt>
      <trkpt lat="45.85254" lon="4.32412">
        <ele>755</ele>
        <time>2020-05-31T03:29:01Z</time>
      </trkpt>
      <trkpt lat="45.85256" lon="4.32454">
        <ele>755</ele>
        <time>2020-05-31T03:29:07Z</time>
      </trkpt>
      <trkpt lat="45.85251" lon="4.32488">
        <ele>757</ele>
        <time>2020-05-31T03:29:11Z</time>
      </trkpt>
      <trkpt lat="45.8524" lon="4.32524">
        <ele>758</ele>
        <time>2020-05-31T03:29:16Z</time>
      </trkpt>
      <trkpt lat="45.85224" lon="4.32553">
        <ele>759</ele>
        <time>2020-05-31T03:29:20Z</time>
      </trkpt>
      <trkpt lat="45.85206" lon="4.32572">
        <ele>759</ele>
        <time>2020-05-31T03:29:24Z</time>
      </trkpt>
      <trkpt lat="45.85175" lon="4.32594">
        <ele>759</ele>
        <time>2020-05-31T03:29:31Z</time>
      </trkpt>
      <trkpt lat="45.84972" lon="4.32681">
        <ele>752</ele>
        <time>2020-05-31T03:30:08Z</time>
      </trkpt>
      <trkpt lat="45.84922" lon="4.32734">
        <ele>753</ele>
        <time>2020-05-31T03:30:19Z</time>
      </trkpt>
      <trkpt lat="45.84889" lon="4.32789">
        <ele>757</ele>
        <time>2020-05-31T03:30:28Z</time>
      </trkpt>
      <trkpt lat="45.8483" lon="4.329">
        <ele>761</ele>
        <time>2020-05-31T03:30:46Z</time>
      </trkpt>
      <trkpt lat="45.84816" lon="4.32963">
        <ele>760</ele>
        <time>2020-05-31T03:30:54Z</time>
      </trkpt>
      <trkpt lat="45.84817" lon="4.33011">
        <ele>758</ele>
        <time>2020-05-31T03:31:00Z</time>
      </trkpt>
      <trkpt lat="45.84826" lon="4.33052">
        <ele>756</ele>
        <time>2020-05-31T03:31:05Z</time>
      </trkpt>
      <trkpt lat="45.84849" lon="4.331">
        <ele>758</ele>
        <time>2020-05-31T03:31:12Z</time>
      </trkpt>
      <trkpt lat="45.84883" lon="4.33129">
        <ele>761</ele>
        <time>2020-05-31T03:31:19Z</time>
      </trkpt>
      <trkpt lat="45.8494" lon="4.33143">
        <ele>765</ele>
        <time>2020-05-31T03:31:30Z</time>
      </trkpt>
      <trkpt lat="45.84995" lon="4.33152">
        <ele>769</ele>
        <time>2020-05-31T03:31:40Z</time>
      </trkpt>
      <trkpt lat="45.85046" lon="4.33168">
        <ele>769</ele>
        <time>2020-05-31T03:31:49Z</time>
      </trkpt>
      <trkpt lat="45.85095" lon="4.33192">
        <ele>771</ele>
        <time>2020-05-31T03:31:58Z</time>
      </trkpt>
      <trkpt lat="45.85143" lon="4.33223">
        <ele>771</ele>
        <time>2020-05-31T03:32:07Z</time>
      </trkpt>
      <trkpt lat="45.85169" lon="4.33248">
        <ele>770</ele>
        <time>2020-05-31T03:32:13Z</time>
      </trkpt>
      <trkpt lat="45.85188" lon="4.33278">
        <ele>771</ele>
        <time>2020-05-31T03:32:18Z</time>
      </trkpt>
      <trkpt lat="45.8521" lon="4.33335">
        <ele>772</ele>
        <time>2020-05-31T03:32:26Z</time>
      </trkpt>
      <trkpt lat="45.85217" lon="4.33402">
        <ele>774</ele>
        <time>2020-05-31T03:32:34Z</time>
      </trkpt>
      <trkpt lat="45.85208" lon="4.3348">
        <ele>778</ele>
        <time>2020-05-31T03:32:44Z</time>
      </trkpt>
      <trkpt lat="45.85178" lon="4.33618">
        <ele>782</ele>
        <time>2020-05-31T03:33:02Z</time>
      </trkpt>
      <trkpt lat="45.85166" lon="4.33696">
        <ele>784</ele>
        <time>2020-05-31T03:33:12Z</time>
      </trkpt>
      <trkpt lat="45.85155" lon="4.33837">
        <ele>785</ele>
        <time>2020-05-31T03:33:30Z</time>
      </trkpt>
      <trkpt lat="45.85144" lon="4.33898">
        <ele>783</ele>
        <time>2020-05-31T03:33:37Z</time>
      </trkpt>
      <trkpt lat="45.85126" lon="4.33949">
        <ele>783</ele>
        <time>2020-05-31T03:33:45Z</time>
      </trkpt>
      <trkpt lat="45.85092" lon="4.34016">
        <ele>781</ele>
        <time>2020-05-31T03:33:55Z</time>
      </trkpt>
      <trkpt lat="45.85052" lon="4.34104">
        <ele>782</ele>
        <time>2020-05-31T03:34:08Z</time>
      </trkpt>
      <trkpt lat="45.85041" lon="4.34135">
        <ele>784</ele>
        <time>2020-05-31T03:34:12Z</time>
      </trkpt>
      <trkpt lat="45.85033" lon="4.34169">
        <ele>785</ele>
        <time>2020-05-31T03:34:17Z</time>
      </trkpt>
      <trkpt lat="45.8503" lon="4.34214">
        <ele>785</ele>
        <time>2020-05-31T03:34:22Z</time>
      </trkpt>
      <trkpt lat="45.85036" lon="4.34269">
        <ele>785</ele>
        <time>2020-05-31T03:34:29Z</time>
      </trkpt>
      <trkpt lat="45.85055" lon="4.34325">
        <ele>786</ele>
        <time>2020-05-31T03:34:37Z</time>
      </trkpt>
      <trkpt lat="45.85073" lon="4.34353">
        <ele>787</ele>
        <time>2020-05-31T03:34:42Z</time>
      </trkpt>
      <trkpt lat="45.85088" lon="4.34368">
        <ele>788</ele>
        <time>2020-05-31T03:34:45Z</time>
      </trkpt>
      <trkpt lat="45.85118" lon="4.34391">
        <ele>790</ele>
        <time>2020-05-31T03:34:51Z</time>
      </trkpt>
      <trkpt lat="45.85166" lon="4.34405">
        <ele>791</ele>
        <time>2020-05-31T03:35:00Z</time>
      </trkpt>
      <trkpt lat="45.85181" lon="4.34408">
        <ele>790</ele>
        <time>2020-05-31T03:35:02Z</time>
      </trkpt>
      <trkpt lat="45.85213" lon="4.34423">
        <ele>790</ele>
        <time>2020-05-31T03:35:08Z</time>
      </trkpt>
      <trkpt lat="45.8523" lon="4.34439">
        <ele>791</ele>
        <time>2020-05-31T03:35:12Z</time>
      </trkpt>
      <trkpt lat="45.85248" lon="4.34474">
        <ele>795</ele>
        <time>2020-05-31T03:35:17Z</time>
      </trkpt>
      <trkpt lat="45.85256" lon="4.34508">
        <ele>798</ele>
        <time>2020-05-31T03:35:22Z</time>
      </trkpt>
      <trkpt lat="45.85258" lon="4.34538">
        <ele>800</ele>
        <time>2020-05-31T03:35:25Z</time>
      </trkpt>
      <trkpt lat="45.85254" lon="4.34586">
        <ele>803</ele>
        <time>2020-05-31T03:35:31Z</time>
      </trkpt>
      <trkpt lat="45.85208" lon="4.34784">
        <ele>807</ele>
        <time>2020-05-31T03:35:57Z</time>
      </trkpt>
      <trkpt lat="45.85187" lon="4.34878">
        <ele>810</ele>
        <time>2020-05-31T03:36:10Z</time>
      </trkpt>
      <trkpt lat="45.85154" lon="4.35019">
        <ele>809</ele>
        <time>2020-05-31T03:36:28Z</time>
      </trkpt>
      <trkpt lat="45.85134" lon="4.35111">
        <ele>809</ele>
        <time>2020-05-31T03:36:40Z</time>
      </trkpt>
      <trkpt lat="45.85129" lon="4.35138">
        <ele>809</ele>
        <time>2020-05-31T03:36:43Z</time>
      </trkpt>
      <trkpt lat="45.85112" lon="4.35213">
        <ele>809</ele>
        <time>2020-05-31T03:36:53Z</time>
      </trkpt>
      <trkpt lat="45.85095" lon="4.35304">
        <ele>809</ele>
        <time>2020-05-31T03:37:05Z</time>
      </trkpt>
      <trkpt lat="45.85094" lon="4.35307">
        <ele>809</ele>
        <time>2020-05-31T03:37:05Z</time>
      </trkpt>
      <trkpt lat="45.85091" lon="4.35327">
        <ele>808</ele>
        <time>2020-05-31T03:37:08Z</time>
      </trkpt>
      <trkpt lat="45.85088" lon="4.3535">
        <ele>807</ele>
        <time>2020-05-31T03:37:11Z</time>
      </trkpt>
      <trkpt lat="45.85089" lon="4.35357">
        <ele>807</ele>
        <time>2020-05-31T03:37:12Z</time>
      </trkpt>
      <trkpt lat="45.85085" lon="4.35358">
        <ele>807</ele>
        <time>2020-05-31T03:37:12Z</time>
      </trkpt>
      <trkpt lat="45.85082" lon="4.35361">
        <ele>807</ele>
        <time>2020-05-31T03:37:13Z</time>
      </trkpt>
      <trkpt lat="45.85078" lon="4.35369">
        <ele>807</ele>
        <time>2020-05-31T03:37:14Z</time>
      </trkpt>
      <trkpt lat="45.85078" lon="4.35374">
        <ele>807</ele>
        <time>2020-05-31T03:37:15Z</time>
      </trkpt>
      <trkpt lat="45.85078" lon="4.35377">
        <ele>807</ele>
        <time>2020-05-31T03:37:15Z</time>
      </trkpt>
      <trkpt lat="45.85078" lon="4.3538">
        <ele>807</ele>
        <time>2020-05-31T03:37:16Z</time>
      </trkpt>
      <trkpt lat="45.85079" lon="4.35383">
        <ele>807</ele>
        <time>2020-05-31T03:37:16Z</time>
      </trkpt>
      <trkpt lat="45.85081" lon="4.35385">
        <ele>807</ele>
        <time>2020-05-31T03:37:16Z</time>
      </trkpt>
      <trkpt lat="45.85084" lon="4.35389">
        <ele>807</ele>
        <time>2020-05-31T03:37:17Z</time>
      </trkpt>
      <trkpt lat="45.85091" lon="4.3539">
        <ele>807</ele>
        <time>2020-05-31T03:37:18Z</time>
      </trkpt>
      <trkpt lat="45.85095" lon="4.35388">
        <ele>807</ele>
        <time>2020-05-31T03:37:19Z</time>
      </trkpt>
      <trkpt lat="45.85097" lon="4.35398">
        <ele>807</ele>
        <time>2020-05-31T03:37:20Z</time>
      </trkpt>
      <trkpt lat="45.85159" lon="4.355">
        <ele>812</ele>
        <time>2020-05-31T03:37:37Z</time>
      </trkpt>
      <trkpt lat="45.85161" lon="4.35505">
        <ele>813</ele>
        <time>2020-05-31T03:37:38Z</time>
      </trkpt>
      <trkpt lat="45.85205" lon="4.35576">
        <ele>817</ele>
        <time>2020-05-31T03:37:50Z</time>
      </trkpt>
      <trkpt lat="45.85221" lon="4.35604">
        <ele>818</ele>
        <time>2020-05-31T03:37:54Z</time>
      </trkpt>
      <trkpt lat="45.85226" lon="4.35611">
        <ele>818</ele>
        <time>2020-05-31T03:37:55Z</time>
      </trkpt>
      <trkpt lat="45.85232" lon="4.35622">
        <ele>819</ele>
        <time>2020-05-31T03:37:57Z</time>
      </trkpt>
      <trkpt lat="45.85256" lon="4.35662">
        <ele>823</ele>
        <time>2020-05-31T03:38:04Z</time>
      </trkpt>
      <trkpt lat="45.85283" lon="4.35702">
        <ele>826</ele>
        <time>2020-05-31T03:38:11Z</time>
      </trkpt>
      <trkpt lat="45.85286" lon="4.3572">
        <ele>827</ele>
        <time>2020-05-31T03:38:13Z</time>
      </trkpt>
      <trkpt lat="45.85293" lon="4.35764">
        <ele>828</ele>
        <time>2020-05-31T03:38:18Z</time>
      </trkpt>
      <trkpt lat="45.85302" lon="4.35784">
        <ele>829</ele>
        <time>2020-05-31T03:38:21Z</time>
      </trkpt>
      <trkpt lat="45.85309" lon="4.358">
        <ele>829</ele>
        <time>2020-05-31T03:38:24Z</time>
      </trkpt>
      <trkpt lat="45.85312" lon="4.35805">
        <ele>829</ele>
        <time>2020-05-31T03:38:25Z</time>
      </trkpt>
      <trkpt lat="45.85318" lon="4.35811">
        <ele>830</ele>
        <time>2020-05-31T03:38:26Z</time>
      </trkpt>
      <trkpt lat="45.85327" lon="4.35821">
        <ele>831</ele>
        <time>2020-05-31T03:38:28Z</time>
      </trkpt>
      <trkpt lat="45.85359" lon="4.35858">
        <ele>834</ele>
        <time>2020-05-31T03:38:35Z</time>
      </trkpt>
      <trkpt lat="45.85369" lon="4.3587">
        <ele>835</ele>
        <time>2020-05-31T03:38:38Z</time>
      </trkpt>
      <trkpt lat="45.85391" lon="4.35951">
        <ele>837</ele>
        <time>2020-05-31T03:38:48Z</time>
      </trkpt>
      <trkpt lat="45.85403" lon="4.35974">
        <ele>838</ele>
        <time>2020-05-31T03:38:52Z</time>
      </trkpt>
      <trkpt lat="45.85449" lon="4.36036">
        <ele>846</ele>
        <time>2020-05-31T03:39:03Z</time>
      </trkpt>
      <trkpt lat="45.85472" lon="4.36069">
        <ele>851</ele>
        <time>2020-05-31T03:39:09Z</time>
      </trkpt>
      <trkpt lat="45.85484" lon="4.36086">
        <ele>855</ele>
        <time>2020-05-31T03:39:12Z</time>
      </trkpt>
      <trkpt lat="45.85494" lon="4.36101">
        <ele>858</ele>
        <time>2020-05-31T03:39:14Z</time>
      </trkpt>
      <trkpt lat="45.85502" lon="4.36124">
        <ele>860</ele>
        <time>2020-05-31T03:39:18Z</time>
      </trkpt>
      <trkpt lat="45.85503" lon="4.36149">
        <ele>861</ele>
        <time>2020-05-31T03:39:21Z</time>
      </trkpt>
      <trkpt lat="45.85499" lon="4.36198">
        <ele>860</ele>
        <time>2020-05-31T03:39:27Z</time>
      </trkpt>
      <trkpt lat="45.85485" lon="4.36298">
        <ele>859</ele>
        <time>2020-05-31T03:39:39Z</time>
      </trkpt>
      <trkpt lat="45.85485" lon="4.36332">
        <ele>861</ele>
        <time>2020-05-31T03:39:44Z</time>
      </trkpt>
      <trkpt lat="45.8549" lon="4.36352">
        <ele>861</ele>
        <time>2020-05-31T03:39:46Z</time>
      </trkpt>
      <trkpt lat="45.85498" lon="4.3637">
        <ele>862</ele>
        <time>2020-05-31T03:39:49Z</time>
      </trkpt>
      <trkpt lat="45.85506" lon="4.3638">
        <ele>862</ele>
        <time>2020-05-31T03:39:51Z</time>
      </trkpt>
      <trkpt lat="45.85518" lon="4.36389">
        <ele>862</ele>
        <time>2020-05-31T03:39:53Z</time>
      </trkpt>
      <trkpt lat="45.85533" lon="4.36392">
        <ele>862</ele>
        <time>2020-05-31T03:39:56Z</time>
      </trkpt>
      <trkpt lat="45.8559" lon="4.36402">
        <ele>861</ele>
        <time>2020-05-31T03:40:06Z</time>
      </trkpt>
      <trkpt lat="45.85632" lon="4.36403">
        <ele>857</ele>
        <time>2020-05-31T03:40:14Z</time>
      </trkpt>
      <trkpt lat="45.85649" lon="4.36398">
        <ele>856</ele>
        <time>2020-05-31T03:40:17Z</time>
      </trkpt>
      <trkpt lat="45.85717" lon="4.36361">
        <ele>855</ele>
        <time>2020-05-31T03:40:30Z</time>
      </trkpt>
      <trkpt lat="45.8577" lon="4.3636">
        <ele>852</ele>
        <time>2020-05-31T03:40:39Z</time>
      </trkpt>
      <trkpt lat="45.85812" lon="4.36364">
        <ele>852</ele>
        <time>2020-05-31T03:40:47Z</time>
      </trkpt>
      <trkpt lat="45.85875" lon="4.36398">
        <ele>850</ele>
        <time>2020-05-31T03:40:59Z</time>
      </trkpt>
      <trkpt lat="45.85908" lon="4.36435">
        <ele>848</ele>
        <time>2020-05-31T03:41:06Z</time>
      </trkpt>
      <trkpt lat="45.85974" lon="4.36579">
        <ele>834</ele>
        <time>2020-05-31T03:41:27Z</time>
      </trkpt>
      <trkpt lat="45.86002" lon="4.36641">
        <ele>830</ele>
        <time>2020-05-31T03:41:37Z</time>
      </trkpt>
      <trkpt lat="45.86012" lon="4.36663">
        <ele>828</ele>
        <time>2020-05-31T03:41:40Z</time>
      </trkpt>
      <trkpt lat="45.86043" lon="4.36705">
        <ele>823</ele>
        <time>2020-05-31T03:41:47Z</time>
      </trkpt>
      <trkpt lat="45.86076" lon="4.36709">
        <ele>822</ele>
        <time>2020-05-31T03:41:53Z</time>
      </trkpt>
      <trkpt lat="45.86111" lon="4.36695">
        <ele>820</ele>
        <time>2020-05-31T03:42:00Z</time>
      </trkpt>
      <trkpt lat="45.86142" lon="4.36663">
        <ele>822</ele>
        <time>2020-05-31T03:42:07Z</time>
      </trkpt>
      <trkpt lat="45.86187" lon="4.36632">
        <ele>823</ele>
        <time>2020-05-31T03:42:15Z</time>
      </trkpt>
      <trkpt lat="45.86237" lon="4.36622">
        <ele>819</ele>
        <time>2020-05-31T03:42:24Z</time>
      </trkpt>
      <trkpt lat="45.86286" lon="4.36627">
        <ele>818</ele>
        <time>2020-05-31T03:42:33Z</time>
      </trkpt>
      <trkpt lat="45.86308" lon="4.36642">
        <ele>815</ele>
        <time>2020-05-31T03:42:37Z</time>
      </trkpt>
      <trkpt lat="45.86331" lon="4.36665">
        <ele>811</ele>
        <time>2020-05-31T03:42:42Z</time>
      </trkpt>
      <trkpt lat="45.86376" lon="4.36738">
        <ele>804</ele>
        <time>2020-05-31T03:42:55Z</time>
      </trkpt>
      <trkpt lat="45.86392" lon="4.36757">
        <ele>802</ele>
        <time>2020-05-31T03:42:58Z</time>
      </trkpt>
      <trkpt lat="45.86431" lon="4.36781">
        <ele>801</ele>
        <time>2020-05-31T03:43:06Z</time>
      </trkpt>
      <trkpt lat="45.86468" lon="4.36787">
        <ele>802</ele>
        <time>2020-05-31T03:43:12Z</time>
      </trkpt>
      <trkpt lat="45.86501" lon="4.36804">
        <ele>801</ele>
        <time>2020-05-31T03:43:19Z</time>
      </trkpt>
      <trkpt lat="45.86526" lon="4.36832">
        <ele>801</ele>
        <time>2020-05-31T03:43:24Z</time>
      </trkpt>
      <trkpt lat="45.86538" lon="4.36852">
        <ele>801</ele>
        <time>2020-05-31T03:43:28Z</time>
      </trkpt>
      <trkpt lat="45.86548" lon="4.36896">
        <ele>797</ele>
        <time>2020-05-31T03:43:33Z</time>
      </trkpt>
      <trkpt lat="45.8655" lon="4.36925">
        <ele>795</ele>
        <time>2020-05-31T03:43:37Z</time>
      </trkpt>
      <trkpt lat="45.8654" lon="4.37019">
        <ele>788</ele>
        <time>2020-05-31T03:43:49Z</time>
      </trkpt>
      <trkpt lat="45.86541" lon="4.37045">
        <ele>787</ele>
        <time>2020-05-31T03:43:52Z</time>
      </trkpt>
      <trkpt lat="45.8655" lon="4.37068">
        <ele>786</ele>
        <time>2020-05-31T03:43:55Z</time>
      </trkpt>
      <trkpt lat="45.86562" lon="4.3709">
        <ele>785</ele>
        <time>2020-05-31T03:43:59Z</time>
      </trkpt>
      <trkpt lat="45.866" lon="4.37118">
        <ele>787</ele>
        <time>2020-05-31T03:44:06Z</time>
      </trkpt>
      <trkpt lat="45.86623" lon="4.37132">
        <ele>791</ele>
        <time>2020-05-31T03:44:11Z</time>
      </trkpt>
      <trkpt lat="45.86637" lon="4.37203">
        <ele>790</ele>
        <time>2020-05-31T03:44:20Z</time>
      </trkpt>
      <trkpt lat="45.86625" lon="4.3745">
        <ele>770</ele>
        <time>2020-05-31T03:44:50Z</time>
      </trkpt>
      <trkpt lat="45.86641" lon="4.37521">
        <ele>763</ele>
        <time>2020-05-31T03:45:00Z</time>
      </trkpt>
      <trkpt lat="45.86663" lon="4.37547">
        <ele>763</ele>
        <time>2020-05-31T03:45:05Z</time>
      </trkpt>
      <trkpt lat="45.86698" lon="4.37572">
        <ele>766</ele>
        <time>2020-05-31T03:45:12Z</time>
      </trkpt>
      <trkpt lat="45.86732" lon="4.37626">
        <ele>767</ele>
        <time>2020-05-31T03:45:21Z</time>
      </trkpt>
      <trkpt lat="45.86744" lon="4.37675">
        <ele>764</ele>
        <time>2020-05-31T03:45:27Z</time>
      </trkpt>
      <trkpt lat="45.86748" lon="4.37725">
        <ele>763</ele>
        <time>2020-05-31T03:45:33Z</time>
      </trkpt>
      <trkpt lat="45.86745" lon="4.37741">
        <ele>762</ele>
        <time>2020-05-31T03:45:36Z</time>
      </trkpt>
      <trkpt lat="45.86742" lon="4.37761">
        <ele>761</ele>
        <time>2020-05-31T03:45:38Z</time>
      </trkpt>
      <trkpt lat="45.86718" lon="4.37875">
        <ele>759</ele>
        <time>2020-05-31T03:45:53Z</time>
      </trkpt>
      <trkpt lat="45.86679" lon="4.38">
        <ele>749</ele>
        <time>2020-05-31T03:46:10Z</time>
      </trkpt>
      <trkpt lat="45.86674" lon="4.38089">
        <ele>745</ele>
        <time>2020-05-31T03:46:21Z</time>
      </trkpt>
      <trkpt lat="45.86679" lon="4.38132">
        <ele>742</ele>
        <time>2020-05-31T03:46:26Z</time>
      </trkpt>
      <trkpt lat="45.86714" lon="4.38198">
        <ele>739</ele>
        <time>2020-05-31T03:46:37Z</time>
      </trkpt>
      <trkpt lat="45.86749" lon="4.38213">
        <ele>742</ele>
        <time>2020-05-31T03:46:43Z</time>
      </trkpt>
      <trkpt lat="45.86802" lon="4.3823">
        <ele>737</ele>
        <time>2020-05-31T03:46:53Z</time>
      </trkpt>
      <trkpt lat="45.86868" lon="4.38293">
        <ele>722</ele>
        <time>2020-05-31T03:47:07Z</time>
      </trkpt>
      <trkpt lat="45.86918" lon="4.38291">
        <ele>722</ele>
        <time>2020-05-31T03:47:16Z</time>
      </trkpt>
      <trkpt lat="45.86941" lon="4.38258">
        <ele>721</ele>
        <time>2020-05-31T03:47:21Z</time>
      </trkpt>
      <trkpt lat="45.86955" lon="4.38219">
        <ele>721</ele>
        <time>2020-05-31T03:47:27Z</time>
      </trkpt>
      <trkpt lat="45.86962" lon="4.3819">
        <ele>721</ele>
        <time>2020-05-31T03:47:31Z</time>
      </trkpt>
      <trkpt lat="45.87" lon="4.38096">
        <ele>717</ele>
        <time>2020-05-31T03:47:44Z</time>
      </trkpt>
      <trkpt lat="45.87041" lon="4.38003">
        <ele>707</ele>
        <time>2020-05-31T03:47:58Z</time>
      </trkpt>
      <trkpt lat="45.87071" lon="4.37922">
        <ele>705</ele>
        <time>2020-05-31T03:48:09Z</time>
      </trkpt>
      <trkpt lat="45.87081" lon="4.37881">
        <ele>702</ele>
        <time>2020-05-31T03:48:15Z</time>
      </trkpt>
      <trkpt lat="45.87088" lon="4.37791">
        <ele>700</ele>
        <time>2020-05-31T03:48:26Z</time>
      </trkpt>
      <trkpt lat="45.871" lon="4.37729">
        <ele>697</ele>
        <time>2020-05-31T03:48:34Z</time>
      </trkpt>
      <trkpt lat="45.87108" lon="4.37604">
        <ele>696</ele>
        <time>2020-05-31T03:48:49Z</time>
      </trkpt>
      <trkpt lat="45.87122" lon="4.37553">
        <ele>695</ele>
        <time>2020-05-31T03:48:56Z</time>
      </trkpt>
      <trkpt lat="45.87144" lon="4.37534">
        <ele>693</ele>
        <time>2020-05-31T03:49:01Z</time>
      </trkpt>
      <trkpt lat="45.87188" lon="4.37528">
        <ele>687</ele>
        <time>2020-05-31T03:49:09Z</time>
      </trkpt>
      <trkpt lat="45.87228" lon="4.3751">
        <ele>687</ele>
        <time>2020-05-31T03:49:16Z</time>
      </trkpt>
      <trkpt lat="45.87252" lon="4.37505">
        <ele>686</ele>
        <time>2020-05-31T03:49:20Z</time>
      </trkpt>
      <trkpt lat="45.87276" lon="4.37508">
        <ele>687</ele>
        <time>2020-05-31T03:49:25Z</time>
      </trkpt>
      <trkpt lat="45.87293" lon="4.37514">
        <ele>687</ele>
        <time>2020-05-31T03:49:28Z</time>
      </trkpt>
      <trkpt lat="45.87321" lon="4.3753">
        <ele>685</ele>
        <time>2020-05-31T03:49:33Z</time>
      </trkpt>
      <trkpt lat="45.8734" lon="4.37557">
        <ele>682</ele>
        <time>2020-05-31T03:49:38Z</time>
      </trkpt>
      <trkpt lat="45.87382" lon="4.37683">
        <ele>673</ele>
        <time>2020-05-31T03:49:55Z</time>
      </trkpt>
      <trkpt lat="45.87404" lon="4.378">
        <ele>666</ele>
        <time>2020-05-31T03:50:10Z</time>
      </trkpt>
      <trkpt lat="45.87436" lon="4.37877">
        <ele>661</ele>
        <time>2020-05-31T03:50:21Z</time>
      </trkpt>
      <trkpt lat="45.87484" lon="4.37958">
        <ele>654</ele>
        <time>2020-05-31T03:50:34Z</time>
      </trkpt>
      <trkpt lat="45.87534" lon="4.37972">
        <ele>655</ele>
        <time>2020-05-31T03:50:43Z</time>
      </trkpt>
      <trkpt lat="45.87547" lon="4.37962">
        <ele>658</ele>
        <time>2020-05-31T03:50:46Z</time>
      </trkpt>
      <trkpt lat="45.87611" lon="4.37956">
        <ele>662</ele>
        <time>2020-05-31T03:50:58Z</time>
      </trkpt>
      <trkpt lat="45.87654" lon="4.37987">
        <ele>655</ele>
        <time>2020-05-31T03:51:06Z</time>
      </trkpt>
      <trkpt lat="45.87687" lon="4.38029">
        <ele>647</ele>
        <time>2020-05-31T03:51:14Z</time>
      </trkpt>
      <trkpt lat="45.87695" lon="4.38076">
        <ele>641</ele>
        <time>2020-05-31T03:51:20Z</time>
      </trkpt>
      <trkpt lat="45.87701" lon="4.38103">
        <ele>640</ele>
        <time>2020-05-31T03:51:23Z</time>
      </trkpt>
      <trkpt lat="45.87703" lon="4.38127">
        <ele>640</ele>
        <time>2020-05-31T03:51:26Z</time>
      </trkpt>
      <trkpt lat="45.87688" lon="4.38226">
        <ele>636</ele>
        <time>2020-05-31T03:51:39Z</time>
      </trkpt>
      <trkpt lat="45.87687" lon="4.38376">
        <ele>635</ele>
        <time>2020-05-31T03:51:58Z</time>
      </trkpt>
      <trkpt lat="45.87668" lon="4.38481">
        <ele>628</ele>
        <time>2020-05-31T03:52:11Z</time>
      </trkpt>
      <trkpt lat="45.87668" lon="4.38572">
        <ele>621</ele>
        <time>2020-05-31T03:52:22Z</time>
      </trkpt>
      <trkpt lat="45.87678" lon="4.3863">
        <ele>617</ele>
        <time>2020-05-31T03:52:30Z</time>
      </trkpt>
      <trkpt lat="45.8768" lon="4.38644">
        <ele>615</ele>
        <time>2020-05-31T03:52:31Z</time>
      </trkpt>
      <trkpt lat="45.87687" lon="4.38662">
        <ele>614</ele>
        <time>2020-05-31T03:52:34Z</time>
      </trkpt>
      <trkpt lat="45.87703" lon="4.38706">
        <ele>611</ele>
        <time>2020-05-31T03:52:40Z</time>
      </trkpt>
      <trkpt lat="45.8773" lon="4.38751">
        <ele>609</ele>
        <time>2020-05-31T03:52:47Z</time>
      </trkpt>
      <trkpt lat="45.87741" lon="4.38761">
        <ele>609</ele>
        <time>2020-05-31T03:52:50Z</time>
      </trkpt>
      <trkpt lat="45.87751" lon="4.38762">
        <ele>610</ele>
        <time>2020-05-31T03:52:52Z</time>
      </trkpt>
      <trkpt lat="45.87766" lon="4.38756">
        <ele>609</ele>
        <time>2020-05-31T03:52:54Z</time>
      </trkpt>
      <trkpt lat="45.87801" lon="4.38723">
        <ele>612</ele>
        <time>2020-05-31T03:53:02Z</time>
      </trkpt>
      <trkpt lat="45.87817" lon="4.38717">
        <ele>612</ele>
        <time>2020-05-31T03:53:05Z</time>
      </trkpt>
      <trkpt lat="45.87867" lon="4.38718">
        <ele>613</ele>
        <time>2020-05-31T03:53:14Z</time>
      </trkpt>
      <trkpt lat="45.87884" lon="4.38718">
        <ele>614</ele>
        <time>2020-05-31T03:53:17Z</time>
      </trkpt>
      <trkpt lat="45.87895" lon="4.38728">
        <ele>612</ele>
        <time>2020-05-31T03:53:19Z</time>
      </trkpt>
      <trkpt lat="45.87904" lon="4.38758">
        <ele>608</ele>
        <time>2020-05-31T03:53:23Z</time>
      </trkpt>
      <trkpt lat="45.87921" lon="4.38973">
        <ele>588</ele>
        <time>2020-05-31T03:53:50Z</time>
      </trkpt>
      <trkpt lat="45.87932" lon="4.39037">
        <ele>584</ele>
        <time>2020-05-31T03:53:58Z</time>
      </trkpt>
      <trkpt lat="45.87947" lon="4.39076">
        <ele>584</ele>
        <time>2020-05-31T03:54:04Z</time>
      </trkpt>
      <trkpt lat="45.87973" lon="4.39107">
        <ele>589</ele>
        <time>2020-05-31T03:54:10Z</time>
      </trkpt>
      <trkpt lat="45.87977" lon="4.39126">
        <ele>588</ele>
        <time>2020-05-31T03:54:12Z</time>
      </trkpt>
      <trkpt lat="45.87975" lon="4.39163">
        <ele>583</ele>
        <time>2020-05-31T03:54:17Z</time>
      </trkpt>
      <trkpt lat="45.87975" lon="4.39198">
        <ele>579</ele>
        <time>2020-05-31T03:54:21Z</time>
      </trkpt>
      <trkpt lat="45.87979" lon="4.39237">
        <ele>577</ele>
        <time>2020-05-31T03:54:26Z</time>
      </trkpt>
      <trkpt lat="45.87994" lon="4.39335">
        <ele>572</ele>
        <time>2020-05-31T03:54:38Z</time>
      </trkpt>
      <trkpt lat="45.88011" lon="4.39394">
        <ele>569</ele>
        <time>2020-05-31T03:54:46Z</time>
      </trkpt>
      <trkpt lat="45.88058" lon="4.39442">
        <ele>574</ele>
        <time>2020-05-31T03:54:56Z</time>
      </trkpt>
      <trkpt lat="45.88114" lon="4.39461">
        <ele>579</ele>
        <time>2020-05-31T03:55:07Z</time>
      </trkpt>
      <trkpt lat="45.88209" lon="4.39469">
        <ele>575</ele>
        <time>2020-05-31T03:55:24Z</time>
      </trkpt>
      <trkpt lat="45.88231" lon="4.39474">
        <ele>570</ele>
        <time>2020-05-31T03:55:28Z</time>
      </trkpt>
      <trkpt lat="45.88266" lon="4.39474">
        <ele>569</ele>
        <time>2020-05-31T03:55:34Z</time>
      </trkpt>
      <trkpt lat="45.88283" lon="4.39476">
        <ele>570</ele>
        <time>2020-05-31T03:55:37Z</time>
      </trkpt>
      <trkpt lat="45.88296" lon="4.3949">
        <ele>566</ele>
        <time>2020-05-31T03:55:40Z</time>
      </trkpt>
      <trkpt lat="45.88329" lon="4.39536">
        <ele>550</ele>
        <time>2020-05-31T03:55:48Z</time>
      </trkpt>
      <trkpt lat="45.88346" lon="4.39554">
        <ele>545</ele>
        <time>2020-05-31T03:55:52Z</time>
      </trkpt>
      <trkpt lat="45.88368" lon="4.39564">
        <ele>543</ele>
        <time>2020-05-31T03:55:56Z</time>
      </trkpt>
      <trkpt lat="45.88431" lon="4.39588">
        <ele>539</ele>
        <time>2020-05-31T03:56:07Z</time>
      </trkpt>
      <trkpt lat="45.88452" lon="4.39593">
        <ele>537</ele>
        <time>2020-05-31T03:56:11Z</time>
      </trkpt>
      <trkpt lat="45.88474" lon="4.39595">
        <ele>536</ele>
        <time>2020-05-31T03:56:15Z</time>
      </trkpt>
      <trkpt lat="45.88549" lon="4.3959">
        <ele>536</ele>
        <time>2020-05-31T03:56:28Z</time>
      </trkpt>
      <trkpt lat="45.88568" lon="4.39592">
        <ele>534</ele>
        <time>2020-05-31T03:56:32Z</time>
      </trkpt>
      <trkpt lat="45.88584" lon="4.39596">
        <ele>533</ele>
        <time>2020-05-31T03:56:35Z</time>
      </trkpt>
      <trkpt lat="45.88609" lon="4.3961">
        <ele>532</ele>
        <time>2020-05-31T03:56:39Z</time>
      </trkpt>
      <trkpt lat="45.88634" lon="4.39631">
        <ele>529</ele>
        <time>2020-05-31T03:56:45Z</time>
      </trkpt>
      <trkpt lat="45.88656" lon="4.39653">
        <ele>526</ele>
        <time>2020-05-31T03:56:49Z</time>
      </trkpt>
      <trkpt lat="45.88666" lon="4.39672">
        <ele>523</ele>
        <time>2020-05-31T03:56:52Z</time>
      </trkpt>
      <trkpt lat="45.88672" lon="4.39689">
        <ele>522</ele>
        <time>2020-05-31T03:56:55Z</time>
      </trkpt>
      <trkpt lat="45.88688" lon="4.39756">
        <ele>515</ele>
        <time>2020-05-31T03:57:03Z</time>
      </trkpt>
      <trkpt lat="45.88693" lon="4.39768">
        <ele>514</ele>
        <time>2020-05-31T03:57:05Z</time>
      </trkpt>
      <trkpt lat="45.88703" lon="4.39785">
        <ele>513</ele>
        <time>2020-05-31T03:57:08Z</time>
      </trkpt>
      <trkpt lat="45.88714" lon="4.398">
        <ele>513</ele>
        <time>2020-05-31T03:57:11Z</time>
      </trkpt>
      <trkpt lat="45.88755" lon="4.39835">
        <ele>514</ele>
        <time>2020-05-31T03:57:19Z</time>
      </trkpt>
      <trkpt lat="45.88762" lon="4.39846">
        <ele>515</ele>
        <time>2020-05-31T03:57:21Z</time>
      </trkpt>
      <trkpt lat="45.88763" lon="4.39851">
        <ele>515</ele>
        <time>2020-05-31T03:57:22Z</time>
      </trkpt>
      <trkpt lat="45.88764" lon="4.39857">
        <ele>515</ele>
        <time>2020-05-31T03:57:22Z</time>
      </trkpt>
      <trkpt lat="45.88759" lon="4.39892">
        <ele>509</ele>
        <time>2020-05-31T03:57:27Z</time>
      </trkpt>
      <trkpt lat="45.88749" lon="4.39933">
        <ele>504</ele>
        <time>2020-05-31T03:57:32Z</time>
      </trkpt>
      <trkpt lat="45.88743" lon="4.3998">
        <ele>502</ele>
        <time>2020-05-31T03:57:38Z</time>
      </trkpt>
      <trkpt lat="45.88744" lon="4.40022">
        <ele>499</ele>
        <time>2020-05-31T03:57:43Z</time>
      </trkpt>
      <trkpt lat="45.88749" lon="4.40063">
        <ele>495</ele>
        <time>2020-05-31T03:57:48Z</time>
      </trkpt>
      <trkpt lat="45.8876" lon="4.40115">
        <ele>494</ele>
        <time>2020-05-31T03:57:55Z</time>
      </trkpt>
      <trkpt lat="45.88832" lon="4.40402">
        <ele>479</ele>
        <time>2020-05-31T03:58:33Z</time>
      </trkpt>
      <trkpt lat="45.88847" lon="4.4043">
        <ele>476</ele>
        <time>2020-05-31T03:58:37Z</time>
      </trkpt>
      <trkpt lat="45.88892" lon="4.40464">
        <ele>475</ele>
        <time>2020-05-31T03:58:46Z</time>
      </trkpt>
      <trkpt lat="45.88906" lon="4.40471">
        <ele>476</ele>
        <time>2020-05-31T03:58:49Z</time>
      </trkpt>
      <trkpt lat="45.88914" lon="4.40485">
        <ele>475</ele>
        <time>2020-05-31T03:58:51Z</time>
      </trkpt>
      <trkpt lat="45.88924" lon="4.40524">
        <ele>471</ele>
        <time>2020-05-31T03:58:56Z</time>
      </trkpt>
      <trkpt lat="45.88937" lon="4.40667">
        <ele>457</ele>
        <time>2020-05-31T03:59:14Z</time>
      </trkpt>
      <trkpt lat="45.88941" lon="4.40686">
        <ele>455</ele>
        <time>2020-05-31T03:59:17Z</time>
      </trkpt>
      <trkpt lat="45.88951" lon="4.40698">
        <ele>454</ele>
        <time>2020-05-31T03:59:19Z</time>
      </trkpt>
      <trkpt lat="45.88962" lon="4.407">
        <ele>454</ele>
        <time>2020-05-31T03:59:21Z</time>
      </trkpt>
      <trkpt lat="45.88974" lon="4.40692">
        <ele>454</ele>
        <time>2020-05-31T03:59:23Z</time>
      </trkpt>
      <trkpt lat="45.88993" lon="4.40673">
        <ele>455</ele>
        <time>2020-05-31T03:59:28Z</time>
      </trkpt>
      <trkpt lat="45.89021" lon="4.40633">
        <ele>454</ele>
        <time>2020-05-31T03:59:35Z</time>
      </trkpt>
      <trkpt lat="45.89034" lon="4.40603">
        <ele>453</ele>
        <time>2020-05-31T03:59:39Z</time>
      </trkpt>
      <trkpt lat="45.89047" lon="4.40568">
        <ele>453</ele>
        <time>2020-05-31T03:59:44Z</time>
      </trkpt>
      <trkpt lat="45.89054" lon="4.40528">
        <ele>453</ele>
        <time>2020-05-31T03:59:49Z</time>
      </trkpt>
      <trkpt lat="45.89087" lon="4.4026">
        <ele>452</ele>
        <time>2020-05-31T04:00:23Z</time>
      </trkpt>
      <trkpt lat="45.89113" lon="4.40172">
        <ele>452</ele>
        <time>2020-05-31T04:00:34Z</time>
      </trkpt>
      <trkpt lat="45.89161" lon="4.40058">
        <ele>450</ele>
        <time>2020-05-31T04:00:51Z</time>
      </trkpt>
      <trkpt lat="45.89169" lon="4.40044">
        <ele>451</ele>
        <time>2020-05-31T04:00:53Z</time>
      </trkpt>
      <trkpt lat="45.89191" lon="4.40027">
        <ele>449</ele>
        <time>2020-05-31T04:00:58Z</time>
      </trkpt>
      <trkpt lat="45.89204" lon="4.40027">
        <ele>446</ele>
        <time>2020-05-31T04:01:00Z</time>
      </trkpt>
      <trkpt lat="45.89213" lon="4.40032">
        <ele>443</ele>
        <time>2020-05-31T04:01:02Z</time>
      </trkpt>
      <trkpt lat="45.8922" lon="4.40039">
        <ele>441</ele>
        <time>2020-05-31T04:01:03Z</time>
      </trkpt>
      <trkpt lat="45.89226" lon="4.4005">
        <ele>438</ele>
        <time>2020-05-31T04:01:05Z</time>
      </trkpt>
      <trkpt lat="45.89229" lon="4.40058">
        <ele>437</ele>
        <time>2020-05-31T04:01:06Z</time>
      </trkpt>
      <trkpt lat="45.89242" lon="4.40035">
        <ele>436</ele>
        <time>2020-05-31T04:01:10Z</time>
      </trkpt>
      <trkpt lat="45.89253" lon="4.40021">
        <ele>436</ele>
        <time>2020-05-31T04:01:12Z</time>
      </trkpt>
      <trkpt lat="45.89271" lon="4.39999">
        <ele>435</ele>
        <time>2020-05-31T04:01:17Z</time>
      </trkpt>
      <trkpt lat="45.89281" lon="4.39988">
        <ele>435</ele>
        <time>2020-05-31T04:01:19Z</time>
      </trkpt>
      <trkpt lat="45.89306" lon="4.39966">
        <ele>432</ele>
        <time>2020-05-31T04:01:24Z</time>
      </trkpt>
      <trkpt lat="45.89335" lon="4.39949">
        <ele>428</ele>
        <time>2020-05-31T04:01:30Z</time>
      </trkpt>
      <trkpt lat="45.89359" lon="4.39945">
        <ele>432</ele>
        <time>2020-05-31T04:01:34Z</time>
      </trkpt>
      <trkpt lat="45.89367" lon="4.39946">
        <ele>434</ele>
        <time>2020-05-31T04:01:35Z</time>
      </trkpt>
      <trkpt lat="45.8937" lon="4.39949">
        <ele>434</ele>
        <time>2020-05-31T04:01:36Z</time>
      </trkpt>
      <trkpt lat="45.89374" lon="4.39964">
        <ele>434</ele>
        <time>2020-05-31T04:01:38Z</time>
      </trkpt>
      <trkpt lat="45.89375" lon="4.39978">
        <ele>434</ele>
        <time>2020-05-31T04:01:40Z</time>
      </trkpt>
      <trkpt lat="45.89373" lon="4.39998">
        <ele>433</ele>
        <time>2020-05-31T04:01:42Z</time>
      </trkpt>
      <trkpt lat="45.8937" lon="4.40019">
        <ele>432</ele>
        <time>2020-05-31T04:01:45Z</time>
      </trkpt>
      <trkpt lat="45.89364" lon="4.4004">
        <ele>431</ele>
        <time>2020-05-31T04:01:48Z</time>
      </trkpt>
      <trkpt lat="45.89356" lon="4.40056">
        <ele>430</ele>
        <time>2020-05-31T04:01:50Z</time>
      </trkpt>
      <trkpt lat="45.89331" lon="4.40097">
        <ele>429</ele>
        <time>2020-05-31T04:01:57Z</time>
      </trkpt>
      <trkpt lat="45.89329" lon="4.40107">
        <ele>429</ele>
        <time>2020-05-31T04:01:58Z</time>
      </trkpt>
      <trkpt lat="45.89322" lon="4.40118">
        <ele>429</ele>
        <time>2020-05-31T04:02:00Z</time>
      </trkpt>
      <trkpt lat="45.89312" lon="4.40136">
        <ele>430</ele>
        <time>2020-05-31T04:02:03Z</time>
      </trkpt>
      <trkpt lat="45.89296" lon="4.4017">
        <ele>430</ele>
        <time>2020-05-31T04:02:08Z</time>
      </trkpt>
      <trkpt lat="45.89281" lon="4.40217">
        <ele>432</ele>
        <time>2020-05-31T04:02:14Z</time>
      </trkpt>
      <trkpt lat="45.89278" lon="4.4024">
        <ele>433</ele>
        <time>2020-05-31T04:02:17Z</time>
      </trkpt>
      <trkpt lat="45.89273" lon="4.40272">
        <ele>434</ele>
        <time>2020-05-31T04:02:21Z</time>
      </trkpt>
      <trkpt lat="45.89272" lon="4.40596">
        <ele>432</ele>
        <time>2020-05-31T04:03:01Z</time>
      </trkpt>
      <trkpt lat="45.89209" lon="4.40967">
        <ele>423</ele>
        <time>2020-05-31T04:03:49Z</time>
      </trkpt>
      <trkpt lat="45.89201" lon="4.41031">
        <ele>424</ele>
        <time>2020-05-31T04:03:57Z</time>
      </trkpt>
      <trkpt lat="45.89198" lon="4.41108">
        <ele>425</ele>
        <time>2020-05-31T04:04:06Z</time>
      </trkpt>
      <trkpt lat="45.892" lon="4.41136">
        <ele>424</ele>
        <time>2020-05-31T04:04:10Z</time>
      </trkpt>
      <trkpt lat="45.89203" lon="4.41214">
        <ele>421</ele>
        <time>2020-05-31T04:04:19Z</time>
      </trkpt>
      <trkpt lat="45.89207" lon="4.41242">
        <ele>421</ele>
        <time>2020-05-31T04:04:23Z</time>
      </trkpt>
      <trkpt lat="45.89219" lon="4.41269">
        <ele>421</ele>
        <time>2020-05-31T04:04:27Z</time>
      </trkpt>
      <trkpt lat="45.89236" lon="4.41304">
        <ele>419</ele>
        <time>2020-05-31T04:04:32Z</time>
      </trkpt>
      <trkpt lat="45.89266" lon="4.41375">
        <ele>418</ele>
        <time>2020-05-31T04:04:43Z</time>
      </trkpt>
      <trkpt lat="45.89282" lon="4.41436">
        <ele>419</ele>
        <time>2020-05-31T04:04:51Z</time>
      </trkpt>
      <trkpt lat="45.89297" lon="4.41517">
        <ele>420</ele>
        <time>2020-05-31T04:05:01Z</time>
      </trkpt>
      <trkpt lat="45.89299" lon="4.41561">
        <ele>419</ele>
        <time>2020-05-31T04:05:06Z</time>
      </trkpt>
      <trkpt lat="45.89301" lon="4.41589">
        <ele>418</ele>
        <time>2020-05-31T04:05:10Z</time>
      </trkpt>
      <trkpt lat="45.89306" lon="4.41648">
        <ele>415</ele>
        <time>2020-05-31T04:05:17Z</time>
      </trkpt>
      <trkpt lat="45.89333" lon="4.41729">
        <ele>411</ele>
        <time>2020-05-31T04:05:28Z</time>
      </trkpt>
      <trkpt lat="45.89382" lon="4.41844">
        <ele>414</ele>
        <time>2020-05-31T04:05:45Z</time>
      </trkpt>
      <trkpt lat="45.89433" lon="4.4199">
        <ele>412</ele>
        <time>2020-05-31T04:06:05Z</time>
      </trkpt>
      <trkpt lat="45.89512" lon="4.42289">
        <ele>405</ele>
        <time>2020-05-31T04:06:45Z</time>
      </trkpt>
      <trkpt lat="45.89567" lon="4.42517">
        <ele>401</ele>
        <time>2020-05-31T04:07:15Z</time>
      </trkpt>
      <trkpt lat="45.89585" lon="4.42625">
        <ele>394</ele>
        <time>2020-05-31T04:07:29Z</time>
      </trkpt>
      <trkpt lat="45.89569" lon="4.42913">
        <ele>389</ele>
        <time>2020-05-31T04:08:04Z</time>
      </trkpt>
      <trkpt lat="45.89508" lon="4.42907">
        <ele>390</ele>
        <time>2020-05-31T04:08:15Z</time>
      </trkpt>
      <trkpt lat="45.89493" lon="4.43045">
        <ele>393</ele>
        <time>2020-05-31T04:08:33Z</time>
      </trkpt>
      <trkpt lat="45.8949" lon="4.4311">
        <ele>395</ele>
        <time>2020-05-31T04:08:41Z</time>
      </trkpt>
      <trkpt lat="45.89507" lon="4.43168">
        <ele>390</ele>
        <time>2020-05-31T04:08:48Z</time>
      </trkpt>
      <trkpt lat="45.89512" lon="4.43194">
        <ele>390</ele>
        <time>2020-05-31T04:08:52Z</time>
      </trkpt>
      <trkpt lat="45.89517" lon="4.43227">
        <ele>390</ele>
        <time>2020-05-31T04:08:56Z</time>
      </trkpt>
      <trkpt lat="45.89516" lon="4.43247">
        <ele>390</ele>
        <time>2020-05-31T04:08:58Z</time>
      </trkpt>
      <trkpt lat="45.8948" lon="4.43356">
        <ele>390</ele>
        <time>2020-05-31T04:09:13Z</time>
      </trkpt>
      <trkpt lat="45.89413" lon="4.43512">
        <ele>386</ele>
        <time>2020-05-31T04:09:36Z</time>
      </trkpt>
      <trkpt lat="45.8939" lon="4.43582">
        <ele>387</ele>
        <time>2020-05-31T04:09:46Z</time>
      </trkpt>
      <trkpt lat="45.89355" lon="4.43726">
        <ele>384</ele>
        <time>2020-05-31T04:10:05Z</time>
      </trkpt>
      <trkpt lat="45.89341" lon="4.43765">
        <ele>383</ele>
        <time>2020-05-31T04:10:10Z</time>
      </trkpt>
      <trkpt lat="45.89334" lon="4.43779">
        <ele>383</ele>
        <time>2020-05-31T04:10:12Z</time>
      </trkpt>
      <trkpt lat="45.89305" lon="4.43869">
        <ele>384</ele>
        <time>2020-05-31T04:10:24Z</time>
      </trkpt>
      <trkpt lat="45.8925" lon="4.44019">
        <ele>381</ele>
        <time>2020-05-31T04:10:45Z</time>
      </trkpt>
      <trkpt lat="45.89243" lon="4.44044">
        <ele>381</ele>
        <time>2020-05-31T04:10:49Z</time>
      </trkpt>
      <trkpt lat="45.89242" lon="4.44052">
        <ele>380</ele>
        <time>2020-05-31T04:10:50Z</time>
      </trkpt>
      <trkpt lat="45.89248" lon="4.44123">
        <ele>382</ele>
        <time>2020-05-31T04:10:59Z</time>
      </trkpt>
      <trkpt lat="45.89244" lon="4.44137">
        <ele>382</ele>
        <time>2020-05-31T04:11:00Z</time>
      </trkpt>
      <trkpt lat="45.89237" lon="4.44152">
        <ele>383</ele>
        <time>2020-05-31T04:11:03Z</time>
      </trkpt>
      <trkpt lat="45.89235" lon="4.44162">
        <ele>383</ele>
        <time>2020-05-31T04:11:04Z</time>
      </trkpt>
      <trkpt lat="45.8909" lon="4.44322">
        <ele>380</ele>
        <time>2020-05-31T04:11:37Z</time>
      </trkpt>
      <trkpt lat="45.89079" lon="4.44342">
        <ele>379</ele>
        <time>2020-05-31T04:11:40Z</time>
      </trkpt>
      <trkpt lat="45.89068" lon="4.44385">
        <ele>382</ele>
        <time>2020-05-31T04:11:45Z</time>
      </trkpt>
      <trkpt lat="45.89052" lon="4.44734">
        <ele>386</ele>
        <time>2020-05-31T04:12:29Z</time>
      </trkpt>
      <trkpt lat="45.8905" lon="4.44894">
        <ele>383</ele>
        <time>2020-05-31T04:12:48Z</time>
      </trkpt>
      <trkpt lat="45.89027" lon="4.4525">
        <ele>377</ele>
        <time>2020-05-31T04:13:33Z</time>
      </trkpt>
      <trkpt lat="45.8901" lon="4.45347">
        <ele>376</ele>
        <time>2020-05-31T04:13:45Z</time>
      </trkpt>
      <trkpt lat="45.8899" lon="4.45427">
        <ele>375</ele>
        <time>2020-05-31T04:13:56Z</time>
      </trkpt>
      <trkpt lat="45.88962" lon="4.4551">
        <ele>373</ele>
        <time>2020-05-31T04:14:07Z</time>
      </trkpt>
      <trkpt lat="45.88914" lon="4.45633">
        <ele>369</ele>
        <time>2020-05-31T04:14:25Z</time>
      </trkpt>
      <trkpt lat="45.88926" lon="4.45642">
        <ele>373</ele>
        <time>2020-05-31T04:14:27Z</time>
      </trkpt>
      <trkpt lat="45.88928" lon="4.45647">
        <ele>374</ele>
        <time>2020-05-31T04:14:28Z</time>
      </trkpt>
      <trkpt lat="45.88926" lon="4.4566">
        <ele>374</ele>
        <time>2020-05-31T04:14:29Z</time>
      </trkpt>
      <trkpt lat="45.88899" lon="4.45746">
        <ele>376</ele>
        <time>2020-05-31T04:14:41Z</time>
      </trkpt>
      <trkpt lat="45.88897" lon="4.45769">
        <ele>377</ele>
        <time>2020-05-31T04:14:44Z</time>
      </trkpt>
      <trkpt lat="45.88881" lon="4.45869">
        <ele>382</ele>
        <time>2020-05-31T04:14:57Z</time>
      </trkpt>
      <trkpt lat="45.88856" lon="4.45984">
        <ele>385</ele>
        <time>2020-05-31T04:15:12Z</time>
      </trkpt>
      <trkpt lat="45.88841" lon="4.46218">
        <ele>396</ele>
        <time>2020-05-31T04:15:41Z</time>
      </trkpt>
      <trkpt lat="45.88823" lon="4.46305">
        <ele>394</ele>
        <time>2020-05-31T04:15:52Z</time>
      </trkpt>
      <trkpt lat="45.8883" lon="4.46337">
        <ele>397</ele>
        <time>2020-05-31T04:15:56Z</time>
      </trkpt>
      <trkpt lat="45.88846" lon="4.46364">
        <ele>399</ele>
        <time>2020-05-31T04:16:00Z</time>
      </trkpt>
      <trkpt lat="45.88871" lon="4.46379">
        <ele>403</ele>
        <time>2020-05-31T04:16:05Z</time>
      </trkpt>
      <trkpt lat="45.88916" lon="4.46392">
        <ele>410</ele>
        <time>2020-05-31T04:16:13Z</time>
      </trkpt>
      <trkpt lat="45.88991" lon="4.46458">
        <ele>417</ele>
        <time>2020-05-31T04:16:29Z</time>
      </trkpt>
      <trkpt lat="45.89036" lon="4.46491">
        <ele>418</ele>
        <time>2020-05-31T04:16:38Z</time>
      </trkpt>
      <trkpt lat="45.89088" lon="4.4651">
        <ele>423</ele>
        <time>2020-05-31T04:16:48Z</time>
      </trkpt>
      <trkpt lat="45.89142" lon="4.46557">
        <ele>424</ele>
        <time>2020-05-31T04:16:59Z</time>
      </trkpt>
      <trkpt lat="45.89189" lon="4.4658">
        <ele>426</ele>
        <time>2020-05-31T04:17:08Z</time>
      </trkpt>
      <trkpt lat="45.89253" lon="4.46581">
        <ele>431</ele>
        <time>2020-05-31T04:17:19Z</time>
      </trkpt>
      <trkpt lat="45.89296" lon="4.46565">
        <ele>432</ele>
        <time>2020-05-31T04:17:27Z</time>
      </trkpt>
      <trkpt lat="45.89359" lon="4.46532">
        <ele>434</ele>
        <time>2020-05-31T04:17:39Z</time>
      </trkpt>
      <trkpt lat="45.89372" lon="4.46532">
        <ele>433</ele>
        <time>2020-05-31T04:17:41Z</time>
      </trkpt>
      <trkpt lat="45.89378" lon="4.46536">
        <ele>433</ele>
        <time>2020-05-31T04:17:42Z</time>
      </trkpt>
      <trkpt lat="45.89382" lon="4.46545">
        <ele>433</ele>
        <time>2020-05-31T04:17:44Z</time>
      </trkpt>
      <trkpt lat="45.89384" lon="4.46574">
        <ele>432</ele>
        <time>2020-05-31T04:17:47Z</time>
      </trkpt>
      <trkpt lat="45.89373" lon="4.46607">
        <ele>431</ele>
        <time>2020-05-31T04:17:52Z</time>
      </trkpt>
      <trkpt lat="45.89351" lon="4.4668">
        <ele>427</ele>
        <time>2020-05-31T04:18:02Z</time>
      </trkpt>
      <trkpt lat="45.89352" lon="4.46715">
        <ele>430</ele>
        <time>2020-05-31T04:18:06Z</time>
      </trkpt>
      <trkpt lat="45.89374" lon="4.46805">
        <ele>442</ele>
        <time>2020-05-31T04:18:18Z</time>
      </trkpt>
      <trkpt lat="45.89375" lon="4.46825">
        <ele>444</ele>
        <time>2020-05-31T04:18:20Z</time>
      </trkpt>
      <trkpt lat="45.89366" lon="4.46836">
        <ele>444</ele>
        <time>2020-05-31T04:18:22Z</time>
      </trkpt>
      <trkpt lat="45.8935" lon="4.46839">
        <ele>442</ele>
        <time>2020-05-31T04:18:25Z</time>
      </trkpt>
      <trkpt lat="45.89263" lon="4.46813">
        <ele>443</ele>
        <time>2020-05-31T04:18:41Z</time>
      </trkpt>
      <trkpt lat="45.89218" lon="4.46819">
        <ele>446</ele>
        <time>2020-05-31T04:18:49Z</time>
      </trkpt>
      <trkpt lat="45.89001" lon="4.46902">
        <ele>456</ele>
        <time>2020-05-31T04:19:29Z</time>
      </trkpt>
      <trkpt lat="45.88971" lon="4.46922">
        <ele>459</ele>
        <time>2020-05-31T04:19:35Z</time>
      </trkpt>
      <trkpt lat="45.88942" lon="4.46952">
        <ele>462</ele>
        <time>2020-05-31T04:19:41Z</time>
      </trkpt>
      <trkpt lat="45.88924" lon="4.46982">
        <ele>465</ele>
        <time>2020-05-31T04:19:46Z</time>
      </trkpt>
      <trkpt lat="45.88918" lon="4.46999">
        <ele>466</ele>
        <time>2020-05-31T04:19:49Z</time>
      </trkpt>
      <trkpt lat="45.88912" lon="4.47029">
        <ele>466</ele>
        <time>2020-05-31T04:19:52Z</time>
      </trkpt>
      <trkpt lat="45.88925" lon="4.47175">
        <ele>468</ele>
        <time>2020-05-31T04:20:11Z</time>
      </trkpt>
      <trkpt lat="45.88933" lon="4.47246">
        <ele>466</ele>
        <time>2020-05-31T04:20:20Z</time>
      </trkpt>
      <trkpt lat="45.88943" lon="4.47286">
        <ele>464</ele>
        <time>2020-05-31T04:20:25Z</time>
      </trkpt>
      <trkpt lat="45.88979" lon="4.4735">
        <ele>465</ele>
        <time>2020-05-31T04:20:35Z</time>
      </trkpt>
      <trkpt lat="45.88985" lon="4.47363">
        <ele>465</ele>
        <time>2020-05-31T04:20:37Z</time>
      </trkpt>
      <trkpt lat="45.8899" lon="4.47397">
        <ele>463</ele>
        <time>2020-05-31T04:20:41Z</time>
      </trkpt>
      <trkpt lat="45.88993" lon="4.47431">
        <ele>460</ele>
        <time>2020-05-31T04:20:46Z</time>
      </trkpt>
      <trkpt lat="45.89024" lon="4.47504">
        <ele>461</ele>
        <time>2020-05-31T04:20:56Z</time>
      </trkpt>
      <trkpt lat="45.89033" lon="4.4753">
        <ele>462</ele>
        <time>2020-05-31T04:21:00Z</time>
      </trkpt>
      <trkpt lat="45.89026" lon="4.47551">
        <ele>461</ele>
        <time>2020-05-31T04:21:03Z</time>
      </trkpt>
      <trkpt lat="45.89011" lon="4.47564">
        <ele>460</ele>
        <time>2020-05-31T04:21:06Z</time>
      </trkpt>
      <trkpt lat="45.88936" lon="4.47608">
        <ele>458</ele>
        <time>2020-05-31T04:21:20Z</time>
      </trkpt>
      <trkpt lat="45.88819" lon="4.47692">
        <ele>466</ele>
        <time>2020-05-31T04:21:43Z</time>
      </trkpt>
      <trkpt lat="45.88807" lon="4.47715">
        <ele>467</ele>
        <time>2020-05-31T04:21:47Z</time>
      </trkpt>
      <trkpt lat="45.88806" lon="4.47737">
        <ele>468</ele>
        <time>2020-05-31T04:21:50Z</time>
      </trkpt>
      <trkpt lat="45.88793" lon="4.47816">
        <ele>464</ele>
        <time>2020-05-31T04:22:00Z</time>
      </trkpt>
      <trkpt lat="45.88793" lon="4.47849">
        <ele>461</ele>
        <time>2020-05-31T04:22:04Z</time>
      </trkpt>
      <trkpt lat="45.88801" lon="4.479">
        <ele>458</ele>
        <time>2020-05-31T04:22:10Z</time>
      </trkpt>
      <trkpt lat="45.88799" lon="4.47916">
        <ele>457</ele>
        <time>2020-05-31T04:22:12Z</time>
      </trkpt>
      <trkpt lat="45.88784" lon="4.47954">
        <ele>458</ele>
        <time>2020-05-31T04:22:18Z</time>
      </trkpt>
      <trkpt lat="45.88742" lon="4.47979">
        <ele>455</ele>
        <time>2020-05-31T04:22:26Z</time>
      </trkpt>
      <trkpt lat="45.8868" lon="4.48007">
        <ele>450</ele>
        <time>2020-05-31T04:22:37Z</time>
      </trkpt>
      <trkpt lat="45.88629" lon="4.48024">
        <ele>447</ele>
        <time>2020-05-31T04:22:47Z</time>
      </trkpt>
      <trkpt lat="45.88596" lon="4.48044">
        <ele>445</ele>
        <time>2020-05-31T04:22:53Z</time>
      </trkpt>
      <trkpt lat="45.88571" lon="4.48068">
        <ele>445</ele>
        <time>2020-05-31T04:22:58Z</time>
      </trkpt>
      <trkpt lat="45.8855" lon="4.48093">
        <ele>444</ele>
        <time>2020-05-31T04:23:03Z</time>
      </trkpt>
      <trkpt lat="45.8853" lon="4.48111">
        <ele>441</ele>
        <time>2020-05-31T04:23:07Z</time>
      </trkpt>
      <trkpt lat="45.88493" lon="4.48139">
        <ele>436</ele>
        <time>2020-05-31T04:23:15Z</time>
      </trkpt>
      <trkpt lat="45.88397" lon="4.4819">
        <ele>429</ele>
        <time>2020-05-31T04:23:33Z</time>
      </trkpt>
      <trkpt lat="45.88427" lon="4.48285">
        <ele>428</ele>
        <time>2020-05-31T04:23:46Z</time>
      </trkpt>
      <trkpt lat="45.88445" lon="4.48326">
        <ele>426</ele>
        <time>2020-05-31T04:23:52Z</time>
      </trkpt>
      <trkpt lat="45.88488" lon="4.48391">
        <ele>424</ele>
        <time>2020-05-31T04:24:03Z</time>
      </trkpt>
      <trkpt lat="45.88513" lon="4.48451">
        <ele>425</ele>
        <time>2020-05-31T04:24:12Z</time>
      </trkpt>
      <trkpt lat="45.88539" lon="4.48546">
        <ele>427</ele>
        <time>2020-05-31T04:24:24Z</time>
      </trkpt>
      <trkpt lat="45.88557" lon="4.48628">
        <ele>428</ele>
        <time>2020-05-31T04:24:35Z</time>
      </trkpt>
      <trkpt lat="45.88563" lon="4.48648">
        <ele>428</ele>
        <time>2020-05-31T04:24:38Z</time>
      </trkpt>
      <trkpt lat="45.88539" lon="4.48689">
        <ele>424</ele>
        <time>2020-05-31T04:24:44Z</time>
      </trkpt>
      <trkpt lat="45.88526" lon="4.48704">
        <ele>422</ele>
        <time>2020-05-31T04:24:47Z</time>
      </trkpt>
    </trkseg>
  </trk>
</gpx>